<?xml version="1.0" encoding="UTF-8" standalone="no" ?>
<gpx xmlns="http://www.topografix.com/GPX/1/1" xmlns:xsi="http://www.w3.org/2001/XMLSchema-instance" xsi:schemaLocation="http://www.topografix.com/GPX/1/1 http://www.topografix.com/GPX/1/1/gpx.xsd" version="1.1" creator="VisuGPX - https://www.visugpx.com">
  <metadata>
    <name>Boucle depuis Bièvres</name>
    <desc><![CDATA[Circuit des batteries de Bièvres, au départ de Bièvres.]]></desc>
  </metadata>
  <trk>
    <name><![CDATA[Bievres AR]]></name>
    <desc><![CDATA[Trace AlpineQuest 08/02/2022 08:04:26]]></desc>
    <extensions>
      <line xmlns="http://www.topografix.com/GPX/gpx_style/0/2">
        <color>0000FF</color>
        <width>4</width>
      </line>
    </extensions>
    <trkseg>
      <trkpt lat="48.75124" lon="2.21543">
        <ele>81.8</ele>
        <time>2022-02-08T07:04:26Z</time>
      </trkpt>
      <trkpt lat="48.75128" lon="2.21574">
        <ele>81</ele>
        <time>2022-02-08T07:04:32Z</time>
      </trkpt>
      <trkpt lat="48.75135" lon="2.21578">
        <ele>80.6</ele>
        <time>2022-02-08T07:04:44Z</time>
      </trkpt>
      <trkpt lat="48.75142" lon="2.2158">
        <ele>80.2</ele>
        <time>2022-02-08T07:04:50Z</time>
      </trkpt>
      <trkpt lat="48.75149" lon="2.21576">
        <ele>80</ele>
        <time>2022-02-08T07:04:57Z</time>
      </trkpt>
      <trkpt lat="48.75157" lon="2.21572">
        <ele>79.6</ele>
        <time>2022-02-08T07:05:02Z</time>
      </trkpt>
      <trkpt lat="48.75165" lon="2.21577">
        <ele>79.2</ele>
        <time>2022-02-08T07:05:08Z</time>
      </trkpt>
      <trkpt lat="48.7517" lon="2.21585">
        <ele>78.9</ele>
        <time>2022-02-08T07:05:14Z</time>
      </trkpt>
      <trkpt lat="48.75178" lon="2.21589">
        <ele>78.5</ele>
        <time>2022-02-08T07:05:23Z</time>
      </trkpt>
      <trkpt lat="48.75185" lon="2.21585">
        <ele>78.5</ele>
        <time>2022-02-08T07:05:28Z</time>
      </trkpt>
      <trkpt lat="48.7519" lon="2.21592">
        <ele>78.2</ele>
        <time>2022-02-08T07:05:35Z</time>
      </trkpt>
      <trkpt lat="48.75197" lon="2.21594">
        <ele>78</ele>
        <time>2022-02-08T07:05:41Z</time>
      </trkpt>
      <trkpt lat="48.75203" lon="2.216">
        <ele>77.7</ele>
        <time>2022-02-08T07:05:46Z</time>
      </trkpt>
      <trkpt lat="48.75211" lon="2.21607">
        <ele>77.4</ele>
        <time>2022-02-08T07:05:49Z</time>
      </trkpt>
      <trkpt lat="48.75218" lon="2.21613">
        <ele>77.1</ele>
        <time>2022-02-08T07:05:55Z</time>
      </trkpt>
      <trkpt lat="48.75225" lon="2.21616">
        <ele>77</ele>
        <time>2022-02-08T07:06:03Z</time>
      </trkpt>
      <trkpt lat="48.75232" lon="2.21619">
        <ele>76.8</ele>
        <time>2022-02-08T07:06:10Z</time>
      </trkpt>
      <trkpt lat="48.75235" lon="2.2163">
        <ele>76.6</ele>
        <time>2022-02-08T07:06:15Z</time>
      </trkpt>
      <trkpt lat="48.75239" lon="2.21638">
        <ele>76.4</ele>
        <time>2022-02-08T07:06:22Z</time>
      </trkpt>
      <trkpt lat="48.75245" lon="2.21643">
        <ele>76.3</ele>
        <time>2022-02-08T07:06:28Z</time>
      </trkpt>
      <trkpt lat="48.75241" lon="2.21651">
        <ele>76.2</ele>
        <time>2022-02-08T07:06:34Z</time>
      </trkpt>
      <trkpt lat="48.75237" lon="2.21661">
        <ele>76.1</ele>
        <time>2022-02-08T07:06:39Z</time>
      </trkpt>
      <trkpt lat="48.75234" lon="2.2167">
        <ele>76</ele>
        <time>2022-02-08T07:06:44Z</time>
      </trkpt>
      <trkpt lat="48.75229" lon="2.2168">
        <ele>76.1</ele>
        <time>2022-02-08T07:06:49Z</time>
      </trkpt>
      <trkpt lat="48.75223" lon="2.21688">
        <ele>76.1</ele>
        <time>2022-02-08T07:06:55Z</time>
      </trkpt>
      <trkpt lat="48.75219" lon="2.21699">
        <ele>76.1</ele>
        <time>2022-02-08T07:07:01Z</time>
      </trkpt>
      <trkpt lat="48.75219" lon="2.21709">
        <ele>76.1</ele>
        <time>2022-02-08T07:07:15Z</time>
      </trkpt>
      <trkpt lat="48.75225" lon="2.21718">
        <ele>76.2</ele>
        <time>2022-02-08T07:07:21Z</time>
      </trkpt>
      <trkpt lat="48.7523" lon="2.21725">
        <ele>76.4</ele>
        <time>2022-02-08T07:07:26Z</time>
      </trkpt>
      <trkpt lat="48.75235" lon="2.21732">
        <ele>76.5</ele>
        <time>2022-02-08T07:07:31Z</time>
      </trkpt>
      <trkpt lat="48.75241" lon="2.21742">
        <ele>76.7</ele>
        <time>2022-02-08T07:07:37Z</time>
      </trkpt>
      <trkpt lat="48.75246" lon="2.21749">
        <ele>76.9</ele>
        <time>2022-02-08T07:07:45Z</time>
      </trkpt>
      <trkpt lat="48.75253" lon="2.21755">
        <ele>77</ele>
        <time>2022-02-08T07:07:50Z</time>
      </trkpt>
      <trkpt lat="48.75258" lon="2.21761">
        <ele>77.1</ele>
        <time>2022-02-08T07:07:56Z</time>
      </trkpt>
      <trkpt lat="48.75263" lon="2.21768">
        <ele>77.2</ele>
        <time>2022-02-08T07:08:05Z</time>
      </trkpt>
      <trkpt lat="48.75267" lon="2.21777">
        <ele>77.2</ele>
        <time>2022-02-08T07:08:09Z</time>
      </trkpt>
      <trkpt lat="48.75271" lon="2.21787">
        <ele>77.3</ele>
        <time>2022-02-08T07:08:12Z</time>
      </trkpt>
      <trkpt lat="48.75275" lon="2.21801">
        <ele>77.4</ele>
        <time>2022-02-08T07:08:18Z</time>
      </trkpt>
      <trkpt lat="48.75275" lon="2.21811">
        <ele>77.3</ele>
        <time>2022-02-08T07:08:25Z</time>
      </trkpt>
      <trkpt lat="48.75269" lon="2.21817">
        <ele>77</ele>
        <time>2022-02-08T07:08:31Z</time>
      </trkpt>
      <trkpt lat="48.75264" lon="2.21825">
        <ele>76.7</ele>
        <time>2022-02-08T07:08:38Z</time>
      </trkpt>
      <trkpt lat="48.75258" lon="2.21835">
        <ele>76.4</ele>
        <time>2022-02-08T07:08:43Z</time>
      </trkpt>
      <trkpt lat="48.75256" lon="2.21845">
        <ele>76.4</ele>
        <time>2022-02-08T07:08:52Z</time>
      </trkpt>
      <trkpt lat="48.75251" lon="2.21853">
        <ele>76.3</ele>
        <time>2022-02-08T07:08:57Z</time>
      </trkpt>
      <trkpt lat="48.75245" lon="2.21859">
        <ele>76.3</ele>
        <time>2022-02-08T07:09:04Z</time>
      </trkpt>
      <trkpt lat="48.7524" lon="2.21866">
        <ele>76.3</ele>
        <time>2022-02-08T07:09:12Z</time>
      </trkpt>
      <trkpt lat="48.75234" lon="2.2187">
        <ele>76.3</ele>
        <time>2022-02-08T07:09:20Z</time>
      </trkpt>
      <trkpt lat="48.75227" lon="2.21872">
        <ele>76.3</ele>
        <time>2022-02-08T07:09:26Z</time>
      </trkpt>
      <trkpt lat="48.75221" lon="2.2188">
        <ele>76.4</ele>
        <time>2022-02-08T07:09:34Z</time>
      </trkpt>
      <trkpt lat="48.75216" lon="2.21889">
        <ele>76.5</ele>
        <time>2022-02-08T07:09:39Z</time>
      </trkpt>
      <trkpt lat="48.75215" lon="2.219">
        <ele>76.7</ele>
        <time>2022-02-08T07:09:45Z</time>
      </trkpt>
      <trkpt lat="48.75213" lon="2.2191">
        <ele>76.9</ele>
        <time>2022-02-08T07:09:51Z</time>
      </trkpt>
      <trkpt lat="48.75204" lon="2.21912">
        <ele>76.9</ele>
        <time>2022-02-08T07:10:11Z</time>
      </trkpt>
      <trkpt lat="48.75198" lon="2.21918">
        <ele>77</ele>
        <time>2022-02-08T07:10:17Z</time>
      </trkpt>
      <trkpt lat="48.75193" lon="2.21924">
        <ele>77</ele>
        <time>2022-02-08T07:10:22Z</time>
      </trkpt>
      <trkpt lat="48.75188" lon="2.21932">
        <ele>77</ele>
        <time>2022-02-08T07:10:27Z</time>
      </trkpt>
      <trkpt lat="48.75185" lon="2.21941">
        <ele>77</ele>
        <time>2022-02-08T07:10:32Z</time>
      </trkpt>
      <trkpt lat="48.75179" lon="2.21951">
        <ele>77</ele>
        <time>2022-02-08T07:10:38Z</time>
      </trkpt>
      <trkpt lat="48.75173" lon="2.21959">
        <ele>77</ele>
        <time>2022-02-08T07:10:44Z</time>
      </trkpt>
      <trkpt lat="48.75167" lon="2.21965">
        <ele>77</ele>
        <time>2022-02-08T07:10:50Z</time>
      </trkpt>
      <trkpt lat="48.75162" lon="2.21972">
        <ele>76.9</ele>
        <time>2022-02-08T07:11:02Z</time>
      </trkpt>
      <trkpt lat="48.75156" lon="2.21976">
        <ele>76.8</ele>
        <time>2022-02-08T07:11:14Z</time>
      </trkpt>
      <trkpt lat="48.75149" lon="2.21979">
        <ele>76.6</ele>
        <time>2022-02-08T07:11:21Z</time>
      </trkpt>
      <trkpt lat="48.75142" lon="2.21985">
        <ele>76.5</ele>
        <time>2022-02-08T07:11:27Z</time>
      </trkpt>
      <trkpt lat="48.75135" lon="2.21991">
        <ele>76.3</ele>
        <time>2022-02-08T07:11:32Z</time>
      </trkpt>
      <trkpt lat="48.75129" lon="2.21997">
        <ele>76.1</ele>
        <time>2022-02-08T07:11:41Z</time>
      </trkpt>
      <trkpt lat="48.75122" lon="2.22001">
        <ele>75.9</ele>
        <time>2022-02-08T07:11:45Z</time>
      </trkpt>
      <trkpt lat="48.75112" lon="2.22003">
        <ele>75.7</ele>
        <time>2022-02-08T07:11:50Z</time>
      </trkpt>
      <trkpt lat="48.75102" lon="2.22006">
        <ele>75.6</ele>
        <time>2022-02-08T07:11:56Z</time>
      </trkpt>
      <trkpt lat="48.75095" lon="2.22008">
        <ele>75.4</ele>
        <time>2022-02-08T07:12:02Z</time>
      </trkpt>
      <trkpt lat="48.75088" lon="2.22007">
        <ele>75.3</ele>
        <time>2022-02-08T07:12:10Z</time>
      </trkpt>
      <trkpt lat="48.75081" lon="2.22005">
        <ele>75.2</ele>
        <time>2022-02-08T07:12:15Z</time>
      </trkpt>
      <trkpt lat="48.75074" lon="2.22005">
        <ele>75.6</ele>
        <time>2022-02-08T07:12:28Z</time>
      </trkpt>
      <trkpt lat="48.75075" lon="2.22015">
        <ele>75.8</ele>
        <time>2022-02-08T07:13:19Z</time>
      </trkpt>
      <trkpt lat="48.75085" lon="2.22029">
        <ele>75.7</ele>
        <time>2022-02-08T07:13:58Z</time>
      </trkpt>
      <trkpt lat="48.75091" lon="2.22037">
        <ele>76</ele>
        <time>2022-02-08T07:14:14Z</time>
      </trkpt>
      <trkpt lat="48.75096" lon="2.22046">
        <ele>76.2</ele>
        <time>2022-02-08T07:14:24Z</time>
      </trkpt>
      <trkpt lat="48.75097" lon="2.22058">
        <ele>76.5</ele>
        <time>2022-02-08T07:14:47Z</time>
      </trkpt>
      <trkpt lat="48.75099" lon="2.22069">
        <ele>76.7</ele>
        <time>2022-02-08T07:15:37Z</time>
      </trkpt>
      <trkpt lat="48.75099" lon="2.22078">
        <ele>76.9</ele>
        <time>2022-02-08T07:15:48Z</time>
      </trkpt>
      <trkpt lat="48.75105" lon="2.22084">
        <ele>77</ele>
        <time>2022-02-08T07:17:03Z</time>
      </trkpt>
      <trkpt lat="48.75102" lon="2.22074">
        <ele>76.8</ele>
        <time>2022-02-08T07:17:10Z</time>
      </trkpt>
      <trkpt lat="48.75101" lon="2.22064">
        <ele>76.6</ele>
        <time>2022-02-08T07:17:22Z</time>
      </trkpt>
      <trkpt lat="48.75097" lon="2.22054">
        <ele>76.4</ele>
        <time>2022-02-08T07:17:28Z</time>
      </trkpt>
      <trkpt lat="48.75095" lon="2.22044">
        <ele>76.2</ele>
        <time>2022-02-08T07:17:35Z</time>
      </trkpt>
      <trkpt lat="48.75095" lon="2.22034">
        <ele>76</ele>
        <time>2022-02-08T07:17:44Z</time>
      </trkpt>
      <trkpt lat="48.75092" lon="2.22024">
        <ele>75.7</ele>
        <time>2022-02-08T07:17:54Z</time>
      </trkpt>
      <trkpt lat="48.75087" lon="2.22017">
        <ele>75.5</ele>
        <time>2022-02-08T07:18:03Z</time>
      </trkpt>
      <trkpt lat="48.7508" lon="2.22012">
        <ele>75.5</ele>
        <time>2022-02-08T07:18:12Z</time>
      </trkpt>
      <trkpt lat="48.75074" lon="2.22008">
        <ele>75.7</ele>
        <time>2022-02-08T07:18:17Z</time>
      </trkpt>
      <trkpt lat="48.75066" lon="2.22005">
        <ele>76.1</ele>
        <time>2022-02-08T07:18:23Z</time>
      </trkpt>
      <trkpt lat="48.75059" lon="2.22006">
        <ele>76.5</ele>
        <time>2022-02-08T07:18:29Z</time>
      </trkpt>
      <trkpt lat="48.75051" lon="2.22006">
        <ele>76.9</ele>
        <time>2022-02-08T07:18:36Z</time>
      </trkpt>
      <trkpt lat="48.75045" lon="2.22009">
        <ele>77.2</ele>
        <time>2022-02-08T07:18:43Z</time>
      </trkpt>
      <trkpt lat="48.75039" lon="2.22014">
        <ele>77.5</ele>
        <time>2022-02-08T07:18:49Z</time>
      </trkpt>
      <trkpt lat="48.75033" lon="2.22017">
        <ele>77.7</ele>
        <time>2022-02-08T07:19:04Z</time>
      </trkpt>
      <trkpt lat="48.75025" lon="2.22022">
        <ele>77.9</ele>
        <time>2022-02-08T07:19:10Z</time>
      </trkpt>
      <trkpt lat="48.75018" lon="2.22026">
        <ele>78.1</ele>
        <time>2022-02-08T07:19:15Z</time>
      </trkpt>
      <trkpt lat="48.7501" lon="2.22029">
        <ele>78.3</ele>
        <time>2022-02-08T07:19:22Z</time>
      </trkpt>
      <trkpt lat="48.75004" lon="2.22029">
        <ele>78.5</ele>
        <time>2022-02-08T07:19:34Z</time>
      </trkpt>
      <trkpt lat="48.74997" lon="2.2203">
        <ele>78.7</ele>
        <time>2022-02-08T07:19:41Z</time>
      </trkpt>
      <trkpt lat="48.74992" lon="2.2202">
        <ele>79.3</ele>
        <time>2022-02-08T07:19:51Z</time>
      </trkpt>
      <trkpt lat="48.74987" lon="2.2201">
        <ele>80</ele>
        <time>2022-02-08T07:19:56Z</time>
      </trkpt>
      <trkpt lat="48.74981" lon="2.22002">
        <ele>80.6</ele>
        <time>2022-02-08T07:20:05Z</time>
      </trkpt>
      <trkpt lat="48.74975" lon="2.21995">
        <ele>81.1</ele>
        <time>2022-02-08T07:20:08Z</time>
      </trkpt>
      <trkpt lat="48.7497" lon="2.22004">
        <ele>80.9</ele>
        <time>2022-02-08T07:20:17Z</time>
      </trkpt>
      <trkpt lat="48.74967" lon="2.22015">
        <ele>80.4</ele>
        <time>2022-02-08T07:20:22Z</time>
      </trkpt>
      <trkpt lat="48.74965" lon="2.22026">
        <ele>79.9</ele>
        <time>2022-02-08T07:20:26Z</time>
      </trkpt>
      <trkpt lat="48.74961" lon="2.22038">
        <ele>79.4</ele>
        <time>2022-02-08T07:20:31Z</time>
      </trkpt>
      <trkpt lat="48.74956" lon="2.22046">
        <ele>79.1</ele>
        <time>2022-02-08T07:20:39Z</time>
      </trkpt>
      <trkpt lat="48.7495" lon="2.2205">
        <ele>79</ele>
        <time>2022-02-08T07:20:44Z</time>
      </trkpt>
      <trkpt lat="48.7494" lon="2.22048">
        <ele>79.4</ele>
        <time>2022-02-08T07:20:49Z</time>
      </trkpt>
      <trkpt lat="48.74933" lon="2.22048">
        <ele>79.6</ele>
        <time>2022-02-08T07:20:55Z</time>
      </trkpt>
      <trkpt lat="48.74927" lon="2.22055">
        <ele>79.4</ele>
        <time>2022-02-08T07:21:01Z</time>
      </trkpt>
      <trkpt lat="48.74925" lon="2.22073">
        <ele>78.4</ele>
        <time>2022-02-08T07:21:06Z</time>
      </trkpt>
      <trkpt lat="48.74925" lon="2.22087">
        <ele>77.7</ele>
        <time>2022-02-08T07:21:12Z</time>
      </trkpt>
      <trkpt lat="48.74923" lon="2.22106">
        <ele>77.3</ele>
        <time>2022-02-08T07:21:18Z</time>
      </trkpt>
      <trkpt lat="48.74921" lon="2.22118">
        <ele>77</ele>
        <time>2022-02-08T07:21:24Z</time>
      </trkpt>
      <trkpt lat="48.74915" lon="2.22124">
        <ele>77</ele>
        <time>2022-02-08T07:22:00Z</time>
      </trkpt>
      <trkpt lat="48.7491" lon="2.22131">
        <ele>76.9</ele>
        <time>2022-02-08T07:22:06Z</time>
      </trkpt>
      <trkpt lat="48.74906" lon="2.22139">
        <ele>76.8</ele>
        <time>2022-02-08T07:22:12Z</time>
      </trkpt>
      <trkpt lat="48.74901" lon="2.22146">
        <ele>76.7</ele>
        <time>2022-02-08T07:22:22Z</time>
      </trkpt>
      <trkpt lat="48.749" lon="2.22157">
        <ele>76.4</ele>
        <time>2022-02-08T07:22:30Z</time>
      </trkpt>
      <trkpt lat="48.74899" lon="2.22167">
        <ele>76.2</ele>
        <time>2022-02-08T07:22:33Z</time>
      </trkpt>
      <trkpt lat="48.74896" lon="2.22187">
        <ele>75.6</ele>
        <time>2022-02-08T07:22:39Z</time>
      </trkpt>
      <trkpt lat="48.7489" lon="2.22205">
        <ele>75.2</ele>
        <time>2022-02-08T07:22:45Z</time>
      </trkpt>
      <trkpt lat="48.74884" lon="2.22218">
        <ele>75</ele>
        <time>2022-02-08T07:22:51Z</time>
      </trkpt>
      <trkpt lat="48.74879" lon="2.22228">
        <ele>74.9</ele>
        <time>2022-02-08T07:22:57Z</time>
      </trkpt>
      <trkpt lat="48.74875" lon="2.22237">
        <ele>74.8</ele>
        <time>2022-02-08T07:23:02Z</time>
      </trkpt>
      <trkpt lat="48.74871" lon="2.2225">
        <ele>74.6</ele>
        <time>2022-02-08T07:23:08Z</time>
      </trkpt>
      <trkpt lat="48.74866" lon="2.22265">
        <ele>74.9</ele>
        <time>2022-02-08T07:23:14Z</time>
      </trkpt>
      <trkpt lat="48.74861" lon="2.22274">
        <ele>75.2</ele>
        <time>2022-02-08T07:23:20Z</time>
      </trkpt>
      <trkpt lat="48.74858" lon="2.22284">
        <ele>75.4</ele>
        <time>2022-02-08T07:23:26Z</time>
      </trkpt>
      <trkpt lat="48.74852" lon="2.22292">
        <ele>75.7</ele>
        <time>2022-02-08T07:23:32Z</time>
      </trkpt>
      <trkpt lat="48.74849" lon="2.22302">
        <ele>75.9</ele>
        <time>2022-02-08T07:23:39Z</time>
      </trkpt>
      <trkpt lat="48.74848" lon="2.22313">
        <ele>76.1</ele>
        <time>2022-02-08T07:23:47Z</time>
      </trkpt>
      <trkpt lat="48.74843" lon="2.22321">
        <ele>76.4</ele>
        <time>2022-02-08T07:24:05Z</time>
      </trkpt>
      <trkpt lat="48.74839" lon="2.2233">
        <ele>76.7</ele>
        <time>2022-02-08T07:24:12Z</time>
      </trkpt>
      <trkpt lat="48.74834" lon="2.22338">
        <ele>76.9</ele>
        <time>2022-02-08T07:24:17Z</time>
      </trkpt>
      <trkpt lat="48.7483" lon="2.22347">
        <ele>77.1</ele>
        <time>2022-02-08T07:24:22Z</time>
      </trkpt>
      <trkpt lat="48.74827" lon="2.22357">
        <ele>77.2</ele>
        <time>2022-02-08T07:24:25Z</time>
      </trkpt>
      <trkpt lat="48.74825" lon="2.22371">
        <ele>77.1</ele>
        <time>2022-02-08T07:24:31Z</time>
      </trkpt>
      <trkpt lat="48.74826" lon="2.22382">
        <ele>76.9</ele>
        <time>2022-02-08T07:24:37Z</time>
      </trkpt>
      <trkpt lat="48.7483" lon="2.22392">
        <ele>76.5</ele>
        <time>2022-02-08T07:24:44Z</time>
      </trkpt>
      <trkpt lat="48.74834" lon="2.22403">
        <ele>76.1</ele>
        <time>2022-02-08T07:24:49Z</time>
      </trkpt>
      <trkpt lat="48.74839" lon="2.22413">
        <ele>75.9</ele>
        <time>2022-02-08T07:24:55Z</time>
      </trkpt>
      <trkpt lat="48.74845" lon="2.22421">
        <ele>75.6</ele>
        <time>2022-02-08T07:25:01Z</time>
      </trkpt>
      <trkpt lat="48.7485" lon="2.22429">
        <ele>75.2</ele>
        <time>2022-02-08T07:25:07Z</time>
      </trkpt>
      <trkpt lat="48.74855" lon="2.22437">
        <ele>74.8</ele>
        <time>2022-02-08T07:25:13Z</time>
      </trkpt>
      <trkpt lat="48.74858" lon="2.22446">
        <ele>74.5</ele>
        <time>2022-02-08T07:25:31Z</time>
      </trkpt>
      <trkpt lat="48.7486" lon="2.22461">
        <ele>73.9</ele>
        <time>2022-02-08T07:25:37Z</time>
      </trkpt>
      <trkpt lat="48.74862" lon="2.22475">
        <ele>73.5</ele>
        <time>2022-02-08T07:25:43Z</time>
      </trkpt>
      <trkpt lat="48.74864" lon="2.2249">
        <ele>72.9</ele>
        <time>2022-02-08T07:25:49Z</time>
      </trkpt>
      <trkpt lat="48.74863" lon="2.22501">
        <ele>72.6</ele>
        <time>2022-02-08T07:25:55Z</time>
      </trkpt>
      <trkpt lat="48.74868" lon="2.2251">
        <ele>72.5</ele>
        <time>2022-02-08T07:26:05Z</time>
      </trkpt>
      <trkpt lat="48.74874" lon="2.22514">
        <ele>72.4</ele>
        <time>2022-02-08T07:26:13Z</time>
      </trkpt>
      <trkpt lat="48.74881" lon="2.22521">
        <ele>72.3</ele>
        <time>2022-02-08T07:26:19Z</time>
      </trkpt>
      <trkpt lat="48.74886" lon="2.22528">
        <ele>72.2</ele>
        <time>2022-02-08T07:26:41Z</time>
      </trkpt>
      <trkpt lat="48.7488" lon="2.22523">
        <ele>72.3</ele>
        <time>2022-02-08T07:27:21Z</time>
      </trkpt>
      <trkpt lat="48.74873" lon="2.22526">
        <ele>72.4</ele>
        <time>2022-02-08T07:27:26Z</time>
      </trkpt>
      <trkpt lat="48.74867" lon="2.22535">
        <ele>72.3</ele>
        <time>2022-02-08T07:27:31Z</time>
      </trkpt>
      <trkpt lat="48.74862" lon="2.22543">
        <ele>72.3</ele>
        <time>2022-02-08T07:27:36Z</time>
      </trkpt>
      <trkpt lat="48.74856" lon="2.22553">
        <ele>72.3</ele>
        <time>2022-02-08T07:27:42Z</time>
      </trkpt>
      <trkpt lat="48.74851" lon="2.22561">
        <ele>72.2</ele>
        <time>2022-02-08T07:27:48Z</time>
      </trkpt>
      <trkpt lat="48.74845" lon="2.22568">
        <ele>72.2</ele>
        <time>2022-02-08T07:27:54Z</time>
      </trkpt>
      <trkpt lat="48.74838" lon="2.22573">
        <ele>72.1</ele>
        <time>2022-02-08T07:28:00Z</time>
      </trkpt>
      <trkpt lat="48.74832" lon="2.22579">
        <ele>72.1</ele>
        <time>2022-02-08T07:28:06Z</time>
      </trkpt>
      <trkpt lat="48.74825" lon="2.22585">
        <ele>72.2</ele>
        <time>2022-02-08T07:28:12Z</time>
      </trkpt>
      <trkpt lat="48.74818" lon="2.22592">
        <ele>72.3</ele>
        <time>2022-02-08T07:29:31Z</time>
      </trkpt>
      <trkpt lat="48.74814" lon="2.22599">
        <ele>72.4</ele>
        <time>2022-02-08T07:29:40Z</time>
      </trkpt>
      <trkpt lat="48.74808" lon="2.22607">
        <ele>72.5</ele>
        <time>2022-02-08T07:30:01Z</time>
      </trkpt>
      <trkpt lat="48.74802" lon="2.22613">
        <ele>72.6</ele>
        <time>2022-02-08T07:30:06Z</time>
      </trkpt>
      <trkpt lat="48.74794" lon="2.22621">
        <ele>72.7</ele>
        <time>2022-02-08T07:30:12Z</time>
      </trkpt>
      <trkpt lat="48.74785" lon="2.2263">
        <ele>72.8</ele>
        <time>2022-02-08T07:30:18Z</time>
      </trkpt>
      <trkpt lat="48.74779" lon="2.22637">
        <ele>72.9</ele>
        <time>2022-02-08T07:30:24Z</time>
      </trkpt>
      <trkpt lat="48.74771" lon="2.22646">
        <ele>72.9</ele>
        <time>2022-02-08T07:30:30Z</time>
      </trkpt>
      <trkpt lat="48.74766" lon="2.22655">
        <ele>72.9</ele>
        <time>2022-02-08T07:30:36Z</time>
      </trkpt>
      <trkpt lat="48.74758" lon="2.22663">
        <ele>72.9</ele>
        <time>2022-02-08T07:30:42Z</time>
      </trkpt>
      <trkpt lat="48.74752" lon="2.22674">
        <ele>73</ele>
        <time>2022-02-08T07:30:48Z</time>
      </trkpt>
      <trkpt lat="48.74747" lon="2.22683">
        <ele>73</ele>
        <time>2022-02-08T07:30:54Z</time>
      </trkpt>
      <trkpt lat="48.74744" lon="2.22694">
        <ele>73</ele>
        <time>2022-02-08T07:31:00Z</time>
      </trkpt>
      <trkpt lat="48.74742" lon="2.22706">
        <ele>73</ele>
        <time>2022-02-08T07:31:06Z</time>
      </trkpt>
      <trkpt lat="48.74737" lon="2.22717">
        <ele>72.9</ele>
        <time>2022-02-08T07:31:12Z</time>
      </trkpt>
      <trkpt lat="48.74729" lon="2.22725">
        <ele>72.8</ele>
        <time>2022-02-08T07:31:18Z</time>
      </trkpt>
      <trkpt lat="48.74724" lon="2.22733">
        <ele>72.8</ele>
        <time>2022-02-08T07:31:24Z</time>
      </trkpt>
      <trkpt lat="48.74721" lon="2.22745">
        <ele>72.7</ele>
        <time>2022-02-08T07:31:30Z</time>
      </trkpt>
      <trkpt lat="48.74718" lon="2.22756">
        <ele>72.5</ele>
        <time>2022-02-08T07:31:36Z</time>
      </trkpt>
      <trkpt lat="48.74717" lon="2.22766">
        <ele>72.4</ele>
        <time>2022-02-08T07:31:42Z</time>
      </trkpt>
      <trkpt lat="48.74716" lon="2.22778">
        <ele>72.3</ele>
        <time>2022-02-08T07:31:48Z</time>
      </trkpt>
      <trkpt lat="48.74712" lon="2.22789">
        <ele>72.1</ele>
        <time>2022-02-08T07:31:54Z</time>
      </trkpt>
      <trkpt lat="48.74706" lon="2.22801">
        <ele>71.9</ele>
        <time>2022-02-08T07:32:00Z</time>
      </trkpt>
      <trkpt lat="48.74702" lon="2.2281">
        <ele>71.7</ele>
        <time>2022-02-08T07:32:06Z</time>
      </trkpt>
      <trkpt lat="48.74697" lon="2.22818">
        <ele>71.5</ele>
        <time>2022-02-08T07:32:13Z</time>
      </trkpt>
      <trkpt lat="48.74691" lon="2.22825">
        <ele>71.4</ele>
        <time>2022-02-08T07:32:21Z</time>
      </trkpt>
      <trkpt lat="48.74685" lon="2.22831">
        <ele>71.2</ele>
        <time>2022-02-08T07:32:27Z</time>
      </trkpt>
      <trkpt lat="48.74684" lon="2.22841">
        <ele>71.2</ele>
        <time>2022-02-08T07:32:33Z</time>
      </trkpt>
      <trkpt lat="48.74684" lon="2.22851">
        <ele>71.2</ele>
        <time>2022-02-08T07:32:39Z</time>
      </trkpt>
      <trkpt lat="48.74683" lon="2.22862">
        <ele>71.2</ele>
        <time>2022-02-08T07:32:44Z</time>
      </trkpt>
      <trkpt lat="48.74679" lon="2.22872">
        <ele>71.1</ele>
        <time>2022-02-08T07:32:50Z</time>
      </trkpt>
      <trkpt lat="48.74673" lon="2.22877">
        <ele>71.1</ele>
        <time>2022-02-08T07:32:54Z</time>
      </trkpt>
      <trkpt lat="48.74665" lon="2.22881">
        <ele>71</ele>
        <time>2022-02-08T07:33:00Z</time>
      </trkpt>
      <trkpt lat="48.74658" lon="2.22886">
        <ele>70.9</ele>
        <time>2022-02-08T07:33:06Z</time>
      </trkpt>
      <trkpt lat="48.74652" lon="2.22893">
        <ele>70.9</ele>
        <time>2022-02-08T07:33:12Z</time>
      </trkpt>
      <trkpt lat="48.74644" lon="2.22901">
        <ele>70.8</ele>
        <time>2022-02-08T07:33:18Z</time>
      </trkpt>
      <trkpt lat="48.74635" lon="2.22905">
        <ele>70.7</ele>
        <time>2022-02-08T07:33:24Z</time>
      </trkpt>
      <trkpt lat="48.74629" lon="2.22909">
        <ele>70.6</ele>
        <time>2022-02-08T07:33:30Z</time>
      </trkpt>
      <trkpt lat="48.74626" lon="2.22918">
        <ele>70.5</ele>
        <time>2022-02-08T07:33:49Z</time>
      </trkpt>
      <trkpt lat="48.7462" lon="2.22923">
        <ele>70.4</ele>
        <time>2022-02-08T07:33:54Z</time>
      </trkpt>
      <trkpt lat="48.74611" lon="2.22928">
        <ele>70.2</ele>
        <time>2022-02-08T07:33:59Z</time>
      </trkpt>
      <trkpt lat="48.74605" lon="2.22933">
        <ele>70.1</ele>
        <time>2022-02-08T07:34:06Z</time>
      </trkpt>
      <trkpt lat="48.74611" lon="2.22927">
        <ele>70.2</ele>
        <time>2022-02-08T07:35:09Z</time>
      </trkpt>
      <trkpt lat="48.74618" lon="2.22923">
        <ele>70.3</ele>
        <time>2022-02-08T07:35:16Z</time>
      </trkpt>
      <trkpt lat="48.74612" lon="2.22929">
        <ele>70.2</ele>
        <time>2022-02-08T07:35:28Z</time>
      </trkpt>
      <trkpt lat="48.74609" lon="2.22938">
        <ele>70.1</ele>
        <time>2022-02-08T07:35:33Z</time>
      </trkpt>
      <trkpt lat="48.74616" lon="2.22935">
        <ele>70.2</ele>
        <time>2022-02-08T07:35:44Z</time>
      </trkpt>
      <trkpt lat="48.74621" lon="2.22928">
        <ele>70.3</ele>
        <time>2022-02-08T07:35:53Z</time>
      </trkpt>
      <trkpt lat="48.74627" lon="2.22922">
        <ele>70.5</ele>
        <time>2022-02-08T07:36:01Z</time>
      </trkpt>
      <trkpt lat="48.74629" lon="2.22911">
        <ele>70.6</ele>
        <time>2022-02-08T07:36:05Z</time>
      </trkpt>
      <trkpt lat="48.74634" lon="2.22903">
        <ele>70.7</ele>
        <time>2022-02-08T07:36:10Z</time>
      </trkpt>
      <trkpt lat="48.7464" lon="2.22899">
        <ele>70.7</ele>
        <time>2022-02-08T07:36:16Z</time>
      </trkpt>
      <trkpt lat="48.74646" lon="2.22894">
        <ele>70.8</ele>
        <time>2022-02-08T07:36:22Z</time>
      </trkpt>
      <trkpt lat="48.74652" lon="2.22889">
        <ele>70.9</ele>
        <time>2022-02-08T07:36:28Z</time>
      </trkpt>
      <trkpt lat="48.7466" lon="2.22881">
        <ele>71</ele>
        <time>2022-02-08T07:36:33Z</time>
      </trkpt>
      <trkpt lat="48.74662" lon="2.2287">
        <ele>71</ele>
        <time>2022-02-08T07:36:39Z</time>
      </trkpt>
      <trkpt lat="48.74664" lon="2.22856">
        <ele>71</ele>
        <time>2022-02-08T07:36:45Z</time>
      </trkpt>
      <trkpt lat="48.74666" lon="2.22845">
        <ele>71</ele>
        <time>2022-02-08T07:36:51Z</time>
      </trkpt>
      <trkpt lat="48.74672" lon="2.22838">
        <ele>71.1</ele>
        <time>2022-02-08T07:36:57Z</time>
      </trkpt>
      <trkpt lat="48.74678" lon="2.22831">
        <ele>71.2</ele>
        <time>2022-02-08T07:37:03Z</time>
      </trkpt>
      <trkpt lat="48.74685" lon="2.22827">
        <ele>71.3</ele>
        <time>2022-02-08T07:37:09Z</time>
      </trkpt>
      <trkpt lat="48.74691" lon="2.22823">
        <ele>71.4</ele>
        <time>2022-02-08T07:37:15Z</time>
      </trkpt>
      <trkpt lat="48.74697" lon="2.22818">
        <ele>71.5</ele>
        <time>2022-02-08T07:37:22Z</time>
      </trkpt>
      <trkpt lat="48.74701" lon="2.2281">
        <ele>71.7</ele>
        <time>2022-02-08T07:37:37Z</time>
      </trkpt>
      <trkpt lat="48.74705" lon="2.228">
        <ele>71.9</ele>
        <time>2022-02-08T07:37:43Z</time>
      </trkpt>
      <trkpt lat="48.7471" lon="2.22792">
        <ele>72</ele>
        <time>2022-02-08T07:37:49Z</time>
      </trkpt>
      <trkpt lat="48.74714" lon="2.22784">
        <ele>72.2</ele>
        <time>2022-02-08T07:37:55Z</time>
      </trkpt>
      <trkpt lat="48.74718" lon="2.22774">
        <ele>72.3</ele>
        <time>2022-02-08T07:38:00Z</time>
      </trkpt>
      <trkpt lat="48.74718" lon="2.22764">
        <ele>72.4</ele>
        <time>2022-02-08T07:38:05Z</time>
      </trkpt>
      <trkpt lat="48.74721" lon="2.22754">
        <ele>72.6</ele>
        <time>2022-02-08T07:38:11Z</time>
      </trkpt>
      <trkpt lat="48.74723" lon="2.22745">
        <ele>72.7</ele>
        <time>2022-02-08T07:38:15Z</time>
      </trkpt>
      <trkpt lat="48.74727" lon="2.22733">
        <ele>72.8</ele>
        <time>2022-02-08T07:38:21Z</time>
      </trkpt>
      <trkpt lat="48.74733" lon="2.22721">
        <ele>72.9</ele>
        <time>2022-02-08T07:38:27Z</time>
      </trkpt>
      <trkpt lat="48.74738" lon="2.22712">
        <ele>72.9</ele>
        <time>2022-02-08T07:38:33Z</time>
      </trkpt>
      <trkpt lat="48.74743" lon="2.22701">
        <ele>73</ele>
        <time>2022-02-08T07:38:39Z</time>
      </trkpt>
      <trkpt lat="48.74747" lon="2.2269">
        <ele>73</ele>
        <time>2022-02-08T07:38:45Z</time>
      </trkpt>
      <trkpt lat="48.74751" lon="2.2268">
        <ele>73</ele>
        <time>2022-02-08T07:38:51Z</time>
      </trkpt>
      <trkpt lat="48.74756" lon="2.22669">
        <ele>72.9</ele>
        <time>2022-02-08T07:38:57Z</time>
      </trkpt>
      <trkpt lat="48.74761" lon="2.22657">
        <ele>73</ele>
        <time>2022-02-08T07:39:03Z</time>
      </trkpt>
      <trkpt lat="48.74767" lon="2.22647">
        <ele>73</ele>
        <time>2022-02-08T07:39:09Z</time>
      </trkpt>
      <trkpt lat="48.74773" lon="2.22639">
        <ele>73</ele>
        <time>2022-02-08T07:39:15Z</time>
      </trkpt>
      <trkpt lat="48.74778" lon="2.22632">
        <ele>72.9</ele>
        <time>2022-02-08T07:39:21Z</time>
      </trkpt>
      <trkpt lat="48.74784" lon="2.22625">
        <ele>72.9</ele>
        <time>2022-02-08T07:39:27Z</time>
      </trkpt>
      <trkpt lat="48.74792" lon="2.22628">
        <ele>72.7</ele>
        <time>2022-02-08T07:39:33Z</time>
      </trkpt>
      <trkpt lat="48.74803" lon="2.22634">
        <ele>72.5</ele>
        <time>2022-02-08T07:39:39Z</time>
      </trkpt>
      <trkpt lat="48.74811" lon="2.22636">
        <ele>72.4</ele>
        <time>2022-02-08T07:39:45Z</time>
      </trkpt>
      <trkpt lat="48.74817" lon="2.22633">
        <ele>72.3</ele>
        <time>2022-02-08T07:39:51Z</time>
      </trkpt>
      <trkpt lat="48.74822" lon="2.22626">
        <ele>72.2</ele>
        <time>2022-02-08T07:39:57Z</time>
      </trkpt>
      <trkpt lat="48.74829" lon="2.22622">
        <ele>72.1</ele>
        <time>2022-02-08T07:40:05Z</time>
      </trkpt>
      <trkpt lat="48.74835" lon="2.22627">
        <ele>72</ele>
        <time>2022-02-08T07:40:45Z</time>
      </trkpt>
      <trkpt lat="48.74842" lon="2.22625">
        <ele>71.9</ele>
        <time>2022-02-08T07:40:51Z</time>
      </trkpt>
      <trkpt lat="48.74846" lon="2.22616">
        <ele>71.9</ele>
        <time>2022-02-08T07:40:59Z</time>
      </trkpt>
      <trkpt lat="48.74851" lon="2.22609">
        <ele>71.9</ele>
        <time>2022-02-08T07:41:40Z</time>
      </trkpt>
      <trkpt lat="48.74857" lon="2.22604">
        <ele>71.9</ele>
        <time>2022-02-08T07:41:45Z</time>
      </trkpt>
      <trkpt lat="48.74863" lon="2.22597">
        <ele>71.9</ele>
        <time>2022-02-08T07:41:51Z</time>
      </trkpt>
      <trkpt lat="48.7487" lon="2.2259">
        <ele>72</ele>
        <time>2022-02-08T07:41:57Z</time>
      </trkpt>
      <trkpt lat="48.74876" lon="2.22583">
        <ele>72</ele>
        <time>2022-02-08T07:42:03Z</time>
      </trkpt>
      <trkpt lat="48.74883" lon="2.22583">
        <ele>72</ele>
        <time>2022-02-08T07:42:08Z</time>
      </trkpt>
      <trkpt lat="48.74886" lon="2.22575">
        <ele>72</ele>
        <time>2022-02-08T07:42:17Z</time>
      </trkpt>
      <trkpt lat="48.74893" lon="2.2258">
        <ele>72</ele>
        <time>2022-02-08T07:42:25Z</time>
      </trkpt>
      <trkpt lat="48.74898" lon="2.22588">
        <ele>72</ele>
        <time>2022-02-08T07:42:32Z</time>
      </trkpt>
      <trkpt lat="48.74904" lon="2.22596">
        <ele>71.9</ele>
        <time>2022-02-08T07:42:38Z</time>
      </trkpt>
      <trkpt lat="48.74911" lon="2.22595">
        <ele>71.9</ele>
        <time>2022-02-08T07:42:43Z</time>
      </trkpt>
      <trkpt lat="48.74919" lon="2.22587">
        <ele>72.1</ele>
        <time>2022-02-08T07:42:49Z</time>
      </trkpt>
      <trkpt lat="48.74926" lon="2.22577">
        <ele>72.4</ele>
        <time>2022-02-08T07:42:55Z</time>
      </trkpt>
      <trkpt lat="48.74931" lon="2.2257">
        <ele>72.7</ele>
        <time>2022-02-08T07:43:01Z</time>
      </trkpt>
      <trkpt lat="48.74938" lon="2.22566">
        <ele>73</ele>
        <time>2022-02-08T07:43:07Z</time>
      </trkpt>
      <trkpt lat="48.74944" lon="2.22563">
        <ele>73.3</ele>
        <time>2022-02-08T07:43:29Z</time>
      </trkpt>
      <trkpt lat="48.7495" lon="2.22556">
        <ele>73.6</ele>
        <time>2022-02-08T07:43:34Z</time>
      </trkpt>
      <trkpt lat="48.74956" lon="2.22549">
        <ele>73.9</ele>
        <time>2022-02-08T07:43:40Z</time>
      </trkpt>
      <trkpt lat="48.74962" lon="2.22542">
        <ele>74.2</ele>
        <time>2022-02-08T07:43:45Z</time>
      </trkpt>
      <trkpt lat="48.74968" lon="2.22536">
        <ele>74.5</ele>
        <time>2022-02-08T07:43:50Z</time>
      </trkpt>
      <trkpt lat="48.74971" lon="2.22526">
        <ele>74.6</ele>
        <time>2022-02-08T07:43:56Z</time>
      </trkpt>
      <trkpt lat="48.74974" lon="2.22516">
        <ele>74.8</ele>
        <time>2022-02-08T07:44:01Z</time>
      </trkpt>
      <trkpt lat="48.74975" lon="2.22505">
        <ele>74.8</ele>
        <time>2022-02-08T07:44:07Z</time>
      </trkpt>
      <trkpt lat="48.74972" lon="2.22495">
        <ele>74.7</ele>
        <time>2022-02-08T07:44:13Z</time>
      </trkpt>
      <trkpt lat="48.74969" lon="2.22485">
        <ele>74.5</ele>
        <time>2022-02-08T07:44:19Z</time>
      </trkpt>
      <trkpt lat="48.74967" lon="2.22472">
        <ele>74.5</ele>
        <time>2022-02-08T07:44:25Z</time>
      </trkpt>
      <trkpt lat="48.74969" lon="2.22461">
        <ele>74.6</ele>
        <time>2022-02-08T07:44:31Z</time>
      </trkpt>
      <trkpt lat="48.74975" lon="2.22454">
        <ele>74.7</ele>
        <time>2022-02-08T07:44:37Z</time>
      </trkpt>
      <trkpt lat="48.74979" lon="2.22445">
        <ele>74.8</ele>
        <time>2022-02-08T07:44:43Z</time>
      </trkpt>
      <trkpt lat="48.74986" lon="2.22435">
        <ele>74.9</ele>
        <time>2022-02-08T07:44:49Z</time>
      </trkpt>
      <trkpt lat="48.7499" lon="2.22424">
        <ele>74.9</ele>
        <time>2022-02-08T07:44:55Z</time>
      </trkpt>
      <trkpt lat="48.74995" lon="2.22417">
        <ele>74.9</ele>
        <time>2022-02-08T07:45:01Z</time>
      </trkpt>
      <trkpt lat="48.75" lon="2.22406">
        <ele>74.6</ele>
        <time>2022-02-08T07:45:07Z</time>
      </trkpt>
      <trkpt lat="48.75006" lon="2.22397">
        <ele>74.9</ele>
        <time>2022-02-08T07:45:13Z</time>
      </trkpt>
      <trkpt lat="48.75011" lon="2.22392">
        <ele>75.2</ele>
        <time>2022-02-08T07:45:18Z</time>
      </trkpt>
      <trkpt lat="48.75018" lon="2.22388">
        <ele>75.8</ele>
        <time>2022-02-08T07:45:24Z</time>
      </trkpt>
      <trkpt lat="48.75024" lon="2.22376">
        <ele>75.8</ele>
        <time>2022-02-08T07:45:30Z</time>
      </trkpt>
      <trkpt lat="48.75029" lon="2.22364">
        <ele>75.8</ele>
        <time>2022-02-08T07:45:36Z</time>
      </trkpt>
      <trkpt lat="48.75033" lon="2.22355">
        <ele>75.8</ele>
        <time>2022-02-08T07:45:42Z</time>
      </trkpt>
      <trkpt lat="48.75037" lon="2.22346">
        <ele>75.7</ele>
        <time>2022-02-08T07:45:49Z</time>
      </trkpt>
      <trkpt lat="48.75038" lon="2.22336">
        <ele>75.3</ele>
        <time>2022-02-08T07:45:56Z</time>
      </trkpt>
      <trkpt lat="48.75038" lon="2.22325">
        <ele>75</ele>
        <time>2022-02-08T07:46:18Z</time>
      </trkpt>
      <trkpt lat="48.75043" lon="2.22333">
        <ele>75.6</ele>
        <time>2022-02-08T07:46:45Z</time>
      </trkpt>
      <trkpt lat="48.7505" lon="2.22331">
        <ele>76.1</ele>
        <time>2022-02-08T07:46:51Z</time>
      </trkpt>
      <trkpt lat="48.75057" lon="2.22326">
        <ele>76.5</ele>
        <time>2022-02-08T07:46:57Z</time>
      </trkpt>
      <trkpt lat="48.75063" lon="2.22335">
        <ele>77.4</ele>
        <time>2022-02-08T07:47:03Z</time>
      </trkpt>
      <trkpt lat="48.75069" lon="2.22346">
        <ele>78.5</ele>
        <time>2022-02-08T07:47:09Z</time>
      </trkpt>
      <trkpt lat="48.75075" lon="2.22355">
        <ele>79.5</ele>
        <time>2022-02-08T07:47:15Z</time>
      </trkpt>
      <trkpt lat="48.75078" lon="2.22365">
        <ele>80.4</ele>
        <time>2022-02-08T07:47:23Z</time>
      </trkpt>
      <trkpt lat="48.75081" lon="2.22375">
        <ele>81.3</ele>
        <time>2022-02-08T07:47:29Z</time>
      </trkpt>
      <trkpt lat="48.75085" lon="2.22384">
        <ele>82.2</ele>
        <time>2022-02-08T07:47:34Z</time>
      </trkpt>
      <trkpt lat="48.7509" lon="2.22394">
        <ele>83.3</ele>
        <time>2022-02-08T07:47:39Z</time>
      </trkpt>
      <trkpt lat="48.75095" lon="2.22403">
        <ele>84.2</ele>
        <time>2022-02-08T07:47:45Z</time>
      </trkpt>
      <trkpt lat="48.75101" lon="2.22411">
        <ele>85.1</ele>
        <time>2022-02-08T07:47:51Z</time>
      </trkpt>
      <trkpt lat="48.75104" lon="2.22421">
        <ele>85.4</ele>
        <time>2022-02-08T07:47:58Z</time>
      </trkpt>
      <trkpt lat="48.75109" lon="2.22429">
        <ele>85.7</ele>
        <time>2022-02-08T07:48:04Z</time>
      </trkpt>
      <trkpt lat="48.75117" lon="2.22431">
        <ele>86.2</ele>
        <time>2022-02-08T07:48:10Z</time>
      </trkpt>
      <trkpt lat="48.75121" lon="2.22438">
        <ele>86.4</ele>
        <time>2022-02-08T07:48:15Z</time>
      </trkpt>
      <trkpt lat="48.75127" lon="2.22447">
        <ele>86.6</ele>
        <time>2022-02-08T07:48:21Z</time>
      </trkpt>
      <trkpt lat="48.75132" lon="2.22454">
        <ele>86.7</ele>
        <time>2022-02-08T07:48:29Z</time>
      </trkpt>
      <trkpt lat="48.75138" lon="2.2246">
        <ele>86.9</ele>
        <time>2022-02-08T07:48:37Z</time>
      </trkpt>
      <trkpt lat="48.75144" lon="2.22463">
        <ele>87.2</ele>
        <time>2022-02-08T07:48:42Z</time>
      </trkpt>
      <trkpt lat="48.7515" lon="2.22467">
        <ele>87.4</ele>
        <time>2022-02-08T07:48:48Z</time>
      </trkpt>
      <trkpt lat="48.75157" lon="2.2247">
        <ele>87.6</ele>
        <time>2022-02-08T07:49:06Z</time>
      </trkpt>
      <trkpt lat="48.75163" lon="2.22474">
        <ele>87.8</ele>
        <time>2022-02-08T07:49:13Z</time>
      </trkpt>
      <trkpt lat="48.7517" lon="2.22479">
        <ele>88.1</ele>
        <time>2022-02-08T07:49:19Z</time>
      </trkpt>
      <trkpt lat="48.75176" lon="2.22486">
        <ele>88.4</ele>
        <time>2022-02-08T07:49:25Z</time>
      </trkpt>
      <trkpt lat="48.75182" lon="2.22491">
        <ele>88.9</ele>
        <time>2022-02-08T07:49:30Z</time>
      </trkpt>
      <trkpt lat="48.75188" lon="2.22495">
        <ele>89.4</ele>
        <time>2022-02-08T07:49:38Z</time>
      </trkpt>
      <trkpt lat="48.75194" lon="2.225">
        <ele>90</ele>
        <time>2022-02-08T07:49:45Z</time>
      </trkpt>
      <trkpt lat="48.752" lon="2.22507">
        <ele>90.8</ele>
        <time>2022-02-08T07:49:52Z</time>
      </trkpt>
      <trkpt lat="48.75207" lon="2.22513">
        <ele>91.8</ele>
        <time>2022-02-08T07:49:59Z</time>
      </trkpt>
      <trkpt lat="48.75214" lon="2.22518">
        <ele>92.8</ele>
        <time>2022-02-08T07:50:10Z</time>
      </trkpt>
      <trkpt lat="48.75221" lon="2.22522">
        <ele>93.7</ele>
        <time>2022-02-08T07:50:17Z</time>
      </trkpt>
      <trkpt lat="48.75228" lon="2.22516">
        <ele>94.3</ele>
        <time>2022-02-08T07:52:10Z</time>
      </trkpt>
      <trkpt lat="48.75234" lon="2.22512">
        <ele>94.8</ele>
        <time>2022-02-08T07:52:37Z</time>
      </trkpt>
      <trkpt lat="48.75241" lon="2.22506">
        <ele>95.3</ele>
        <time>2022-02-08T07:52:44Z</time>
      </trkpt>
      <trkpt lat="48.75247" lon="2.22501">
        <ele>95.7</ele>
        <time>2022-02-08T07:52:49Z</time>
      </trkpt>
      <trkpt lat="48.75254" lon="2.22503">
        <ele>96.8</ele>
        <time>2022-02-08T07:52:55Z</time>
      </trkpt>
      <trkpt lat="48.7526" lon="2.22509">
        <ele>98.1</ele>
        <time>2022-02-08T07:52:59Z</time>
      </trkpt>
      <trkpt lat="48.75266" lon="2.22514">
        <ele>99.4</ele>
        <time>2022-02-08T07:53:04Z</time>
      </trkpt>
      <trkpt lat="48.75272" lon="2.2252">
        <ele>100.8</ele>
        <time>2022-02-08T07:53:12Z</time>
      </trkpt>
      <trkpt lat="48.75279" lon="2.22524">
        <ele>102.4</ele>
        <time>2022-02-08T07:53:18Z</time>
      </trkpt>
      <trkpt lat="48.75286" lon="2.22525">
        <ele>103.7</ele>
        <time>2022-02-08T07:53:22Z</time>
      </trkpt>
      <trkpt lat="48.75292" lon="2.22525">
        <ele>104.8</ele>
        <time>2022-02-08T07:53:29Z</time>
      </trkpt>
      <trkpt lat="48.75298" lon="2.22529">
        <ele>106.3</ele>
        <time>2022-02-08T07:53:34Z</time>
      </trkpt>
      <trkpt lat="48.75305" lon="2.22534">
        <ele>108.1</ele>
        <time>2022-02-08T07:53:40Z</time>
      </trkpt>
      <trkpt lat="48.75311" lon="2.22538">
        <ele>109.7</ele>
        <time>2022-02-08T07:53:45Z</time>
      </trkpt>
      <trkpt lat="48.75318" lon="2.22545">
        <ele>111.9</ele>
        <time>2022-02-08T07:53:51Z</time>
      </trkpt>
      <trkpt lat="48.75324" lon="2.2255">
        <ele>113.7</ele>
        <time>2022-02-08T07:53:58Z</time>
      </trkpt>
      <trkpt lat="48.7533" lon="2.22554">
        <ele>115.4</ele>
        <time>2022-02-08T07:54:04Z</time>
      </trkpt>
      <trkpt lat="48.75336" lon="2.22555">
        <ele>116.5</ele>
        <time>2022-02-08T07:54:10Z</time>
      </trkpt>
      <trkpt lat="48.75343" lon="2.22555">
        <ele>117.3</ele>
        <time>2022-02-08T07:54:15Z</time>
      </trkpt>
      <trkpt lat="48.7535" lon="2.22552">
        <ele>117.6</ele>
        <time>2022-02-08T07:54:21Z</time>
      </trkpt>
      <trkpt lat="48.75357" lon="2.22552">
        <ele>118.3</ele>
        <time>2022-02-08T07:54:29Z</time>
      </trkpt>
      <trkpt lat="48.75364" lon="2.22552">
        <ele>119</ele>
        <time>2022-02-08T07:54:34Z</time>
      </trkpt>
      <trkpt lat="48.75371" lon="2.22551">
        <ele>119.6</ele>
        <time>2022-02-08T07:54:40Z</time>
      </trkpt>
      <trkpt lat="48.75377" lon="2.22549">
        <ele>119.8</ele>
        <time>2022-02-08T07:54:45Z</time>
      </trkpt>
      <trkpt lat="48.75384" lon="2.22552">
        <ele>121</ele>
        <time>2022-02-08T07:54:52Z</time>
      </trkpt>
      <trkpt lat="48.7539" lon="2.22554">
        <ele>122</ele>
        <time>2022-02-08T07:54:57Z</time>
      </trkpt>
      <trkpt lat="48.75398" lon="2.22556">
        <ele>123.1</ele>
        <time>2022-02-08T07:55:03Z</time>
      </trkpt>
      <trkpt lat="48.75404" lon="2.22562">
        <ele>124.8</ele>
        <time>2022-02-08T07:55:11Z</time>
      </trkpt>
      <trkpt lat="48.75409" lon="2.22569">
        <ele>126.6</ele>
        <time>2022-02-08T07:55:17Z</time>
      </trkpt>
      <trkpt lat="48.75414" lon="2.22576">
        <ele>128.4</ele>
        <time>2022-02-08T07:55:23Z</time>
      </trkpt>
      <trkpt lat="48.75418" lon="2.22584">
        <ele>130.3</ele>
        <time>2022-02-08T07:55:32Z</time>
      </trkpt>
      <trkpt lat="48.75422" lon="2.22593">
        <ele>132.3</ele>
        <time>2022-02-08T07:55:40Z</time>
      </trkpt>
      <trkpt lat="48.75429" lon="2.22595">
        <ele>133.4</ele>
        <time>2022-02-08T07:55:48Z</time>
      </trkpt>
      <trkpt lat="48.75436" lon="2.22596">
        <ele>134.3</ele>
        <time>2022-02-08T07:55:55Z</time>
      </trkpt>
      <trkpt lat="48.75442" lon="2.22598">
        <ele>135.3</ele>
        <time>2022-02-08T07:56:01Z</time>
      </trkpt>
      <trkpt lat="48.7545" lon="2.22596">
        <ele>135.8</ele>
        <time>2022-02-08T07:56:08Z</time>
      </trkpt>
      <trkpt lat="48.75456" lon="2.22596">
        <ele>136.5</ele>
        <time>2022-02-08T07:56:15Z</time>
      </trkpt>
      <trkpt lat="48.75464" lon="2.22595">
        <ele>137.1</ele>
        <time>2022-02-08T07:56:21Z</time>
      </trkpt>
      <trkpt lat="48.7547" lon="2.22592">
        <ele>137.3</ele>
        <time>2022-02-08T07:56:26Z</time>
      </trkpt>
      <trkpt lat="48.75477" lon="2.22589">
        <ele>137.5</ele>
        <time>2022-02-08T07:56:32Z</time>
      </trkpt>
      <trkpt lat="48.75483" lon="2.22584">
        <ele>137.3</ele>
        <time>2022-02-08T07:56:38Z</time>
      </trkpt>
      <trkpt lat="48.75489" lon="2.22582">
        <ele>137.5</ele>
        <time>2022-02-08T07:56:44Z</time>
      </trkpt>
      <trkpt lat="48.75497" lon="2.22583">
        <ele>138.6</ele>
        <time>2022-02-08T07:56:49Z</time>
      </trkpt>
      <trkpt lat="48.75503" lon="2.22586">
        <ele>139.6</ele>
        <time>2022-02-08T07:56:54Z</time>
      </trkpt>
      <trkpt lat="48.7551" lon="2.22587">
        <ele>140.2</ele>
        <time>2022-02-08T07:57:00Z</time>
      </trkpt>
      <trkpt lat="48.75516" lon="2.22589">
        <ele>140.9</ele>
        <time>2022-02-08T07:57:07Z</time>
      </trkpt>
      <trkpt lat="48.75524" lon="2.22593">
        <ele>142.1</ele>
        <time>2022-02-08T07:57:14Z</time>
      </trkpt>
      <trkpt lat="48.75531" lon="2.22598">
        <ele>143.5</ele>
        <time>2022-02-08T07:57:21Z</time>
      </trkpt>
      <trkpt lat="48.75536" lon="2.22603">
        <ele>144.7</ele>
        <time>2022-02-08T07:57:27Z</time>
      </trkpt>
      <trkpt lat="48.75542" lon="2.22608">
        <ele>146</ele>
        <time>2022-02-08T07:57:33Z</time>
      </trkpt>
      <trkpt lat="48.75549" lon="2.22612">
        <ele>147.2</ele>
        <time>2022-02-08T07:57:40Z</time>
      </trkpt>
      <trkpt lat="48.75556" lon="2.22615">
        <ele>148.2</ele>
        <time>2022-02-08T07:57:46Z</time>
      </trkpt>
      <trkpt lat="48.75562" lon="2.22621">
        <ele>149.7</ele>
        <time>2022-02-08T07:57:53Z</time>
      </trkpt>
      <trkpt lat="48.75571" lon="2.22624">
        <ele>150.9</ele>
        <time>2022-02-08T07:58:19Z</time>
      </trkpt>
      <trkpt lat="48.75578" lon="2.22627">
        <ele>152</ele>
        <time>2022-02-08T07:58:28Z</time>
      </trkpt>
      <trkpt lat="48.75584" lon="2.22626">
        <ele>152.2</ele>
        <time>2022-02-08T07:58:39Z</time>
      </trkpt>
      <trkpt lat="48.75588" lon="2.22634">
        <ele>153.9</ele>
        <time>2022-02-08T07:58:45Z</time>
      </trkpt>
      <trkpt lat="48.75595" lon="2.2264">
        <ele>155.3</ele>
        <time>2022-02-08T07:58:50Z</time>
      </trkpt>
      <trkpt lat="48.75601" lon="2.22639">
        <ele>155.3</ele>
        <time>2022-02-08T07:59:00Z</time>
      </trkpt>
      <trkpt lat="48.75609" lon="2.22638">
        <ele>155.4</ele>
        <time>2022-02-08T07:59:16Z</time>
      </trkpt>
      <trkpt lat="48.75621" lon="2.22639">
        <ele>156</ele>
        <time>2022-02-08T07:59:21Z</time>
      </trkpt>
      <trkpt lat="48.75632" lon="2.22641">
        <ele>156.8</ele>
        <time>2022-02-08T07:59:27Z</time>
      </trkpt>
      <trkpt lat="48.75639" lon="2.22646">
        <ele>158</ele>
        <time>2022-02-08T07:59:33Z</time>
      </trkpt>
      <trkpt lat="48.7565" lon="2.2265">
        <ele>159.2</ele>
        <time>2022-02-08T07:59:39Z</time>
      </trkpt>
      <trkpt lat="48.7566" lon="2.22653">
        <ele>160.1</ele>
        <time>2022-02-08T07:59:45Z</time>
      </trkpt>
      <trkpt lat="48.75671" lon="2.22662">
        <ele>162</ele>
        <time>2022-02-08T07:59:51Z</time>
      </trkpt>
      <trkpt lat="48.75681" lon="2.22666">
        <ele>162.5</ele>
        <time>2022-02-08T07:59:57Z</time>
      </trkpt>
      <trkpt lat="48.75686" lon="2.22673">
        <ele>163</ele>
        <time>2022-02-08T08:00:05Z</time>
      </trkpt>
      <trkpt lat="48.75692" lon="2.22678">
        <ele>163.2</ele>
        <time>2022-02-08T08:00:09Z</time>
      </trkpt>
      <trkpt lat="48.75698" lon="2.22682">
        <ele>163.3</ele>
        <time>2022-02-08T08:00:15Z</time>
      </trkpt>
      <trkpt lat="48.75707" lon="2.22688">
        <ele>163.6</ele>
        <time>2022-02-08T08:00:21Z</time>
      </trkpt>
      <trkpt lat="48.75713" lon="2.22691">
        <ele>163.7</ele>
        <time>2022-02-08T08:00:27Z</time>
      </trkpt>
      <trkpt lat="48.7572" lon="2.22694">
        <ele>163.8</ele>
        <time>2022-02-08T08:00:32Z</time>
      </trkpt>
      <trkpt lat="48.75729" lon="2.22698">
        <ele>163.9</ele>
        <time>2022-02-08T08:00:38Z</time>
      </trkpt>
      <trkpt lat="48.75736" lon="2.22698">
        <ele>163.8</ele>
        <time>2022-02-08T08:00:50Z</time>
      </trkpt>
      <trkpt lat="48.75742" lon="2.22704">
        <ele>164.2</ele>
        <time>2022-02-08T08:00:55Z</time>
      </trkpt>
      <trkpt lat="48.75747" lon="2.22712">
        <ele>164.8</ele>
        <time>2022-02-08T08:01:02Z</time>
      </trkpt>
      <trkpt lat="48.75753" lon="2.22719">
        <ele>165.4</ele>
        <time>2022-02-08T08:01:07Z</time>
      </trkpt>
      <trkpt lat="48.7576" lon="2.22722">
        <ele>165.6</ele>
        <time>2022-02-08T08:01:13Z</time>
      </trkpt>
      <trkpt lat="48.75766" lon="2.22726">
        <ele>165.9</ele>
        <time>2022-02-08T08:01:19Z</time>
      </trkpt>
      <trkpt lat="48.75772" lon="2.2273">
        <ele>166.2</ele>
        <time>2022-02-08T08:01:25Z</time>
      </trkpt>
      <trkpt lat="48.75778" lon="2.22736">
        <ele>166.7</ele>
        <time>2022-02-08T08:01:32Z</time>
      </trkpt>
      <trkpt lat="48.75784" lon="2.22742">
        <ele>167.2</ele>
        <time>2022-02-08T08:01:38Z</time>
      </trkpt>
      <trkpt lat="48.7579" lon="2.22749">
        <ele>167.9</ele>
        <time>2022-02-08T08:01:43Z</time>
      </trkpt>
      <trkpt lat="48.75796" lon="2.2276">
        <ele>168.5</ele>
        <time>2022-02-08T08:01:49Z</time>
      </trkpt>
      <trkpt lat="48.75801" lon="2.22767">
        <ele>168.8</ele>
        <time>2022-02-08T08:01:55Z</time>
      </trkpt>
      <trkpt lat="48.75807" lon="2.22776">
        <ele>169.4</ele>
        <time>2022-02-08T08:02:01Z</time>
      </trkpt>
      <trkpt lat="48.75814" lon="2.22782">
        <ele>169.9</ele>
        <time>2022-02-08T08:02:07Z</time>
      </trkpt>
      <trkpt lat="48.75818" lon="2.2279">
        <ele>170.4</ele>
        <time>2022-02-08T08:02:14Z</time>
      </trkpt>
      <trkpt lat="48.75823" lon="2.22798">
        <ele>171.1</ele>
        <time>2022-02-08T08:02:20Z</time>
      </trkpt>
      <trkpt lat="48.75828" lon="2.22804">
        <ele>171.7</ele>
        <time>2022-02-08T08:02:26Z</time>
      </trkpt>
      <trkpt lat="48.75834" lon="2.2281">
        <ele>172.3</ele>
        <time>2022-02-08T08:02:31Z</time>
      </trkpt>
      <trkpt lat="48.75839" lon="2.22817">
        <ele>172.3</ele>
        <time>2022-02-08T08:02:37Z</time>
      </trkpt>
      <trkpt lat="48.75845" lon="2.22828">
        <ele>172.6</ele>
        <time>2022-02-08T08:02:43Z</time>
      </trkpt>
      <trkpt lat="48.75851" lon="2.22837">
        <ele>172.7</ele>
        <time>2022-02-08T08:02:49Z</time>
      </trkpt>
      <trkpt lat="48.75857" lon="2.22844">
        <ele>172.4</ele>
        <time>2022-02-08T08:02:55Z</time>
      </trkpt>
      <trkpt lat="48.75864" lon="2.22848">
        <ele>172.1</ele>
        <time>2022-02-08T08:03:02Z</time>
      </trkpt>
      <trkpt lat="48.7587" lon="2.22852">
        <ele>171.9</ele>
        <time>2022-02-08T08:03:07Z</time>
      </trkpt>
      <trkpt lat="48.75877" lon="2.22859">
        <ele>171.8</ele>
        <time>2022-02-08T08:03:13Z</time>
      </trkpt>
      <trkpt lat="48.75882" lon="2.22865">
        <ele>171.8</ele>
        <time>2022-02-08T08:03:20Z</time>
      </trkpt>
      <trkpt lat="48.75887" lon="2.22871">
        <ele>171.9</ele>
        <time>2022-02-08T08:03:25Z</time>
      </trkpt>
      <trkpt lat="48.75892" lon="2.2288">
        <ele>172.2</ele>
        <time>2022-02-08T08:03:31Z</time>
      </trkpt>
      <trkpt lat="48.75898" lon="2.22887">
        <ele>172.4</ele>
        <time>2022-02-08T08:03:37Z</time>
      </trkpt>
      <trkpt lat="48.75904" lon="2.22893">
        <ele>172.5</ele>
        <time>2022-02-08T08:03:42Z</time>
      </trkpt>
      <trkpt lat="48.75909" lon="2.22899">
        <ele>172.8</ele>
        <time>2022-02-08T08:03:48Z</time>
      </trkpt>
      <trkpt lat="48.75913" lon="2.22907">
        <ele>173.3</ele>
        <time>2022-02-08T08:03:53Z</time>
      </trkpt>
      <trkpt lat="48.75918" lon="2.22915">
        <ele>173.7</ele>
        <time>2022-02-08T08:03:59Z</time>
      </trkpt>
      <trkpt lat="48.75922" lon="2.22925">
        <ele>173.8</ele>
        <time>2022-02-08T08:04:05Z</time>
      </trkpt>
      <trkpt lat="48.75927" lon="2.22932">
        <ele>173.6</ele>
        <time>2022-02-08T08:04:10Z</time>
      </trkpt>
      <trkpt lat="48.75931" lon="2.22942">
        <ele>173.6</ele>
        <time>2022-02-08T08:04:16Z</time>
      </trkpt>
      <trkpt lat="48.75935" lon="2.2295">
        <ele>173.5</ele>
        <time>2022-02-08T08:04:22Z</time>
      </trkpt>
      <trkpt lat="48.75939" lon="2.22959">
        <ele>173.5</ele>
        <time>2022-02-08T08:04:28Z</time>
      </trkpt>
      <trkpt lat="48.75943" lon="2.22967">
        <ele>173.6</ele>
        <time>2022-02-08T08:04:33Z</time>
      </trkpt>
      <trkpt lat="48.75949" lon="2.22978">
        <ele>173.6</ele>
        <time>2022-02-08T08:04:39Z</time>
      </trkpt>
      <trkpt lat="48.75955" lon="2.22991">
        <ele>173.8</ele>
        <time>2022-02-08T08:04:45Z</time>
      </trkpt>
      <trkpt lat="48.7596" lon="2.23001">
        <ele>173.9</ele>
        <time>2022-02-08T08:04:51Z</time>
      </trkpt>
      <trkpt lat="48.75961" lon="2.23013">
        <ele>174.2</ele>
        <time>2022-02-08T08:04:57Z</time>
      </trkpt>
      <trkpt lat="48.75966" lon="2.23022">
        <ele>174.3</ele>
        <time>2022-02-08T08:05:03Z</time>
      </trkpt>
      <trkpt lat="48.75973" lon="2.23032">
        <ele>174.3</ele>
        <time>2022-02-08T08:05:09Z</time>
      </trkpt>
      <trkpt lat="48.75977" lon="2.23042">
        <ele>174.6</ele>
        <time>2022-02-08T08:05:15Z</time>
      </trkpt>
      <trkpt lat="48.75982" lon="2.23052">
        <ele>174.8</ele>
        <time>2022-02-08T08:05:21Z</time>
      </trkpt>
      <trkpt lat="48.75988" lon="2.23064">
        <ele>175.2</ele>
        <time>2022-02-08T08:05:27Z</time>
      </trkpt>
      <trkpt lat="48.75992" lon="2.23074">
        <ele>175.6</ele>
        <time>2022-02-08T08:05:33Z</time>
      </trkpt>
      <trkpt lat="48.75997" lon="2.23084">
        <ele>176</ele>
        <time>2022-02-08T08:05:39Z</time>
      </trkpt>
      <trkpt lat="48.76" lon="2.23095">
        <ele>176</ele>
        <time>2022-02-08T08:05:45Z</time>
      </trkpt>
      <trkpt lat="48.76007" lon="2.23103">
        <ele>175.7</ele>
        <time>2022-02-08T08:05:51Z</time>
      </trkpt>
      <trkpt lat="48.76014" lon="2.23114">
        <ele>175.6</ele>
        <time>2022-02-08T08:05:57Z</time>
      </trkpt>
      <trkpt lat="48.76021" lon="2.23119">
        <ele>175.4</ele>
        <time>2022-02-08T08:06:03Z</time>
      </trkpt>
      <trkpt lat="48.76026" lon="2.23127">
        <ele>175.4</ele>
        <time>2022-02-08T08:06:10Z</time>
      </trkpt>
      <trkpt lat="48.7603" lon="2.23136">
        <ele>175.5</ele>
        <time>2022-02-08T08:06:16Z</time>
      </trkpt>
      <trkpt lat="48.76037" lon="2.23142">
        <ele>175.5</ele>
        <time>2022-02-08T08:06:20Z</time>
      </trkpt>
      <trkpt lat="48.76043" lon="2.23152">
        <ele>175.6</ele>
        <time>2022-02-08T08:06:26Z</time>
      </trkpt>
      <trkpt lat="48.76048" lon="2.23159">
        <ele>175.8</ele>
        <time>2022-02-08T08:06:32Z</time>
      </trkpt>
      <trkpt lat="48.76056" lon="2.23167">
        <ele>176</ele>
        <time>2022-02-08T08:06:38Z</time>
      </trkpt>
      <trkpt lat="48.76062" lon="2.23174">
        <ele>176.1</ele>
        <time>2022-02-08T08:06:44Z</time>
      </trkpt>
      <trkpt lat="48.76068" lon="2.23182">
        <ele>176.2</ele>
        <time>2022-02-08T08:06:49Z</time>
      </trkpt>
      <trkpt lat="48.76076" lon="2.23192">
        <ele>176.3</ele>
        <time>2022-02-08T08:06:55Z</time>
      </trkpt>
      <trkpt lat="48.76082" lon="2.23199">
        <ele>176.4</ele>
        <time>2022-02-08T08:07:01Z</time>
      </trkpt>
      <trkpt lat="48.76088" lon="2.2321">
        <ele>176.2</ele>
        <time>2022-02-08T08:07:07Z</time>
      </trkpt>
      <trkpt lat="48.76094" lon="2.23218">
        <ele>175.9</ele>
        <time>2022-02-08T08:07:13Z</time>
      </trkpt>
      <trkpt lat="48.76099" lon="2.23229">
        <ele>175.9</ele>
        <time>2022-02-08T08:07:19Z</time>
      </trkpt>
      <trkpt lat="48.76107" lon="2.23236">
        <ele>175.6</ele>
        <time>2022-02-08T08:07:25Z</time>
      </trkpt>
      <trkpt lat="48.76113" lon="2.23243">
        <ele>175.6</ele>
        <time>2022-02-08T08:07:31Z</time>
      </trkpt>
      <trkpt lat="48.7612" lon="2.2325">
        <ele>175.7</ele>
        <time>2022-02-08T08:07:36Z</time>
      </trkpt>
      <trkpt lat="48.76126" lon="2.2326">
        <ele>175.5</ele>
        <time>2022-02-08T08:07:42Z</time>
      </trkpt>
      <trkpt lat="48.76133" lon="2.2327">
        <ele>175.2</ele>
        <time>2022-02-08T08:07:48Z</time>
      </trkpt>
      <trkpt lat="48.76135" lon="2.2328">
        <ele>175.1</ele>
        <time>2022-02-08T08:08:04Z</time>
      </trkpt>
      <trkpt lat="48.76134" lon="2.2329">
        <ele>175.2</ele>
        <time>2022-02-08T08:08:18Z</time>
      </trkpt>
      <trkpt lat="48.76126" lon="2.23288">
        <ele>175.5</ele>
        <time>2022-02-08T08:08:23Z</time>
      </trkpt>
      <trkpt lat="48.76115" lon="2.23293">
        <ele>175.9</ele>
        <time>2022-02-08T08:08:29Z</time>
      </trkpt>
      <trkpt lat="48.76107" lon="2.23291">
        <ele>176.1</ele>
        <time>2022-02-08T08:08:35Z</time>
      </trkpt>
      <trkpt lat="48.76098" lon="2.23291">
        <ele>176.5</ele>
        <time>2022-02-08T08:08:41Z</time>
      </trkpt>
      <trkpt lat="48.7609" lon="2.2329">
        <ele>176.8</ele>
        <time>2022-02-08T08:08:48Z</time>
      </trkpt>
      <trkpt lat="48.76084" lon="2.23289">
        <ele>177</ele>
        <time>2022-02-08T08:08:53Z</time>
      </trkpt>
      <trkpt lat="48.76077" lon="2.23287">
        <ele>176.9</ele>
        <time>2022-02-08T08:09:01Z</time>
      </trkpt>
      <trkpt lat="48.7607" lon="2.23283">
        <ele>176.8</ele>
        <time>2022-02-08T08:09:08Z</time>
      </trkpt>
      <trkpt lat="48.76064" lon="2.2328">
        <ele>176.7</ele>
        <time>2022-02-08T08:09:19Z</time>
      </trkpt>
      <trkpt lat="48.76056" lon="2.2328">
        <ele>176.6</ele>
        <time>2022-02-08T08:09:24Z</time>
      </trkpt>
      <trkpt lat="48.76048" lon="2.23279">
        <ele>176.6</ele>
        <time>2022-02-08T08:09:28Z</time>
      </trkpt>
      <trkpt lat="48.76039" lon="2.2328">
        <ele>176.4</ele>
        <time>2022-02-08T08:09:33Z</time>
      </trkpt>
      <trkpt lat="48.7603" lon="2.23285">
        <ele>176.2</ele>
        <time>2022-02-08T08:09:39Z</time>
      </trkpt>
      <trkpt lat="48.76022" lon="2.23281">
        <ele>176.2</ele>
        <time>2022-02-08T08:09:45Z</time>
      </trkpt>
      <trkpt lat="48.76017" lon="2.23272">
        <ele>176.4</ele>
        <time>2022-02-08T08:09:53Z</time>
      </trkpt>
      <trkpt lat="48.7601" lon="2.23271">
        <ele>176.3</ele>
        <time>2022-02-08T08:09:58Z</time>
      </trkpt>
      <trkpt lat="48.75998" lon="2.23267">
        <ele>176.4</ele>
        <time>2022-02-08T08:10:03Z</time>
      </trkpt>
      <trkpt lat="48.7599" lon="2.23269">
        <ele>176.3</ele>
        <time>2022-02-08T08:10:09Z</time>
      </trkpt>
      <trkpt lat="48.75991" lon="2.23259">
        <ele>176.7</ele>
        <time>2022-02-08T08:10:31Z</time>
      </trkpt>
      <trkpt lat="48.75993" lon="2.23249">
        <ele>177</ele>
        <time>2022-02-08T08:10:38Z</time>
      </trkpt>
      <trkpt lat="48.75995" lon="2.23238">
        <ele>176.9</ele>
        <time>2022-02-08T08:10:44Z</time>
      </trkpt>
      <trkpt lat="48.75994" lon="2.23228">
        <ele>176.7</ele>
        <time>2022-02-08T08:10:48Z</time>
      </trkpt>
      <trkpt lat="48.75993" lon="2.23217">
        <ele>176.6</ele>
        <time>2022-02-08T08:10:54Z</time>
      </trkpt>
      <trkpt lat="48.75991" lon="2.23206">
        <ele>176.5</ele>
        <time>2022-02-08T08:11:01Z</time>
      </trkpt>
      <trkpt lat="48.75986" lon="2.23192">
        <ele>176.3</ele>
        <time>2022-02-08T08:11:07Z</time>
      </trkpt>
      <trkpt lat="48.75981" lon="2.23182">
        <ele>176.2</ele>
        <time>2022-02-08T08:11:12Z</time>
      </trkpt>
      <trkpt lat="48.75974" lon="2.23163">
        <ele>176</ele>
        <time>2022-02-08T08:11:18Z</time>
      </trkpt>
      <trkpt lat="48.75961" lon="2.23147">
        <ele>176</ele>
        <time>2022-02-08T08:11:24Z</time>
      </trkpt>
      <trkpt lat="48.75954" lon="2.23141">
        <ele>176</ele>
        <time>2022-02-08T08:11:30Z</time>
      </trkpt>
      <trkpt lat="48.75947" lon="2.23135">
        <ele>176</ele>
        <time>2022-02-08T08:11:36Z</time>
      </trkpt>
      <trkpt lat="48.75937" lon="2.2313">
        <ele>176</ele>
        <time>2022-02-08T08:11:42Z</time>
      </trkpt>
      <trkpt lat="48.75928" lon="2.23128">
        <ele>176</ele>
        <time>2022-02-08T08:11:48Z</time>
      </trkpt>
      <trkpt lat="48.75922" lon="2.2312">
        <ele>176</ele>
        <time>2022-02-08T08:11:55Z</time>
      </trkpt>
      <trkpt lat="48.75916" lon="2.23116">
        <ele>176</ele>
        <time>2022-02-08T08:12:12Z</time>
      </trkpt>
      <trkpt lat="48.75909" lon="2.23116">
        <ele>175.8</ele>
        <time>2022-02-08T08:12:18Z</time>
      </trkpt>
      <trkpt lat="48.75903" lon="2.23125">
        <ele>175.7</ele>
        <time>2022-02-08T08:12:25Z</time>
      </trkpt>
      <trkpt lat="48.75899" lon="2.23133">
        <ele>175.6</ele>
        <time>2022-02-08T08:12:33Z</time>
      </trkpt>
      <trkpt lat="48.75895" lon="2.23141">
        <ele>175.5</ele>
        <time>2022-02-08T08:12:40Z</time>
      </trkpt>
      <trkpt lat="48.75885" lon="2.23145">
        <ele>175.2</ele>
        <time>2022-02-08T08:12:46Z</time>
      </trkpt>
      <trkpt lat="48.75882" lon="2.23154">
        <ele>175.2</ele>
        <time>2022-02-08T08:12:59Z</time>
      </trkpt>
      <trkpt lat="48.75877" lon="2.23164">
        <ele>175</ele>
        <time>2022-02-08T08:13:04Z</time>
      </trkpt>
      <trkpt lat="48.75875" lon="2.23174">
        <ele>175.1</ele>
        <time>2022-02-08T08:13:20Z</time>
      </trkpt>
      <trkpt lat="48.75871" lon="2.23182">
        <ele>175.1</ele>
        <time>2022-02-08T08:13:26Z</time>
      </trkpt>
      <trkpt lat="48.75867" lon="2.23195">
        <ele>175.1</ele>
        <time>2022-02-08T08:13:32Z</time>
      </trkpt>
      <trkpt lat="48.75862" lon="2.23204">
        <ele>175.1</ele>
        <time>2022-02-08T08:13:38Z</time>
      </trkpt>
      <trkpt lat="48.75858" lon="2.23213">
        <ele>175.1</ele>
        <time>2022-02-08T08:13:44Z</time>
      </trkpt>
      <trkpt lat="48.7585" lon="2.23224">
        <ele>175.1</ele>
        <time>2022-02-08T08:13:50Z</time>
      </trkpt>
      <trkpt lat="48.75843" lon="2.23231">
        <ele>175</ele>
        <time>2022-02-08T08:13:56Z</time>
      </trkpt>
      <trkpt lat="48.75837" lon="2.23236">
        <ele>174.9</ele>
        <time>2022-02-08T08:14:02Z</time>
      </trkpt>
      <trkpt lat="48.75829" lon="2.23243">
        <ele>174.8</ele>
        <time>2022-02-08T08:14:08Z</time>
      </trkpt>
      <trkpt lat="48.75822" lon="2.23248">
        <ele>174.7</ele>
        <time>2022-02-08T08:14:14Z</time>
      </trkpt>
      <trkpt lat="48.75815" lon="2.23251">
        <ele>174.6</ele>
        <time>2022-02-08T08:14:29Z</time>
      </trkpt>
      <trkpt lat="48.75807" lon="2.23251">
        <ele>174.4</ele>
        <time>2022-02-08T08:14:35Z</time>
      </trkpt>
      <trkpt lat="48.758" lon="2.23252">
        <ele>174.2</ele>
        <time>2022-02-08T08:14:40Z</time>
      </trkpt>
      <trkpt lat="48.75793" lon="2.23247">
        <ele>174</ele>
        <time>2022-02-08T08:14:46Z</time>
      </trkpt>
      <trkpt lat="48.75787" lon="2.23242">
        <ele>173.8</ele>
        <time>2022-02-08T08:14:49Z</time>
      </trkpt>
      <trkpt lat="48.75779" lon="2.23237">
        <ele>173.5</ele>
        <time>2022-02-08T08:14:55Z</time>
      </trkpt>
      <trkpt lat="48.75772" lon="2.23231">
        <ele>173.3</ele>
        <time>2022-02-08T08:15:01Z</time>
      </trkpt>
      <trkpt lat="48.75762" lon="2.23224">
        <ele>173</ele>
        <time>2022-02-08T08:15:07Z</time>
      </trkpt>
      <trkpt lat="48.75756" lon="2.23215">
        <ele>172.7</ele>
        <time>2022-02-08T08:15:13Z</time>
      </trkpt>
      <trkpt lat="48.75751" lon="2.23205">
        <ele>172.5</ele>
        <time>2022-02-08T08:15:19Z</time>
      </trkpt>
      <trkpt lat="48.75746" lon="2.23197">
        <ele>172.1</ele>
        <time>2022-02-08T08:15:26Z</time>
      </trkpt>
      <trkpt lat="48.7574" lon="2.2319">
        <ele>171.5</ele>
        <time>2022-02-08T08:15:33Z</time>
      </trkpt>
      <trkpt lat="48.75736" lon="2.23181">
        <ele>171.1</ele>
        <time>2022-02-08T08:15:40Z</time>
      </trkpt>
      <trkpt lat="48.75731" lon="2.23173">
        <ele>170.5</ele>
        <time>2022-02-08T08:15:45Z</time>
      </trkpt>
      <trkpt lat="48.75727" lon="2.23165">
        <ele>170</ele>
        <time>2022-02-08T08:15:50Z</time>
      </trkpt>
      <trkpt lat="48.75723" lon="2.23156">
        <ele>169.6</ele>
        <time>2022-02-08T08:15:55Z</time>
      </trkpt>
      <trkpt lat="48.75719" lon="2.23147">
        <ele>169.2</ele>
        <time>2022-02-08T08:16:00Z</time>
      </trkpt>
      <trkpt lat="48.75715" lon="2.2314">
        <ele>168.7</ele>
        <time>2022-02-08T08:16:07Z</time>
      </trkpt>
      <trkpt lat="48.75709" lon="2.23131">
        <ele>168.1</ele>
        <time>2022-02-08T08:16:13Z</time>
      </trkpt>
      <trkpt lat="48.75705" lon="2.23121">
        <ele>167.7</ele>
        <time>2022-02-08T08:16:18Z</time>
      </trkpt>
      <trkpt lat="48.75697" lon="2.23113">
        <ele>166.9</ele>
        <time>2022-02-08T08:16:24Z</time>
      </trkpt>
      <trkpt lat="48.75691" lon="2.23106">
        <ele>166.3</ele>
        <time>2022-02-08T08:16:30Z</time>
      </trkpt>
      <trkpt lat="48.75684" lon="2.23096">
        <ele>165.6</ele>
        <time>2022-02-08T08:16:36Z</time>
      </trkpt>
      <trkpt lat="48.75679" lon="2.23085">
        <ele>165.1</ele>
        <time>2022-02-08T08:16:42Z</time>
      </trkpt>
      <trkpt lat="48.75673" lon="2.23074">
        <ele>164.8</ele>
        <time>2022-02-08T08:16:48Z</time>
      </trkpt>
      <trkpt lat="48.75668" lon="2.23067">
        <ele>164.7</ele>
        <time>2022-02-08T08:16:54Z</time>
      </trkpt>
      <trkpt lat="48.75662" lon="2.2306">
        <ele>164.8</ele>
        <time>2022-02-08T08:17:00Z</time>
      </trkpt>
      <trkpt lat="48.7566" lon="2.23051">
        <ele>165</ele>
        <time>2022-02-08T08:17:07Z</time>
      </trkpt>
      <trkpt lat="48.75655" lon="2.23043">
        <ele>165.2</ele>
        <time>2022-02-08T08:17:13Z</time>
      </trkpt>
      <trkpt lat="48.75649" lon="2.23035">
        <ele>165.2</ele>
        <time>2022-02-08T08:17:19Z</time>
      </trkpt>
      <trkpt lat="48.75641" lon="2.23025">
        <ele>165.2</ele>
        <time>2022-02-08T08:17:24Z</time>
      </trkpt>
      <trkpt lat="48.75634" lon="2.23017">
        <ele>165.1</ele>
        <time>2022-02-08T08:17:30Z</time>
      </trkpt>
      <trkpt lat="48.75628" lon="2.23009">
        <ele>165</ele>
        <time>2022-02-08T08:17:36Z</time>
      </trkpt>
      <trkpt lat="48.75624" lon="2.23">
        <ele>165</ele>
        <time>2022-02-08T08:17:42Z</time>
      </trkpt>
      <trkpt lat="48.7562" lon="2.22987">
        <ele>164.9</ele>
        <time>2022-02-08T08:17:48Z</time>
      </trkpt>
      <trkpt lat="48.75616" lon="2.22979">
        <ele>164.8</ele>
        <time>2022-02-08T08:17:55Z</time>
      </trkpt>
      <trkpt lat="48.75609" lon="2.22973">
        <ele>164.4</ele>
        <time>2022-02-08T08:18:01Z</time>
      </trkpt>
      <trkpt lat="48.75605" lon="2.22965">
        <ele>164.3</ele>
        <time>2022-02-08T08:18:06Z</time>
      </trkpt>
      <trkpt lat="48.75598" lon="2.22955">
        <ele>163.9</ele>
        <time>2022-02-08T08:18:11Z</time>
      </trkpt>
      <trkpt lat="48.75592" lon="2.22942">
        <ele>163.6</ele>
        <time>2022-02-08T08:18:17Z</time>
      </trkpt>
      <trkpt lat="48.7559" lon="2.22933">
        <ele>163.4</ele>
        <time>2022-02-08T08:18:24Z</time>
      </trkpt>
      <trkpt lat="48.75585" lon="2.22925">
        <ele>163.1</ele>
        <time>2022-02-08T08:18:30Z</time>
      </trkpt>
      <trkpt lat="48.75579" lon="2.22918">
        <ele>163.1</ele>
        <time>2022-02-08T08:18:35Z</time>
      </trkpt>
      <trkpt lat="48.75575" lon="2.2291">
        <ele>163.3</ele>
        <time>2022-02-08T08:18:41Z</time>
      </trkpt>
      <trkpt lat="48.7557" lon="2.22901">
        <ele>163.6</ele>
        <time>2022-02-08T08:18:45Z</time>
      </trkpt>
      <trkpt lat="48.75566" lon="2.22894">
        <ele>163.8</ele>
        <time>2022-02-08T08:18:51Z</time>
      </trkpt>
      <trkpt lat="48.7556" lon="2.22884">
        <ele>164.1</ele>
        <time>2022-02-08T08:18:56Z</time>
      </trkpt>
      <trkpt lat="48.75552" lon="2.22875">
        <ele>164.4</ele>
        <time>2022-02-08T08:19:02Z</time>
      </trkpt>
      <trkpt lat="48.75547" lon="2.22868">
        <ele>164.5</ele>
        <time>2022-02-08T08:19:10Z</time>
      </trkpt>
      <trkpt lat="48.75541" lon="2.22861">
        <ele>164.7</ele>
        <time>2022-02-08T08:19:15Z</time>
      </trkpt>
      <trkpt lat="48.75536" lon="2.22855">
        <ele>164.8</ele>
        <time>2022-02-08T08:19:20Z</time>
      </trkpt>
      <trkpt lat="48.75529" lon="2.2285">
        <ele>164.9</ele>
        <time>2022-02-08T08:19:27Z</time>
      </trkpt>
      <trkpt lat="48.75523" lon="2.22846">
        <ele>164.9</ele>
        <time>2022-02-08T08:19:31Z</time>
      </trkpt>
      <trkpt lat="48.75516" lon="2.22842">
        <ele>165</ele>
        <time>2022-02-08T08:19:37Z</time>
      </trkpt>
      <trkpt lat="48.75509" lon="2.22838">
        <ele>165</ele>
        <time>2022-02-08T08:19:43Z</time>
      </trkpt>
      <trkpt lat="48.75499" lon="2.22835">
        <ele>165</ele>
        <time>2022-02-08T08:19:49Z</time>
      </trkpt>
      <trkpt lat="48.75493" lon="2.2284">
        <ele>164.8</ele>
        <time>2022-02-08T08:19:55Z</time>
      </trkpt>
      <trkpt lat="48.75486" lon="2.22847">
        <ele>164.7</ele>
        <time>2022-02-08T08:20:05Z</time>
      </trkpt>
      <trkpt lat="48.75492" lon="2.22853">
        <ele>164.9</ele>
        <time>2022-02-08T08:20:14Z</time>
      </trkpt>
      <trkpt lat="48.75489" lon="2.22861">
        <ele>164.8</ele>
        <time>2022-02-08T08:20:24Z</time>
      </trkpt>
      <trkpt lat="48.75487" lon="2.22876">
        <ele>164.8</ele>
        <time>2022-02-08T08:20:30Z</time>
      </trkpt>
      <trkpt lat="48.75484" lon="2.22888">
        <ele>164.9</ele>
        <time>2022-02-08T08:20:36Z</time>
      </trkpt>
      <trkpt lat="48.75484" lon="2.22901">
        <ele>164.9</ele>
        <time>2022-02-08T08:20:42Z</time>
      </trkpt>
      <trkpt lat="48.75484" lon="2.22912">
        <ele>165</ele>
        <time>2022-02-08T08:20:49Z</time>
      </trkpt>
      <trkpt lat="48.75485" lon="2.22922">
        <ele>165</ele>
        <time>2022-02-08T08:20:57Z</time>
      </trkpt>
      <trkpt lat="48.75484" lon="2.22933">
        <ele>164.8</ele>
        <time>2022-02-08T08:21:05Z</time>
      </trkpt>
      <trkpt lat="48.75486" lon="2.22944">
        <ele>164.8</ele>
        <time>2022-02-08T08:21:10Z</time>
      </trkpt>
      <trkpt lat="48.75485" lon="2.22954">
        <ele>164.7</ele>
        <time>2022-02-08T08:21:14Z</time>
      </trkpt>
      <trkpt lat="48.75483" lon="2.22963">
        <ele>164.5</ele>
        <time>2022-02-08T08:21:19Z</time>
      </trkpt>
      <trkpt lat="48.75481" lon="2.22973">
        <ele>164.4</ele>
        <time>2022-02-08T08:21:25Z</time>
      </trkpt>
      <trkpt lat="48.75479" lon="2.22983">
        <ele>164.2</ele>
        <time>2022-02-08T08:21:30Z</time>
      </trkpt>
      <trkpt lat="48.75477" lon="2.22994">
        <ele>164</ele>
        <time>2022-02-08T08:21:36Z</time>
      </trkpt>
      <trkpt lat="48.7548" lon="2.23003">
        <ele>163.8</ele>
        <time>2022-02-08T08:21:45Z</time>
      </trkpt>
      <trkpt lat="48.7548" lon="2.23013">
        <ele>162.9</ele>
        <time>2022-02-08T08:21:51Z</time>
      </trkpt>
      <trkpt lat="48.75481" lon="2.23023">
        <ele>162.1</ele>
        <time>2022-02-08T08:21:56Z</time>
      </trkpt>
      <trkpt lat="48.7548" lon="2.23033">
        <ele>161.1</ele>
        <time>2022-02-08T08:22:00Z</time>
      </trkpt>
      <trkpt lat="48.7548" lon="2.23045">
        <ele>160</ele>
        <time>2022-02-08T08:22:06Z</time>
      </trkpt>
      <trkpt lat="48.75485" lon="2.2306">
        <ele>159.2</ele>
        <time>2022-02-08T08:22:12Z</time>
      </trkpt>
      <trkpt lat="48.75485" lon="2.23074">
        <ele>158</ele>
        <time>2022-02-08T08:22:18Z</time>
      </trkpt>
      <trkpt lat="48.75485" lon="2.23088">
        <ele>156.6</ele>
        <time>2022-02-08T08:22:24Z</time>
      </trkpt>
      <trkpt lat="48.75482" lon="2.23101">
        <ele>154.6</ele>
        <time>2022-02-08T08:22:30Z</time>
      </trkpt>
      <trkpt lat="48.75484" lon="2.23112">
        <ele>153.5</ele>
        <time>2022-02-08T08:22:38Z</time>
      </trkpt>
      <trkpt lat="48.75484" lon="2.23122">
        <ele>152.3</ele>
        <time>2022-02-08T08:22:46Z</time>
      </trkpt>
      <trkpt lat="48.75483" lon="2.23133">
        <ele>150.7</ele>
        <time>2022-02-08T08:22:52Z</time>
      </trkpt>
      <trkpt lat="48.75483" lon="2.23144">
        <ele>149.4</ele>
        <time>2022-02-08T08:22:57Z</time>
      </trkpt>
      <trkpt lat="48.75485" lon="2.23155">
        <ele>148.4</ele>
        <time>2022-02-08T08:23:00Z</time>
      </trkpt>
      <trkpt lat="48.75479" lon="2.23162">
        <ele>146.3</ele>
        <time>2022-02-08T08:23:08Z</time>
      </trkpt>
      <trkpt lat="48.75482" lon="2.23171">
        <ele>146.5</ele>
        <time>2022-02-08T08:23:15Z</time>
      </trkpt>
      <trkpt lat="48.75483" lon="2.23183">
        <ele>147.2</ele>
        <time>2022-02-08T08:23:22Z</time>
      </trkpt>
      <trkpt lat="48.7548" lon="2.23195">
        <ele>147</ele>
        <time>2022-02-08T08:23:27Z</time>
      </trkpt>
      <trkpt lat="48.75476" lon="2.23209">
        <ele>146.8</ele>
        <time>2022-02-08T08:23:33Z</time>
      </trkpt>
      <trkpt lat="48.75474" lon="2.23223">
        <ele>146.9</ele>
        <time>2022-02-08T08:23:39Z</time>
      </trkpt>
      <trkpt lat="48.75471" lon="2.23238">
        <ele>146.9</ele>
        <time>2022-02-08T08:23:45Z</time>
      </trkpt>
      <trkpt lat="48.75471" lon="2.23253">
        <ele>147.6</ele>
        <time>2022-02-08T08:23:51Z</time>
      </trkpt>
      <trkpt lat="48.75469" lon="2.23263">
        <ele>148</ele>
        <time>2022-02-08T08:24:00Z</time>
      </trkpt>
      <trkpt lat="48.75473" lon="2.2327">
        <ele>149.3</ele>
        <time>2022-02-08T08:24:13Z</time>
      </trkpt>
      <trkpt lat="48.75471" lon="2.2326">
        <ele>148.2</ele>
        <time>2022-02-08T08:24:26Z</time>
      </trkpt>
      <trkpt lat="48.75465" lon="2.23251">
        <ele>146.4</ele>
        <time>2022-02-08T08:24:32Z</time>
      </trkpt>
      <trkpt lat="48.7546" lon="2.23244">
        <ele>145.1</ele>
        <time>2022-02-08T08:24:37Z</time>
      </trkpt>
      <trkpt lat="48.75457" lon="2.23236">
        <ele>144.2</ele>
        <time>2022-02-08T08:24:43Z</time>
      </trkpt>
      <trkpt lat="48.75453" lon="2.23226">
        <ele>142.9</ele>
        <time>2022-02-08T08:24:49Z</time>
      </trkpt>
      <trkpt lat="48.7545" lon="2.23218">
        <ele>142</ele>
        <time>2022-02-08T08:24:56Z</time>
      </trkpt>
      <trkpt lat="48.75446" lon="2.23209">
        <ele>140.8</ele>
        <time>2022-02-08T08:25:01Z</time>
      </trkpt>
      <trkpt lat="48.75442" lon="2.23201">
        <ele>139.7</ele>
        <time>2022-02-08T08:25:08Z</time>
      </trkpt>
      <trkpt lat="48.75437" lon="2.23194">
        <ele>138.4</ele>
        <time>2022-02-08T08:25:14Z</time>
      </trkpt>
      <trkpt lat="48.75429" lon="2.23194">
        <ele>136.8</ele>
        <time>2022-02-08T08:25:22Z</time>
      </trkpt>
      <trkpt lat="48.75423" lon="2.23198">
        <ele>135.8</ele>
        <time>2022-02-08T08:25:29Z</time>
      </trkpt>
      <trkpt lat="48.75417" lon="2.23204">
        <ele>134.9</ele>
        <time>2022-02-08T08:25:34Z</time>
      </trkpt>
      <trkpt lat="48.75412" lon="2.2321">
        <ele>134.4</ele>
        <time>2022-02-08T08:25:39Z</time>
      </trkpt>
      <trkpt lat="48.75407" lon="2.23203">
        <ele>133.4</ele>
        <time>2022-02-08T08:25:53Z</time>
      </trkpt>
      <trkpt lat="48.75402" lon="2.23211">
        <ele>133</ele>
        <time>2022-02-08T08:26:25Z</time>
      </trkpt>
      <trkpt lat="48.75395" lon="2.23215">
        <ele>132.1</ele>
        <time>2022-02-08T08:26:32Z</time>
      </trkpt>
      <trkpt lat="48.75388" lon="2.23216">
        <ele>131.1</ele>
        <time>2022-02-08T08:26:40Z</time>
      </trkpt>
      <trkpt lat="48.7538" lon="2.23218">
        <ele>129.9</ele>
        <time>2022-02-08T08:26:45Z</time>
      </trkpt>
      <trkpt lat="48.75372" lon="2.2322">
        <ele>128.7</ele>
        <time>2022-02-08T08:26:51Z</time>
      </trkpt>
      <trkpt lat="48.75366" lon="2.23222">
        <ele>127.8</ele>
        <time>2022-02-08T08:26:56Z</time>
      </trkpt>
      <trkpt lat="48.75358" lon="2.23224">
        <ele>126.5</ele>
        <time>2022-02-08T08:27:02Z</time>
      </trkpt>
      <trkpt lat="48.75352" lon="2.23228">
        <ele>125.5</ele>
        <time>2022-02-08T08:27:09Z</time>
      </trkpt>
      <trkpt lat="48.75345" lon="2.23233">
        <ele>124.3</ele>
        <time>2022-02-08T08:27:22Z</time>
      </trkpt>
      <trkpt lat="48.75338" lon="2.23238">
        <ele>123.1</ele>
        <time>2022-02-08T08:27:28Z</time>
      </trkpt>
      <trkpt lat="48.75331" lon="2.23239">
        <ele>122.2</ele>
        <time>2022-02-08T08:27:33Z</time>
      </trkpt>
      <trkpt lat="48.75324" lon="2.23237">
        <ele>121.9</ele>
        <time>2022-02-08T08:27:39Z</time>
      </trkpt>
      <trkpt lat="48.75317" lon="2.23233">
        <ele>121.5</ele>
        <time>2022-02-08T08:27:45Z</time>
      </trkpt>
      <trkpt lat="48.75311" lon="2.23229">
        <ele>121.2</ele>
        <time>2022-02-08T08:27:51Z</time>
      </trkpt>
      <trkpt lat="48.75304" lon="2.2323">
        <ele>120.8</ele>
        <time>2022-02-08T08:27:56Z</time>
      </trkpt>
      <trkpt lat="48.75297" lon="2.23232">
        <ele>120.5</ele>
        <time>2022-02-08T08:28:17Z</time>
      </trkpt>
      <trkpt lat="48.75288" lon="2.23235">
        <ele>120</ele>
        <time>2022-02-08T08:28:23Z</time>
      </trkpt>
      <trkpt lat="48.75281" lon="2.23241">
        <ele>119.9</ele>
        <time>2022-02-08T08:28:29Z</time>
      </trkpt>
      <trkpt lat="48.75274" lon="2.23245">
        <ele>119.7</ele>
        <time>2022-02-08T08:28:35Z</time>
      </trkpt>
      <trkpt lat="48.75266" lon="2.23246">
        <ele>119.4</ele>
        <time>2022-02-08T08:28:41Z</time>
      </trkpt>
      <trkpt lat="48.75259" lon="2.23247">
        <ele>119.2</ele>
        <time>2022-02-08T08:28:47Z</time>
      </trkpt>
      <trkpt lat="48.75251" lon="2.23249">
        <ele>119</ele>
        <time>2022-02-08T08:28:53Z</time>
      </trkpt>
      <trkpt lat="48.75245" lon="2.23252">
        <ele>118.8</ele>
        <time>2022-02-08T08:28:59Z</time>
      </trkpt>
      <trkpt lat="48.75238" lon="2.23256">
        <ele>118.7</ele>
        <time>2022-02-08T08:29:09Z</time>
      </trkpt>
      <trkpt lat="48.75231" lon="2.23256">
        <ele>118.1</ele>
        <time>2022-02-08T08:29:13Z</time>
      </trkpt>
      <trkpt lat="48.75224" lon="2.2325">
        <ele>116.8</ele>
        <time>2022-02-08T08:29:22Z</time>
      </trkpt>
      <trkpt lat="48.75217" lon="2.23246">
        <ele>115.9</ele>
        <time>2022-02-08T08:29:32Z</time>
      </trkpt>
      <trkpt lat="48.75209" lon="2.23244">
        <ele>115.1</ele>
        <time>2022-02-08T08:29:37Z</time>
      </trkpt>
      <trkpt lat="48.75203" lon="2.2324">
        <ele>114.3</ele>
        <time>2022-02-08T08:29:41Z</time>
      </trkpt>
      <trkpt lat="48.75197" lon="2.2324">
        <ele>113.8</ele>
        <time>2022-02-08T08:29:56Z</time>
      </trkpt>
      <trkpt lat="48.75189" lon="2.23242">
        <ele>113.3</ele>
        <time>2022-02-08T08:30:19Z</time>
      </trkpt>
      <trkpt lat="48.75185" lon="2.23233">
        <ele>112.2</ele>
        <time>2022-02-08T08:30:54Z</time>
      </trkpt>
      <trkpt lat="48.75179" lon="2.23234">
        <ele>111.7</ele>
        <time>2022-02-08T08:31:02Z</time>
      </trkpt>
      <trkpt lat="48.75173" lon="2.23242">
        <ele>111.9</ele>
        <time>2022-02-08T08:31:29Z</time>
      </trkpt>
      <trkpt lat="48.75168" lon="2.23249">
        <ele>112</ele>
        <time>2022-02-08T08:31:48Z</time>
      </trkpt>
      <trkpt lat="48.75162" lon="2.23255">
        <ele>112.5</ele>
        <time>2022-02-08T08:31:52Z</time>
      </trkpt>
      <trkpt lat="48.75155" lon="2.23261">
        <ele>113.1</ele>
        <time>2022-02-08T08:31:57Z</time>
      </trkpt>
      <trkpt lat="48.75151" lon="2.2327">
        <ele>114.2</ele>
        <time>2022-02-08T08:32:03Z</time>
      </trkpt>
      <trkpt lat="48.75144" lon="2.2327">
        <ele>114</ele>
        <time>2022-02-08T08:32:27Z</time>
      </trkpt>
      <trkpt lat="48.75136" lon="2.2327">
        <ele>113.7</ele>
        <time>2022-02-08T08:32:32Z</time>
      </trkpt>
      <trkpt lat="48.75129" lon="2.23269">
        <ele>113.4</ele>
        <time>2022-02-08T08:32:36Z</time>
      </trkpt>
      <trkpt lat="48.75118" lon="2.23264">
        <ele>112.5</ele>
        <time>2022-02-08T08:32:42Z</time>
      </trkpt>
      <trkpt lat="48.75109" lon="2.2326">
        <ele>111.8</ele>
        <time>2022-02-08T08:32:48Z</time>
      </trkpt>
      <trkpt lat="48.75103" lon="2.23256">
        <ele>111.2</ele>
        <time>2022-02-08T08:32:54Z</time>
      </trkpt>
      <trkpt lat="48.75096" lon="2.23255">
        <ele>110.9</ele>
        <time>2022-02-08T08:33:00Z</time>
      </trkpt>
      <trkpt lat="48.75089" lon="2.23258">
        <ele>111</ele>
        <time>2022-02-08T08:33:10Z</time>
      </trkpt>
      <trkpt lat="48.75088" lon="2.23269">
        <ele>112.2</ele>
        <time>2022-02-08T08:33:17Z</time>
      </trkpt>
      <trkpt lat="48.75088" lon="2.23279">
        <ele>113.3</ele>
        <time>2022-02-08T08:33:35Z</time>
      </trkpt>
      <trkpt lat="48.75092" lon="2.23289">
        <ele>114.5</ele>
        <time>2022-02-08T08:33:41Z</time>
      </trkpt>
      <trkpt lat="48.75096" lon="2.23299">
        <ele>115.8</ele>
        <time>2022-02-08T08:33:46Z</time>
      </trkpt>
      <trkpt lat="48.75099" lon="2.23309">
        <ele>117</ele>
        <time>2022-02-08T08:33:52Z</time>
      </trkpt>
      <trkpt lat="48.751" lon="2.2332">
        <ele>118.3</ele>
        <time>2022-02-08T08:34:01Z</time>
      </trkpt>
      <trkpt lat="48.751" lon="2.2333">
        <ele>119.4</ele>
        <time>2022-02-08T08:34:07Z</time>
      </trkpt>
      <trkpt lat="48.75098" lon="2.23341">
        <ele>121</ele>
        <time>2022-02-08T08:34:13Z</time>
      </trkpt>
      <trkpt lat="48.75095" lon="2.2335">
        <ele>122.3</ele>
        <time>2022-02-08T08:34:22Z</time>
      </trkpt>
      <trkpt lat="48.75094" lon="2.23361">
        <ele>124</ele>
        <time>2022-02-08T08:34:33Z</time>
      </trkpt>
      <trkpt lat="48.75095" lon="2.23371">
        <ele>125.7</ele>
        <time>2022-02-08T08:34:44Z</time>
      </trkpt>
      <trkpt lat="48.751" lon="2.23379">
        <ele>127.4</ele>
        <time>2022-02-08T08:35:06Z</time>
      </trkpt>
      <trkpt lat="48.75107" lon="2.23377">
        <ele>127.5</ele>
        <time>2022-02-08T08:35:24Z</time>
      </trkpt>
      <trkpt lat="48.75113" lon="2.23375">
        <ele>127.6</ele>
        <time>2022-02-08T08:35:30Z</time>
      </trkpt>
      <trkpt lat="48.7512" lon="2.23377">
        <ele>128.5</ele>
        <time>2022-02-08T08:35:35Z</time>
      </trkpt>
      <trkpt lat="48.75127" lon="2.23379">
        <ele>129.4</ele>
        <time>2022-02-08T08:35:41Z</time>
      </trkpt>
      <trkpt lat="48.75133" lon="2.23384">
        <ele>130.7</ele>
        <time>2022-02-08T08:35:48Z</time>
      </trkpt>
      <trkpt lat="48.7514" lon="2.23387">
        <ele>131.8</ele>
        <time>2022-02-08T08:35:56Z</time>
      </trkpt>
      <trkpt lat="48.75147" lon="2.23387">
        <ele>132.4</ele>
        <time>2022-02-08T08:36:04Z</time>
      </trkpt>
      <trkpt lat="48.75152" lon="2.23395">
        <ele>134.4</ele>
        <time>2022-02-08T08:36:13Z</time>
      </trkpt>
      <trkpt lat="48.75155" lon="2.23404">
        <ele>136.4</ele>
        <time>2022-02-08T08:36:21Z</time>
      </trkpt>
      <trkpt lat="48.75157" lon="2.23414">
        <ele>138.5</ele>
        <time>2022-02-08T08:36:33Z</time>
      </trkpt>
      <trkpt lat="48.75159" lon="2.23423">
        <ele>140.2</ele>
        <time>2022-02-08T08:36:46Z</time>
      </trkpt>
      <trkpt lat="48.75163" lon="2.23433">
        <ele>142</ele>
        <time>2022-02-08T08:37:02Z</time>
      </trkpt>
      <trkpt lat="48.75164" lon="2.23443">
        <ele>143.5</ele>
        <time>2022-02-08T08:37:09Z</time>
      </trkpt>
      <trkpt lat="48.75164" lon="2.23453">
        <ele>144.9</ele>
        <time>2022-02-08T08:37:21Z</time>
      </trkpt>
      <trkpt lat="48.75171" lon="2.23456">
        <ele>145.9</ele>
        <time>2022-02-08T08:37:29Z</time>
      </trkpt>
      <trkpt lat="48.75176" lon="2.2346">
        <ele>146.8</ele>
        <time>2022-02-08T08:37:41Z</time>
      </trkpt>
      <trkpt lat="48.75185" lon="2.23454">
        <ele>146.4</ele>
        <time>2022-02-08T08:38:00Z</time>
      </trkpt>
      <trkpt lat="48.75189" lon="2.23446">
        <ele>145.3</ele>
        <time>2022-02-08T08:38:12Z</time>
      </trkpt>
      <trkpt lat="48.75188" lon="2.23456">
        <ele>146.9</ele>
        <time>2022-02-08T08:39:37Z</time>
      </trkpt>
      <trkpt lat="48.75194" lon="2.23462">
        <ele>148.3</ele>
        <time>2022-02-08T08:39:46Z</time>
      </trkpt>
      <trkpt lat="48.75199" lon="2.23471">
        <ele>150.1</ele>
        <time>2022-02-08T08:39:51Z</time>
      </trkpt>
      <trkpt lat="48.75202" lon="2.23481">
        <ele>152.1</ele>
        <time>2022-02-08T08:39:57Z</time>
      </trkpt>
      <trkpt lat="48.75203" lon="2.23494">
        <ele>154.4</ele>
        <time>2022-02-08T08:40:03Z</time>
      </trkpt>
      <trkpt lat="48.75203" lon="2.23505">
        <ele>155.9</ele>
        <time>2022-02-08T08:40:11Z</time>
      </trkpt>
      <trkpt lat="48.75198" lon="2.23512">
        <ele>156.1</ele>
        <time>2022-02-08T08:40:27Z</time>
      </trkpt>
      <trkpt lat="48.75198" lon="2.23522">
        <ele>156.9</ele>
        <time>2022-02-08T08:40:48Z</time>
      </trkpt>
      <trkpt lat="48.75198" lon="2.23533">
        <ele>157.9</ele>
        <time>2022-02-08T08:40:58Z</time>
      </trkpt>
      <trkpt lat="48.75197" lon="2.23544">
        <ele>158.8</ele>
        <time>2022-02-08T08:41:07Z</time>
      </trkpt>
      <trkpt lat="48.75196" lon="2.23554">
        <ele>159.5</ele>
        <time>2022-02-08T08:41:13Z</time>
      </trkpt>
      <trkpt lat="48.75195" lon="2.23564">
        <ele>160.3</ele>
        <time>2022-02-08T08:41:19Z</time>
      </trkpt>
      <trkpt lat="48.75196" lon="2.23574">
        <ele>161.3</ele>
        <time>2022-02-08T08:41:25Z</time>
      </trkpt>
      <trkpt lat="48.75196" lon="2.23584">
        <ele>162.1</ele>
        <time>2022-02-08T08:41:31Z</time>
      </trkpt>
      <trkpt lat="48.75197" lon="2.23595">
        <ele>162.7</ele>
        <time>2022-02-08T08:41:36Z</time>
      </trkpt>
      <trkpt lat="48.75201" lon="2.23604">
        <ele>163.4</ele>
        <time>2022-02-08T08:41:42Z</time>
      </trkpt>
      <trkpt lat="48.75201" lon="2.23614">
        <ele>163.9</ele>
        <time>2022-02-08T08:41:49Z</time>
      </trkpt>
      <trkpt lat="48.75202" lon="2.23624">
        <ele>164.4</ele>
        <time>2022-02-08T08:41:54Z</time>
      </trkpt>
      <trkpt lat="48.75202" lon="2.23635">
        <ele>164.9</ele>
        <time>2022-02-08T08:42:01Z</time>
      </trkpt>
      <trkpt lat="48.75204" lon="2.23645">
        <ele>165.4</ele>
        <time>2022-02-08T08:42:08Z</time>
      </trkpt>
      <trkpt lat="48.75206" lon="2.23655">
        <ele>165.9</ele>
        <time>2022-02-08T08:42:13Z</time>
      </trkpt>
      <trkpt lat="48.7521" lon="2.23664">
        <ele>166.4</ele>
        <time>2022-02-08T08:42:18Z</time>
      </trkpt>
      <trkpt lat="48.75217" lon="2.23665">
        <ele>166.7</ele>
        <time>2022-02-08T08:42:33Z</time>
      </trkpt>
      <trkpt lat="48.75224" lon="2.23669">
        <ele>167.1</ele>
        <time>2022-02-08T08:42:39Z</time>
      </trkpt>
      <trkpt lat="48.75231" lon="2.23676">
        <ele>167.5</ele>
        <time>2022-02-08T08:42:45Z</time>
      </trkpt>
      <trkpt lat="48.75235" lon="2.23685">
        <ele>167.9</ele>
        <time>2022-02-08T08:42:52Z</time>
      </trkpt>
      <trkpt lat="48.75242" lon="2.2369">
        <ele>168.2</ele>
        <time>2022-02-08T08:42:57Z</time>
      </trkpt>
      <trkpt lat="48.75249" lon="2.23701">
        <ele>168.8</ele>
        <time>2022-02-08T08:43:03Z</time>
      </trkpt>
      <trkpt lat="48.75254" lon="2.2371">
        <ele>168.8</ele>
        <time>2022-02-08T08:43:09Z</time>
      </trkpt>
      <trkpt lat="48.75259" lon="2.23718">
        <ele>168.8</ele>
        <time>2022-02-08T08:43:15Z</time>
      </trkpt>
      <trkpt lat="48.75266" lon="2.23725">
        <ele>168.6</ele>
        <time>2022-02-08T08:43:21Z</time>
      </trkpt>
      <trkpt lat="48.75275" lon="2.23732">
        <ele>168.2</ele>
        <time>2022-02-08T08:43:27Z</time>
      </trkpt>
      <trkpt lat="48.75285" lon="2.2374">
        <ele>167.8</ele>
        <time>2022-02-08T08:43:33Z</time>
      </trkpt>
      <trkpt lat="48.75292" lon="2.23749">
        <ele>167.5</ele>
        <time>2022-02-08T08:43:39Z</time>
      </trkpt>
      <trkpt lat="48.75299" lon="2.23756">
        <ele>167.1</ele>
        <time>2022-02-08T08:43:45Z</time>
      </trkpt>
      <trkpt lat="48.75305" lon="2.23762">
        <ele>166.7</ele>
        <time>2022-02-08T08:43:51Z</time>
      </trkpt>
      <trkpt lat="48.7531" lon="2.23771">
        <ele>166.5</ele>
        <time>2022-02-08T08:43:58Z</time>
      </trkpt>
      <trkpt lat="48.75315" lon="2.23778">
        <ele>166.2</ele>
        <time>2022-02-08T08:44:04Z</time>
      </trkpt>
      <trkpt lat="48.7532" lon="2.23784">
        <ele>165.9</ele>
        <time>2022-02-08T08:44:09Z</time>
      </trkpt>
      <trkpt lat="48.75326" lon="2.2379">
        <ele>165.5</ele>
        <time>2022-02-08T08:44:15Z</time>
      </trkpt>
      <trkpt lat="48.75332" lon="2.23795">
        <ele>165.1</ele>
        <time>2022-02-08T08:44:23Z</time>
      </trkpt>
      <trkpt lat="48.75338" lon="2.23802">
        <ele>165</ele>
        <time>2022-02-08T08:44:28Z</time>
      </trkpt>
      <trkpt lat="48.75344" lon="2.2381">
        <ele>165.1</ele>
        <time>2022-02-08T08:44:33Z</time>
      </trkpt>
      <trkpt lat="48.75351" lon="2.23814">
        <ele>165.2</ele>
        <time>2022-02-08T08:44:39Z</time>
      </trkpt>
      <trkpt lat="48.75357" lon="2.2382">
        <ele>165.2</ele>
        <time>2022-02-08T08:44:45Z</time>
      </trkpt>
      <trkpt lat="48.75364" lon="2.23829">
        <ele>165.3</ele>
        <time>2022-02-08T08:44:51Z</time>
      </trkpt>
      <trkpt lat="48.7537" lon="2.23838">
        <ele>165.5</ele>
        <time>2022-02-08T08:44:57Z</time>
      </trkpt>
      <trkpt lat="48.75376" lon="2.23844">
        <ele>165.8</ele>
        <time>2022-02-08T08:45:03Z</time>
      </trkpt>
      <trkpt lat="48.75381" lon="2.23849">
        <ele>166</ele>
        <time>2022-02-08T08:45:10Z</time>
      </trkpt>
      <trkpt lat="48.75387" lon="2.23857">
        <ele>166.3</ele>
        <time>2022-02-08T08:45:17Z</time>
      </trkpt>
      <trkpt lat="48.75392" lon="2.23863">
        <ele>166.6</ele>
        <time>2022-02-08T08:45:23Z</time>
      </trkpt>
      <trkpt lat="48.75398" lon="2.23868">
        <ele>166.8</ele>
        <time>2022-02-08T08:45:29Z</time>
      </trkpt>
      <trkpt lat="48.75405" lon="2.23873">
        <ele>167.2</ele>
        <time>2022-02-08T08:45:35Z</time>
      </trkpt>
      <trkpt lat="48.75412" lon="2.23876">
        <ele>167.4</ele>
        <time>2022-02-08T08:45:40Z</time>
      </trkpt>
      <trkpt lat="48.75418" lon="2.23877">
        <ele>167.7</ele>
        <time>2022-02-08T08:45:48Z</time>
      </trkpt>
      <trkpt lat="48.75425" lon="2.23882">
        <ele>168.3</ele>
        <time>2022-02-08T08:46:08Z</time>
      </trkpt>
      <trkpt lat="48.75431" lon="2.23885">
        <ele>168.7</ele>
        <time>2022-02-08T08:46:14Z</time>
      </trkpt>
      <trkpt lat="48.75439" lon="2.23879">
        <ele>169.1</ele>
        <time>2022-02-08T08:46:24Z</time>
      </trkpt>
      <trkpt lat="48.75445" lon="2.23875">
        <ele>169.4</ele>
        <time>2022-02-08T08:46:29Z</time>
      </trkpt>
      <trkpt lat="48.75452" lon="2.2387">
        <ele>169.7</ele>
        <time>2022-02-08T08:46:35Z</time>
      </trkpt>
      <trkpt lat="48.75458" lon="2.23863">
        <ele>170</ele>
        <time>2022-02-08T08:46:40Z</time>
      </trkpt>
      <trkpt lat="48.75465" lon="2.23855">
        <ele>170.4</ele>
        <time>2022-02-08T08:46:45Z</time>
      </trkpt>
      <trkpt lat="48.75473" lon="2.23847">
        <ele>170.9</ele>
        <time>2022-02-08T08:46:51Z</time>
      </trkpt>
      <trkpt lat="48.75482" lon="2.23843">
        <ele>171.6</ele>
        <time>2022-02-08T08:46:57Z</time>
      </trkpt>
      <trkpt lat="48.75488" lon="2.23837">
        <ele>172</ele>
        <time>2022-02-08T08:47:04Z</time>
      </trkpt>
      <trkpt lat="48.75494" lon="2.23829">
        <ele>172.3</ele>
        <time>2022-02-08T08:47:10Z</time>
      </trkpt>
      <trkpt lat="48.755" lon="2.23825">
        <ele>172.7</ele>
        <time>2022-02-08T08:47:15Z</time>
      </trkpt>
      <trkpt lat="48.75508" lon="2.23823">
        <ele>172.9</ele>
        <time>2022-02-08T08:47:21Z</time>
      </trkpt>
      <trkpt lat="48.75517" lon="2.23818">
        <ele>173.1</ele>
        <time>2022-02-08T08:47:27Z</time>
      </trkpt>
      <trkpt lat="48.75524" lon="2.2381">
        <ele>173.2</ele>
        <time>2022-02-08T08:47:33Z</time>
      </trkpt>
      <trkpt lat="48.75533" lon="2.23804">
        <ele>173.4</ele>
        <time>2022-02-08T08:47:39Z</time>
      </trkpt>
      <trkpt lat="48.7554" lon="2.23797">
        <ele>173.6</ele>
        <time>2022-02-08T08:47:45Z</time>
      </trkpt>
      <trkpt lat="48.75546" lon="2.2379">
        <ele>173.7</ele>
        <time>2022-02-08T08:47:51Z</time>
      </trkpt>
      <trkpt lat="48.75554" lon="2.23788">
        <ele>174</ele>
        <time>2022-02-08T08:47:57Z</time>
      </trkpt>
      <trkpt lat="48.75563" lon="2.23781">
        <ele>174.3</ele>
        <time>2022-02-08T08:48:03Z</time>
      </trkpt>
      <trkpt lat="48.7557" lon="2.23772">
        <ele>174.5</ele>
        <time>2022-02-08T08:48:09Z</time>
      </trkpt>
      <trkpt lat="48.75577" lon="2.23764">
        <ele>174.8</ele>
        <time>2022-02-08T08:48:15Z</time>
      </trkpt>
      <trkpt lat="48.75584" lon="2.23757">
        <ele>175.1</ele>
        <time>2022-02-08T08:48:21Z</time>
      </trkpt>
      <trkpt lat="48.7559" lon="2.23751">
        <ele>175.3</ele>
        <time>2022-02-08T08:48:28Z</time>
      </trkpt>
      <trkpt lat="48.75597" lon="2.23748">
        <ele>175.6</ele>
        <time>2022-02-08T08:48:33Z</time>
      </trkpt>
      <trkpt lat="48.75604" lon="2.23741">
        <ele>175.7</ele>
        <time>2022-02-08T08:48:39Z</time>
      </trkpt>
      <trkpt lat="48.75611" lon="2.23733">
        <ele>175.8</ele>
        <time>2022-02-08T08:48:45Z</time>
      </trkpt>
      <trkpt lat="48.75619" lon="2.23729">
        <ele>176</ele>
        <time>2022-02-08T08:48:51Z</time>
      </trkpt>
      <trkpt lat="48.75626" lon="2.23723">
        <ele>176.1</ele>
        <time>2022-02-08T08:48:57Z</time>
      </trkpt>
      <trkpt lat="48.75633" lon="2.23717">
        <ele>176.1</ele>
        <time>2022-02-08T08:49:03Z</time>
      </trkpt>
      <trkpt lat="48.75639" lon="2.23711">
        <ele>176.1</ele>
        <time>2022-02-08T08:49:09Z</time>
      </trkpt>
      <trkpt lat="48.75644" lon="2.23705">
        <ele>176</ele>
        <time>2022-02-08T08:49:21Z</time>
      </trkpt>
      <trkpt lat="48.75651" lon="2.237">
        <ele>176.1</ele>
        <time>2022-02-08T08:49:27Z</time>
      </trkpt>
      <trkpt lat="48.75659" lon="2.23701">
        <ele>176.4</ele>
        <time>2022-02-08T08:49:56Z</time>
      </trkpt>
      <trkpt lat="48.75665" lon="2.23707">
        <ele>176.9</ele>
        <time>2022-02-08T08:50:04Z</time>
      </trkpt>
      <trkpt lat="48.75666" lon="2.23718">
        <ele>177.4</ele>
        <time>2022-02-08T08:50:13Z</time>
      </trkpt>
      <trkpt lat="48.75664" lon="2.23728">
        <ele>177.8</ele>
        <time>2022-02-08T08:50:20Z</time>
      </trkpt>
      <trkpt lat="48.7566" lon="2.23736">
        <ele>178</ele>
        <time>2022-02-08T08:50:26Z</time>
      </trkpt>
      <trkpt lat="48.75658" lon="2.23748">
        <ele>178.5</ele>
        <time>2022-02-08T08:50:32Z</time>
      </trkpt>
      <trkpt lat="48.75655" lon="2.2376">
        <ele>178.6</ele>
        <time>2022-02-08T08:50:38Z</time>
      </trkpt>
      <trkpt lat="48.75654" lon="2.23771">
        <ele>178.6</ele>
        <time>2022-02-08T08:50:44Z</time>
      </trkpt>
      <trkpt lat="48.75653" lon="2.23784">
        <ele>178.8</ele>
        <time>2022-02-08T08:50:50Z</time>
      </trkpt>
      <trkpt lat="48.75649" lon="2.23795">
        <ele>178.7</ele>
        <time>2022-02-08T08:50:56Z</time>
      </trkpt>
      <trkpt lat="48.75644" lon="2.23805">
        <ele>178.6</ele>
        <time>2022-02-08T08:51:02Z</time>
      </trkpt>
      <trkpt lat="48.75641" lon="2.23816">
        <ele>178.6</ele>
        <time>2022-02-08T08:51:08Z</time>
      </trkpt>
      <trkpt lat="48.75638" lon="2.23827">
        <ele>178.5</ele>
        <time>2022-02-08T08:51:14Z</time>
      </trkpt>
      <trkpt lat="48.75637" lon="2.23839">
        <ele>178.6</ele>
        <time>2022-02-08T08:51:20Z</time>
      </trkpt>
      <trkpt lat="48.75633" lon="2.23849">
        <ele>178.3</ele>
        <time>2022-02-08T08:51:27Z</time>
      </trkpt>
      <trkpt lat="48.75631" lon="2.23859">
        <ele>178.2</ele>
        <time>2022-02-08T08:51:35Z</time>
      </trkpt>
      <trkpt lat="48.7563" lon="2.2387">
        <ele>178.2</ele>
        <time>2022-02-08T08:51:41Z</time>
      </trkpt>
      <trkpt lat="48.75629" lon="2.23881">
        <ele>178.1</ele>
        <time>2022-02-08T08:51:49Z</time>
      </trkpt>
      <trkpt lat="48.75626" lon="2.23891">
        <ele>178</ele>
        <time>2022-02-08T08:51:56Z</time>
      </trkpt>
      <trkpt lat="48.75624" lon="2.23901">
        <ele>178</ele>
        <time>2022-02-08T08:52:03Z</time>
      </trkpt>
      <trkpt lat="48.75618" lon="2.23908">
        <ele>177.8</ele>
        <time>2022-02-08T08:52:12Z</time>
      </trkpt>
      <trkpt lat="48.75611" lon="2.23909">
        <ele>177.6</ele>
        <time>2022-02-08T08:52:22Z</time>
      </trkpt>
      <trkpt lat="48.75604" lon="2.23914">
        <ele>177.5</ele>
        <time>2022-02-08T08:52:28Z</time>
      </trkpt>
      <trkpt lat="48.75597" lon="2.23914">
        <ele>177.3</ele>
        <time>2022-02-08T08:53:00Z</time>
      </trkpt>
      <trkpt lat="48.75592" lon="2.23922">
        <ele>177.1</ele>
        <time>2022-02-08T08:53:06Z</time>
      </trkpt>
      <trkpt lat="48.75588" lon="2.23935">
        <ele>176.9</ele>
        <time>2022-02-08T08:53:12Z</time>
      </trkpt>
      <trkpt lat="48.75589" lon="2.23945">
        <ele>176.8</ele>
        <time>2022-02-08T08:53:19Z</time>
      </trkpt>
      <trkpt lat="48.75596" lon="2.2395">
        <ele>176.9</ele>
        <time>2022-02-08T08:53:25Z</time>
      </trkpt>
      <trkpt lat="48.75603" lon="2.23954">
        <ele>177</ele>
        <time>2022-02-08T08:53:31Z</time>
      </trkpt>
      <trkpt lat="48.75605" lon="2.23964">
        <ele>177</ele>
        <time>2022-02-08T08:53:38Z</time>
      </trkpt>
      <trkpt lat="48.75602" lon="2.23974">
        <ele>176.8</ele>
        <time>2022-02-08T08:53:43Z</time>
      </trkpt>
      <trkpt lat="48.75599" lon="2.23984">
        <ele>176.6</ele>
        <time>2022-02-08T08:53:49Z</time>
      </trkpt>
      <trkpt lat="48.75598" lon="2.23995">
        <ele>176.4</ele>
        <time>2022-02-08T08:53:55Z</time>
      </trkpt>
      <trkpt lat="48.75598" lon="2.24006">
        <ele>176.4</ele>
        <time>2022-02-08T08:54:01Z</time>
      </trkpt>
      <trkpt lat="48.75599" lon="2.24016">
        <ele>176.4</ele>
        <time>2022-02-08T08:54:08Z</time>
      </trkpt>
      <trkpt lat="48.75596" lon="2.24027">
        <ele>176.3</ele>
        <time>2022-02-08T08:54:15Z</time>
      </trkpt>
      <trkpt lat="48.75591" lon="2.24035">
        <ele>176.2</ele>
        <time>2022-02-08T08:54:19Z</time>
      </trkpt>
      <trkpt lat="48.75588" lon="2.24044">
        <ele>176.1</ele>
        <time>2022-02-08T08:54:24Z</time>
      </trkpt>
      <trkpt lat="48.75585" lon="2.24055">
        <ele>176</ele>
        <time>2022-02-08T08:54:30Z</time>
      </trkpt>
      <trkpt lat="48.75585" lon="2.24065">
        <ele>176</ele>
        <time>2022-02-08T08:54:49Z</time>
      </trkpt>
      <trkpt lat="48.75582" lon="2.24075">
        <ele>175.9</ele>
        <time>2022-02-08T08:54:56Z</time>
      </trkpt>
      <trkpt lat="48.75581" lon="2.24086">
        <ele>175.9</ele>
        <time>2022-02-08T08:55:02Z</time>
      </trkpt>
      <trkpt lat="48.75579" lon="2.24096">
        <ele>175.9</ele>
        <time>2022-02-08T08:55:09Z</time>
      </trkpt>
      <trkpt lat="48.7558" lon="2.24106">
        <ele>176.1</ele>
        <time>2022-02-08T08:55:20Z</time>
      </trkpt>
      <trkpt lat="48.75578" lon="2.24117">
        <ele>176.1</ele>
        <time>2022-02-08T08:55:25Z</time>
      </trkpt>
      <trkpt lat="48.75575" lon="2.24127">
        <ele>176.1</ele>
        <time>2022-02-08T08:55:34Z</time>
      </trkpt>
      <trkpt lat="48.75572" lon="2.24136">
        <ele>176.1</ele>
        <time>2022-02-08T08:55:39Z</time>
      </trkpt>
      <trkpt lat="48.75569" lon="2.24145">
        <ele>176.1</ele>
        <time>2022-02-08T08:55:43Z</time>
      </trkpt>
      <trkpt lat="48.75566" lon="2.24156">
        <ele>176</ele>
        <time>2022-02-08T08:55:49Z</time>
      </trkpt>
      <trkpt lat="48.75563" lon="2.24166">
        <ele>176</ele>
        <time>2022-02-08T08:55:55Z</time>
      </trkpt>
      <trkpt lat="48.75564" lon="2.24176">
        <ele>176.3</ele>
        <time>2022-02-08T08:56:02Z</time>
      </trkpt>
      <trkpt lat="48.75563" lon="2.24186">
        <ele>176.5</ele>
        <time>2022-02-08T08:56:11Z</time>
      </trkpt>
      <trkpt lat="48.75568" lon="2.24192">
        <ele>176.9</ele>
        <time>2022-02-08T08:56:19Z</time>
      </trkpt>
      <trkpt lat="48.75573" lon="2.242">
        <ele>177.4</ele>
        <time>2022-02-08T08:56:24Z</time>
      </trkpt>
      <trkpt lat="48.75576" lon="2.24213">
        <ele>177.8</ele>
        <time>2022-02-08T08:56:30Z</time>
      </trkpt>
      <trkpt lat="48.75569" lon="2.24211">
        <ele>177.5</ele>
        <time>2022-02-08T08:56:45Z</time>
      </trkpt>
      <trkpt lat="48.75562" lon="2.24215">
        <ele>177.3</ele>
        <time>2022-02-08T08:56:50Z</time>
      </trkpt>
      <trkpt lat="48.75556" lon="2.2422">
        <ele>177.2</ele>
        <time>2022-02-08T08:56:53Z</time>
      </trkpt>
      <trkpt lat="48.75546" lon="2.24225">
        <ele>176.9</ele>
        <time>2022-02-08T08:56:59Z</time>
      </trkpt>
      <trkpt lat="48.75539" lon="2.24227">
        <ele>176.7</ele>
        <time>2022-02-08T08:57:05Z</time>
      </trkpt>
      <trkpt lat="48.75533" lon="2.24226">
        <ele>176.4</ele>
        <time>2022-02-08T08:57:11Z</time>
      </trkpt>
      <trkpt lat="48.75526" lon="2.24228">
        <ele>176.2</ele>
        <time>2022-02-08T08:57:17Z</time>
      </trkpt>
      <trkpt lat="48.7552" lon="2.24224">
        <ele>175.9</ele>
        <time>2022-02-08T08:57:22Z</time>
      </trkpt>
      <trkpt lat="48.75511" lon="2.24221">
        <ele>175.4</ele>
        <time>2022-02-08T08:57:27Z</time>
      </trkpt>
      <trkpt lat="48.75502" lon="2.24216">
        <ele>174.9</ele>
        <time>2022-02-08T08:57:33Z</time>
      </trkpt>
      <trkpt lat="48.75493" lon="2.24212">
        <ele>174.5</ele>
        <time>2022-02-08T08:57:39Z</time>
      </trkpt>
      <trkpt lat="48.75483" lon="2.24211">
        <ele>174.2</ele>
        <time>2022-02-08T08:57:45Z</time>
      </trkpt>
      <trkpt lat="48.75474" lon="2.24209">
        <ele>173.9</ele>
        <time>2022-02-08T08:57:51Z</time>
      </trkpt>
      <trkpt lat="48.75468" lon="2.24206">
        <ele>173.7</ele>
        <time>2022-02-08T08:57:57Z</time>
      </trkpt>
      <trkpt lat="48.75461" lon="2.24203">
        <ele>173.4</ele>
        <time>2022-02-08T08:58:03Z</time>
      </trkpt>
      <trkpt lat="48.75452" lon="2.24198">
        <ele>173.1</ele>
        <time>2022-02-08T08:58:09Z</time>
      </trkpt>
      <trkpt lat="48.75445" lon="2.24196">
        <ele>172.9</ele>
        <time>2022-02-08T08:58:15Z</time>
      </trkpt>
      <trkpt lat="48.75437" lon="2.24197">
        <ele>172.8</ele>
        <time>2022-02-08T08:58:22Z</time>
      </trkpt>
      <trkpt lat="48.7543" lon="2.24194">
        <ele>172.6</ele>
        <time>2022-02-08T08:58:27Z</time>
      </trkpt>
      <trkpt lat="48.75419" lon="2.2419">
        <ele>172.3</ele>
        <time>2022-02-08T08:58:33Z</time>
      </trkpt>
      <trkpt lat="48.75412" lon="2.24189">
        <ele>172.1</ele>
        <time>2022-02-08T08:58:39Z</time>
      </trkpt>
      <trkpt lat="48.75406" lon="2.24182">
        <ele>171.7</ele>
        <time>2022-02-08T08:59:08Z</time>
      </trkpt>
      <trkpt lat="48.75398" lon="2.24181">
        <ele>171.4</ele>
        <time>2022-02-08T08:59:14Z</time>
      </trkpt>
      <trkpt lat="48.75393" lon="2.24188">
        <ele>171.3</ele>
        <time>2022-02-08T08:59:34Z</time>
      </trkpt>
      <trkpt lat="48.75387" lon="2.24196">
        <ele>171.2</ele>
        <time>2022-02-08T08:59:40Z</time>
      </trkpt>
      <trkpt lat="48.75383" lon="2.24205">
        <ele>171.2</ele>
        <time>2022-02-08T08:59:49Z</time>
      </trkpt>
      <trkpt lat="48.75379" lon="2.24216">
        <ele>171.3</ele>
        <time>2022-02-08T09:00:08Z</time>
      </trkpt>
      <trkpt lat="48.7538" lon="2.24225">
        <ele>171.6</ele>
        <time>2022-02-08T09:00:19Z</time>
      </trkpt>
      <trkpt lat="48.7538" lon="2.24236">
        <ele>171.8</ele>
        <time>2022-02-08T09:00:31Z</time>
      </trkpt>
      <trkpt lat="48.75375" lon="2.24244">
        <ele>171.9</ele>
        <time>2022-02-08T09:00:38Z</time>
      </trkpt>
      <trkpt lat="48.75377" lon="2.24253">
        <ele>172.1</ele>
        <time>2022-02-08T09:01:18Z</time>
      </trkpt>
      <trkpt lat="48.75383" lon="2.24248">
        <ele>172.1</ele>
        <time>2022-02-08T09:01:38Z</time>
      </trkpt>
      <trkpt lat="48.75388" lon="2.24241">
        <ele>172.1</ele>
        <time>2022-02-08T09:01:45Z</time>
      </trkpt>
      <trkpt lat="48.75394" lon="2.24234">
        <ele>172.2</ele>
        <time>2022-02-08T09:01:53Z</time>
      </trkpt>
      <trkpt lat="48.75395" lon="2.24224">
        <ele>172</ele>
        <time>2022-02-08T09:02:12Z</time>
      </trkpt>
      <trkpt lat="48.75398" lon="2.24215">
        <ele>171.9</ele>
        <time>2022-02-08T09:02:19Z</time>
      </trkpt>
      <trkpt lat="48.754" lon="2.24204">
        <ele>171.8</ele>
        <time>2022-02-08T09:02:24Z</time>
      </trkpt>
      <trkpt lat="48.75397" lon="2.24192">
        <ele>171.5</ele>
        <time>2022-02-08T09:02:28Z</time>
      </trkpt>
      <trkpt lat="48.75392" lon="2.24181">
        <ele>171.1</ele>
        <time>2022-02-08T09:02:33Z</time>
      </trkpt>
      <trkpt lat="48.75384" lon="2.24169">
        <ele>170.5</ele>
        <time>2022-02-08T09:02:39Z</time>
      </trkpt>
      <trkpt lat="48.75375" lon="2.24166">
        <ele>170</ele>
        <time>2022-02-08T09:02:45Z</time>
      </trkpt>
      <trkpt lat="48.75367" lon="2.24164">
        <ele>169.6</ele>
        <time>2022-02-08T09:02:51Z</time>
      </trkpt>
      <trkpt lat="48.75356" lon="2.24159">
        <ele>169.1</ele>
        <time>2022-02-08T09:02:57Z</time>
      </trkpt>
      <trkpt lat="48.75345" lon="2.24156">
        <ele>168.7</ele>
        <time>2022-02-08T09:03:03Z</time>
      </trkpt>
      <trkpt lat="48.75335" lon="2.24154">
        <ele>168.2</ele>
        <time>2022-02-08T09:03:09Z</time>
      </trkpt>
      <trkpt lat="48.75326" lon="2.24148">
        <ele>168.4</ele>
        <time>2022-02-08T09:03:15Z</time>
      </trkpt>
      <trkpt lat="48.75317" lon="2.24143">
        <ele>168.7</ele>
        <time>2022-02-08T09:03:21Z</time>
      </trkpt>
      <trkpt lat="48.7531" lon="2.24138">
        <ele>168.9</ele>
        <time>2022-02-08T09:03:27Z</time>
      </trkpt>
      <trkpt lat="48.75301" lon="2.24134">
        <ele>169.2</ele>
        <time>2022-02-08T09:03:33Z</time>
      </trkpt>
      <trkpt lat="48.75293" lon="2.2413">
        <ele>169.4</ele>
        <time>2022-02-08T09:03:39Z</time>
      </trkpt>
      <trkpt lat="48.75285" lon="2.24125">
        <ele>169.7</ele>
        <time>2022-02-08T09:03:45Z</time>
      </trkpt>
      <trkpt lat="48.75276" lon="2.24123">
        <ele>169.9</ele>
        <time>2022-02-08T09:03:51Z</time>
      </trkpt>
      <trkpt lat="48.7527" lon="2.24121">
        <ele>170.1</ele>
        <time>2022-02-08T09:03:57Z</time>
      </trkpt>
      <trkpt lat="48.75264" lon="2.24117">
        <ele>170.3</ele>
        <time>2022-02-08T09:04:03Z</time>
      </trkpt>
      <trkpt lat="48.75255" lon="2.24116">
        <ele>170.5</ele>
        <time>2022-02-08T09:04:09Z</time>
      </trkpt>
      <trkpt lat="48.75247" lon="2.24113">
        <ele>170.8</ele>
        <time>2022-02-08T09:04:15Z</time>
      </trkpt>
      <trkpt lat="48.7524" lon="2.24113">
        <ele>171.1</ele>
        <time>2022-02-08T09:04:23Z</time>
      </trkpt>
      <trkpt lat="48.75232" lon="2.24111">
        <ele>171.5</ele>
        <time>2022-02-08T09:04:28Z</time>
      </trkpt>
      <trkpt lat="48.75225" lon="2.24106">
        <ele>171.8</ele>
        <time>2022-02-08T09:04:34Z</time>
      </trkpt>
      <trkpt lat="48.75218" lon="2.24103">
        <ele>172.1</ele>
        <time>2022-02-08T09:04:40Z</time>
      </trkpt>
      <trkpt lat="48.75211" lon="2.241">
        <ele>172.4</ele>
        <time>2022-02-08T09:04:46Z</time>
      </trkpt>
      <trkpt lat="48.75203" lon="2.24097">
        <ele>172.7</ele>
        <time>2022-02-08T09:04:51Z</time>
      </trkpt>
      <trkpt lat="48.75193" lon="2.24095">
        <ele>173.1</ele>
        <time>2022-02-08T09:04:57Z</time>
      </trkpt>
      <trkpt lat="48.75187" lon="2.2409">
        <ele>173.3</ele>
        <time>2022-02-08T09:05:04Z</time>
      </trkpt>
      <trkpt lat="48.75181" lon="2.24087">
        <ele>173.5</ele>
        <time>2022-02-08T09:05:12Z</time>
      </trkpt>
      <trkpt lat="48.75174" lon="2.24083">
        <ele>173.7</ele>
        <time>2022-02-08T09:05:17Z</time>
      </trkpt>
      <trkpt lat="48.75168" lon="2.24079">
        <ele>173.8</ele>
        <time>2022-02-08T09:05:23Z</time>
      </trkpt>
      <trkpt lat="48.7516" lon="2.24077">
        <ele>173.8</ele>
        <time>2022-02-08T09:05:27Z</time>
      </trkpt>
      <trkpt lat="48.7515" lon="2.24076">
        <ele>173.6</ele>
        <time>2022-02-08T09:05:33Z</time>
      </trkpt>
      <trkpt lat="48.75141" lon="2.24074">
        <ele>173.4</ele>
        <time>2022-02-08T09:05:39Z</time>
      </trkpt>
      <trkpt lat="48.75132" lon="2.2407">
        <ele>173.2</ele>
        <time>2022-02-08T09:05:45Z</time>
      </trkpt>
      <trkpt lat="48.75123" lon="2.24066">
        <ele>173</ele>
        <time>2022-02-08T09:05:51Z</time>
      </trkpt>
      <trkpt lat="48.75115" lon="2.24062">
        <ele>172.7</ele>
        <time>2022-02-08T09:05:57Z</time>
      </trkpt>
      <trkpt lat="48.75109" lon="2.24057">
        <ele>172.5</ele>
        <time>2022-02-08T09:06:17Z</time>
      </trkpt>
      <trkpt lat="48.75101" lon="2.24057">
        <ele>172.3</ele>
        <time>2022-02-08T09:06:23Z</time>
      </trkpt>
      <trkpt lat="48.75095" lon="2.24054">
        <ele>172.1</ele>
        <time>2022-02-08T09:06:28Z</time>
      </trkpt>
      <trkpt lat="48.75087" lon="2.2405">
        <ele>171.9</ele>
        <time>2022-02-08T09:06:34Z</time>
      </trkpt>
      <trkpt lat="48.75081" lon="2.24043">
        <ele>171.5</ele>
        <time>2022-02-08T09:06:39Z</time>
      </trkpt>
      <trkpt lat="48.75075" lon="2.24036">
        <ele>171.3</ele>
        <time>2022-02-08T09:06:56Z</time>
      </trkpt>
      <trkpt lat="48.7507" lon="2.24029">
        <ele>171</ele>
        <time>2022-02-08T09:07:02Z</time>
      </trkpt>
      <trkpt lat="48.75065" lon="2.24021">
        <ele>170.7</ele>
        <time>2022-02-08T09:07:08Z</time>
      </trkpt>
      <trkpt lat="48.7506" lon="2.24014">
        <ele>170.5</ele>
        <time>2022-02-08T09:07:16Z</time>
      </trkpt>
      <trkpt lat="48.75057" lon="2.24005">
        <ele>170.2</ele>
        <time>2022-02-08T09:07:21Z</time>
      </trkpt>
      <trkpt lat="48.75052" lon="2.23997">
        <ele>169.9</ele>
        <time>2022-02-08T09:07:27Z</time>
      </trkpt>
      <trkpt lat="48.75046" lon="2.23989">
        <ele>169.7</ele>
        <time>2022-02-08T09:07:33Z</time>
      </trkpt>
      <trkpt lat="48.7504" lon="2.23981">
        <ele>169.4</ele>
        <time>2022-02-08T09:07:39Z</time>
      </trkpt>
      <trkpt lat="48.75034" lon="2.23974">
        <ele>169.2</ele>
        <time>2022-02-08T09:07:45Z</time>
      </trkpt>
      <trkpt lat="48.75029" lon="2.23966">
        <ele>168.9</ele>
        <time>2022-02-08T09:07:51Z</time>
      </trkpt>
      <trkpt lat="48.75026" lon="2.23956">
        <ele>168.6</ele>
        <time>2022-02-08T09:08:00Z</time>
      </trkpt>
      <trkpt lat="48.7502" lon="2.23945">
        <ele>168.2</ele>
        <time>2022-02-08T09:08:06Z</time>
      </trkpt>
      <trkpt lat="48.75016" lon="2.23938">
        <ele>167.9</ele>
        <time>2022-02-08T09:08:10Z</time>
      </trkpt>
      <trkpt lat="48.75008" lon="2.23929">
        <ele>167.5</ele>
        <time>2022-02-08T09:08:15Z</time>
      </trkpt>
      <trkpt lat="48.74999" lon="2.2392">
        <ele>167.1</ele>
        <time>2022-02-08T09:08:21Z</time>
      </trkpt>
      <trkpt lat="48.74992" lon="2.23914">
        <ele>166.8</ele>
        <time>2022-02-08T09:08:27Z</time>
      </trkpt>
      <trkpt lat="48.74986" lon="2.23905">
        <ele>166.5</ele>
        <time>2022-02-08T09:08:33Z</time>
      </trkpt>
      <trkpt lat="48.7498" lon="2.23894">
        <ele>166.2</ele>
        <time>2022-02-08T09:08:39Z</time>
      </trkpt>
      <trkpt lat="48.74975" lon="2.23885">
        <ele>165.9</ele>
        <time>2022-02-08T09:08:45Z</time>
      </trkpt>
      <trkpt lat="48.74969" lon="2.23879">
        <ele>165.6</ele>
        <time>2022-02-08T09:08:51Z</time>
      </trkpt>
      <trkpt lat="48.74962" lon="2.2387">
        <ele>165.3</ele>
        <time>2022-02-08T09:08:57Z</time>
      </trkpt>
      <trkpt lat="48.74957" lon="2.23861">
        <ele>165</ele>
        <time>2022-02-08T09:09:04Z</time>
      </trkpt>
      <trkpt lat="48.74955" lon="2.23851">
        <ele>164.7</ele>
        <time>2022-02-08T09:09:11Z</time>
      </trkpt>
      <trkpt lat="48.74954" lon="2.2384">
        <ele>164.5</ele>
        <time>2022-02-08T09:09:19Z</time>
      </trkpt>
      <trkpt lat="48.74951" lon="2.2383">
        <ele>164</ele>
        <time>2022-02-08T09:09:26Z</time>
      </trkpt>
      <trkpt lat="48.74942" lon="2.23826">
        <ele>163.4</ele>
        <time>2022-02-08T09:09:36Z</time>
      </trkpt>
      <trkpt lat="48.74936" lon="2.23821">
        <ele>162.8</ele>
        <time>2022-02-08T09:09:39Z</time>
      </trkpt>
      <trkpt lat="48.74923" lon="2.23817">
        <ele>162</ele>
        <time>2022-02-08T09:09:45Z</time>
      </trkpt>
      <trkpt lat="48.74912" lon="2.23814">
        <ele>161.6</ele>
        <time>2022-02-08T09:09:51Z</time>
      </trkpt>
      <trkpt lat="48.74905" lon="2.23813">
        <ele>161.5</ele>
        <time>2022-02-08T09:09:58Z</time>
      </trkpt>
      <trkpt lat="48.74896" lon="2.23821">
        <ele>161.9</ele>
        <time>2022-02-08T09:10:03Z</time>
      </trkpt>
      <trkpt lat="48.74886" lon="2.23825">
        <ele>162.1</ele>
        <time>2022-02-08T09:10:09Z</time>
      </trkpt>
      <trkpt lat="48.74878" lon="2.23827">
        <ele>162.2</ele>
        <time>2022-02-08T09:10:15Z</time>
      </trkpt>
      <trkpt lat="48.74868" lon="2.23823">
        <ele>161.8</ele>
        <time>2022-02-08T09:10:21Z</time>
      </trkpt>
      <trkpt lat="48.74859" lon="2.23824">
        <ele>161.8</ele>
        <time>2022-02-08T09:10:27Z</time>
      </trkpt>
      <trkpt lat="48.74851" lon="2.2382">
        <ele>161.5</ele>
        <time>2022-02-08T09:10:33Z</time>
      </trkpt>
      <trkpt lat="48.74843" lon="2.23813">
        <ele>161.1</ele>
        <time>2022-02-08T09:10:39Z</time>
      </trkpt>
      <trkpt lat="48.7484" lon="2.23803">
        <ele>160.6</ele>
        <time>2022-02-08T09:10:46Z</time>
      </trkpt>
      <trkpt lat="48.74835" lon="2.23797">
        <ele>160.3</ele>
        <time>2022-02-08T09:10:52Z</time>
      </trkpt>
      <trkpt lat="48.74828" lon="2.2379">
        <ele>160</ele>
        <time>2022-02-08T09:10:59Z</time>
      </trkpt>
      <trkpt lat="48.74823" lon="2.23784">
        <ele>159.8</ele>
        <time>2022-02-08T09:11:10Z</time>
      </trkpt>
      <trkpt lat="48.74817" lon="2.23779">
        <ele>159.7</ele>
        <time>2022-02-08T09:11:20Z</time>
      </trkpt>
      <trkpt lat="48.74812" lon="2.23772">
        <ele>159.4</ele>
        <time>2022-02-08T09:11:26Z</time>
      </trkpt>
      <trkpt lat="48.74803" lon="2.23769">
        <ele>159.4</ele>
        <time>2022-02-08T09:11:36Z</time>
      </trkpt>
      <trkpt lat="48.74796" lon="2.23772">
        <ele>159.6</ele>
        <time>2022-02-08T09:11:42Z</time>
      </trkpt>
      <trkpt lat="48.74789" lon="2.23771">
        <ele>159.7</ele>
        <time>2022-02-08T09:11:47Z</time>
      </trkpt>
      <trkpt lat="48.74782" lon="2.23769">
        <ele>159.7</ele>
        <time>2022-02-08T09:11:52Z</time>
      </trkpt>
      <trkpt lat="48.74775" lon="2.23768">
        <ele>159.7</ele>
        <time>2022-02-08T09:11:55Z</time>
      </trkpt>
      <trkpt lat="48.74764" lon="2.23762">
        <ele>159.5</ele>
        <time>2022-02-08T09:12:01Z</time>
      </trkpt>
      <trkpt lat="48.74755" lon="2.23759">
        <ele>159.5</ele>
        <time>2022-02-08T09:12:07Z</time>
      </trkpt>
      <trkpt lat="48.74745" lon="2.23759">
        <ele>159.2</ele>
        <time>2022-02-08T09:12:13Z</time>
      </trkpt>
      <trkpt lat="48.74737" lon="2.23758">
        <ele>158.7</ele>
        <time>2022-02-08T09:12:20Z</time>
      </trkpt>
      <trkpt lat="48.74729" lon="2.23757">
        <ele>158.1</ele>
        <time>2022-02-08T09:12:25Z</time>
      </trkpt>
      <trkpt lat="48.74721" lon="2.23756">
        <ele>157.6</ele>
        <time>2022-02-08T09:12:31Z</time>
      </trkpt>
      <trkpt lat="48.74713" lon="2.23751">
        <ele>156.8</ele>
        <time>2022-02-08T09:12:37Z</time>
      </trkpt>
      <trkpt lat="48.74705" lon="2.23749">
        <ele>156.2</ele>
        <time>2022-02-08T09:12:43Z</time>
      </trkpt>
      <trkpt lat="48.74698" lon="2.23751">
        <ele>155.9</ele>
        <time>2022-02-08T09:12:49Z</time>
      </trkpt>
      <trkpt lat="48.74692" lon="2.23754">
        <ele>155.7</ele>
        <time>2022-02-08T09:12:55Z</time>
      </trkpt>
      <trkpt lat="48.74684" lon="2.23753">
        <ele>155.2</ele>
        <time>2022-02-08T09:13:01Z</time>
      </trkpt>
      <trkpt lat="48.74677" lon="2.23757">
        <ele>154.9</ele>
        <time>2022-02-08T09:13:09Z</time>
      </trkpt>
      <trkpt lat="48.74671" lon="2.23759">
        <ele>154.6</ele>
        <time>2022-02-08T09:13:18Z</time>
      </trkpt>
      <trkpt lat="48.74671" lon="2.2377">
        <ele>155</ele>
        <time>2022-02-08T09:13:30Z</time>
      </trkpt>
      <trkpt lat="48.74667" lon="2.23778">
        <ele>155</ele>
        <time>2022-02-08T09:13:37Z</time>
      </trkpt>
      <trkpt lat="48.74665" lon="2.23789">
        <ele>155.3</ele>
        <time>2022-02-08T09:13:44Z</time>
      </trkpt>
      <trkpt lat="48.74661" lon="2.23797">
        <ele>155.2</ele>
        <time>2022-02-08T09:13:51Z</time>
      </trkpt>
      <trkpt lat="48.74668" lon="2.23798">
        <ele>155.8</ele>
        <time>2022-02-08T09:14:15Z</time>
      </trkpt>
      <trkpt lat="48.74661" lon="2.23793">
        <ele>155.1</ele>
        <time>2022-02-08T09:14:43Z</time>
      </trkpt>
      <trkpt lat="48.74655" lon="2.2379">
        <ele>154.5</ele>
        <time>2022-02-08T09:14:50Z</time>
      </trkpt>
      <trkpt lat="48.74648" lon="2.23788">
        <ele>153.8</ele>
        <time>2022-02-08T09:14:58Z</time>
      </trkpt>
      <trkpt lat="48.74641" lon="2.23789">
        <ele>153.2</ele>
        <time>2022-02-08T09:15:06Z</time>
      </trkpt>
      <trkpt lat="48.74641" lon="2.238">
        <ele>153.6</ele>
        <time>2022-02-08T09:15:19Z</time>
      </trkpt>
      <trkpt lat="48.74644" lon="2.2381">
        <ele>154.3</ele>
        <time>2022-02-08T09:15:40Z</time>
      </trkpt>
      <trkpt lat="48.74644" lon="2.23821">
        <ele>154.7</ele>
        <time>2022-02-08T09:15:47Z</time>
      </trkpt>
      <trkpt lat="48.74644" lon="2.23831">
        <ele>155</ele>
        <time>2022-02-08T09:15:54Z</time>
      </trkpt>
      <trkpt lat="48.74642" lon="2.2384">
        <ele>154.8</ele>
        <time>2022-02-08T09:16:01Z</time>
      </trkpt>
      <trkpt lat="48.74639" lon="2.23851">
        <ele>154.4</ele>
        <time>2022-02-08T09:16:07Z</time>
      </trkpt>
      <trkpt lat="48.74638" lon="2.23861">
        <ele>154.1</ele>
        <time>2022-02-08T09:16:13Z</time>
      </trkpt>
      <trkpt lat="48.74633" lon="2.23867">
        <ele>153.6</ele>
        <time>2022-02-08T09:16:27Z</time>
      </trkpt>
      <trkpt lat="48.74626" lon="2.23864">
        <ele>153</ele>
        <time>2022-02-08T09:16:34Z</time>
      </trkpt>
      <trkpt lat="48.74619" lon="2.23861">
        <ele>152.5</ele>
        <time>2022-02-08T09:16:42Z</time>
      </trkpt>
      <trkpt lat="48.74613" lon="2.23856">
        <ele>152</ele>
        <time>2022-02-08T09:16:47Z</time>
      </trkpt>
      <trkpt lat="48.74606" lon="2.23853">
        <ele>151.5</ele>
        <time>2022-02-08T09:16:53Z</time>
      </trkpt>
      <trkpt lat="48.746" lon="2.23849">
        <ele>151.1</ele>
        <time>2022-02-08T09:16:59Z</time>
      </trkpt>
      <trkpt lat="48.74595" lon="2.23841">
        <ele>150.8</ele>
        <time>2022-02-08T09:17:04Z</time>
      </trkpt>
      <trkpt lat="48.74591" lon="2.23832">
        <ele>150.6</ele>
        <time>2022-02-08T09:17:09Z</time>
      </trkpt>
      <trkpt lat="48.74586" lon="2.23821">
        <ele>149.8</ele>
        <time>2022-02-08T09:17:15Z</time>
      </trkpt>
      <trkpt lat="48.74583" lon="2.23808">
        <ele>149.1</ele>
        <time>2022-02-08T09:17:21Z</time>
      </trkpt>
      <trkpt lat="48.74581" lon="2.23795">
        <ele>148.4</ele>
        <time>2022-02-08T09:17:27Z</time>
      </trkpt>
      <trkpt lat="48.74578" lon="2.23783">
        <ele>147.6</ele>
        <time>2022-02-08T09:17:33Z</time>
      </trkpt>
      <trkpt lat="48.74575" lon="2.23772">
        <ele>146.8</ele>
        <time>2022-02-08T09:17:39Z</time>
      </trkpt>
      <trkpt lat="48.74571" lon="2.2376">
        <ele>145.8</ele>
        <time>2022-02-08T09:17:45Z</time>
      </trkpt>
      <trkpt lat="48.74569" lon="2.23745">
        <ele>144.4</ele>
        <time>2022-02-08T09:17:51Z</time>
      </trkpt>
      <trkpt lat="48.74569" lon="2.23731">
        <ele>142.4</ele>
        <time>2022-02-08T09:17:57Z</time>
      </trkpt>
      <trkpt lat="48.74569" lon="2.23721">
        <ele>141</ele>
        <time>2022-02-08T09:18:03Z</time>
      </trkpt>
      <trkpt lat="48.74565" lon="2.23712">
        <ele>139.2</ele>
        <time>2022-02-08T09:18:09Z</time>
      </trkpt>
      <trkpt lat="48.74559" lon="2.23717">
        <ele>139</ele>
        <time>2022-02-08T09:18:17Z</time>
      </trkpt>
      <trkpt lat="48.74552" lon="2.23719">
        <ele>138.2</ele>
        <time>2022-02-08T09:18:23Z</time>
      </trkpt>
      <trkpt lat="48.74546" lon="2.23726">
        <ele>138.4</ele>
        <time>2022-02-08T09:18:29Z</time>
      </trkpt>
      <trkpt lat="48.74539" lon="2.23731">
        <ele>138.2</ele>
        <time>2022-02-08T09:18:34Z</time>
      </trkpt>
      <trkpt lat="48.7453" lon="2.23736">
        <ele>137.7</ele>
        <time>2022-02-08T09:18:39Z</time>
      </trkpt>
      <trkpt lat="48.74522" lon="2.23737">
        <ele>136.7</ele>
        <time>2022-02-08T09:18:45Z</time>
      </trkpt>
      <trkpt lat="48.74514" lon="2.23742">
        <ele>136.5</ele>
        <time>2022-02-08T09:18:51Z</time>
      </trkpt>
      <trkpt lat="48.74507" lon="2.23746">
        <ele>136.2</ele>
        <time>2022-02-08T09:18:57Z</time>
      </trkpt>
      <trkpt lat="48.74499" lon="2.2375">
        <ele>135.8</ele>
        <time>2022-02-08T09:19:03Z</time>
      </trkpt>
      <trkpt lat="48.74493" lon="2.23755">
        <ele>135.3</ele>
        <time>2022-02-08T09:19:09Z</time>
      </trkpt>
      <trkpt lat="48.74486" lon="2.23757">
        <ele>134.3</ele>
        <time>2022-02-08T09:19:16Z</time>
      </trkpt>
      <trkpt lat="48.74479" lon="2.23762">
        <ele>133.6</ele>
        <time>2022-02-08T09:19:21Z</time>
      </trkpt>
      <trkpt lat="48.74472" lon="2.23765">
        <ele>132.7</ele>
        <time>2022-02-08T09:19:27Z</time>
      </trkpt>
      <trkpt lat="48.74466" lon="2.23769">
        <ele>132.2</ele>
        <time>2022-02-08T09:19:33Z</time>
      </trkpt>
      <trkpt lat="48.74458" lon="2.23772">
        <ele>131.2</ele>
        <time>2022-02-08T09:19:39Z</time>
      </trkpt>
      <trkpt lat="48.74452" lon="2.23776">
        <ele>130.7</ele>
        <time>2022-02-08T09:19:45Z</time>
      </trkpt>
      <trkpt lat="48.74445" lon="2.23781">
        <ele>130.1</ele>
        <time>2022-02-08T09:19:52Z</time>
      </trkpt>
      <trkpt lat="48.74439" lon="2.23784">
        <ele>129.5</ele>
        <time>2022-02-08T09:19:57Z</time>
      </trkpt>
      <trkpt lat="48.74428" lon="2.23789">
        <ele>128.4</ele>
        <time>2022-02-08T09:20:03Z</time>
      </trkpt>
      <trkpt lat="48.74422" lon="2.2379">
        <ele>127.6</ele>
        <time>2022-02-08T09:20:13Z</time>
      </trkpt>
      <trkpt lat="48.74416" lon="2.23795">
        <ele>127.3</ele>
        <time>2022-02-08T09:20:22Z</time>
      </trkpt>
      <trkpt lat="48.74408" lon="2.23793">
        <ele>125.3</ele>
        <time>2022-02-08T09:20:29Z</time>
      </trkpt>
      <trkpt lat="48.74401" lon="2.23793">
        <ele>123.8</ele>
        <time>2022-02-08T09:20:33Z</time>
      </trkpt>
      <trkpt lat="48.74393" lon="2.23803">
        <ele>123.2</ele>
        <time>2022-02-08T09:20:39Z</time>
      </trkpt>
      <trkpt lat="48.74387" lon="2.23819">
        <ele>123.6</ele>
        <time>2022-02-08T09:20:45Z</time>
      </trkpt>
      <trkpt lat="48.74383" lon="2.23831">
        <ele>124.1</ele>
        <time>2022-02-08T09:20:51Z</time>
      </trkpt>
      <trkpt lat="48.7438" lon="2.23843">
        <ele>124</ele>
        <time>2022-02-08T09:20:57Z</time>
      </trkpt>
      <trkpt lat="48.74377" lon="2.23858">
        <ele>123.8</ele>
        <time>2022-02-08T09:21:03Z</time>
      </trkpt>
      <trkpt lat="48.74376" lon="2.23872">
        <ele>124.1</ele>
        <time>2022-02-08T09:21:09Z</time>
      </trkpt>
      <trkpt lat="48.74381" lon="2.23883">
        <ele>125.7</ele>
        <time>2022-02-08T09:21:15Z</time>
      </trkpt>
      <trkpt lat="48.74385" lon="2.23893">
        <ele>126.9</ele>
        <time>2022-02-08T09:21:22Z</time>
      </trkpt>
      <trkpt lat="48.7439" lon="2.23901">
        <ele>128.4</ele>
        <time>2022-02-08T09:21:27Z</time>
      </trkpt>
      <trkpt lat="48.74396" lon="2.23906">
        <ele>129.9</ele>
        <time>2022-02-08T09:21:33Z</time>
      </trkpt>
      <trkpt lat="48.74405" lon="2.2391">
        <ele>132.1</ele>
        <time>2022-02-08T09:21:39Z</time>
      </trkpt>
      <trkpt lat="48.74411" lon="2.23916">
        <ele>133.7</ele>
        <time>2022-02-08T09:21:46Z</time>
      </trkpt>
      <trkpt lat="48.74418" lon="2.23919">
        <ele>135</ele>
        <time>2022-02-08T09:21:51Z</time>
      </trkpt>
      <trkpt lat="48.74424" lon="2.23923">
        <ele>135.3</ele>
        <time>2022-02-08T09:21:57Z</time>
      </trkpt>
      <trkpt lat="48.7443" lon="2.23929">
        <ele>135.6</ele>
        <time>2022-02-08T09:22:03Z</time>
      </trkpt>
      <trkpt lat="48.74436" lon="2.23936">
        <ele>135.7</ele>
        <time>2022-02-08T09:22:09Z</time>
      </trkpt>
      <trkpt lat="48.74444" lon="2.23937">
        <ele>136.6</ele>
        <time>2022-02-08T09:22:16Z</time>
      </trkpt>
      <trkpt lat="48.7445" lon="2.2394">
        <ele>137</ele>
        <time>2022-02-08T09:22:21Z</time>
      </trkpt>
      <trkpt lat="48.74459" lon="2.23945">
        <ele>137.7</ele>
        <time>2022-02-08T09:22:27Z</time>
      </trkpt>
      <trkpt lat="48.74466" lon="2.23952">
        <ele>138</ele>
        <time>2022-02-08T09:22:33Z</time>
      </trkpt>
      <trkpt lat="48.74473" lon="2.23957">
        <ele>138.5</ele>
        <time>2022-02-08T09:22:39Z</time>
      </trkpt>
      <trkpt lat="48.74479" lon="2.23964">
        <ele>138.7</ele>
        <time>2022-02-08T09:22:45Z</time>
      </trkpt>
      <trkpt lat="48.74487" lon="2.2397">
        <ele>139.3</ele>
        <time>2022-02-08T09:22:51Z</time>
      </trkpt>
      <trkpt lat="48.74495" lon="2.23978">
        <ele>139.7</ele>
        <time>2022-02-08T09:22:57Z</time>
      </trkpt>
      <trkpt lat="48.74506" lon="2.23983">
        <ele>140.4</ele>
        <time>2022-02-08T09:23:03Z</time>
      </trkpt>
      <trkpt lat="48.74515" lon="2.23987">
        <ele>140.7</ele>
        <time>2022-02-08T09:23:09Z</time>
      </trkpt>
      <trkpt lat="48.74522" lon="2.23991">
        <ele>140.8</ele>
        <time>2022-02-08T09:23:16Z</time>
      </trkpt>
      <trkpt lat="48.74529" lon="2.23993">
        <ele>141.1</ele>
        <time>2022-02-08T09:23:28Z</time>
      </trkpt>
      <trkpt lat="48.74537" lon="2.23997">
        <ele>141.4</ele>
        <time>2022-02-08T09:23:33Z</time>
      </trkpt>
      <trkpt lat="48.74544" lon="2.24003">
        <ele>141.5</ele>
        <time>2022-02-08T09:23:39Z</time>
      </trkpt>
      <trkpt lat="48.74552" lon="2.2401">
        <ele>141.6</ele>
        <time>2022-02-08T09:23:45Z</time>
      </trkpt>
      <trkpt lat="48.74558" lon="2.24013">
        <ele>141.7</ele>
        <time>2022-02-08T09:23:52Z</time>
      </trkpt>
      <trkpt lat="48.74564" lon="2.24018">
        <ele>141.8</ele>
        <time>2022-02-08T09:23:58Z</time>
      </trkpt>
      <trkpt lat="48.7457" lon="2.24024">
        <ele>141.8</ele>
        <time>2022-02-08T09:24:05Z</time>
      </trkpt>
      <trkpt lat="48.74577" lon="2.24026">
        <ele>142.1</ele>
        <time>2022-02-08T09:24:11Z</time>
      </trkpt>
      <trkpt lat="48.74583" lon="2.24029">
        <ele>142.2</ele>
        <time>2022-02-08T09:24:16Z</time>
      </trkpt>
      <trkpt lat="48.74589" lon="2.24037">
        <ele>142.3</ele>
        <time>2022-02-08T09:24:22Z</time>
      </trkpt>
      <trkpt lat="48.74596" lon="2.24045">
        <ele>142.4</ele>
        <time>2022-02-08T09:24:28Z</time>
      </trkpt>
      <trkpt lat="48.74602" lon="2.24049">
        <ele>142.6</ele>
        <time>2022-02-08T09:24:34Z</time>
      </trkpt>
      <trkpt lat="48.74608" lon="2.24056">
        <ele>142.7</ele>
        <time>2022-02-08T09:24:39Z</time>
      </trkpt>
      <trkpt lat="48.74612" lon="2.24065">
        <ele>142.5</ele>
        <time>2022-02-08T09:24:47Z</time>
      </trkpt>
      <trkpt lat="48.74618" lon="2.24073">
        <ele>142.5</ele>
        <time>2022-02-08T09:24:53Z</time>
      </trkpt>
      <trkpt lat="48.74622" lon="2.24083">
        <ele>142.3</ele>
        <time>2022-02-08T09:24:58Z</time>
      </trkpt>
      <trkpt lat="48.74625" lon="2.24093">
        <ele>142.2</ele>
        <time>2022-02-08T09:25:03Z</time>
      </trkpt>
      <trkpt lat="48.74628" lon="2.24103">
        <ele>142</ele>
        <time>2022-02-08T09:25:09Z</time>
      </trkpt>
      <trkpt lat="48.74628" lon="2.24117">
        <ele>141.5</ele>
        <time>2022-02-08T09:25:15Z</time>
      </trkpt>
      <trkpt lat="48.7463" lon="2.2413">
        <ele>141.2</ele>
        <time>2022-02-08T09:25:21Z</time>
      </trkpt>
      <trkpt lat="48.7463" lon="2.2414">
        <ele>140.9</ele>
        <time>2022-02-08T09:25:27Z</time>
      </trkpt>
      <trkpt lat="48.74628" lon="2.24154">
        <ele>140.2</ele>
        <time>2022-02-08T09:25:33Z</time>
      </trkpt>
      <trkpt lat="48.7463" lon="2.24166">
        <ele>139.9</ele>
        <time>2022-02-08T09:25:39Z</time>
      </trkpt>
      <trkpt lat="48.74631" lon="2.24179">
        <ele>140.6</ele>
        <time>2022-02-08T09:25:45Z</time>
      </trkpt>
      <trkpt lat="48.7463" lon="2.24196">
        <ele>141.3</ele>
        <time>2022-02-08T09:25:51Z</time>
      </trkpt>
      <trkpt lat="48.7463" lon="2.24209">
        <ele>142</ele>
        <time>2022-02-08T09:25:57Z</time>
      </trkpt>
      <trkpt lat="48.74629" lon="2.24224">
        <ele>142.6</ele>
        <time>2022-02-08T09:26:03Z</time>
      </trkpt>
      <trkpt lat="48.7463" lon="2.24234">
        <ele>143.2</ele>
        <time>2022-02-08T09:26:09Z</time>
      </trkpt>
      <trkpt lat="48.7463" lon="2.24246">
        <ele>143.7</ele>
        <time>2022-02-08T09:26:15Z</time>
      </trkpt>
      <trkpt lat="48.7463" lon="2.24261">
        <ele>144.9</ele>
        <time>2022-02-08T09:26:21Z</time>
      </trkpt>
      <trkpt lat="48.74631" lon="2.24273">
        <ele>146.1</ele>
        <time>2022-02-08T09:26:27Z</time>
      </trkpt>
      <trkpt lat="48.74633" lon="2.24287">
        <ele>147.5</ele>
        <time>2022-02-08T09:26:33Z</time>
      </trkpt>
      <trkpt lat="48.74631" lon="2.24298">
        <ele>148.4</ele>
        <time>2022-02-08T09:26:39Z</time>
      </trkpt>
      <trkpt lat="48.74627" lon="2.24311">
        <ele>149.4</ele>
        <time>2022-02-08T09:26:45Z</time>
      </trkpt>
      <trkpt lat="48.74622" lon="2.24319">
        <ele>150.1</ele>
        <time>2022-02-08T09:26:51Z</time>
      </trkpt>
      <trkpt lat="48.74615" lon="2.24325">
        <ele>150.5</ele>
        <time>2022-02-08T09:26:57Z</time>
      </trkpt>
      <trkpt lat="48.74609" lon="2.24329">
        <ele>150.8</ele>
        <time>2022-02-08T09:27:04Z</time>
      </trkpt>
      <trkpt lat="48.74602" lon="2.24327">
        <ele>150.5</ele>
        <time>2022-02-08T09:27:18Z</time>
      </trkpt>
      <trkpt lat="48.74596" lon="2.24336">
        <ele>151.3</ele>
        <time>2022-02-08T09:27:38Z</time>
      </trkpt>
      <trkpt lat="48.74591" lon="2.24344">
        <ele>151.6</ele>
        <time>2022-02-08T09:27:45Z</time>
      </trkpt>
      <trkpt lat="48.74586" lon="2.2435">
        <ele>151.8</ele>
        <time>2022-02-08T09:27:52Z</time>
      </trkpt>
      <trkpt lat="48.74582" lon="2.24358">
        <ele>152.2</ele>
        <time>2022-02-08T09:27:58Z</time>
      </trkpt>
      <trkpt lat="48.74576" lon="2.24363">
        <ele>152.4</ele>
        <time>2022-02-08T09:28:04Z</time>
      </trkpt>
      <trkpt lat="48.74569" lon="2.24364">
        <ele>152.5</ele>
        <time>2022-02-08T09:28:10Z</time>
      </trkpt>
      <trkpt lat="48.74563" lon="2.24366">
        <ele>152.6</ele>
        <time>2022-02-08T09:28:17Z</time>
      </trkpt>
      <trkpt lat="48.74556" lon="2.24371">
        <ele>152.8</ele>
        <time>2022-02-08T09:28:23Z</time>
      </trkpt>
      <trkpt lat="48.74549" lon="2.24369">
        <ele>152.8</ele>
        <time>2022-02-08T09:28:32Z</time>
      </trkpt>
      <trkpt lat="48.74556" lon="2.2437">
        <ele>152.8</ele>
        <time>2022-02-08T09:29:18Z</time>
      </trkpt>
      <trkpt lat="48.74563" lon="2.24367">
        <ele>152.7</ele>
        <time>2022-02-08T09:29:26Z</time>
      </trkpt>
      <trkpt lat="48.7457" lon="2.24363">
        <ele>152.5</ele>
        <time>2022-02-08T09:29:33Z</time>
      </trkpt>
      <trkpt lat="48.74577" lon="2.24359">
        <ele>152.3</ele>
        <time>2022-02-08T09:29:39Z</time>
      </trkpt>
      <trkpt lat="48.74582" lon="2.24351">
        <ele>151.9</ele>
        <time>2022-02-08T09:29:45Z</time>
      </trkpt>
      <trkpt lat="48.74578" lon="2.24341">
        <ele>151.4</ele>
        <time>2022-02-08T09:29:56Z</time>
      </trkpt>
      <trkpt lat="48.74572" lon="2.24335">
        <ele>151.2</ele>
        <time>2022-02-08T09:30:03Z</time>
      </trkpt>
      <trkpt lat="48.74566" lon="2.24332">
        <ele>151.1</ele>
        <time>2022-02-08T09:30:09Z</time>
      </trkpt>
      <trkpt lat="48.74559" lon="2.24327">
        <ele>150.6</ele>
        <time>2022-02-08T09:30:15Z</time>
      </trkpt>
      <trkpt lat="48.74554" lon="2.24318">
        <ele>149.8</ele>
        <time>2022-02-08T09:30:21Z</time>
      </trkpt>
      <trkpt lat="48.74547" lon="2.24308">
        <ele>149</ele>
        <time>2022-02-08T09:30:27Z</time>
      </trkpt>
      <trkpt lat="48.74542" lon="2.24301">
        <ele>148.6</ele>
        <time>2022-02-08T09:30:34Z</time>
      </trkpt>
      <trkpt lat="48.74537" lon="2.24294">
        <ele>148.2</ele>
        <time>2022-02-08T09:30:39Z</time>
      </trkpt>
      <trkpt lat="48.74531" lon="2.24288">
        <ele>148</ele>
        <time>2022-02-08T09:30:47Z</time>
      </trkpt>
      <trkpt lat="48.74526" lon="2.24281">
        <ele>147.8</ele>
        <time>2022-02-08T09:30:52Z</time>
      </trkpt>
      <trkpt lat="48.74521" lon="2.24272">
        <ele>147.5</ele>
        <time>2022-02-08T09:30:57Z</time>
      </trkpt>
      <trkpt lat="48.74513" lon="2.24264">
        <ele>147.6</ele>
        <time>2022-02-08T09:31:03Z</time>
      </trkpt>
      <trkpt lat="48.74509" lon="2.24255">
        <ele>147.4</ele>
        <time>2022-02-08T09:31:10Z</time>
      </trkpt>
      <trkpt lat="48.74506" lon="2.24245">
        <ele>146.9</ele>
        <time>2022-02-08T09:31:19Z</time>
      </trkpt>
      <trkpt lat="48.74501" lon="2.24238">
        <ele>146.6</ele>
        <time>2022-02-08T09:31:25Z</time>
      </trkpt>
      <trkpt lat="48.74499" lon="2.24227">
        <ele>145.5</ele>
        <time>2022-02-08T09:31:33Z</time>
      </trkpt>
      <trkpt lat="48.74496" lon="2.24216">
        <ele>144.1</ele>
        <time>2022-02-08T09:31:43Z</time>
      </trkpt>
      <trkpt lat="48.74492" lon="2.24206">
        <ele>142.9</ele>
        <time>2022-02-08T09:31:48Z</time>
      </trkpt>
      <trkpt lat="48.74488" lon="2.24198">
        <ele>141.9</ele>
        <time>2022-02-08T09:31:54Z</time>
      </trkpt>
      <trkpt lat="48.74483" lon="2.24191">
        <ele>141</ele>
        <time>2022-02-08T09:32:18Z</time>
      </trkpt>
      <trkpt lat="48.74478" lon="2.24179">
        <ele>139.7</ele>
        <time>2022-02-08T09:32:32Z</time>
      </trkpt>
      <trkpt lat="48.74471" lon="2.24173">
        <ele>138.9</ele>
        <time>2022-02-08T09:32:38Z</time>
      </trkpt>
      <trkpt lat="48.74468" lon="2.24164">
        <ele>138</ele>
        <time>2022-02-08T09:32:42Z</time>
      </trkpt>
      <trkpt lat="48.74465" lon="2.24154">
        <ele>137.2</ele>
        <time>2022-02-08T09:32:46Z</time>
      </trkpt>
      <trkpt lat="48.74462" lon="2.24142">
        <ele>136.2</ele>
        <time>2022-02-08T09:32:51Z</time>
      </trkpt>
      <trkpt lat="48.74459" lon="2.24132">
        <ele>135.3</ele>
        <time>2022-02-08T09:32:57Z</time>
      </trkpt>
      <trkpt lat="48.74455" lon="2.24123">
        <ele>134.4</ele>
        <time>2022-02-08T09:33:03Z</time>
      </trkpt>
      <trkpt lat="48.7445" lon="2.24115">
        <ele>133.5</ele>
        <time>2022-02-08T09:33:10Z</time>
      </trkpt>
      <trkpt lat="48.74447" lon="2.24105">
        <ele>132.4</ele>
        <time>2022-02-08T09:33:18Z</time>
      </trkpt>
      <trkpt lat="48.74438" lon="2.24099">
        <ele>131.2</ele>
        <time>2022-02-08T09:34:10Z</time>
      </trkpt>
      <trkpt lat="48.74431" lon="2.24102">
        <ele>131</ele>
        <time>2022-02-08T09:34:17Z</time>
      </trkpt>
      <trkpt lat="48.74424" lon="2.24106">
        <ele>130.9</ele>
        <time>2022-02-08T09:34:22Z</time>
      </trkpt>
      <trkpt lat="48.74418" lon="2.24115">
        <ele>131.5</ele>
        <time>2022-02-08T09:34:27Z</time>
      </trkpt>
      <trkpt lat="48.74413" lon="2.24122">
        <ele>131.6</ele>
        <time>2022-02-08T09:34:35Z</time>
      </trkpt>
      <trkpt lat="48.74407" lon="2.24121">
        <ele>130.5</ele>
        <time>2022-02-08T09:34:42Z</time>
      </trkpt>
      <trkpt lat="48.74401" lon="2.24127">
        <ele>130.3</ele>
        <time>2022-02-08T09:34:49Z</time>
      </trkpt>
      <trkpt lat="48.74394" lon="2.24131">
        <ele>129.7</ele>
        <time>2022-02-08T09:34:56Z</time>
      </trkpt>
      <trkpt lat="48.74388" lon="2.24136">
        <ele>129.3</ele>
        <time>2022-02-08T09:35:02Z</time>
      </trkpt>
      <trkpt lat="48.74381" lon="2.24139">
        <ele>128.6</ele>
        <time>2022-02-08T09:35:08Z</time>
      </trkpt>
      <trkpt lat="48.74376" lon="2.24147">
        <ele>128.8</ele>
        <time>2022-02-08T09:35:16Z</time>
      </trkpt>
      <trkpt lat="48.74371" lon="2.24155">
        <ele>129</ele>
        <time>2022-02-08T09:35:23Z</time>
      </trkpt>
      <trkpt lat="48.74365" lon="2.24159">
        <ele>128.6</ele>
        <time>2022-02-08T09:35:29Z</time>
      </trkpt>
      <trkpt lat="48.74359" lon="2.24165">
        <ele>128.5</ele>
        <time>2022-02-08T09:35:34Z</time>
      </trkpt>
      <trkpt lat="48.74353" lon="2.2417">
        <ele>128</ele>
        <time>2022-02-08T09:35:39Z</time>
      </trkpt>
      <trkpt lat="48.74348" lon="2.24179">
        <ele>127.9</ele>
        <time>2022-02-08T09:35:45Z</time>
      </trkpt>
      <trkpt lat="48.7434" lon="2.24187">
        <ele>127.2</ele>
        <time>2022-02-08T09:35:51Z</time>
      </trkpt>
      <trkpt lat="48.74335" lon="2.24192">
        <ele>126.8</ele>
        <time>2022-02-08T09:35:58Z</time>
      </trkpt>
      <trkpt lat="48.74329" lon="2.24197">
        <ele>125.8</ele>
        <time>2022-02-08T09:36:27Z</time>
      </trkpt>
      <trkpt lat="48.74322" lon="2.24202">
        <ele>124.5</ele>
        <time>2022-02-08T09:36:40Z</time>
      </trkpt>
      <trkpt lat="48.74329" lon="2.24198">
        <ele>125.9</ele>
        <time>2022-02-08T09:37:10Z</time>
      </trkpt>
      <trkpt lat="48.74322" lon="2.24201">
        <ele>124.4</ele>
        <time>2022-02-08T09:37:31Z</time>
      </trkpt>
      <trkpt lat="48.74315" lon="2.24204">
        <ele>123</ele>
        <time>2022-02-08T09:37:36Z</time>
      </trkpt>
      <trkpt lat="48.74307" lon="2.24207">
        <ele>121.3</ele>
        <time>2022-02-08T09:37:41Z</time>
      </trkpt>
      <trkpt lat="48.74301" lon="2.24211">
        <ele>120.1</ele>
        <time>2022-02-08T09:37:45Z</time>
      </trkpt>
      <trkpt lat="48.74295" lon="2.24217">
        <ele>119</ele>
        <time>2022-02-08T09:37:51Z</time>
      </trkpt>
      <trkpt lat="48.74287" lon="2.24222">
        <ele>117.4</ele>
        <time>2022-02-08T09:37:57Z</time>
      </trkpt>
      <trkpt lat="48.74278" lon="2.24225">
        <ele>115.4</ele>
        <time>2022-02-08T09:38:03Z</time>
      </trkpt>
      <trkpt lat="48.74273" lon="2.24233">
        <ele>114.6</ele>
        <time>2022-02-08T09:38:11Z</time>
      </trkpt>
      <trkpt lat="48.74277" lon="2.24243">
        <ele>116.1</ele>
        <time>2022-02-08T09:38:20Z</time>
      </trkpt>
      <trkpt lat="48.74279" lon="2.24254">
        <ele>117</ele>
        <time>2022-02-08T09:38:28Z</time>
      </trkpt>
      <trkpt lat="48.74278" lon="2.24265">
        <ele>116.8</ele>
        <time>2022-02-08T09:38:34Z</time>
      </trkpt>
      <trkpt lat="48.74282" lon="2.24272">
        <ele>117.8</ele>
        <time>2022-02-08T09:38:40Z</time>
      </trkpt>
      <trkpt lat="48.74286" lon="2.24281">
        <ele>118.8</ele>
        <time>2022-02-08T09:38:47Z</time>
      </trkpt>
      <trkpt lat="48.74283" lon="2.2429">
        <ele>118.1</ele>
        <time>2022-02-08T09:38:54Z</time>
      </trkpt>
      <trkpt lat="48.74281" lon="2.243">
        <ele>117.7</ele>
        <time>2022-02-08T09:39:00Z</time>
      </trkpt>
      <trkpt lat="48.7428" lon="2.24311">
        <ele>117.5</ele>
        <time>2022-02-08T09:39:05Z</time>
      </trkpt>
      <trkpt lat="48.74278" lon="2.24322">
        <ele>117</ele>
        <time>2022-02-08T09:39:11Z</time>
      </trkpt>
      <trkpt lat="48.74276" lon="2.24332">
        <ele>116.5</ele>
        <time>2022-02-08T09:39:17Z</time>
      </trkpt>
      <trkpt lat="48.74273" lon="2.2434">
        <ele>115.6</ele>
        <time>2022-02-08T09:39:23Z</time>
      </trkpt>
      <trkpt lat="48.74271" lon="2.2435">
        <ele>114.7</ele>
        <time>2022-02-08T09:39:33Z</time>
      </trkpt>
      <trkpt lat="48.7427" lon="2.24362">
        <ele>114</ele>
        <time>2022-02-08T09:39:44Z</time>
      </trkpt>
      <trkpt lat="48.74267" lon="2.24372">
        <ele>112.9</ele>
        <time>2022-02-08T09:39:50Z</time>
      </trkpt>
      <trkpt lat="48.7427" lon="2.24384">
        <ele>113.2</ele>
        <time>2022-02-08T09:39:57Z</time>
      </trkpt>
      <trkpt lat="48.74277" lon="2.24394">
        <ele>114.6</ele>
        <time>2022-02-08T09:40:03Z</time>
      </trkpt>
      <trkpt lat="48.74278" lon="2.24407">
        <ele>114.4</ele>
        <time>2022-02-08T09:40:09Z</time>
      </trkpt>
      <trkpt lat="48.74276" lon="2.24418">
        <ele>113.5</ele>
        <time>2022-02-08T09:40:15Z</time>
      </trkpt>
      <trkpt lat="48.74271" lon="2.24426">
        <ele>112.3</ele>
        <time>2022-02-08T09:40:21Z</time>
      </trkpt>
      <trkpt lat="48.74267" lon="2.24438">
        <ele>111.2</ele>
        <time>2022-02-08T09:40:27Z</time>
      </trkpt>
      <trkpt lat="48.74263" lon="2.24448">
        <ele>110.2</ele>
        <time>2022-02-08T09:40:33Z</time>
      </trkpt>
      <trkpt lat="48.7426" lon="2.24458">
        <ele>109.5</ele>
        <time>2022-02-08T09:40:39Z</time>
      </trkpt>
      <trkpt lat="48.74259" lon="2.24468">
        <ele>109.2</ele>
        <time>2022-02-08T09:40:50Z</time>
      </trkpt>
      <trkpt lat="48.74257" lon="2.24478">
        <ele>108.7</ele>
        <time>2022-02-08T09:40:59Z</time>
      </trkpt>
      <trkpt lat="48.74254" lon="2.24487">
        <ele>108</ele>
        <time>2022-02-08T09:41:06Z</time>
      </trkpt>
      <trkpt lat="48.74256" lon="2.24498">
        <ele>108.4</ele>
        <time>2022-02-08T09:41:13Z</time>
      </trkpt>
      <trkpt lat="48.74255" lon="2.2451">
        <ele>108.9</ele>
        <time>2022-02-08T09:41:18Z</time>
      </trkpt>
      <trkpt lat="48.74255" lon="2.24521">
        <ele>109.7</ele>
        <time>2022-02-08T09:41:24Z</time>
      </trkpt>
      <trkpt lat="48.74253" lon="2.2453">
        <ele>109.9</ele>
        <time>2022-02-08T09:41:29Z</time>
      </trkpt>
      <trkpt lat="48.74249" lon="2.24539">
        <ele>109.6</ele>
        <time>2022-02-08T09:41:40Z</time>
      </trkpt>
      <trkpt lat="48.74245" lon="2.24547">
        <ele>109.6</ele>
        <time>2022-02-08T09:41:47Z</time>
      </trkpt>
      <trkpt lat="48.74238" lon="2.24553">
        <ele>108.8</ele>
        <time>2022-02-08T09:41:54Z</time>
      </trkpt>
      <trkpt lat="48.74232" lon="2.2456">
        <ele>108.3</ele>
        <time>2022-02-08T09:42:00Z</time>
      </trkpt>
      <trkpt lat="48.74228" lon="2.24567">
        <ele>108</ele>
        <time>2022-02-08T09:42:08Z</time>
      </trkpt>
      <trkpt lat="48.7423" lon="2.24577">
        <ele>109</ele>
        <time>2022-02-08T09:42:16Z</time>
      </trkpt>
      <trkpt lat="48.74233" lon="2.24587">
        <ele>110.1</ele>
        <time>2022-02-08T09:42:24Z</time>
      </trkpt>
      <trkpt lat="48.74234" lon="2.24598">
        <ele>110.7</ele>
        <time>2022-02-08T09:42:31Z</time>
      </trkpt>
      <trkpt lat="48.74238" lon="2.24609">
        <ele>111.9</ele>
        <time>2022-02-08T09:42:41Z</time>
      </trkpt>
      <trkpt lat="48.7424" lon="2.24618">
        <ele>112.7</ele>
        <time>2022-02-08T09:42:49Z</time>
      </trkpt>
      <trkpt lat="48.74241" lon="2.24628">
        <ele>113.3</ele>
        <time>2022-02-08T09:43:03Z</time>
      </trkpt>
      <trkpt lat="48.74244" lon="2.24638">
        <ele>114.4</ele>
        <time>2022-02-08T09:43:15Z</time>
      </trkpt>
      <trkpt lat="48.74243" lon="2.24648">
        <ele>114.6</ele>
        <time>2022-02-08T09:43:21Z</time>
      </trkpt>
      <trkpt lat="48.74242" lon="2.24659">
        <ele>114.8</ele>
        <time>2022-02-08T09:43:30Z</time>
      </trkpt>
      <trkpt lat="48.74248" lon="2.24664">
        <ele>116.4</ele>
        <time>2022-02-08T09:43:41Z</time>
      </trkpt>
      <trkpt lat="48.74255" lon="2.24662">
        <ele>117.9</ele>
        <time>2022-02-08T09:43:46Z</time>
      </trkpt>
      <trkpt lat="48.74263" lon="2.24662">
        <ele>119.6</ele>
        <time>2022-02-08T09:43:53Z</time>
      </trkpt>
      <trkpt lat="48.74269" lon="2.24661">
        <ele>120.9</ele>
        <time>2022-02-08T09:44:01Z</time>
      </trkpt>
      <trkpt lat="48.74276" lon="2.24661">
        <ele>122.4</ele>
        <time>2022-02-08T09:44:06Z</time>
      </trkpt>
      <trkpt lat="48.74283" lon="2.24658">
        <ele>123.8</ele>
        <time>2022-02-08T09:44:17Z</time>
      </trkpt>
      <trkpt lat="48.7429" lon="2.2466">
        <ele>125.4</ele>
        <time>2022-02-08T09:44:26Z</time>
      </trkpt>
      <trkpt lat="48.74297" lon="2.24661">
        <ele>127</ele>
        <time>2022-02-08T09:44:57Z</time>
      </trkpt>
      <trkpt lat="48.74304" lon="2.24661">
        <ele>128.5</ele>
        <time>2022-02-08T09:45:03Z</time>
      </trkpt>
      <trkpt lat="48.74311" lon="2.24662">
        <ele>130</ele>
        <time>2022-02-08T09:45:09Z</time>
      </trkpt>
      <trkpt lat="48.74317" lon="2.2466">
        <ele>131.3</ele>
        <time>2022-02-08T09:45:15Z</time>
      </trkpt>
      <trkpt lat="48.74324" lon="2.24657">
        <ele>132.7</ele>
        <time>2022-02-08T09:45:23Z</time>
      </trkpt>
      <trkpt lat="48.74331" lon="2.24657">
        <ele>134.3</ele>
        <time>2022-02-08T09:45:27Z</time>
      </trkpt>
      <trkpt lat="48.74339" lon="2.24665">
        <ele>135.9</ele>
        <time>2022-02-08T09:45:33Z</time>
      </trkpt>
      <trkpt lat="48.74346" lon="2.24665">
        <ele>137.1</ele>
        <time>2022-02-08T09:45:39Z</time>
      </trkpt>
      <trkpt lat="48.74355" lon="2.24663">
        <ele>138.6</ele>
        <time>2022-02-08T09:45:45Z</time>
      </trkpt>
      <trkpt lat="48.74362" lon="2.24659">
        <ele>139.7</ele>
        <time>2022-02-08T09:45:51Z</time>
      </trkpt>
      <trkpt lat="48.74368" lon="2.24657">
        <ele>140.7</ele>
        <time>2022-02-08T09:45:58Z</time>
      </trkpt>
      <trkpt lat="48.74375" lon="2.24652">
        <ele>141.8</ele>
        <time>2022-02-08T09:46:04Z</time>
      </trkpt>
      <trkpt lat="48.74382" lon="2.24647">
        <ele>143</ele>
        <time>2022-02-08T09:46:09Z</time>
      </trkpt>
      <trkpt lat="48.74388" lon="2.24644">
        <ele>144</ele>
        <time>2022-02-08T09:46:15Z</time>
      </trkpt>
      <trkpt lat="48.74395" lon="2.24644">
        <ele>145.2</ele>
        <time>2022-02-08T09:46:21Z</time>
      </trkpt>
      <trkpt lat="48.74402" lon="2.24641">
        <ele>146.4</ele>
        <time>2022-02-08T09:46:27Z</time>
      </trkpt>
      <trkpt lat="48.7441" lon="2.2464">
        <ele>147.8</ele>
        <time>2022-02-08T09:46:34Z</time>
      </trkpt>
      <trkpt lat="48.74416" lon="2.2464">
        <ele>148.9</ele>
        <time>2022-02-08T09:46:40Z</time>
      </trkpt>
      <trkpt lat="48.74423" lon="2.24638">
        <ele>149.5</ele>
        <time>2022-02-08T09:46:46Z</time>
      </trkpt>
      <trkpt lat="48.74429" lon="2.24641">
        <ele>149.9</ele>
        <time>2022-02-08T09:47:02Z</time>
      </trkpt>
      <trkpt lat="48.74437" lon="2.24642">
        <ele>150.5</ele>
        <time>2022-02-08T09:47:20Z</time>
      </trkpt>
      <trkpt lat="48.74442" lon="2.24649">
        <ele>150.9</ele>
        <time>2022-02-08T09:47:25Z</time>
      </trkpt>
      <trkpt lat="48.74448" lon="2.24653">
        <ele>151.3</ele>
        <time>2022-02-08T09:47:29Z</time>
      </trkpt>
      <trkpt lat="48.74453" lon="2.2466">
        <ele>151.7</ele>
        <time>2022-02-08T09:47:37Z</time>
      </trkpt>
      <trkpt lat="48.74457" lon="2.24668">
        <ele>151.8</ele>
        <time>2022-02-08T09:47:47Z</time>
      </trkpt>
      <trkpt lat="48.74462" lon="2.24675">
        <ele>151.3</ele>
        <time>2022-02-08T09:47:53Z</time>
      </trkpt>
      <trkpt lat="48.74458" lon="2.24666">
        <ele>152</ele>
        <time>2022-02-08T09:48:13Z</time>
      </trkpt>
      <trkpt lat="48.74453" lon="2.24658">
        <ele>151.7</ele>
        <time>2022-02-08T09:48:20Z</time>
      </trkpt>
      <trkpt lat="48.74448" lon="2.24651">
        <ele>151.3</ele>
        <time>2022-02-08T09:48:26Z</time>
      </trkpt>
      <trkpt lat="48.7444" lon="2.24648">
        <ele>150.7</ele>
        <time>2022-02-08T09:48:31Z</time>
      </trkpt>
      <trkpt lat="48.74435" lon="2.24657">
        <ele>150.3</ele>
        <time>2022-02-08T09:48:37Z</time>
      </trkpt>
      <trkpt lat="48.74434" lon="2.24668">
        <ele>150.1</ele>
        <time>2022-02-08T09:48:42Z</time>
      </trkpt>
      <trkpt lat="48.74434" lon="2.24678">
        <ele>148.8</ele>
        <time>2022-02-08T09:48:47Z</time>
      </trkpt>
      <trkpt lat="48.74432" lon="2.24689">
        <ele>147.3</ele>
        <time>2022-02-08T09:48:52Z</time>
      </trkpt>
      <trkpt lat="48.74429" lon="2.24699">
        <ele>145.8</ele>
        <time>2022-02-08T09:48:59Z</time>
      </trkpt>
      <trkpt lat="48.74426" lon="2.24708">
        <ele>144.4</ele>
        <time>2022-02-08T09:49:04Z</time>
      </trkpt>
      <trkpt lat="48.74426" lon="2.24718">
        <ele>143.1</ele>
        <time>2022-02-08T09:49:10Z</time>
      </trkpt>
      <trkpt lat="48.74426" lon="2.2473">
        <ele>141.6</ele>
        <time>2022-02-08T09:49:16Z</time>
      </trkpt>
      <trkpt lat="48.74423" lon="2.24739">
        <ele>140.1</ele>
        <time>2022-02-08T09:49:21Z</time>
      </trkpt>
      <trkpt lat="48.74424" lon="2.24752">
        <ele>138.4</ele>
        <time>2022-02-08T09:49:27Z</time>
      </trkpt>
      <trkpt lat="48.74424" lon="2.24764">
        <ele>136.1</ele>
        <time>2022-02-08T09:49:34Z</time>
      </trkpt>
      <trkpt lat="48.74425" lon="2.24773">
        <ele>134.4</ele>
        <time>2022-02-08T09:49:55Z</time>
      </trkpt>
      <trkpt lat="48.74427" lon="2.24783">
        <ele>132.7</ele>
        <time>2022-02-08T09:50:04Z</time>
      </trkpt>
      <trkpt lat="48.74424" lon="2.24792">
        <ele>130.6</ele>
        <time>2022-02-08T09:50:11Z</time>
      </trkpt>
      <trkpt lat="48.7442" lon="2.248">
        <ele>128.7</ele>
        <time>2022-02-08T09:50:20Z</time>
      </trkpt>
      <trkpt lat="48.7442" lon="2.24811">
        <ele>126.6</ele>
        <time>2022-02-08T09:50:31Z</time>
      </trkpt>
      <trkpt lat="48.7442" lon="2.24821">
        <ele>124.7</ele>
        <time>2022-02-08T09:50:43Z</time>
      </trkpt>
      <trkpt lat="48.74426" lon="2.24826">
        <ele>124.2</ele>
        <time>2022-02-08T09:50:56Z</time>
      </trkpt>
      <trkpt lat="48.74425" lon="2.24836">
        <ele>122.1</ele>
        <time>2022-02-08T09:51:07Z</time>
      </trkpt>
      <trkpt lat="48.74424" lon="2.24847">
        <ele>119.8</ele>
        <time>2022-02-08T09:51:20Z</time>
      </trkpt>
      <trkpt lat="48.74424" lon="2.24857">
        <ele>117.7</ele>
        <time>2022-02-08T09:51:27Z</time>
      </trkpt>
      <trkpt lat="48.74422" lon="2.24869">
        <ele>115</ele>
        <time>2022-02-08T09:51:45Z</time>
      </trkpt>
      <trkpt lat="48.74424" lon="2.24878">
        <ele>113.3</ele>
        <time>2022-02-08T09:51:51Z</time>
      </trkpt>
      <trkpt lat="48.74428" lon="2.24885">
        <ele>112.5</ele>
        <time>2022-02-08T09:51:59Z</time>
      </trkpt>
      <trkpt lat="48.74434" lon="2.24888">
        <ele>112.7</ele>
        <time>2022-02-08T09:52:13Z</time>
      </trkpt>
      <trkpt lat="48.74441" lon="2.24895">
        <ele>112.5</ele>
        <time>2022-02-08T09:52:19Z</time>
      </trkpt>
      <trkpt lat="48.74448" lon="2.249">
        <ele>112.6</ele>
        <time>2022-02-08T09:52:23Z</time>
      </trkpt>
      <trkpt lat="48.74454" lon="2.24909">
        <ele>112</ele>
        <time>2022-02-08T09:52:29Z</time>
      </trkpt>
      <trkpt lat="48.7446" lon="2.24907">
        <ele>113.4</ele>
        <time>2022-02-08T09:52:36Z</time>
      </trkpt>
      <trkpt lat="48.74465" lon="2.249">
        <ele>115.4</ele>
        <time>2022-02-08T09:52:45Z</time>
      </trkpt>
      <trkpt lat="48.74468" lon="2.2489">
        <ele>117.4</ele>
        <time>2022-02-08T09:52:52Z</time>
      </trkpt>
      <trkpt lat="48.74472" lon="2.24882">
        <ele>119.2</ele>
        <time>2022-02-08T09:52:59Z</time>
      </trkpt>
      <trkpt lat="48.74474" lon="2.24873">
        <ele>120.9</ele>
        <time>2022-02-08T09:53:07Z</time>
      </trkpt>
      <trkpt lat="48.74479" lon="2.24867">
        <ele>122.4</ele>
        <time>2022-02-08T09:53:18Z</time>
      </trkpt>
      <trkpt lat="48.74484" lon="2.2486">
        <ele>124</ele>
        <time>2022-02-08T09:53:25Z</time>
      </trkpt>
      <trkpt lat="48.74485" lon="2.2485">
        <ele>125.5</ele>
        <time>2022-02-08T09:53:38Z</time>
      </trkpt>
      <trkpt lat="48.74488" lon="2.24836">
        <ele>127.6</ele>
        <time>2022-02-08T09:53:57Z</time>
      </trkpt>
      <trkpt lat="48.74495" lon="2.24831">
        <ele>129.1</ele>
        <time>2022-02-08T09:54:09Z</time>
      </trkpt>
      <trkpt lat="48.74501" lon="2.24828">
        <ele>130.3</ele>
        <time>2022-02-08T09:54:17Z</time>
      </trkpt>
      <trkpt lat="48.74506" lon="2.2482">
        <ele>132.6</ele>
        <time>2022-02-08T09:54:36Z</time>
      </trkpt>
      <trkpt lat="48.74511" lon="2.24814">
        <ele>134.4</ele>
        <time>2022-02-08T09:54:43Z</time>
      </trkpt>
      <trkpt lat="48.74518" lon="2.24814">
        <ele>135.2</ele>
        <time>2022-02-08T09:54:50Z</time>
      </trkpt>
      <trkpt lat="48.74524" lon="2.2481">
        <ele>136.6</ele>
        <time>2022-02-08T09:55:04Z</time>
      </trkpt>
      <trkpt lat="48.74527" lon="2.24802">
        <ele>138.5</ele>
        <time>2022-02-08T09:55:13Z</time>
      </trkpt>
      <trkpt lat="48.74534" lon="2.24796">
        <ele>140.3</ele>
        <time>2022-02-08T09:55:21Z</time>
      </trkpt>
      <trkpt lat="48.7454" lon="2.24793">
        <ele>141.4</ele>
        <time>2022-02-08T09:55:29Z</time>
      </trkpt>
      <trkpt lat="48.74547" lon="2.24789">
        <ele>142.7</ele>
        <time>2022-02-08T09:55:38Z</time>
      </trkpt>
      <trkpt lat="48.74553" lon="2.24785">
        <ele>143.9</ele>
        <time>2022-02-08T09:55:51Z</time>
      </trkpt>
      <trkpt lat="48.7456" lon="2.24788">
        <ele>144</ele>
        <time>2022-02-08T09:56:07Z</time>
      </trkpt>
      <trkpt lat="48.74564" lon="2.24795">
        <ele>143.3</ele>
        <time>2022-02-08T09:56:59Z</time>
      </trkpt>
      <trkpt lat="48.74571" lon="2.248">
        <ele>143.2</ele>
        <time>2022-02-08T09:57:05Z</time>
      </trkpt>
      <trkpt lat="48.74576" lon="2.24807">
        <ele>142.7</ele>
        <time>2022-02-08T09:57:11Z</time>
      </trkpt>
      <trkpt lat="48.74583" lon="2.24811">
        <ele>142.9</ele>
        <time>2022-02-08T09:57:18Z</time>
      </trkpt>
      <trkpt lat="48.7459" lon="2.24813">
        <ele>144</ele>
        <time>2022-02-08T09:57:25Z</time>
      </trkpt>
      <trkpt lat="48.74597" lon="2.24813">
        <ele>145.4</ele>
        <time>2022-02-08T09:57:33Z</time>
      </trkpt>
      <trkpt lat="48.74604" lon="2.24813">
        <ele>146.7</ele>
        <time>2022-02-08T09:57:40Z</time>
      </trkpt>
      <trkpt lat="48.7461" lon="2.24814">
        <ele>147.8</ele>
        <time>2022-02-08T09:57:45Z</time>
      </trkpt>
      <trkpt lat="48.74619" lon="2.24814">
        <ele>149.6</ele>
        <time>2022-02-08T09:57:51Z</time>
      </trkpt>
      <trkpt lat="48.74627" lon="2.24812">
        <ele>151.3</ele>
        <time>2022-02-08T09:57:58Z</time>
      </trkpt>
      <trkpt lat="48.74634" lon="2.2481">
        <ele>152.8</ele>
        <time>2022-02-08T09:58:03Z</time>
      </trkpt>
      <trkpt lat="48.7464" lon="2.24806">
        <ele>154.1</ele>
        <time>2022-02-08T09:58:09Z</time>
      </trkpt>
      <trkpt lat="48.74648" lon="2.24807">
        <ele>155.5</ele>
        <time>2022-02-08T09:58:15Z</time>
      </trkpt>
      <trkpt lat="48.74656" lon="2.24812">
        <ele>156.9</ele>
        <time>2022-02-08T09:58:21Z</time>
      </trkpt>
      <trkpt lat="48.74662" lon="2.24811">
        <ele>158.1</ele>
        <time>2022-02-08T09:58:31Z</time>
      </trkpt>
      <trkpt lat="48.74669" lon="2.24809">
        <ele>159.1</ele>
        <time>2022-02-08T09:58:36Z</time>
      </trkpt>
      <trkpt lat="48.74676" lon="2.24809">
        <ele>159.3</ele>
        <time>2022-02-08T09:58:41Z</time>
      </trkpt>
      <trkpt lat="48.74683" lon="2.24807">
        <ele>159.5</ele>
        <time>2022-02-08T09:58:46Z</time>
      </trkpt>
      <trkpt lat="48.7469" lon="2.24805">
        <ele>159.7</ele>
        <time>2022-02-08T09:58:51Z</time>
      </trkpt>
      <trkpt lat="48.74697" lon="2.24806">
        <ele>159.8</ele>
        <time>2022-02-08T09:58:59Z</time>
      </trkpt>
      <trkpt lat="48.74704" lon="2.24808">
        <ele>160</ele>
        <time>2022-02-08T09:59:06Z</time>
      </trkpt>
      <trkpt lat="48.7471" lon="2.24805">
        <ele>160.2</ele>
        <time>2022-02-08T09:59:15Z</time>
      </trkpt>
      <trkpt lat="48.74721" lon="2.24806">
        <ele>160.5</ele>
        <time>2022-02-08T09:59:21Z</time>
      </trkpt>
      <trkpt lat="48.74733" lon="2.24806">
        <ele>160.9</ele>
        <time>2022-02-08T09:59:27Z</time>
      </trkpt>
      <trkpt lat="48.74729" lon="2.24797">
        <ele>160.8</ele>
        <time>2022-02-08T10:00:00Z</time>
      </trkpt>
      <trkpt lat="48.74726" lon="2.24789">
        <ele>160.8</ele>
        <time>2022-02-08T10:00:16Z</time>
      </trkpt>
      <trkpt lat="48.74726" lon="2.24778">
        <ele>160.9</ele>
        <time>2022-02-08T10:00:22Z</time>
      </trkpt>
      <trkpt lat="48.74723" lon="2.24769">
        <ele>160.9</ele>
        <time>2022-02-08T10:00:27Z</time>
      </trkpt>
      <trkpt lat="48.74724" lon="2.24759">
        <ele>161</ele>
        <time>2022-02-08T10:00:32Z</time>
      </trkpt>
      <trkpt lat="48.74723" lon="2.24747">
        <ele>161</ele>
        <time>2022-02-08T10:00:40Z</time>
      </trkpt>
      <trkpt lat="48.74721" lon="2.24737">
        <ele>160.9</ele>
        <time>2022-02-08T10:00:45Z</time>
      </trkpt>
      <trkpt lat="48.74718" lon="2.24725">
        <ele>160.8</ele>
        <time>2022-02-08T10:00:50Z</time>
      </trkpt>
      <trkpt lat="48.74713" lon="2.24713">
        <ele>160.6</ele>
        <time>2022-02-08T10:00:56Z</time>
      </trkpt>
      <trkpt lat="48.7471" lon="2.24701">
        <ele>160.5</ele>
        <time>2022-02-08T10:01:02Z</time>
      </trkpt>
      <trkpt lat="48.7471" lon="2.24689">
        <ele>160.5</ele>
        <time>2022-02-08T10:01:08Z</time>
      </trkpt>
      <trkpt lat="48.74712" lon="2.24675">
        <ele>160.6</ele>
        <time>2022-02-08T10:01:14Z</time>
      </trkpt>
      <trkpt lat="48.74711" lon="2.2466">
        <ele>160.7</ele>
        <time>2022-02-08T10:01:20Z</time>
      </trkpt>
      <trkpt lat="48.7471" lon="2.24644">
        <ele>160.9</ele>
        <time>2022-02-08T10:01:26Z</time>
      </trkpt>
      <trkpt lat="48.74708" lon="2.24628">
        <ele>161.2</ele>
        <time>2022-02-08T10:01:32Z</time>
      </trkpt>
      <trkpt lat="48.74708" lon="2.24615">
        <ele>161.4</ele>
        <time>2022-02-08T10:01:38Z</time>
      </trkpt>
      <trkpt lat="48.74708" lon="2.24602">
        <ele>161.7</ele>
        <time>2022-02-08T10:01:44Z</time>
      </trkpt>
      <trkpt lat="48.74706" lon="2.2459">
        <ele>161.8</ele>
        <time>2022-02-08T10:01:50Z</time>
      </trkpt>
      <trkpt lat="48.74705" lon="2.24576">
        <ele>161.9</ele>
        <time>2022-02-08T10:01:56Z</time>
      </trkpt>
      <trkpt lat="48.74705" lon="2.24562">
        <ele>161.9</ele>
        <time>2022-02-08T10:02:02Z</time>
      </trkpt>
      <trkpt lat="48.74704" lon="2.24549">
        <ele>161.9</ele>
        <time>2022-02-08T10:02:08Z</time>
      </trkpt>
      <trkpt lat="48.74705" lon="2.24538">
        <ele>162</ele>
        <time>2022-02-08T10:02:14Z</time>
      </trkpt>
      <trkpt lat="48.74707" lon="2.24525">
        <ele>162</ele>
        <time>2022-02-08T10:02:20Z</time>
      </trkpt>
      <trkpt lat="48.74712" lon="2.2452">
        <ele>162</ele>
        <time>2022-02-08T10:02:26Z</time>
      </trkpt>
      <trkpt lat="48.74719" lon="2.24521">
        <ele>162.1</ele>
        <time>2022-02-08T10:02:33Z</time>
      </trkpt>
      <trkpt lat="48.74727" lon="2.24521">
        <ele>162.1</ele>
        <time>2022-02-08T10:02:39Z</time>
      </trkpt>
      <trkpt lat="48.74735" lon="2.24523">
        <ele>162.2</ele>
        <time>2022-02-08T10:02:44Z</time>
      </trkpt>
      <trkpt lat="48.74742" lon="2.24525">
        <ele>162.2</ele>
        <time>2022-02-08T10:02:50Z</time>
      </trkpt>
      <trkpt lat="48.74751" lon="2.24527">
        <ele>162.3</ele>
        <time>2022-02-08T10:02:56Z</time>
      </trkpt>
      <trkpt lat="48.7476" lon="2.24526">
        <ele>162.4</ele>
        <time>2022-02-08T10:03:02Z</time>
      </trkpt>
      <trkpt lat="48.74768" lon="2.24527">
        <ele>162.5</ele>
        <time>2022-02-08T10:03:08Z</time>
      </trkpt>
      <trkpt lat="48.74774" lon="2.2453">
        <ele>162.6</ele>
        <time>2022-02-08T10:03:16Z</time>
      </trkpt>
      <trkpt lat="48.74782" lon="2.24532">
        <ele>162.8</ele>
        <time>2022-02-08T10:03:22Z</time>
      </trkpt>
      <trkpt lat="48.74788" lon="2.24532">
        <ele>162.8</ele>
        <time>2022-02-08T10:03:28Z</time>
      </trkpt>
      <trkpt lat="48.74795" lon="2.24533">
        <ele>162.9</ele>
        <time>2022-02-08T10:03:34Z</time>
      </trkpt>
      <trkpt lat="48.74801" lon="2.24536">
        <ele>163</ele>
        <time>2022-02-08T10:03:41Z</time>
      </trkpt>
      <trkpt lat="48.74807" lon="2.24542">
        <ele>163.2</ele>
        <time>2022-02-08T10:03:48Z</time>
      </trkpt>
      <trkpt lat="48.74815" lon="2.24541">
        <ele>163.3</ele>
        <time>2022-02-08T10:03:58Z</time>
      </trkpt>
      <trkpt lat="48.74823" lon="2.24543">
        <ele>163.4</ele>
        <time>2022-02-08T10:04:03Z</time>
      </trkpt>
      <trkpt lat="48.74829" lon="2.24547">
        <ele>163.5</ele>
        <time>2022-02-08T10:04:08Z</time>
      </trkpt>
      <trkpt lat="48.74835" lon="2.2455">
        <ele>163.7</ele>
        <time>2022-02-08T10:04:17Z</time>
      </trkpt>
      <trkpt lat="48.74843" lon="2.24554">
        <ele>164.1</ele>
        <time>2022-02-08T10:04:26Z</time>
      </trkpt>
      <trkpt lat="48.74849" lon="2.2455">
        <ele>164.4</ele>
        <time>2022-02-08T10:04:32Z</time>
      </trkpt>
      <trkpt lat="48.74856" lon="2.2455">
        <ele>164.7</ele>
        <time>2022-02-08T10:04:38Z</time>
      </trkpt>
      <trkpt lat="48.74865" lon="2.24551">
        <ele>165.1</ele>
        <time>2022-02-08T10:04:43Z</time>
      </trkpt>
      <trkpt lat="48.7487" lon="2.24558">
        <ele>165.5</ele>
        <time>2022-02-08T10:05:02Z</time>
      </trkpt>
      <trkpt lat="48.74877" lon="2.24562">
        <ele>165.8</ele>
        <time>2022-02-08T10:05:12Z</time>
      </trkpt>
      <trkpt lat="48.74884" lon="2.2456">
        <ele>166.2</ele>
        <time>2022-02-08T10:05:22Z</time>
      </trkpt>
      <trkpt lat="48.74892" lon="2.24558">
        <ele>166.5</ele>
        <time>2022-02-08T10:05:28Z</time>
      </trkpt>
      <trkpt lat="48.74898" lon="2.24562">
        <ele>166.8</ele>
        <time>2022-02-08T10:05:35Z</time>
      </trkpt>
      <trkpt lat="48.74904" lon="2.24564">
        <ele>167.2</ele>
        <time>2022-02-08T10:05:43Z</time>
      </trkpt>
      <trkpt lat="48.7491" lon="2.24569">
        <ele>167.5</ele>
        <time>2022-02-08T10:05:52Z</time>
      </trkpt>
      <trkpt lat="48.74917" lon="2.24572">
        <ele>167.9</ele>
        <time>2022-02-08T10:05:55Z</time>
      </trkpt>
      <trkpt lat="48.74929" lon="2.24575">
        <ele>168.3</ele>
        <time>2022-02-08T10:06:01Z</time>
      </trkpt>
      <trkpt lat="48.74935" lon="2.24573">
        <ele>168.4</ele>
        <time>2022-02-08T10:06:13Z</time>
      </trkpt>
      <trkpt lat="48.74943" lon="2.24574">
        <ele>168.7</ele>
        <time>2022-02-08T10:06:19Z</time>
      </trkpt>
      <trkpt lat="48.74954" lon="2.24574">
        <ele>169</ele>
        <time>2022-02-08T10:06:25Z</time>
      </trkpt>
      <trkpt lat="48.74964" lon="2.24575">
        <ele>169.3</ele>
        <time>2022-02-08T10:06:31Z</time>
      </trkpt>
      <trkpt lat="48.74972" lon="2.24578">
        <ele>169.4</ele>
        <time>2022-02-08T10:06:37Z</time>
      </trkpt>
      <trkpt lat="48.74979" lon="2.24578">
        <ele>169.6</ele>
        <time>2022-02-08T10:06:45Z</time>
      </trkpt>
      <trkpt lat="48.74986" lon="2.24582">
        <ele>169.7</ele>
        <time>2022-02-08T10:06:51Z</time>
      </trkpt>
      <trkpt lat="48.74993" lon="2.24584">
        <ele>169.8</ele>
        <time>2022-02-08T10:06:56Z</time>
      </trkpt>
      <trkpt lat="48.75" lon="2.24585">
        <ele>170</ele>
        <time>2022-02-08T10:07:02Z</time>
      </trkpt>
      <trkpt lat="48.75007" lon="2.24584">
        <ele>170.2</ele>
        <time>2022-02-08T10:07:07Z</time>
      </trkpt>
      <trkpt lat="48.75015" lon="2.24584">
        <ele>170.4</ele>
        <time>2022-02-08T10:07:13Z</time>
      </trkpt>
      <trkpt lat="48.75022" lon="2.24587">
        <ele>170.5</ele>
        <time>2022-02-08T10:07:19Z</time>
      </trkpt>
      <trkpt lat="48.75029" lon="2.24587">
        <ele>170.7</ele>
        <time>2022-02-08T10:07:25Z</time>
      </trkpt>
      <trkpt lat="48.75036" lon="2.24592">
        <ele>170.8</ele>
        <time>2022-02-08T10:07:31Z</time>
      </trkpt>
      <trkpt lat="48.75043" lon="2.24595">
        <ele>171</ele>
        <time>2022-02-08T10:07:38Z</time>
      </trkpt>
      <trkpt lat="48.75049" lon="2.24595">
        <ele>171.1</ele>
        <time>2022-02-08T10:07:47Z</time>
      </trkpt>
      <trkpt lat="48.75056" lon="2.24594">
        <ele>171.3</ele>
        <time>2022-02-08T10:07:54Z</time>
      </trkpt>
      <trkpt lat="48.75063" lon="2.24593">
        <ele>171.5</ele>
        <time>2022-02-08T10:07:58Z</time>
      </trkpt>
      <trkpt lat="48.7507" lon="2.24591">
        <ele>171.7</ele>
        <time>2022-02-08T10:08:01Z</time>
      </trkpt>
      <trkpt lat="48.75083" lon="2.24592">
        <ele>172</ele>
        <time>2022-02-08T10:08:07Z</time>
      </trkpt>
      <trkpt lat="48.75094" lon="2.2459">
        <ele>172.3</ele>
        <time>2022-02-08T10:08:13Z</time>
      </trkpt>
      <trkpt lat="48.75102" lon="2.24591">
        <ele>172.5</ele>
        <time>2022-02-08T10:08:19Z</time>
      </trkpt>
      <trkpt lat="48.75111" lon="2.24594">
        <ele>172.7</ele>
        <time>2022-02-08T10:08:25Z</time>
      </trkpt>
      <trkpt lat="48.75118" lon="2.24594">
        <ele>172.9</ele>
        <time>2022-02-08T10:08:31Z</time>
      </trkpt>
      <trkpt lat="48.75125" lon="2.2459">
        <ele>173</ele>
        <time>2022-02-08T10:08:53Z</time>
      </trkpt>
      <trkpt lat="48.75133" lon="2.24588">
        <ele>173.2</ele>
        <time>2022-02-08T10:08:58Z</time>
      </trkpt>
      <trkpt lat="48.75139" lon="2.24585">
        <ele>173.3</ele>
        <time>2022-02-08T10:09:03Z</time>
      </trkpt>
      <trkpt lat="48.75147" lon="2.24584">
        <ele>173.5</ele>
        <time>2022-02-08T10:09:09Z</time>
      </trkpt>
      <trkpt lat="48.75152" lon="2.2459">
        <ele>173.7</ele>
        <time>2022-02-08T10:09:30Z</time>
      </trkpt>
      <trkpt lat="48.75159" lon="2.24595">
        <ele>173.9</ele>
        <time>2022-02-08T10:09:39Z</time>
      </trkpt>
      <trkpt lat="48.75166" lon="2.24597">
        <ele>174.1</ele>
        <time>2022-02-08T10:09:43Z</time>
      </trkpt>
      <trkpt lat="48.75173" lon="2.24597">
        <ele>174.2</ele>
        <time>2022-02-08T10:09:47Z</time>
      </trkpt>
      <trkpt lat="48.7518" lon="2.24599">
        <ele>174.2</ele>
        <time>2022-02-08T10:10:02Z</time>
      </trkpt>
      <trkpt lat="48.75187" lon="2.246">
        <ele>174.2</ele>
        <time>2022-02-08T10:10:06Z</time>
      </trkpt>
      <trkpt lat="48.75194" lon="2.24602">
        <ele>174.2</ele>
        <time>2022-02-08T10:10:12Z</time>
      </trkpt>
      <trkpt lat="48.75201" lon="2.24599">
        <ele>174.2</ele>
        <time>2022-02-08T10:10:18Z</time>
      </trkpt>
      <trkpt lat="48.75207" lon="2.24594">
        <ele>174.1</ele>
        <time>2022-02-08T10:10:24Z</time>
      </trkpt>
      <trkpt lat="48.75213" lon="2.2459">
        <ele>174.1</ele>
        <time>2022-02-08T10:10:31Z</time>
      </trkpt>
      <trkpt lat="48.7522" lon="2.24587">
        <ele>174</ele>
        <time>2022-02-08T10:10:37Z</time>
      </trkpt>
      <trkpt lat="48.75227" lon="2.24587">
        <ele>174</ele>
        <time>2022-02-08T10:10:44Z</time>
      </trkpt>
      <trkpt lat="48.75234" lon="2.24582">
        <ele>174</ele>
        <time>2022-02-08T10:10:51Z</time>
      </trkpt>
      <trkpt lat="48.75238" lon="2.24574">
        <ele>174</ele>
        <time>2022-02-08T10:10:59Z</time>
      </trkpt>
      <trkpt lat="48.75243" lon="2.24566">
        <ele>174</ele>
        <time>2022-02-08T10:11:06Z</time>
      </trkpt>
      <trkpt lat="48.75247" lon="2.24557">
        <ele>174</ele>
        <time>2022-02-08T10:11:14Z</time>
      </trkpt>
      <trkpt lat="48.75249" lon="2.24548">
        <ele>174</ele>
        <time>2022-02-08T10:11:19Z</time>
      </trkpt>
      <trkpt lat="48.75261" lon="2.24541">
        <ele>173.9</ele>
        <time>2022-02-08T10:12:10Z</time>
      </trkpt>
      <trkpt lat="48.75267" lon="2.24534">
        <ele>173.8</ele>
        <time>2022-02-08T10:12:40Z</time>
      </trkpt>
      <trkpt lat="48.75274" lon="2.24533">
        <ele>173.8</ele>
        <time>2022-02-08T10:12:47Z</time>
      </trkpt>
      <trkpt lat="48.75281" lon="2.24533">
        <ele>173.7</ele>
        <time>2022-02-08T10:12:55Z</time>
      </trkpt>
      <trkpt lat="48.7529" lon="2.24535">
        <ele>173.6</ele>
        <time>2022-02-08T10:13:08Z</time>
      </trkpt>
      <trkpt lat="48.75295" lon="2.24527">
        <ele>173.4</ele>
        <time>2022-02-08T10:13:22Z</time>
      </trkpt>
      <trkpt lat="48.75302" lon="2.24528">
        <ele>173.4</ele>
        <time>2022-02-08T10:13:32Z</time>
      </trkpt>
      <trkpt lat="48.75306" lon="2.2452">
        <ele>173.1</ele>
        <time>2022-02-08T10:13:41Z</time>
      </trkpt>
      <trkpt lat="48.75305" lon="2.24509">
        <ele>172.9</ele>
        <time>2022-02-08T10:13:46Z</time>
      </trkpt>
      <trkpt lat="48.75302" lon="2.24496">
        <ele>172.7</ele>
        <time>2022-02-08T10:13:51Z</time>
      </trkpt>
      <trkpt lat="48.753" lon="2.2448">
        <ele>172.7</ele>
        <time>2022-02-08T10:13:57Z</time>
      </trkpt>
      <trkpt lat="48.75299" lon="2.24468">
        <ele>172.6</ele>
        <time>2022-02-08T10:14:03Z</time>
      </trkpt>
      <trkpt lat="48.75301" lon="2.24454">
        <ele>172.4</ele>
        <time>2022-02-08T10:14:09Z</time>
      </trkpt>
      <trkpt lat="48.75303" lon="2.24441">
        <ele>172.3</ele>
        <time>2022-02-08T10:14:15Z</time>
      </trkpt>
      <trkpt lat="48.75306" lon="2.2443">
        <ele>172.1</ele>
        <time>2022-02-08T10:14:21Z</time>
      </trkpt>
      <trkpt lat="48.75307" lon="2.24419">
        <ele>172</ele>
        <time>2022-02-08T10:14:28Z</time>
      </trkpt>
      <trkpt lat="48.7531" lon="2.24409">
        <ele>171.9</ele>
        <time>2022-02-08T10:14:34Z</time>
      </trkpt>
      <trkpt lat="48.75313" lon="2.24399">
        <ele>171.8</ele>
        <time>2022-02-08T10:14:39Z</time>
      </trkpt>
      <trkpt lat="48.75315" lon="2.24387">
        <ele>171.8</ele>
        <time>2022-02-08T10:14:45Z</time>
      </trkpt>
      <trkpt lat="48.75318" lon="2.24377">
        <ele>171.8</ele>
        <time>2022-02-08T10:14:51Z</time>
      </trkpt>
      <trkpt lat="48.75322" lon="2.24368">
        <ele>171.8</ele>
        <time>2022-02-08T10:14:57Z</time>
      </trkpt>
      <trkpt lat="48.75326" lon="2.24359">
        <ele>171.8</ele>
        <time>2022-02-08T10:15:03Z</time>
      </trkpt>
      <trkpt lat="48.7533" lon="2.24351">
        <ele>171.8</ele>
        <time>2022-02-08T10:15:16Z</time>
      </trkpt>
      <trkpt lat="48.75337" lon="2.24346">
        <ele>171.9</ele>
        <time>2022-02-08T10:15:33Z</time>
      </trkpt>
      <trkpt lat="48.75344" lon="2.24344">
        <ele>172.1</ele>
        <time>2022-02-08T10:15:40Z</time>
      </trkpt>
      <trkpt lat="48.7535" lon="2.24339">
        <ele>172.3</ele>
        <time>2022-02-08T10:15:47Z</time>
      </trkpt>
      <trkpt lat="48.75356" lon="2.24332">
        <ele>172.5</ele>
        <time>2022-02-08T10:15:51Z</time>
      </trkpt>
      <trkpt lat="48.75364" lon="2.24326">
        <ele>172.6</ele>
        <time>2022-02-08T10:15:56Z</time>
      </trkpt>
      <trkpt lat="48.75375" lon="2.24319">
        <ele>172.8</ele>
        <time>2022-02-08T10:16:02Z</time>
      </trkpt>
      <trkpt lat="48.75383" lon="2.24312">
        <ele>172.9</ele>
        <time>2022-02-08T10:16:08Z</time>
      </trkpt>
      <trkpt lat="48.75389" lon="2.24308">
        <ele>173</ele>
        <time>2022-02-08T10:16:14Z</time>
      </trkpt>
      <trkpt lat="48.75397" lon="2.24305">
        <ele>173.2</ele>
        <time>2022-02-08T10:16:20Z</time>
      </trkpt>
      <trkpt lat="48.75406" lon="2.24299">
        <ele>173.3</ele>
        <time>2022-02-08T10:16:26Z</time>
      </trkpt>
      <trkpt lat="48.75411" lon="2.24293">
        <ele>173.4</ele>
        <time>2022-02-08T10:16:32Z</time>
      </trkpt>
      <trkpt lat="48.75418" lon="2.24284">
        <ele>173.5</ele>
        <time>2022-02-08T10:17:03Z</time>
      </trkpt>
      <trkpt lat="48.75425" lon="2.24282">
        <ele>173.7</ele>
        <time>2022-02-08T10:17:16Z</time>
      </trkpt>
      <trkpt lat="48.75428" lon="2.24274">
        <ele>173.7</ele>
        <time>2022-02-08T10:17:32Z</time>
      </trkpt>
      <trkpt lat="48.75422" lon="2.24278">
        <ele>173.5</ele>
        <time>2022-02-08T10:17:42Z</time>
      </trkpt>
      <trkpt lat="48.75421" lon="2.24288">
        <ele>173.6</ele>
        <time>2022-02-08T10:17:50Z</time>
      </trkpt>
      <trkpt lat="48.75427" lon="2.24297">
        <ele>173.9</ele>
        <time>2022-02-08T10:17:56Z</time>
      </trkpt>
      <trkpt lat="48.75433" lon="2.24306">
        <ele>174.3</ele>
        <time>2022-02-08T10:18:02Z</time>
      </trkpt>
      <trkpt lat="48.75439" lon="2.24313">
        <ele>174.6</ele>
        <time>2022-02-08T10:18:08Z</time>
      </trkpt>
      <trkpt lat="48.75442" lon="2.24322">
        <ele>174.8</ele>
        <time>2022-02-08T10:18:15Z</time>
      </trkpt>
      <trkpt lat="48.75448" lon="2.24329">
        <ele>175.1</ele>
        <time>2022-02-08T10:18:20Z</time>
      </trkpt>
      <trkpt lat="48.75453" lon="2.24334">
        <ele>175.3</ele>
        <time>2022-02-08T10:18:25Z</time>
      </trkpt>
      <trkpt lat="48.75462" lon="2.24339">
        <ele>175.6</ele>
        <time>2022-02-08T10:18:30Z</time>
      </trkpt>
      <trkpt lat="48.75468" lon="2.24348">
        <ele>175.8</ele>
        <time>2022-02-08T10:18:36Z</time>
      </trkpt>
      <trkpt lat="48.75473" lon="2.24356">
        <ele>176</ele>
        <time>2022-02-08T10:18:42Z</time>
      </trkpt>
      <trkpt lat="48.75479" lon="2.24366">
        <ele>176.2</ele>
        <time>2022-02-08T10:18:48Z</time>
      </trkpt>
      <trkpt lat="48.75487" lon="2.24372">
        <ele>176.5</ele>
        <time>2022-02-08T10:18:54Z</time>
      </trkpt>
      <trkpt lat="48.75494" lon="2.24378">
        <ele>176.8</ele>
        <time>2022-02-08T10:19:00Z</time>
      </trkpt>
      <trkpt lat="48.75502" lon="2.24387">
        <ele>177.1</ele>
        <time>2022-02-08T10:19:06Z</time>
      </trkpt>
      <trkpt lat="48.75507" lon="2.24393">
        <ele>177.3</ele>
        <time>2022-02-08T10:19:12Z</time>
      </trkpt>
      <trkpt lat="48.75513" lon="2.24404">
        <ele>177.5</ele>
        <time>2022-02-08T10:19:18Z</time>
      </trkpt>
      <trkpt lat="48.75519" lon="2.24408">
        <ele>177.7</ele>
        <time>2022-02-08T10:19:25Z</time>
      </trkpt>
      <trkpt lat="48.75524" lon="2.24417">
        <ele>177.9</ele>
        <time>2022-02-08T10:19:33Z</time>
      </trkpt>
      <trkpt lat="48.75531" lon="2.24422">
        <ele>177.9</ele>
        <time>2022-02-08T10:19:38Z</time>
      </trkpt>
      <trkpt lat="48.75537" lon="2.24428">
        <ele>177.9</ele>
        <time>2022-02-08T10:19:42Z</time>
      </trkpt>
      <trkpt lat="48.75543" lon="2.24436">
        <ele>177.7</ele>
        <time>2022-02-08T10:19:48Z</time>
      </trkpt>
      <trkpt lat="48.75549" lon="2.24443">
        <ele>177.6</ele>
        <time>2022-02-08T10:19:54Z</time>
      </trkpt>
      <trkpt lat="48.75554" lon="2.24449">
        <ele>177.4</ele>
        <time>2022-02-08T10:20:00Z</time>
      </trkpt>
      <trkpt lat="48.75558" lon="2.2446">
        <ele>177</ele>
        <time>2022-02-08T10:20:06Z</time>
      </trkpt>
      <trkpt lat="48.75562" lon="2.24475">
        <ele>176.3</ele>
        <time>2022-02-08T10:20:12Z</time>
      </trkpt>
      <trkpt lat="48.75565" lon="2.24486">
        <ele>175.7</ele>
        <time>2022-02-08T10:20:18Z</time>
      </trkpt>
      <trkpt lat="48.75566" lon="2.24497">
        <ele>175.2</ele>
        <time>2022-02-08T10:20:24Z</time>
      </trkpt>
      <trkpt lat="48.75569" lon="2.24507">
        <ele>174.9</ele>
        <time>2022-02-08T10:20:30Z</time>
      </trkpt>
      <trkpt lat="48.75572" lon="2.2452">
        <ele>174.7</ele>
        <time>2022-02-08T10:20:36Z</time>
      </trkpt>
      <trkpt lat="48.75575" lon="2.24532">
        <ele>174.5</ele>
        <time>2022-02-08T10:20:42Z</time>
      </trkpt>
      <trkpt lat="48.75577" lon="2.24544">
        <ele>174.4</ele>
        <time>2022-02-08T10:20:48Z</time>
      </trkpt>
      <trkpt lat="48.75578" lon="2.24555">
        <ele>174.3</ele>
        <time>2022-02-08T10:20:54Z</time>
      </trkpt>
      <trkpt lat="48.75578" lon="2.24568">
        <ele>174.1</ele>
        <time>2022-02-08T10:21:00Z</time>
      </trkpt>
      <trkpt lat="48.75579" lon="2.24579">
        <ele>174</ele>
        <time>2022-02-08T10:21:06Z</time>
      </trkpt>
      <trkpt lat="48.75579" lon="2.2459">
        <ele>174</ele>
        <time>2022-02-08T10:21:12Z</time>
      </trkpt>
      <trkpt lat="48.75581" lon="2.24604">
        <ele>174.2</ele>
        <time>2022-02-08T10:21:18Z</time>
      </trkpt>
      <trkpt lat="48.75584" lon="2.24614">
        <ele>174.4</ele>
        <time>2022-02-08T10:21:24Z</time>
      </trkpt>
      <trkpt lat="48.75588" lon="2.24624">
        <ele>174.6</ele>
        <time>2022-02-08T10:21:31Z</time>
      </trkpt>
      <trkpt lat="48.75591" lon="2.24634">
        <ele>174.8</ele>
        <time>2022-02-08T10:21:36Z</time>
      </trkpt>
      <trkpt lat="48.75595" lon="2.24645">
        <ele>175</ele>
        <time>2022-02-08T10:21:51Z</time>
      </trkpt>
      <trkpt lat="48.75596" lon="2.24655">
        <ele>175.1</ele>
        <time>2022-02-08T10:21:57Z</time>
      </trkpt>
      <trkpt lat="48.75593" lon="2.24664">
        <ele>175.1</ele>
        <time>2022-02-08T10:22:03Z</time>
      </trkpt>
      <trkpt lat="48.7559" lon="2.24673">
        <ele>175.2</ele>
        <time>2022-02-08T10:22:35Z</time>
      </trkpt>
      <trkpt lat="48.75593" lon="2.24683">
        <ele>175.5</ele>
        <time>2022-02-08T10:22:43Z</time>
      </trkpt>
      <trkpt lat="48.75592" lon="2.24693">
        <ele>175.8</ele>
        <time>2022-02-08T10:22:54Z</time>
      </trkpt>
      <trkpt lat="48.75586" lon="2.24696">
        <ele>175.7</ele>
        <time>2022-02-08T10:23:04Z</time>
      </trkpt>
      <trkpt lat="48.75582" lon="2.24705">
        <ele>175.9</ele>
        <time>2022-02-08T10:23:24Z</time>
      </trkpt>
      <trkpt lat="48.75576" lon="2.24709">
        <ele>176</ele>
        <time>2022-02-08T10:23:34Z</time>
      </trkpt>
      <trkpt lat="48.75569" lon="2.24712">
        <ele>176</ele>
        <time>2022-02-08T10:23:44Z</time>
      </trkpt>
      <trkpt lat="48.75561" lon="2.24713">
        <ele>176</ele>
        <time>2022-02-08T10:23:52Z</time>
      </trkpt>
      <trkpt lat="48.75555" lon="2.24719">
        <ele>176</ele>
        <time>2022-02-08T10:23:57Z</time>
      </trkpt>
      <trkpt lat="48.75548" lon="2.24727">
        <ele>176.1</ele>
        <time>2022-02-08T10:24:03Z</time>
      </trkpt>
      <trkpt lat="48.7554" lon="2.2474">
        <ele>176.3</ele>
        <time>2022-02-08T10:24:09Z</time>
      </trkpt>
      <trkpt lat="48.75532" lon="2.24748">
        <ele>176.4</ele>
        <time>2022-02-08T10:24:15Z</time>
      </trkpt>
      <trkpt lat="48.75524" lon="2.24755">
        <ele>176.4</ele>
        <time>2022-02-08T10:24:21Z</time>
      </trkpt>
      <trkpt lat="48.75516" lon="2.2476">
        <ele>176.3</ele>
        <time>2022-02-08T10:24:27Z</time>
      </trkpt>
      <trkpt lat="48.75506" lon="2.24762">
        <ele>176.2</ele>
        <time>2022-02-08T10:24:33Z</time>
      </trkpt>
      <trkpt lat="48.75498" lon="2.24765">
        <ele>176.1</ele>
        <time>2022-02-08T10:24:39Z</time>
      </trkpt>
      <trkpt lat="48.75491" lon="2.24771">
        <ele>176</ele>
        <time>2022-02-08T10:24:47Z</time>
      </trkpt>
      <trkpt lat="48.75487" lon="2.24779">
        <ele>176</ele>
        <time>2022-02-08T10:24:52Z</time>
      </trkpt>
      <trkpt lat="48.75482" lon="2.24786">
        <ele>176</ele>
        <time>2022-02-08T10:24:57Z</time>
      </trkpt>
      <trkpt lat="48.75475" lon="2.24793">
        <ele>175.9</ele>
        <time>2022-02-08T10:25:03Z</time>
      </trkpt>
      <trkpt lat="48.75466" lon="2.24797">
        <ele>175.7</ele>
        <time>2022-02-08T10:25:09Z</time>
      </trkpt>
      <trkpt lat="48.75459" lon="2.24801">
        <ele>175.6</ele>
        <time>2022-02-08T10:25:15Z</time>
      </trkpt>
      <trkpt lat="48.75452" lon="2.24805">
        <ele>175.5</ele>
        <time>2022-02-08T10:25:22Z</time>
      </trkpt>
      <trkpt lat="48.75446" lon="2.24812">
        <ele>175.4</ele>
        <time>2022-02-08T10:25:27Z</time>
      </trkpt>
      <trkpt lat="48.75438" lon="2.24817">
        <ele>175.3</ele>
        <time>2022-02-08T10:25:33Z</time>
      </trkpt>
      <trkpt lat="48.75431" lon="2.24824">
        <ele>175.2</ele>
        <time>2022-02-08T10:25:39Z</time>
      </trkpt>
      <trkpt lat="48.75425" lon="2.24831">
        <ele>175.2</ele>
        <time>2022-02-08T10:25:45Z</time>
      </trkpt>
      <trkpt lat="48.75412" lon="2.2483">
        <ele>175</ele>
        <time>2022-02-08T10:26:16Z</time>
      </trkpt>
      <trkpt lat="48.75406" lon="2.24837">
        <ele>175.2</ele>
        <time>2022-02-08T10:26:23Z</time>
      </trkpt>
      <trkpt lat="48.75402" lon="2.24844">
        <ele>175.3</ele>
        <time>2022-02-08T10:26:31Z</time>
      </trkpt>
      <trkpt lat="48.75395" lon="2.2484">
        <ele>175.3</ele>
        <time>2022-02-08T10:26:44Z</time>
      </trkpt>
      <trkpt lat="48.75388" lon="2.24843">
        <ele>175.4</ele>
        <time>2022-02-08T10:26:51Z</time>
      </trkpt>
      <trkpt lat="48.75382" lon="2.24848">
        <ele>175.5</ele>
        <time>2022-02-08T10:27:00Z</time>
      </trkpt>
      <trkpt lat="48.75375" lon="2.24847">
        <ele>175.6</ele>
        <time>2022-02-08T10:28:14Z</time>
      </trkpt>
      <trkpt lat="48.75366" lon="2.2485">
        <ele>175.7</ele>
        <time>2022-02-08T10:29:04Z</time>
      </trkpt>
      <trkpt lat="48.75367" lon="2.2486">
        <ele>175.7</ele>
        <time>2022-02-08T10:29:31Z</time>
      </trkpt>
      <trkpt lat="48.75365" lon="2.24871">
        <ele>175.8</ele>
        <time>2022-02-08T10:29:39Z</time>
      </trkpt>
      <trkpt lat="48.75359" lon="2.24876">
        <ele>175.8</ele>
        <time>2022-02-08T10:29:50Z</time>
      </trkpt>
      <trkpt lat="48.75353" lon="2.24882">
        <ele>175.9</ele>
        <time>2022-02-08T10:29:56Z</time>
      </trkpt>
      <trkpt lat="48.75346" lon="2.24888">
        <ele>175.9</ele>
        <time>2022-02-08T10:30:01Z</time>
      </trkpt>
      <trkpt lat="48.75339" lon="2.24892">
        <ele>176</ele>
        <time>2022-02-08T10:30:05Z</time>
      </trkpt>
      <trkpt lat="48.75332" lon="2.24897">
        <ele>175.9</ele>
        <time>2022-02-08T10:30:34Z</time>
      </trkpt>
      <trkpt lat="48.75325" lon="2.24902">
        <ele>175.7</ele>
        <time>2022-02-08T10:30:40Z</time>
      </trkpt>
      <trkpt lat="48.7532" lon="2.24909">
        <ele>175.4</ele>
        <time>2022-02-08T10:30:46Z</time>
      </trkpt>
      <trkpt lat="48.75313" lon="2.24914">
        <ele>175</ele>
        <time>2022-02-08T10:30:51Z</time>
      </trkpt>
      <trkpt lat="48.75306" lon="2.24922">
        <ele>174.6</ele>
        <time>2022-02-08T10:30:57Z</time>
      </trkpt>
      <trkpt lat="48.75296" lon="2.24928">
        <ele>174</ele>
        <time>2022-02-08T10:31:03Z</time>
      </trkpt>
      <trkpt lat="48.75287" lon="2.24934">
        <ele>173.5</ele>
        <time>2022-02-08T10:31:09Z</time>
      </trkpt>
      <trkpt lat="48.75281" lon="2.24941">
        <ele>173.2</ele>
        <time>2022-02-08T10:31:15Z</time>
      </trkpt>
      <trkpt lat="48.75273" lon="2.24949">
        <ele>172.8</ele>
        <time>2022-02-08T10:31:21Z</time>
      </trkpt>
      <trkpt lat="48.75266" lon="2.24953">
        <ele>172.5</ele>
        <time>2022-02-08T10:31:27Z</time>
      </trkpt>
      <trkpt lat="48.75257" lon="2.2496">
        <ele>172.2</ele>
        <time>2022-02-08T10:31:33Z</time>
      </trkpt>
      <trkpt lat="48.75248" lon="2.24965">
        <ele>171.9</ele>
        <time>2022-02-08T10:31:39Z</time>
      </trkpt>
      <trkpt lat="48.75241" lon="2.24971">
        <ele>171.7</ele>
        <time>2022-02-08T10:31:45Z</time>
      </trkpt>
      <trkpt lat="48.75236" lon="2.2498">
        <ele>171.4</ele>
        <time>2022-02-08T10:31:51Z</time>
      </trkpt>
      <trkpt lat="48.75229" lon="2.2498">
        <ele>171.2</ele>
        <time>2022-02-08T10:31:57Z</time>
      </trkpt>
      <trkpt lat="48.75222" lon="2.24984">
        <ele>170.8</ele>
        <time>2022-02-08T10:32:03Z</time>
      </trkpt>
      <trkpt lat="48.75212" lon="2.24993">
        <ele>170.3</ele>
        <time>2022-02-08T10:32:09Z</time>
      </trkpt>
      <trkpt lat="48.75201" lon="2.25005">
        <ele>169.4</ele>
        <time>2022-02-08T10:32:15Z</time>
      </trkpt>
      <trkpt lat="48.75192" lon="2.25014">
        <ele>168.4</ele>
        <time>2022-02-08T10:32:21Z</time>
      </trkpt>
      <trkpt lat="48.75186" lon="2.25017">
        <ele>167.8</ele>
        <time>2022-02-08T10:32:27Z</time>
      </trkpt>
      <trkpt lat="48.75182" lon="2.25025">
        <ele>167.1</ele>
        <time>2022-02-08T10:32:40Z</time>
      </trkpt>
      <trkpt lat="48.75179" lon="2.25035">
        <ele>166.3</ele>
        <time>2022-02-08T10:32:47Z</time>
      </trkpt>
      <trkpt lat="48.75177" lon="2.25046">
        <ele>165.4</ele>
        <time>2022-02-08T10:32:54Z</time>
      </trkpt>
      <trkpt lat="48.75172" lon="2.25053">
        <ele>164.6</ele>
        <time>2022-02-08T10:33:02Z</time>
      </trkpt>
      <trkpt lat="48.75175" lon="2.25063">
        <ele>164.1</ele>
        <time>2022-02-08T10:33:10Z</time>
      </trkpt>
      <trkpt lat="48.75178" lon="2.25072">
        <ele>163.7</ele>
        <time>2022-02-08T10:33:15Z</time>
      </trkpt>
      <trkpt lat="48.75183" lon="2.25083">
        <ele>163.4</ele>
        <time>2022-02-08T10:33:21Z</time>
      </trkpt>
      <trkpt lat="48.75188" lon="2.25093">
        <ele>162.8</ele>
        <time>2022-02-08T10:33:27Z</time>
      </trkpt>
      <trkpt lat="48.75192" lon="2.25101">
        <ele>162.4</ele>
        <time>2022-02-08T10:33:33Z</time>
      </trkpt>
      <trkpt lat="48.75195" lon="2.25116">
        <ele>161.3</ele>
        <time>2022-02-08T10:33:39Z</time>
      </trkpt>
      <trkpt lat="48.75199" lon="2.25124">
        <ele>160.9</ele>
        <time>2022-02-08T10:33:46Z</time>
      </trkpt>
      <trkpt lat="48.75201" lon="2.25133">
        <ele>160.3</ele>
        <time>2022-02-08T10:33:58Z</time>
      </trkpt>
      <trkpt lat="48.752" lon="2.25143">
        <ele>159.2</ele>
        <time>2022-02-08T10:34:04Z</time>
      </trkpt>
      <trkpt lat="48.75198" lon="2.25153">
        <ele>158.1</ele>
        <time>2022-02-08T10:34:11Z</time>
      </trkpt>
      <trkpt lat="48.75199" lon="2.25163">
        <ele>157.2</ele>
        <time>2022-02-08T10:34:20Z</time>
      </trkpt>
      <trkpt lat="48.75199" lon="2.25174">
        <ele>156.9</ele>
        <time>2022-02-08T10:34:25Z</time>
      </trkpt>
      <trkpt lat="48.752" lon="2.25186">
        <ele>157.1</ele>
        <time>2022-02-08T10:34:31Z</time>
      </trkpt>
      <trkpt lat="48.75198" lon="2.25195">
        <ele>156.9</ele>
        <time>2022-02-08T10:34:35Z</time>
      </trkpt>
      <trkpt lat="48.75192" lon="2.25203">
        <ele>156.1</ele>
        <time>2022-02-08T10:34:41Z</time>
      </trkpt>
      <trkpt lat="48.7519" lon="2.25212">
        <ele>155.9</ele>
        <time>2022-02-08T10:34:48Z</time>
      </trkpt>
      <trkpt lat="48.75194" lon="2.25219">
        <ele>156.5</ele>
        <time>2022-02-08T10:35:05Z</time>
      </trkpt>
      <trkpt lat="48.75192" lon="2.2523">
        <ele>156.2</ele>
        <time>2022-02-08T10:35:12Z</time>
      </trkpt>
      <trkpt lat="48.7519" lon="2.25241">
        <ele>155.9</ele>
        <time>2022-02-08T10:35:16Z</time>
      </trkpt>
      <trkpt lat="48.75186" lon="2.25254">
        <ele>155.4</ele>
        <time>2022-02-08T10:35:21Z</time>
      </trkpt>
      <trkpt lat="48.75182" lon="2.25265">
        <ele>155.3</ele>
        <time>2022-02-08T10:35:27Z</time>
      </trkpt>
      <trkpt lat="48.75174" lon="2.25273">
        <ele>154.3</ele>
        <time>2022-02-08T10:35:33Z</time>
      </trkpt>
      <trkpt lat="48.75168" lon="2.25275">
        <ele>153.4</ele>
        <time>2022-02-08T10:35:39Z</time>
      </trkpt>
      <trkpt lat="48.75162" lon="2.25268">
        <ele>152</ele>
        <time>2022-02-08T10:35:49Z</time>
      </trkpt>
      <trkpt lat="48.75155" lon="2.25272">
        <ele>150.8</ele>
        <time>2022-02-08T10:35:55Z</time>
      </trkpt>
      <trkpt lat="48.75149" lon="2.25279">
        <ele>149.9</ele>
        <time>2022-02-08T10:36:01Z</time>
      </trkpt>
      <trkpt lat="48.75146" lon="2.25288">
        <ele>149.6</ele>
        <time>2022-02-08T10:36:05Z</time>
      </trkpt>
      <trkpt lat="48.75141" lon="2.25296">
        <ele>148.7</ele>
        <time>2022-02-08T10:36:12Z</time>
      </trkpt>
      <trkpt lat="48.75136" lon="2.25303">
        <ele>147.8</ele>
        <time>2022-02-08T10:36:15Z</time>
      </trkpt>
      <trkpt lat="48.75131" lon="2.25309">
        <ele>146.7</ele>
        <time>2022-02-08T10:36:26Z</time>
      </trkpt>
      <trkpt lat="48.75123" lon="2.25313">
        <ele>144.9</ele>
        <time>2022-02-08T10:36:32Z</time>
      </trkpt>
      <trkpt lat="48.75117" lon="2.25318">
        <ele>143.5</ele>
        <time>2022-02-08T10:36:39Z</time>
      </trkpt>
      <trkpt lat="48.75108" lon="2.25328">
        <ele>141.3</ele>
        <time>2022-02-08T10:36:45Z</time>
      </trkpt>
      <trkpt lat="48.75101" lon="2.25335">
        <ele>139.5</ele>
        <time>2022-02-08T10:36:51Z</time>
      </trkpt>
      <trkpt lat="48.75102" lon="2.25345">
        <ele>140</ele>
        <time>2022-02-08T10:36:58Z</time>
      </trkpt>
      <trkpt lat="48.75106" lon="2.25356">
        <ele>141.2</ele>
        <time>2022-02-08T10:37:04Z</time>
      </trkpt>
      <trkpt lat="48.75107" lon="2.25366">
        <ele>141.6</ele>
        <time>2022-02-08T10:37:09Z</time>
      </trkpt>
      <trkpt lat="48.75112" lon="2.25378">
        <ele>142.9</ele>
        <time>2022-02-08T10:37:15Z</time>
      </trkpt>
      <trkpt lat="48.75118" lon="2.25387">
        <ele>144.2</ele>
        <time>2022-02-08T10:37:21Z</time>
      </trkpt>
      <trkpt lat="48.75118" lon="2.25398">
        <ele>144.3</ele>
        <time>2022-02-08T10:37:27Z</time>
      </trkpt>
      <trkpt lat="48.75118" lon="2.25411">
        <ele>144.4</ele>
        <time>2022-02-08T10:37:33Z</time>
      </trkpt>
      <trkpt lat="48.75123" lon="2.25417">
        <ele>145.2</ele>
        <time>2022-02-08T10:37:40Z</time>
      </trkpt>
      <trkpt lat="48.7513" lon="2.25419">
        <ele>146.3</ele>
        <time>2022-02-08T10:37:46Z</time>
      </trkpt>
      <trkpt lat="48.75137" lon="2.25418">
        <ele>147.3</ele>
        <time>2022-02-08T10:37:52Z</time>
      </trkpt>
      <trkpt lat="48.75145" lon="2.25419">
        <ele>148.6</ele>
        <time>2022-02-08T10:37:59Z</time>
      </trkpt>
      <trkpt lat="48.75151" lon="2.25421">
        <ele>149.4</ele>
        <time>2022-02-08T10:38:04Z</time>
      </trkpt>
      <trkpt lat="48.75158" lon="2.2542">
        <ele>150.5</ele>
        <time>2022-02-08T10:38:10Z</time>
      </trkpt>
      <trkpt lat="48.75165" lon="2.25416">
        <ele>151.8</ele>
        <time>2022-02-08T10:38:15Z</time>
      </trkpt>
      <trkpt lat="48.7517" lon="2.2541">
        <ele>152.7</ele>
        <time>2022-02-08T10:38:22Z</time>
      </trkpt>
      <trkpt lat="48.75177" lon="2.25405">
        <ele>153.9</ele>
        <time>2022-02-08T10:38:30Z</time>
      </trkpt>
      <trkpt lat="48.75184" lon="2.25401">
        <ele>154.9</ele>
        <time>2022-02-08T10:38:38Z</time>
      </trkpt>
      <trkpt lat="48.7519" lon="2.25397">
        <ele>155.9</ele>
        <time>2022-02-08T10:38:56Z</time>
      </trkpt>
      <trkpt lat="48.75197" lon="2.25398">
        <ele>156.8</ele>
        <time>2022-02-08T10:39:04Z</time>
      </trkpt>
      <trkpt lat="48.75203" lon="2.25393">
        <ele>157.9</ele>
        <time>2022-02-08T10:39:12Z</time>
      </trkpt>
      <trkpt lat="48.75206" lon="2.25403">
        <ele>157.6</ele>
        <time>2022-02-08T10:39:30Z</time>
      </trkpt>
      <trkpt lat="48.75203" lon="2.25412">
        <ele>156.7</ele>
        <time>2022-02-08T10:39:39Z</time>
      </trkpt>
      <trkpt lat="48.75199" lon="2.25423">
        <ele>155.4</ele>
        <time>2022-02-08T10:39:45Z</time>
      </trkpt>
      <trkpt lat="48.752" lon="2.25434">
        <ele>154.8</ele>
        <time>2022-02-08T10:39:51Z</time>
      </trkpt>
      <trkpt lat="48.75202" lon="2.25444">
        <ele>154.2</ele>
        <time>2022-02-08T10:39:59Z</time>
      </trkpt>
      <trkpt lat="48.75204" lon="2.25454">
        <ele>153.7</ele>
        <time>2022-02-08T10:40:07Z</time>
      </trkpt>
      <trkpt lat="48.75207" lon="2.25464">
        <ele>153.2</ele>
        <time>2022-02-08T10:40:13Z</time>
      </trkpt>
      <trkpt lat="48.75211" lon="2.25473">
        <ele>152.8</ele>
        <time>2022-02-08T10:40:18Z</time>
      </trkpt>
      <trkpt lat="48.75215" lon="2.25483">
        <ele>152.3</ele>
        <time>2022-02-08T10:40:24Z</time>
      </trkpt>
      <trkpt lat="48.75218" lon="2.25492">
        <ele>151.8</ele>
        <time>2022-02-08T10:40:30Z</time>
      </trkpt>
      <trkpt lat="48.75223" lon="2.25499">
        <ele>151.5</ele>
        <time>2022-02-08T10:40:38Z</time>
      </trkpt>
      <trkpt lat="48.75229" lon="2.25504">
        <ele>151.4</ele>
        <time>2022-02-08T10:40:46Z</time>
      </trkpt>
      <trkpt lat="48.75233" lon="2.25513">
        <ele>150.9</ele>
        <time>2022-02-08T10:40:54Z</time>
      </trkpt>
      <trkpt lat="48.75236" lon="2.25524">
        <ele>150.1</ele>
        <time>2022-02-08T10:41:03Z</time>
      </trkpt>
      <trkpt lat="48.75241" lon="2.25537">
        <ele>149.5</ele>
        <time>2022-02-08T10:41:09Z</time>
      </trkpt>
      <trkpt lat="48.75242" lon="2.2555">
        <ele>148.6</ele>
        <time>2022-02-08T10:41:15Z</time>
      </trkpt>
      <trkpt lat="48.75241" lon="2.2556">
        <ele>147.7</ele>
        <time>2022-02-08T10:41:25Z</time>
      </trkpt>
      <trkpt lat="48.75242" lon="2.2557">
        <ele>147</ele>
        <time>2022-02-08T10:41:32Z</time>
      </trkpt>
      <trkpt lat="48.75241" lon="2.25583">
        <ele>145.8</ele>
        <time>2022-02-08T10:41:37Z</time>
      </trkpt>
      <trkpt lat="48.75239" lon="2.25593">
        <ele>145.2</ele>
        <time>2022-02-08T10:41:43Z</time>
      </trkpt>
      <trkpt lat="48.75236" lon="2.25603">
        <ele>144.3</ele>
        <time>2022-02-08T10:41:50Z</time>
      </trkpt>
      <trkpt lat="48.75236" lon="2.25614">
        <ele>143.8</ele>
        <time>2022-02-08T10:41:56Z</time>
      </trkpt>
      <trkpt lat="48.75234" lon="2.25624">
        <ele>143</ele>
        <time>2022-02-08T10:42:00Z</time>
      </trkpt>
      <trkpt lat="48.75232" lon="2.25634">
        <ele>142.1</ele>
        <time>2022-02-08T10:42:04Z</time>
      </trkpt>
      <trkpt lat="48.7523" lon="2.25649">
        <ele>140.9</ele>
        <time>2022-02-08T10:42:09Z</time>
      </trkpt>
      <trkpt lat="48.75229" lon="2.25664">
        <ele>139.9</ele>
        <time>2022-02-08T10:42:15Z</time>
      </trkpt>
      <trkpt lat="48.75226" lon="2.25677">
        <ele>139.3</ele>
        <time>2022-02-08T10:42:21Z</time>
      </trkpt>
      <trkpt lat="48.75226" lon="2.25687">
        <ele>139.5</ele>
        <time>2022-02-08T10:42:27Z</time>
      </trkpt>
      <trkpt lat="48.75226" lon="2.25697">
        <ele>139.8</ele>
        <time>2022-02-08T10:42:33Z</time>
      </trkpt>
      <trkpt lat="48.75224" lon="2.2571">
        <ele>139.7</ele>
        <time>2022-02-08T10:42:41Z</time>
      </trkpt>
      <trkpt lat="48.75223" lon="2.2572">
        <ele>139.7</ele>
        <time>2022-02-08T10:42:46Z</time>
      </trkpt>
      <trkpt lat="48.75222" lon="2.25732">
        <ele>139.8</ele>
        <time>2022-02-08T10:42:51Z</time>
      </trkpt>
      <trkpt lat="48.7522" lon="2.25747">
        <ele>139.6</ele>
        <time>2022-02-08T10:42:57Z</time>
      </trkpt>
      <trkpt lat="48.75219" lon="2.25761">
        <ele>139.3</ele>
        <time>2022-02-08T10:43:03Z</time>
      </trkpt>
      <trkpt lat="48.75217" lon="2.25774">
        <ele>138.6</ele>
        <time>2022-02-08T10:43:09Z</time>
      </trkpt>
      <trkpt lat="48.75215" lon="2.25787">
        <ele>137.9</ele>
        <time>2022-02-08T10:43:15Z</time>
      </trkpt>
      <trkpt lat="48.75211" lon="2.25798">
        <ele>136.9</ele>
        <time>2022-02-08T10:43:21Z</time>
      </trkpt>
      <trkpt lat="48.7521" lon="2.25808">
        <ele>136.5</ele>
        <time>2022-02-08T10:43:37Z</time>
      </trkpt>
      <trkpt lat="48.7521" lon="2.25818">
        <ele>136.5</ele>
        <time>2022-02-08T10:43:48Z</time>
      </trkpt>
      <trkpt lat="48.75211" lon="2.25828">
        <ele>136.6</ele>
        <time>2022-02-08T10:43:57Z</time>
      </trkpt>
      <trkpt lat="48.75214" lon="2.25838">
        <ele>137.2</ele>
        <time>2022-02-08T10:44:06Z</time>
      </trkpt>
      <trkpt lat="48.75218" lon="2.25829">
        <ele>138.1</ele>
        <time>2022-02-08T10:44:14Z</time>
      </trkpt>
      <trkpt lat="48.75221" lon="2.25819">
        <ele>139</ele>
        <time>2022-02-08T10:44:20Z</time>
      </trkpt>
      <trkpt lat="48.75222" lon="2.25808">
        <ele>139.4</ele>
        <time>2022-02-08T10:44:30Z</time>
      </trkpt>
      <trkpt lat="48.75222" lon="2.25798">
        <ele>139.5</ele>
        <time>2022-02-08T10:44:35Z</time>
      </trkpt>
      <trkpt lat="48.75221" lon="2.25786">
        <ele>139.5</ele>
        <time>2022-02-08T10:44:40Z</time>
      </trkpt>
      <trkpt lat="48.75221" lon="2.25775">
        <ele>139.6</ele>
        <time>2022-02-08T10:44:45Z</time>
      </trkpt>
      <trkpt lat="48.75224" lon="2.25763">
        <ele>140.6</ele>
        <time>2022-02-08T10:44:51Z</time>
      </trkpt>
      <trkpt lat="48.75225" lon="2.25753">
        <ele>141</ele>
        <time>2022-02-08T10:44:58Z</time>
      </trkpt>
      <trkpt lat="48.75226" lon="2.25742">
        <ele>141.1</ele>
        <time>2022-02-08T10:45:04Z</time>
      </trkpt>
      <trkpt lat="48.75227" lon="2.2573">
        <ele>141.1</ele>
        <time>2022-02-08T10:45:10Z</time>
      </trkpt>
      <trkpt lat="48.75227" lon="2.25718">
        <ele>140.7</ele>
        <time>2022-02-08T10:45:15Z</time>
      </trkpt>
      <trkpt lat="48.75228" lon="2.25705">
        <ele>140.6</ele>
        <time>2022-02-08T10:45:21Z</time>
      </trkpt>
      <trkpt lat="48.75232" lon="2.25693">
        <ele>141.3</ele>
        <time>2022-02-08T10:45:27Z</time>
      </trkpt>
      <trkpt lat="48.75236" lon="2.25681">
        <ele>141.9</ele>
        <time>2022-02-08T10:45:36Z</time>
      </trkpt>
      <trkpt lat="48.75237" lon="2.25671">
        <ele>141.9</ele>
        <time>2022-02-08T10:45:39Z</time>
      </trkpt>
      <trkpt lat="48.75237" lon="2.2566">
        <ele>142</ele>
        <time>2022-02-08T10:45:45Z</time>
      </trkpt>
      <trkpt lat="48.75236" lon="2.25648">
        <ele>142.3</ele>
        <time>2022-02-08T10:45:51Z</time>
      </trkpt>
      <trkpt lat="48.75242" lon="2.25652">
        <ele>143.5</ele>
        <time>2022-02-08T10:46:09Z</time>
      </trkpt>
      <trkpt lat="48.75247" lon="2.25659">
        <ele>144.5</ele>
        <time>2022-02-08T10:46:26Z</time>
      </trkpt>
      <trkpt lat="48.75249" lon="2.25668">
        <ele>144.8</ele>
        <time>2022-02-08T10:46:33Z</time>
      </trkpt>
      <trkpt lat="48.75251" lon="2.25678">
        <ele>145.6</ele>
        <time>2022-02-08T10:46:39Z</time>
      </trkpt>
      <trkpt lat="48.75257" lon="2.25685">
        <ele>147.3</ele>
        <time>2022-02-08T10:46:48Z</time>
      </trkpt>
      <trkpt lat="48.75263" lon="2.25689">
        <ele>148.8</ele>
        <time>2022-02-08T10:46:52Z</time>
      </trkpt>
      <trkpt lat="48.7527" lon="2.25693">
        <ele>150.6</ele>
        <time>2022-02-08T10:46:57Z</time>
      </trkpt>
      <trkpt lat="48.75276" lon="2.25698">
        <ele>152.1</ele>
        <time>2022-02-08T10:47:04Z</time>
      </trkpt>
      <trkpt lat="48.75281" lon="2.25704">
        <ele>153.5</ele>
        <time>2022-02-08T10:47:09Z</time>
      </trkpt>
      <trkpt lat="48.75285" lon="2.25713">
        <ele>154.6</ele>
        <time>2022-02-08T10:47:15Z</time>
      </trkpt>
      <trkpt lat="48.75288" lon="2.25725">
        <ele>155.6</ele>
        <time>2022-02-08T10:47:21Z</time>
      </trkpt>
      <trkpt lat="48.7529" lon="2.25735">
        <ele>156.3</ele>
        <time>2022-02-08T10:47:27Z</time>
      </trkpt>
      <trkpt lat="48.75283" lon="2.25736">
        <ele>154.8</ele>
        <time>2022-02-08T10:48:12Z</time>
      </trkpt>
      <trkpt lat="48.75276" lon="2.25736">
        <ele>153.2</ele>
        <time>2022-02-08T10:48:17Z</time>
      </trkpt>
      <trkpt lat="48.7527" lon="2.25741">
        <ele>152</ele>
        <time>2022-02-08T10:48:25Z</time>
      </trkpt>
      <trkpt lat="48.75272" lon="2.25753">
        <ele>152.7</ele>
        <time>2022-02-08T10:48:46Z</time>
      </trkpt>
      <trkpt lat="48.75272" lon="2.25763">
        <ele>152.3</ele>
        <time>2022-02-08T10:48:52Z</time>
      </trkpt>
      <trkpt lat="48.75273" lon="2.25773">
        <ele>152.2</ele>
        <time>2022-02-08T10:49:03Z</time>
      </trkpt>
      <trkpt lat="48.75278" lon="2.25781">
        <ele>153.1</ele>
        <time>2022-02-08T10:49:13Z</time>
      </trkpt>
      <trkpt lat="48.7528" lon="2.25792">
        <ele>153.1</ele>
        <time>2022-02-08T10:50:07Z</time>
      </trkpt>
      <trkpt lat="48.75285" lon="2.258">
        <ele>154</ele>
        <time>2022-02-08T10:50:14Z</time>
      </trkpt>
      <trkpt lat="48.75292" lon="2.25802">
        <ele>155.5</ele>
        <time>2022-02-08T10:50:23Z</time>
      </trkpt>
      <trkpt lat="48.75299" lon="2.25797">
        <ele>157.2</ele>
        <time>2022-02-08T10:50:31Z</time>
      </trkpt>
      <trkpt lat="48.75306" lon="2.25798">
        <ele>158.8</ele>
        <time>2022-02-08T10:50:40Z</time>
      </trkpt>
      <trkpt lat="48.75315" lon="2.25799">
        <ele>160.7</ele>
        <time>2022-02-08T10:50:45Z</time>
      </trkpt>
      <trkpt lat="48.75324" lon="2.25805">
        <ele>162.6</ele>
        <time>2022-02-08T10:50:51Z</time>
      </trkpt>
      <trkpt lat="48.7533" lon="2.25811">
        <ele>163.8</ele>
        <time>2022-02-08T10:50:57Z</time>
      </trkpt>
      <trkpt lat="48.75338" lon="2.25816">
        <ele>164.6</ele>
        <time>2022-02-08T10:51:05Z</time>
      </trkpt>
      <trkpt lat="48.75345" lon="2.25818">
        <ele>164.9</ele>
        <time>2022-02-08T10:51:29Z</time>
      </trkpt>
      <trkpt lat="48.7535" lon="2.25825">
        <ele>165</ele>
        <time>2022-02-08T10:51:35Z</time>
      </trkpt>
      <trkpt lat="48.75353" lon="2.25835">
        <ele>164.9</ele>
        <time>2022-02-08T10:51:40Z</time>
      </trkpt>
      <trkpt lat="48.75356" lon="2.25845">
        <ele>164.5</ele>
        <time>2022-02-08T10:51:45Z</time>
      </trkpt>
      <trkpt lat="48.75361" lon="2.25855">
        <ele>164.3</ele>
        <time>2022-02-08T10:51:51Z</time>
      </trkpt>
      <trkpt lat="48.75367" lon="2.25861">
        <ele>164.4</ele>
        <time>2022-02-08T10:51:57Z</time>
      </trkpt>
      <trkpt lat="48.75374" lon="2.25862">
        <ele>164.7</ele>
        <time>2022-02-08T10:52:08Z</time>
      </trkpt>
      <trkpt lat="48.75381" lon="2.25863">
        <ele>165.1</ele>
        <time>2022-02-08T10:52:15Z</time>
      </trkpt>
      <trkpt lat="48.75387" lon="2.25856">
        <ele>165.7</ele>
        <time>2022-02-08T10:52:21Z</time>
      </trkpt>
      <trkpt lat="48.75393" lon="2.25849">
        <ele>166.3</ele>
        <time>2022-02-08T10:52:27Z</time>
      </trkpt>
      <trkpt lat="48.75399" lon="2.25843">
        <ele>166.8</ele>
        <time>2022-02-08T10:52:37Z</time>
      </trkpt>
      <trkpt lat="48.75405" lon="2.25839">
        <ele>167.3</ele>
        <time>2022-02-08T10:52:45Z</time>
      </trkpt>
      <trkpt lat="48.75412" lon="2.25837">
        <ele>167.7</ele>
        <time>2022-02-08T10:52:53Z</time>
      </trkpt>
      <trkpt lat="48.75418" lon="2.25832">
        <ele>168</ele>
        <time>2022-02-08T10:53:00Z</time>
      </trkpt>
      <trkpt lat="48.75424" lon="2.25826">
        <ele>167.9</ele>
        <time>2022-02-08T10:53:11Z</time>
      </trkpt>
      <trkpt lat="48.75429" lon="2.25832">
        <ele>167.9</ele>
        <time>2022-02-08T10:53:23Z</time>
      </trkpt>
      <trkpt lat="48.75433" lon="2.2584">
        <ele>167.7</ele>
        <time>2022-02-08T10:53:28Z</time>
      </trkpt>
      <trkpt lat="48.75434" lon="2.2585">
        <ele>167.4</ele>
        <time>2022-02-08T10:53:36Z</time>
      </trkpt>
      <trkpt lat="48.75429" lon="2.25858">
        <ele>167.3</ele>
        <time>2022-02-08T10:53:46Z</time>
      </trkpt>
      <trkpt lat="48.75423" lon="2.25864">
        <ele>167.2</ele>
        <time>2022-02-08T10:53:51Z</time>
      </trkpt>
      <trkpt lat="48.75417" lon="2.2587">
        <ele>167.1</ele>
        <time>2022-02-08T10:53:57Z</time>
      </trkpt>
      <trkpt lat="48.75409" lon="2.25878">
        <ele>166.4</ele>
        <time>2022-02-08T10:54:03Z</time>
      </trkpt>
      <trkpt lat="48.75402" lon="2.25886">
        <ele>165.7</ele>
        <time>2022-02-08T10:54:09Z</time>
      </trkpt>
      <trkpt lat="48.75395" lon="2.25891">
        <ele>165</ele>
        <time>2022-02-08T10:54:15Z</time>
      </trkpt>
      <trkpt lat="48.7539" lon="2.25896">
        <ele>164.5</ele>
        <time>2022-02-08T10:54:21Z</time>
      </trkpt>
      <trkpt lat="48.75397" lon="2.25897">
        <ele>165</ele>
        <time>2022-02-08T10:54:40Z</time>
      </trkpt>
      <trkpt lat="48.75405" lon="2.25898">
        <ele>165.6</ele>
        <time>2022-02-08T10:55:03Z</time>
      </trkpt>
      <trkpt lat="48.75411" lon="2.25904">
        <ele>165.9</ele>
        <time>2022-02-08T10:55:09Z</time>
      </trkpt>
      <trkpt lat="48.75417" lon="2.25915">
        <ele>166</ele>
        <time>2022-02-08T10:55:15Z</time>
      </trkpt>
      <trkpt lat="48.75422" lon="2.25923">
        <ele>165.6</ele>
        <time>2022-02-08T10:55:21Z</time>
      </trkpt>
      <trkpt lat="48.75426" lon="2.25934">
        <ele>164.8</ele>
        <time>2022-02-08T10:55:27Z</time>
      </trkpt>
      <trkpt lat="48.75431" lon="2.25941">
        <ele>164.4</ele>
        <time>2022-02-08T10:55:33Z</time>
      </trkpt>
      <trkpt lat="48.75434" lon="2.25951">
        <ele>163.8</ele>
        <time>2022-02-08T10:55:39Z</time>
      </trkpt>
      <trkpt lat="48.75434" lon="2.25962">
        <ele>163.1</ele>
        <time>2022-02-08T10:55:46Z</time>
      </trkpt>
      <trkpt lat="48.75435" lon="2.25972">
        <ele>162.5</ele>
        <time>2022-02-08T10:55:53Z</time>
      </trkpt>
      <trkpt lat="48.75433" lon="2.25985">
        <ele>161.6</ele>
        <time>2022-02-08T10:55:58Z</time>
      </trkpt>
      <trkpt lat="48.7543" lon="2.25995">
        <ele>160.8</ele>
        <time>2022-02-08T10:56:03Z</time>
      </trkpt>
      <trkpt lat="48.75424" lon="2.26004">
        <ele>160</ele>
        <time>2022-02-08T10:56:09Z</time>
      </trkpt>
      <trkpt lat="48.75418" lon="2.26015">
        <ele>159</ele>
        <time>2022-02-08T10:56:15Z</time>
      </trkpt>
      <trkpt lat="48.75419" lon="2.26027">
        <ele>158.1</ele>
        <time>2022-02-08T10:56:21Z</time>
      </trkpt>
      <trkpt lat="48.75419" lon="2.26038">
        <ele>157.4</ele>
        <time>2022-02-08T10:56:27Z</time>
      </trkpt>
      <trkpt lat="48.75417" lon="2.26049">
        <ele>156.5</ele>
        <time>2022-02-08T10:56:33Z</time>
      </trkpt>
      <trkpt lat="48.75415" lon="2.2606">
        <ele>155.4</ele>
        <time>2022-02-08T10:56:39Z</time>
      </trkpt>
      <trkpt lat="48.75413" lon="2.2607">
        <ele>154.3</ele>
        <time>2022-02-08T10:56:47Z</time>
      </trkpt>
      <trkpt lat="48.75409" lon="2.26079">
        <ele>153</ele>
        <time>2022-02-08T10:56:51Z</time>
      </trkpt>
      <trkpt lat="48.75406" lon="2.26088">
        <ele>151.5</ele>
        <time>2022-02-08T10:56:58Z</time>
      </trkpt>
      <trkpt lat="48.75404" lon="2.26098">
        <ele>149.8</ele>
        <time>2022-02-08T10:57:13Z</time>
      </trkpt>
      <trkpt lat="48.75407" lon="2.26108">
        <ele>149.1</ele>
        <time>2022-02-08T10:57:20Z</time>
      </trkpt>
      <trkpt lat="48.75408" lon="2.2612">
        <ele>147.7</ele>
        <time>2022-02-08T10:57:28Z</time>
      </trkpt>
      <trkpt lat="48.75408" lon="2.2613">
        <ele>146.4</ele>
        <time>2022-02-08T10:57:37Z</time>
      </trkpt>
      <trkpt lat="48.75409" lon="2.2614">
        <ele>145.3</ele>
        <time>2022-02-08T10:57:46Z</time>
      </trkpt>
      <trkpt lat="48.75412" lon="2.2615">
        <ele>144.4</ele>
        <time>2022-02-08T10:58:02Z</time>
      </trkpt>
      <trkpt lat="48.75415" lon="2.2616">
        <ele>143.6</ele>
        <time>2022-02-08T10:58:08Z</time>
      </trkpt>
      <trkpt lat="48.75419" lon="2.2617">
        <ele>142.7</ele>
        <time>2022-02-08T10:58:14Z</time>
      </trkpt>
      <trkpt lat="48.75422" lon="2.26179">
        <ele>141.6</ele>
        <time>2022-02-08T10:58:20Z</time>
      </trkpt>
      <trkpt lat="48.75429" lon="2.26185">
        <ele>141.1</ele>
        <time>2022-02-08T10:58:27Z</time>
      </trkpt>
      <trkpt lat="48.75434" lon="2.26192">
        <ele>140.5</ele>
        <time>2022-02-08T10:58:33Z</time>
      </trkpt>
      <trkpt lat="48.75439" lon="2.26201">
        <ele>139.5</ele>
        <time>2022-02-08T10:58:39Z</time>
      </trkpt>
      <trkpt lat="48.75441" lon="2.2621">
        <ele>138.4</ele>
        <time>2022-02-08T10:58:46Z</time>
      </trkpt>
      <trkpt lat="48.75447" lon="2.26217">
        <ele>137.8</ele>
        <time>2022-02-08T10:58:51Z</time>
      </trkpt>
      <trkpt lat="48.75455" lon="2.26227">
        <ele>136.9</ele>
        <time>2022-02-08T10:58:57Z</time>
      </trkpt>
      <trkpt lat="48.75458" lon="2.26237">
        <ele>135.8</ele>
        <time>2022-02-08T10:59:03Z</time>
      </trkpt>
      <trkpt lat="48.7546" lon="2.26248">
        <ele>134.4</ele>
        <time>2022-02-08T10:59:15Z</time>
      </trkpt>
      <trkpt lat="48.75465" lon="2.26255">
        <ele>133.5</ele>
        <time>2022-02-08T10:59:22Z</time>
      </trkpt>
      <trkpt lat="48.75471" lon="2.26261">
        <ele>132.7</ele>
        <time>2022-02-08T10:59:27Z</time>
      </trkpt>
      <trkpt lat="48.75477" lon="2.26271">
        <ele>131.1</ele>
        <time>2022-02-08T10:59:33Z</time>
      </trkpt>
      <trkpt lat="48.75485" lon="2.26274">
        <ele>131</ele>
        <time>2022-02-08T10:59:39Z</time>
      </trkpt>
      <trkpt lat="48.75491" lon="2.26279">
        <ele>130.4</ele>
        <time>2022-02-08T10:59:45Z</time>
      </trkpt>
      <trkpt lat="48.75498" lon="2.26284">
        <ele>129.9</ele>
        <time>2022-02-08T10:59:51Z</time>
      </trkpt>
      <trkpt lat="48.75504" lon="2.26286">
        <ele>129.6</ele>
        <time>2022-02-08T10:59:57Z</time>
      </trkpt>
      <trkpt lat="48.75511" lon="2.26287">
        <ele>129.3</ele>
        <time>2022-02-08T11:00:10Z</time>
      </trkpt>
      <trkpt lat="48.75516" lon="2.26294">
        <ele>127.8</ele>
        <time>2022-02-08T11:00:16Z</time>
      </trkpt>
      <trkpt lat="48.75521" lon="2.26302">
        <ele>126.2</ele>
        <time>2022-02-08T11:00:21Z</time>
      </trkpt>
      <trkpt lat="48.75527" lon="2.26305">
        <ele>125.6</ele>
        <time>2022-02-08T11:00:28Z</time>
      </trkpt>
      <trkpt lat="48.75534" lon="2.26311">
        <ele>124.3</ele>
        <time>2022-02-08T11:00:34Z</time>
      </trkpt>
      <trkpt lat="48.75537" lon="2.26319">
        <ele>122.8</ele>
        <time>2022-02-08T11:00:39Z</time>
      </trkpt>
      <trkpt lat="48.75544" lon="2.26325">
        <ele>121.6</ele>
        <time>2022-02-08T11:00:45Z</time>
      </trkpt>
      <trkpt lat="48.75548" lon="2.26335">
        <ele>119.8</ele>
        <time>2022-02-08T11:00:51Z</time>
      </trkpt>
      <trkpt lat="48.75549" lon="2.26346">
        <ele>118.7</ele>
        <time>2022-02-08T11:00:59Z</time>
      </trkpt>
      <trkpt lat="48.75553" lon="2.26354">
        <ele>118</ele>
        <time>2022-02-08T11:01:09Z</time>
      </trkpt>
      <trkpt lat="48.75559" lon="2.26355">
        <ele>118</ele>
        <time>2022-02-08T11:01:19Z</time>
      </trkpt>
      <trkpt lat="48.75565" lon="2.26351">
        <ele>118.4</ele>
        <time>2022-02-08T11:01:24Z</time>
      </trkpt>
      <trkpt lat="48.75572" lon="2.26345">
        <ele>119</ele>
        <time>2022-02-08T11:01:34Z</time>
      </trkpt>
      <trkpt lat="48.75577" lon="2.26336">
        <ele>119.8</ele>
        <time>2022-02-08T11:01:39Z</time>
      </trkpt>
      <trkpt lat="48.7558" lon="2.26326">
        <ele>121.3</ele>
        <time>2022-02-08T11:01:45Z</time>
      </trkpt>
      <trkpt lat="48.75586" lon="2.26331">
        <ele>120.5</ele>
        <time>2022-02-08T11:01:56Z</time>
      </trkpt>
      <trkpt lat="48.75592" lon="2.26334">
        <ele>120.4</ele>
        <time>2022-02-08T11:02:04Z</time>
      </trkpt>
      <trkpt lat="48.756" lon="2.26333">
        <ele>120.8</ele>
        <time>2022-02-08T11:02:59Z</time>
      </trkpt>
      <trkpt lat="48.75606" lon="2.26339">
        <ele>120.7</ele>
        <time>2022-02-08T11:03:09Z</time>
      </trkpt>
      <trkpt lat="48.75607" lon="2.26352">
        <ele>119.8</ele>
        <time>2022-02-08T11:03:15Z</time>
      </trkpt>
      <trkpt lat="48.75607" lon="2.26363">
        <ele>119</ele>
        <time>2022-02-08T11:03:21Z</time>
      </trkpt>
      <trkpt lat="48.75614" lon="2.26368">
        <ele>119.2</ele>
        <time>2022-02-08T11:03:27Z</time>
      </trkpt>
      <trkpt lat="48.75619" lon="2.26375">
        <ele>119.1</ele>
        <time>2022-02-08T11:03:33Z</time>
      </trkpt>
      <trkpt lat="48.75624" lon="2.26383">
        <ele>118.9</ele>
        <time>2022-02-08T11:03:43Z</time>
      </trkpt>
      <trkpt lat="48.7563" lon="2.26388">
        <ele>119.1</ele>
        <time>2022-02-08T11:03:51Z</time>
      </trkpt>
      <trkpt lat="48.75637" lon="2.26394">
        <ele>119.4</ele>
        <time>2022-02-08T11:03:57Z</time>
      </trkpt>
      <trkpt lat="48.75645" lon="2.26397">
        <ele>119.9</ele>
        <time>2022-02-08T11:04:03Z</time>
      </trkpt>
      <trkpt lat="48.75652" lon="2.26401">
        <ele>120.3</ele>
        <time>2022-02-08T11:04:09Z</time>
      </trkpt>
      <trkpt lat="48.75658" lon="2.26403">
        <ele>120.7</ele>
        <time>2022-02-08T11:04:15Z</time>
      </trkpt>
      <trkpt lat="48.75666" lon="2.26408">
        <ele>121.3</ele>
        <time>2022-02-08T11:04:21Z</time>
      </trkpt>
      <trkpt lat="48.75671" lon="2.26413">
        <ele>121.7</ele>
        <time>2022-02-08T11:04:28Z</time>
      </trkpt>
      <trkpt lat="48.75678" lon="2.26415">
        <ele>122.7</ele>
        <time>2022-02-08T11:04:35Z</time>
      </trkpt>
      <trkpt lat="48.75686" lon="2.26417">
        <ele>123.8</ele>
        <time>2022-02-08T11:04:42Z</time>
      </trkpt>
      <trkpt lat="48.75692" lon="2.26421">
        <ele>124.4</ele>
        <time>2022-02-08T11:04:50Z</time>
      </trkpt>
      <trkpt lat="48.75699" lon="2.26425">
        <ele>125.3</ele>
        <time>2022-02-08T11:04:55Z</time>
      </trkpt>
      <trkpt lat="48.75706" lon="2.26428">
        <ele>126.1</ele>
        <time>2022-02-08T11:04:59Z</time>
      </trkpt>
      <trkpt lat="48.75712" lon="2.26433">
        <ele>126.7</ele>
        <time>2022-02-08T11:05:07Z</time>
      </trkpt>
      <trkpt lat="48.7572" lon="2.26433">
        <ele>127.9</ele>
        <time>2022-02-08T11:05:13Z</time>
      </trkpt>
      <trkpt lat="48.75726" lon="2.26436">
        <ele>128.6</ele>
        <time>2022-02-08T11:05:20Z</time>
      </trkpt>
      <trkpt lat="48.75734" lon="2.26437">
        <ele>129.7</ele>
        <time>2022-02-08T11:05:25Z</time>
      </trkpt>
      <trkpt lat="48.75741" lon="2.2644">
        <ele>130.6</ele>
        <time>2022-02-08T11:05:29Z</time>
      </trkpt>
      <trkpt lat="48.75748" lon="2.26442">
        <ele>131.5</ele>
        <time>2022-02-08T11:05:34Z</time>
      </trkpt>
      <trkpt lat="48.75755" lon="2.26441">
        <ele>132</ele>
        <time>2022-02-08T11:05:39Z</time>
      </trkpt>
      <trkpt lat="48.75761" lon="2.2644">
        <ele>132.2</ele>
        <time>2022-02-08T11:05:45Z</time>
      </trkpt>
      <trkpt lat="48.7577" lon="2.26437">
        <ele>132.6</ele>
        <time>2022-02-08T11:05:51Z</time>
      </trkpt>
      <trkpt lat="48.75776" lon="2.26431">
        <ele>133</ele>
        <time>2022-02-08T11:06:07Z</time>
      </trkpt>
      <trkpt lat="48.75778" lon="2.26442">
        <ele>132.7</ele>
        <time>2022-02-08T11:06:28Z</time>
      </trkpt>
      <trkpt lat="48.75783" lon="2.26454">
        <ele>132.4</ele>
        <time>2022-02-08T11:06:33Z</time>
      </trkpt>
      <trkpt lat="48.75789" lon="2.26466">
        <ele>132.1</ele>
        <time>2022-02-08T11:06:39Z</time>
      </trkpt>
      <trkpt lat="48.75795" lon="2.26468">
        <ele>132.3</ele>
        <time>2022-02-08T11:06:45Z</time>
      </trkpt>
      <trkpt lat="48.75803" lon="2.26468">
        <ele>132.6</ele>
        <time>2022-02-08T11:06:51Z</time>
      </trkpt>
      <trkpt lat="48.75809" lon="2.26467">
        <ele>132.9</ele>
        <time>2022-02-08T11:06:57Z</time>
      </trkpt>
      <trkpt lat="48.75815" lon="2.26461">
        <ele>133.3</ele>
        <time>2022-02-08T11:07:05Z</time>
      </trkpt>
      <trkpt lat="48.75821" lon="2.26457">
        <ele>133.6</ele>
        <time>2022-02-08T11:07:13Z</time>
      </trkpt>
      <trkpt lat="48.75824" lon="2.26447">
        <ele>134</ele>
        <time>2022-02-08T11:07:28Z</time>
      </trkpt>
      <trkpt lat="48.75825" lon="2.26437">
        <ele>134.3</ele>
        <time>2022-02-08T11:07:34Z</time>
      </trkpt>
      <trkpt lat="48.75827" lon="2.26427">
        <ele>134.6</ele>
        <time>2022-02-08T11:07:43Z</time>
      </trkpt>
      <trkpt lat="48.75829" lon="2.26417">
        <ele>134.9</ele>
        <time>2022-02-08T11:07:53Z</time>
      </trkpt>
      <trkpt lat="48.75833" lon="2.26404">
        <ele>135.6</ele>
        <time>2022-02-08T11:08:17Z</time>
      </trkpt>
      <trkpt lat="48.75835" lon="2.26394">
        <ele>136.2</ele>
        <time>2022-02-08T11:08:26Z</time>
      </trkpt>
      <trkpt lat="48.75834" lon="2.26384">
        <ele>136.6</ele>
        <time>2022-02-08T11:08:40Z</time>
      </trkpt>
      <trkpt lat="48.75836" lon="2.26374">
        <ele>137.3</ele>
        <time>2022-02-08T11:08:51Z</time>
      </trkpt>
      <trkpt lat="48.75839" lon="2.26365">
        <ele>138</ele>
        <time>2022-02-08T11:09:00Z</time>
      </trkpt>
      <trkpt lat="48.75841" lon="2.26355">
        <ele>138.7</ele>
        <time>2022-02-08T11:09:09Z</time>
      </trkpt>
      <trkpt lat="48.75843" lon="2.26346">
        <ele>139.3</ele>
        <time>2022-02-08T11:09:18Z</time>
      </trkpt>
      <trkpt lat="48.75843" lon="2.26335">
        <ele>140</ele>
        <time>2022-02-08T11:09:27Z</time>
      </trkpt>
      <trkpt lat="48.75847" lon="2.26326">
        <ele>140.7</ele>
        <time>2022-02-08T11:09:35Z</time>
      </trkpt>
      <trkpt lat="48.7585" lon="2.26315">
        <ele>141.4</ele>
        <time>2022-02-08T11:09:44Z</time>
      </trkpt>
      <trkpt lat="48.75856" lon="2.26311">
        <ele>142.2</ele>
        <time>2022-02-08T11:09:57Z</time>
      </trkpt>
      <trkpt lat="48.75858" lon="2.26301">
        <ele>142.7</ele>
        <time>2022-02-08T11:10:03Z</time>
      </trkpt>
      <trkpt lat="48.75855" lon="2.26293">
        <ele>142.7</ele>
        <time>2022-02-08T11:10:11Z</time>
      </trkpt>
      <trkpt lat="48.75852" lon="2.26283">
        <ele>142.7</ele>
        <time>2022-02-08T11:10:18Z</time>
      </trkpt>
      <trkpt lat="48.75852" lon="2.26273">
        <ele>143</ele>
        <time>2022-02-08T11:10:24Z</time>
      </trkpt>
      <trkpt lat="48.75851" lon="2.26263">
        <ele>143.3</ele>
        <time>2022-02-08T11:10:34Z</time>
      </trkpt>
      <trkpt lat="48.75852" lon="2.26253">
        <ele>143.7</ele>
        <time>2022-02-08T11:10:42Z</time>
      </trkpt>
      <trkpt lat="48.75853" lon="2.26242">
        <ele>144.3</ele>
        <time>2022-02-08T11:10:48Z</time>
      </trkpt>
      <trkpt lat="48.75856" lon="2.26233">
        <ele>145.2</ele>
        <time>2022-02-08T11:10:59Z</time>
      </trkpt>
      <trkpt lat="48.75857" lon="2.26221">
        <ele>146</ele>
        <time>2022-02-08T11:11:06Z</time>
      </trkpt>
      <trkpt lat="48.75857" lon="2.2621">
        <ele>146.6</ele>
        <time>2022-02-08T11:11:12Z</time>
      </trkpt>
      <trkpt lat="48.75856" lon="2.262">
        <ele>147.1</ele>
        <time>2022-02-08T11:11:17Z</time>
      </trkpt>
      <trkpt lat="48.75858" lon="2.26189">
        <ele>147.9</ele>
        <time>2022-02-08T11:11:23Z</time>
      </trkpt>
      <trkpt lat="48.75858" lon="2.26177">
        <ele>148.6</ele>
        <time>2022-02-08T11:11:29Z</time>
      </trkpt>
      <trkpt lat="48.75861" lon="2.26168">
        <ele>149.6</ele>
        <time>2022-02-08T11:11:34Z</time>
      </trkpt>
      <trkpt lat="48.75862" lon="2.26158">
        <ele>150.8</ele>
        <time>2022-02-08T11:11:40Z</time>
      </trkpt>
      <trkpt lat="48.75864" lon="2.26147">
        <ele>152.3</ele>
        <time>2022-02-08T11:11:47Z</time>
      </trkpt>
      <trkpt lat="48.75868" lon="2.26139">
        <ele>153.7</ele>
        <time>2022-02-08T11:11:58Z</time>
      </trkpt>
      <trkpt lat="48.75871" lon="2.26129">
        <ele>155.1</ele>
        <time>2022-02-08T11:12:14Z</time>
      </trkpt>
      <trkpt lat="48.75872" lon="2.26119">
        <ele>156.3</ele>
        <time>2022-02-08T11:13:59Z</time>
      </trkpt>
      <trkpt lat="48.75865" lon="2.26113">
        <ele>156.3</ele>
        <time>2022-02-08T11:14:05Z</time>
      </trkpt>
      <trkpt lat="48.75857" lon="2.2611">
        <ele>155.8</ele>
        <time>2022-02-08T11:14:12Z</time>
      </trkpt>
      <trkpt lat="48.75864" lon="2.26108">
        <ele>156.8</ele>
        <time>2022-02-08T11:14:37Z</time>
      </trkpt>
      <trkpt lat="48.75871" lon="2.26105">
        <ele>157.8</ele>
        <time>2022-02-08T11:14:44Z</time>
      </trkpt>
      <trkpt lat="48.75875" lon="2.26096">
        <ele>159.1</ele>
        <time>2022-02-08T11:14:56Z</time>
      </trkpt>
      <trkpt lat="48.75879" lon="2.26088">
        <ele>160.3</ele>
        <time>2022-02-08T11:15:05Z</time>
      </trkpt>
      <trkpt lat="48.75883" lon="2.26078">
        <ele>161.8</ele>
        <time>2022-02-08T11:15:13Z</time>
      </trkpt>
      <trkpt lat="48.75885" lon="2.26068">
        <ele>163</ele>
        <time>2022-02-08T11:15:18Z</time>
      </trkpt>
      <trkpt lat="48.75887" lon="2.26056">
        <ele>164.5</ele>
        <time>2022-02-08T11:15:22Z</time>
      </trkpt>
      <trkpt lat="48.75885" lon="2.26045">
        <ele>165.5</ele>
        <time>2022-02-08T11:15:28Z</time>
      </trkpt>
      <trkpt lat="48.7588" lon="2.26037">
        <ele>166.1</ele>
        <time>2022-02-08T11:15:33Z</time>
      </trkpt>
      <trkpt lat="48.75871" lon="2.26027">
        <ele>166.7</ele>
        <time>2022-02-08T11:15:39Z</time>
      </trkpt>
      <trkpt lat="48.75864" lon="2.26018">
        <ele>167.3</ele>
        <time>2022-02-08T11:15:45Z</time>
      </trkpt>
      <trkpt lat="48.75859" lon="2.2601">
        <ele>168</ele>
        <time>2022-02-08T11:15:51Z</time>
      </trkpt>
      <trkpt lat="48.75852" lon="2.26007">
        <ele>168</ele>
        <time>2022-02-08T11:15:59Z</time>
      </trkpt>
      <trkpt lat="48.75847" lon="2.26">
        <ele>168.7</ele>
        <time>2022-02-08T11:16:04Z</time>
      </trkpt>
      <trkpt lat="48.7584" lon="2.25994">
        <ele>168.5</ele>
        <time>2022-02-08T11:16:09Z</time>
      </trkpt>
      <trkpt lat="48.75835" lon="2.25987">
        <ele>168.4</ele>
        <time>2022-02-08T11:16:15Z</time>
      </trkpt>
      <trkpt lat="48.75832" lon="2.25976">
        <ele>168.4</ele>
        <time>2022-02-08T11:16:21Z</time>
      </trkpt>
      <trkpt lat="48.75829" lon="2.25967">
        <ele>168.4</ele>
        <time>2022-02-08T11:16:27Z</time>
      </trkpt>
      <trkpt lat="48.75827" lon="2.25956">
        <ele>168.5</ele>
        <time>2022-02-08T11:16:33Z</time>
      </trkpt>
      <trkpt lat="48.75823" lon="2.25947">
        <ele>168.5</ele>
        <time>2022-02-08T11:16:39Z</time>
      </trkpt>
      <trkpt lat="48.75817" lon="2.25942">
        <ele>168.3</ele>
        <time>2022-02-08T11:16:48Z</time>
      </trkpt>
      <trkpt lat="48.75815" lon="2.25932">
        <ele>168.6</ele>
        <time>2022-02-08T11:16:59Z</time>
      </trkpt>
      <trkpt lat="48.75816" lon="2.25922">
        <ele>169.1</ele>
        <time>2022-02-08T11:17:10Z</time>
      </trkpt>
      <trkpt lat="48.75813" lon="2.25911">
        <ele>169.5</ele>
        <time>2022-02-08T11:17:15Z</time>
      </trkpt>
      <trkpt lat="48.75808" lon="2.25894">
        <ele>169.9</ele>
        <time>2022-02-08T11:17:21Z</time>
      </trkpt>
      <trkpt lat="48.75804" lon="2.25881">
        <ele>170.3</ele>
        <time>2022-02-08T11:17:27Z</time>
      </trkpt>
      <trkpt lat="48.75801" lon="2.25868">
        <ele>170.7</ele>
        <time>2022-02-08T11:17:33Z</time>
      </trkpt>
      <trkpt lat="48.75798" lon="2.25856">
        <ele>171.1</ele>
        <time>2022-02-08T11:17:39Z</time>
      </trkpt>
      <trkpt lat="48.75793" lon="2.25847">
        <ele>171.4</ele>
        <time>2022-02-08T11:17:45Z</time>
      </trkpt>
      <trkpt lat="48.7579" lon="2.25837">
        <ele>171.8</ele>
        <time>2022-02-08T11:17:51Z</time>
      </trkpt>
      <trkpt lat="48.75787" lon="2.25827">
        <ele>172</ele>
        <time>2022-02-08T11:17:57Z</time>
      </trkpt>
      <trkpt lat="48.75784" lon="2.25816">
        <ele>172</ele>
        <time>2022-02-08T11:18:03Z</time>
      </trkpt>
      <trkpt lat="48.75782" lon="2.25805">
        <ele>172</ele>
        <time>2022-02-08T11:18:09Z</time>
      </trkpt>
      <trkpt lat="48.75778" lon="2.25794">
        <ele>172</ele>
        <time>2022-02-08T11:18:15Z</time>
      </trkpt>
      <trkpt lat="48.75773" lon="2.25784">
        <ele>172</ele>
        <time>2022-02-08T11:18:21Z</time>
      </trkpt>
      <trkpt lat="48.75772" lon="2.25774">
        <ele>172</ele>
        <time>2022-02-08T11:18:29Z</time>
      </trkpt>
      <trkpt lat="48.75768" lon="2.25766">
        <ele>172</ele>
        <time>2022-02-08T11:18:34Z</time>
      </trkpt>
      <trkpt lat="48.75764" lon="2.25757">
        <ele>172</ele>
        <time>2022-02-08T11:18:56Z</time>
      </trkpt>
      <trkpt lat="48.75761" lon="2.25748">
        <ele>172</ele>
        <time>2022-02-08T11:19:12Z</time>
      </trkpt>
      <trkpt lat="48.75759" lon="2.25736">
        <ele>172.3</ele>
        <time>2022-02-08T11:19:17Z</time>
      </trkpt>
      <trkpt lat="48.75758" lon="2.25726">
        <ele>172.5</ele>
        <time>2022-02-08T11:19:21Z</time>
      </trkpt>
      <trkpt lat="48.75755" lon="2.25716">
        <ele>172.8</ele>
        <time>2022-02-08T11:19:27Z</time>
      </trkpt>
      <trkpt lat="48.7575" lon="2.25706">
        <ele>173.1</ele>
        <time>2022-02-08T11:19:33Z</time>
      </trkpt>
      <trkpt lat="48.75747" lon="2.25694">
        <ele>173.3</ele>
        <time>2022-02-08T11:19:39Z</time>
      </trkpt>
      <trkpt lat="48.75743" lon="2.25681">
        <ele>173.6</ele>
        <time>2022-02-08T11:19:45Z</time>
      </trkpt>
      <trkpt lat="48.75739" lon="2.2567">
        <ele>173.9</ele>
        <time>2022-02-08T11:19:51Z</time>
      </trkpt>
      <trkpt lat="48.75741" lon="2.25661">
        <ele>174.1</ele>
        <time>2022-02-08T11:20:00Z</time>
      </trkpt>
      <trkpt lat="48.75744" lon="2.25652">
        <ele>174.2</ele>
        <time>2022-02-08T11:20:08Z</time>
      </trkpt>
      <trkpt lat="48.7575" lon="2.25646">
        <ele>174.2</ele>
        <time>2022-02-08T11:20:13Z</time>
      </trkpt>
      <trkpt lat="48.75753" lon="2.25634">
        <ele>174.3</ele>
        <time>2022-02-08T11:20:18Z</time>
      </trkpt>
      <trkpt lat="48.75755" lon="2.25624">
        <ele>174.3</ele>
        <time>2022-02-08T11:20:24Z</time>
      </trkpt>
      <trkpt lat="48.75757" lon="2.25613">
        <ele>174.4</ele>
        <time>2022-02-08T11:20:28Z</time>
      </trkpt>
      <trkpt lat="48.75757" lon="2.25601">
        <ele>174.5</ele>
        <time>2022-02-08T11:20:35Z</time>
      </trkpt>
      <trkpt lat="48.7576" lon="2.25591">
        <ele>174.5</ele>
        <time>2022-02-08T11:20:42Z</time>
      </trkpt>
      <trkpt lat="48.75762" lon="2.25581">
        <ele>174.5</ele>
        <time>2022-02-08T11:20:47Z</time>
      </trkpt>
      <trkpt lat="48.75764" lon="2.2557">
        <ele>174.5</ele>
        <time>2022-02-08T11:20:52Z</time>
      </trkpt>
      <trkpt lat="48.75765" lon="2.25559">
        <ele>174.6</ele>
        <time>2022-02-08T11:20:57Z</time>
      </trkpt>
      <trkpt lat="48.75766" lon="2.25548">
        <ele>174.7</ele>
        <time>2022-02-08T11:21:04Z</time>
      </trkpt>
      <trkpt lat="48.75769" lon="2.25539">
        <ele>174.6</ele>
        <time>2022-02-08T11:21:10Z</time>
      </trkpt>
      <trkpt lat="48.75772" lon="2.25529">
        <ele>174.6</ele>
        <time>2022-02-08T11:21:15Z</time>
      </trkpt>
      <trkpt lat="48.75777" lon="2.25522">
        <ele>174.4</ele>
        <time>2022-02-08T11:21:22Z</time>
      </trkpt>
      <trkpt lat="48.75779" lon="2.25509">
        <ele>174.5</ele>
        <time>2022-02-08T11:21:27Z</time>
      </trkpt>
      <trkpt lat="48.75781" lon="2.25497">
        <ele>174.5</ele>
        <time>2022-02-08T11:21:33Z</time>
      </trkpt>
      <trkpt lat="48.75781" lon="2.25485">
        <ele>174.7</ele>
        <time>2022-02-08T11:21:39Z</time>
      </trkpt>
      <trkpt lat="48.75788" lon="2.25483">
        <ele>174.4</ele>
        <time>2022-02-08T11:21:56Z</time>
      </trkpt>
      <trkpt lat="48.75796" lon="2.25482">
        <ele>174</ele>
        <time>2022-02-08T11:23:00Z</time>
      </trkpt>
      <trkpt lat="48.75802" lon="2.25493">
        <ele>173.6</ele>
        <time>2022-02-08T11:23:32Z</time>
      </trkpt>
      <trkpt lat="48.7581" lon="2.25501">
        <ele>173.1</ele>
        <time>2022-02-08T11:24:14Z</time>
      </trkpt>
      <trkpt lat="48.75809" lon="2.25512">
        <ele>173</ele>
        <time>2022-02-08T11:24:24Z</time>
      </trkpt>
      <trkpt lat="48.75813" lon="2.25521">
        <ele>172.7</ele>
        <time>2022-02-08T11:24:30Z</time>
      </trkpt>
      <trkpt lat="48.7582" lon="2.25523">
        <ele>172.4</ele>
        <time>2022-02-08T11:25:20Z</time>
      </trkpt>
      <trkpt lat="48.75826" lon="2.2552">
        <ele>172.1</ele>
        <time>2022-02-08T11:25:28Z</time>
      </trkpt>
      <trkpt lat="48.75827" lon="2.25509">
        <ele>172.2</ele>
        <time>2022-02-08T11:25:39Z</time>
      </trkpt>
      <trkpt lat="48.75828" lon="2.25499">
        <ele>172.3</ele>
        <time>2022-02-08T11:25:54Z</time>
      </trkpt>
      <trkpt lat="48.75826" lon="2.25489">
        <ele>172.5</ele>
        <time>2022-02-08T11:26:11Z</time>
      </trkpt>
      <trkpt lat="48.75829" lon="2.2548">
        <ele>172.4</ele>
        <time>2022-02-08T11:26:20Z</time>
      </trkpt>
      <trkpt lat="48.75833" lon="2.25471">
        <ele>172.4</ele>
        <time>2022-02-08T11:26:28Z</time>
      </trkpt>
      <trkpt lat="48.75828" lon="2.25462">
        <ele>172.7</ele>
        <time>2022-02-08T11:26:35Z</time>
      </trkpt>
      <trkpt lat="48.75822" lon="2.25461">
        <ele>173</ele>
        <time>2022-02-08T11:26:43Z</time>
      </trkpt>
      <trkpt lat="48.75815" lon="2.25464">
        <ele>173.3</ele>
        <time>2022-02-08T11:26:50Z</time>
      </trkpt>
      <trkpt lat="48.75807" lon="2.25469">
        <ele>173.6</ele>
        <time>2022-02-08T11:28:11Z</time>
      </trkpt>
      <trkpt lat="48.75801" lon="2.25463">
        <ele>174</ele>
        <time>2022-02-08T11:28:23Z</time>
      </trkpt>
      <trkpt lat="48.7579" lon="2.25457">
        <ele>174.6</ele>
        <time>2022-02-08T11:28:49Z</time>
      </trkpt>
      <trkpt lat="48.75784" lon="2.25455">
        <ele>174.9</ele>
        <time>2022-02-08T11:28:55Z</time>
      </trkpt>
      <trkpt lat="48.75781" lon="2.25446">
        <ele>175.2</ele>
        <time>2022-02-08T11:29:07Z</time>
      </trkpt>
      <trkpt lat="48.75785" lon="2.25438">
        <ele>175.1</ele>
        <time>2022-02-08T11:29:19Z</time>
      </trkpt>
      <trkpt lat="48.75788" lon="2.25428">
        <ele>175</ele>
        <time>2022-02-08T11:29:24Z</time>
      </trkpt>
      <trkpt lat="48.75789" lon="2.25418">
        <ele>175.1</ele>
        <time>2022-02-08T11:29:30Z</time>
      </trkpt>
      <trkpt lat="48.75791" lon="2.25407">
        <ele>175.1</ele>
        <time>2022-02-08T11:29:35Z</time>
      </trkpt>
      <trkpt lat="48.75793" lon="2.25395">
        <ele>175.1</ele>
        <time>2022-02-08T11:29:41Z</time>
      </trkpt>
      <trkpt lat="48.75794" lon="2.25385">
        <ele>175.1</ele>
        <time>2022-02-08T11:29:45Z</time>
      </trkpt>
      <trkpt lat="48.75794" lon="2.25375">
        <ele>175.1</ele>
        <time>2022-02-08T11:29:51Z</time>
      </trkpt>
      <trkpt lat="48.75794" lon="2.25365">
        <ele>175.2</ele>
        <time>2022-02-08T11:29:57Z</time>
      </trkpt>
      <trkpt lat="48.75799" lon="2.25352">
        <ele>175</ele>
        <time>2022-02-08T11:30:03Z</time>
      </trkpt>
      <trkpt lat="48.75799" lon="2.25341">
        <ele>175</ele>
        <time>2022-02-08T11:30:09Z</time>
      </trkpt>
      <trkpt lat="48.75802" lon="2.2533">
        <ele>174.9</ele>
        <time>2022-02-08T11:30:16Z</time>
      </trkpt>
      <trkpt lat="48.75804" lon="2.2532">
        <ele>174.9</ele>
        <time>2022-02-08T11:30:21Z</time>
      </trkpt>
      <trkpt lat="48.75806" lon="2.25308">
        <ele>174.9</ele>
        <time>2022-02-08T11:30:27Z</time>
      </trkpt>
      <trkpt lat="48.75806" lon="2.25295">
        <ele>175.1</ele>
        <time>2022-02-08T11:30:33Z</time>
      </trkpt>
      <trkpt lat="48.75808" lon="2.25282">
        <ele>175.2</ele>
        <time>2022-02-08T11:30:41Z</time>
      </trkpt>
      <trkpt lat="48.75811" lon="2.25273">
        <ele>175.2</ele>
        <time>2022-02-08T11:30:45Z</time>
      </trkpt>
      <trkpt lat="48.75812" lon="2.25259">
        <ele>175.4</ele>
        <time>2022-02-08T11:30:51Z</time>
      </trkpt>
      <trkpt lat="48.75813" lon="2.25246">
        <ele>175.5</ele>
        <time>2022-02-08T11:30:57Z</time>
      </trkpt>
      <trkpt lat="48.75812" lon="2.25234">
        <ele>175.7</ele>
        <time>2022-02-08T11:31:03Z</time>
      </trkpt>
      <trkpt lat="48.75809" lon="2.25223">
        <ele>175.9</ele>
        <time>2022-02-08T11:31:09Z</time>
      </trkpt>
      <trkpt lat="48.75808" lon="2.25211">
        <ele>176.1</ele>
        <time>2022-02-08T11:31:15Z</time>
      </trkpt>
      <trkpt lat="48.7581" lon="2.25198">
        <ele>176.2</ele>
        <time>2022-02-08T11:31:33Z</time>
      </trkpt>
      <trkpt lat="48.7581" lon="2.25188">
        <ele>176.3</ele>
        <time>2022-02-08T11:31:39Z</time>
      </trkpt>
      <trkpt lat="48.75809" lon="2.25176">
        <ele>176.5</ele>
        <time>2022-02-08T11:31:46Z</time>
      </trkpt>
      <trkpt lat="48.75815" lon="2.25167">
        <ele>176.4</ele>
        <time>2022-02-08T11:31:51Z</time>
      </trkpt>
      <trkpt lat="48.7582" lon="2.25162">
        <ele>176.3</ele>
        <time>2022-02-08T11:32:01Z</time>
      </trkpt>
      <trkpt lat="48.75826" lon="2.25155">
        <ele>176.2</ele>
        <time>2022-02-08T11:32:08Z</time>
      </trkpt>
      <trkpt lat="48.75833" lon="2.25153">
        <ele>176</ele>
        <time>2022-02-08T11:32:15Z</time>
      </trkpt>
      <trkpt lat="48.75839" lon="2.25149">
        <ele>176</ele>
        <time>2022-02-08T11:32:28Z</time>
      </trkpt>
      <trkpt lat="48.75845" lon="2.25153">
        <ele>176</ele>
        <time>2022-02-08T11:32:38Z</time>
      </trkpt>
      <trkpt lat="48.7585" lon="2.25144">
        <ele>176.1</ele>
        <time>2022-02-08T11:32:45Z</time>
      </trkpt>
      <trkpt lat="48.75854" lon="2.25129">
        <ele>176.2</ele>
        <time>2022-02-08T11:32:51Z</time>
      </trkpt>
      <trkpt lat="48.75856" lon="2.25116">
        <ele>176.3</ele>
        <time>2022-02-08T11:32:57Z</time>
      </trkpt>
      <trkpt lat="48.75857" lon="2.25102">
        <ele>176.4</ele>
        <time>2022-02-08T11:33:03Z</time>
      </trkpt>
      <trkpt lat="48.75855" lon="2.25078">
        <ele>176.4</ele>
        <time>2022-02-08T11:33:09Z</time>
      </trkpt>
      <trkpt lat="48.75854" lon="2.25059">
        <ele>176.1</ele>
        <time>2022-02-08T11:33:15Z</time>
      </trkpt>
      <trkpt lat="48.75855" lon="2.25046">
        <ele>175.9</ele>
        <time>2022-02-08T11:33:21Z</time>
      </trkpt>
      <trkpt lat="48.75858" lon="2.25035">
        <ele>175.8</ele>
        <time>2022-02-08T11:33:27Z</time>
      </trkpt>
      <trkpt lat="48.7586" lon="2.25023">
        <ele>175.7</ele>
        <time>2022-02-08T11:33:33Z</time>
      </trkpt>
      <trkpt lat="48.75863" lon="2.2501">
        <ele>175.6</ele>
        <time>2022-02-08T11:33:39Z</time>
      </trkpt>
      <trkpt lat="48.75868" lon="2.24996">
        <ele>175.7</ele>
        <time>2022-02-08T11:33:45Z</time>
      </trkpt>
      <trkpt lat="48.75869" lon="2.24984">
        <ele>175.9</ele>
        <time>2022-02-08T11:33:51Z</time>
      </trkpt>
      <trkpt lat="48.75872" lon="2.24975">
        <ele>176.2</ele>
        <time>2022-02-08T11:33:59Z</time>
      </trkpt>
      <trkpt lat="48.75876" lon="2.24967">
        <ele>176.4</ele>
        <time>2022-02-08T11:34:05Z</time>
      </trkpt>
      <trkpt lat="48.75879" lon="2.24957">
        <ele>176.7</ele>
        <time>2022-02-08T11:34:10Z</time>
      </trkpt>
      <trkpt lat="48.75881" lon="2.24947">
        <ele>176.9</ele>
        <time>2022-02-08T11:34:15Z</time>
      </trkpt>
      <trkpt lat="48.75883" lon="2.24929">
        <ele>177.2</ele>
        <time>2022-02-08T11:34:21Z</time>
      </trkpt>
      <trkpt lat="48.75884" lon="2.24913">
        <ele>177.5</ele>
        <time>2022-02-08T11:34:27Z</time>
      </trkpt>
      <trkpt lat="48.75884" lon="2.24895">
        <ele>177.7</ele>
        <time>2022-02-08T11:34:33Z</time>
      </trkpt>
      <trkpt lat="48.75885" lon="2.24884">
        <ele>177.8</ele>
        <time>2022-02-08T11:34:39Z</time>
      </trkpt>
      <trkpt lat="48.75888" lon="2.24874">
        <ele>178</ele>
        <time>2022-02-08T11:34:45Z</time>
      </trkpt>
      <trkpt lat="48.75889" lon="2.24863">
        <ele>178.1</ele>
        <time>2022-02-08T11:34:51Z</time>
      </trkpt>
      <trkpt lat="48.75891" lon="2.24852">
        <ele>178.2</ele>
        <time>2022-02-08T11:34:57Z</time>
      </trkpt>
      <trkpt lat="48.75892" lon="2.2484">
        <ele>178.3</ele>
        <time>2022-02-08T11:35:03Z</time>
      </trkpt>
      <trkpt lat="48.75896" lon="2.24831">
        <ele>178.2</ele>
        <time>2022-02-08T11:35:09Z</time>
      </trkpt>
      <trkpt lat="48.75894" lon="2.24816">
        <ele>178.2</ele>
        <time>2022-02-08T11:35:15Z</time>
      </trkpt>
      <trkpt lat="48.759" lon="2.2482">
        <ele>178.1</ele>
        <time>2022-02-08T11:35:26Z</time>
      </trkpt>
      <trkpt lat="48.75901" lon="2.24809">
        <ele>178</ele>
        <time>2022-02-08T11:35:41Z</time>
      </trkpt>
      <trkpt lat="48.75901" lon="2.24799">
        <ele>177.9</ele>
        <time>2022-02-08T11:35:48Z</time>
      </trkpt>
      <trkpt lat="48.75902" lon="2.24789">
        <ele>177.8</ele>
        <time>2022-02-08T11:35:59Z</time>
      </trkpt>
      <trkpt lat="48.75903" lon="2.24777">
        <ele>177.7</ele>
        <time>2022-02-08T11:36:06Z</time>
      </trkpt>
      <trkpt lat="48.75903" lon="2.24766">
        <ele>177.6</ele>
        <time>2022-02-08T11:36:09Z</time>
      </trkpt>
      <trkpt lat="48.75905" lon="2.24748">
        <ele>177.4</ele>
        <time>2022-02-08T11:36:15Z</time>
      </trkpt>
      <trkpt lat="48.75908" lon="2.24735">
        <ele>177</ele>
        <time>2022-02-08T11:36:21Z</time>
      </trkpt>
      <trkpt lat="48.75909" lon="2.24725">
        <ele>176.7</ele>
        <time>2022-02-08T11:36:27Z</time>
      </trkpt>
      <trkpt lat="48.7591" lon="2.24713">
        <ele>176.4</ele>
        <time>2022-02-08T11:36:33Z</time>
      </trkpt>
      <trkpt lat="48.7591" lon="2.24694">
        <ele>176</ele>
        <time>2022-02-08T11:36:39Z</time>
      </trkpt>
      <trkpt lat="48.75914" lon="2.24679">
        <ele>175.4</ele>
        <time>2022-02-08T11:36:45Z</time>
      </trkpt>
      <trkpt lat="48.75913" lon="2.24666">
        <ele>175.2</ele>
        <time>2022-02-08T11:36:51Z</time>
      </trkpt>
      <trkpt lat="48.75913" lon="2.24654">
        <ele>175.4</ele>
        <time>2022-02-08T11:36:57Z</time>
      </trkpt>
      <trkpt lat="48.75915" lon="2.24644">
        <ele>175.4</ele>
        <time>2022-02-08T11:37:05Z</time>
      </trkpt>
      <trkpt lat="48.75919" lon="2.24634">
        <ele>175.4</ele>
        <time>2022-02-08T11:37:14Z</time>
      </trkpt>
      <trkpt lat="48.75919" lon="2.24624">
        <ele>175.5</ele>
        <time>2022-02-08T11:37:19Z</time>
      </trkpt>
      <trkpt lat="48.75922" lon="2.24613">
        <ele>175.6</ele>
        <time>2022-02-08T11:37:24Z</time>
      </trkpt>
      <trkpt lat="48.75923" lon="2.24602">
        <ele>175.7</ele>
        <time>2022-02-08T11:37:29Z</time>
      </trkpt>
      <trkpt lat="48.75924" lon="2.24591">
        <ele>175.8</ele>
        <time>2022-02-08T11:37:34Z</time>
      </trkpt>
      <trkpt lat="48.75925" lon="2.24581">
        <ele>175.9</ele>
        <time>2022-02-08T11:37:40Z</time>
      </trkpt>
      <trkpt lat="48.75927" lon="2.2457">
        <ele>176.2</ele>
        <time>2022-02-08T11:37:45Z</time>
      </trkpt>
      <trkpt lat="48.75929" lon="2.24559">
        <ele>176.5</ele>
        <time>2022-02-08T11:37:51Z</time>
      </trkpt>
      <trkpt lat="48.75931" lon="2.24549">
        <ele>176.8</ele>
        <time>2022-02-08T11:37:57Z</time>
      </trkpt>
      <trkpt lat="48.75934" lon="2.24539">
        <ele>177.1</ele>
        <time>2022-02-08T11:38:03Z</time>
      </trkpt>
      <trkpt lat="48.75935" lon="2.24525">
        <ele>177.5</ele>
        <time>2022-02-08T11:38:09Z</time>
      </trkpt>
      <trkpt lat="48.75937" lon="2.24514">
        <ele>177.8</ele>
        <time>2022-02-08T11:38:15Z</time>
      </trkpt>
      <trkpt lat="48.7594" lon="2.245">
        <ele>178.2</ele>
        <time>2022-02-08T11:38:21Z</time>
      </trkpt>
      <trkpt lat="48.75942" lon="2.24488">
        <ele>178.4</ele>
        <time>2022-02-08T11:38:27Z</time>
      </trkpt>
      <trkpt lat="48.75946" lon="2.24474">
        <ele>178.7</ele>
        <time>2022-02-08T11:38:33Z</time>
      </trkpt>
      <trkpt lat="48.75948" lon="2.24463">
        <ele>178.9</ele>
        <time>2022-02-08T11:38:39Z</time>
      </trkpt>
      <trkpt lat="48.75951" lon="2.24453">
        <ele>179.1</ele>
        <time>2022-02-08T11:38:47Z</time>
      </trkpt>
      <trkpt lat="48.75953" lon="2.24442">
        <ele>179.4</ele>
        <time>2022-02-08T11:38:55Z</time>
      </trkpt>
      <trkpt lat="48.75956" lon="2.24434">
        <ele>179.5</ele>
        <time>2022-02-08T11:39:01Z</time>
      </trkpt>
      <trkpt lat="48.75956" lon="2.24424">
        <ele>179.8</ele>
        <time>2022-02-08T11:39:12Z</time>
      </trkpt>
      <trkpt lat="48.75957" lon="2.24413">
        <ele>180</ele>
        <time>2022-02-08T11:39:17Z</time>
      </trkpt>
      <trkpt lat="48.75962" lon="2.24406">
        <ele>179.7</ele>
        <time>2022-02-08T11:39:41Z</time>
      </trkpt>
      <trkpt lat="48.75968" lon="2.24405">
        <ele>179.6</ele>
        <time>2022-02-08T11:39:47Z</time>
      </trkpt>
      <trkpt lat="48.75961" lon="2.24403">
        <ele>179.7</ele>
        <time>2022-02-08T11:40:17Z</time>
      </trkpt>
      <trkpt lat="48.75963" lon="2.24393">
        <ele>179.5</ele>
        <time>2022-02-08T11:40:45Z</time>
      </trkpt>
      <trkpt lat="48.7596" lon="2.24384">
        <ele>179.4</ele>
        <time>2022-02-08T11:40:51Z</time>
      </trkpt>
      <trkpt lat="48.75954" lon="2.24381">
        <ele>179.4</ele>
        <time>2022-02-08T11:40:58Z</time>
      </trkpt>
      <trkpt lat="48.75948" lon="2.2438">
        <ele>179.5</ele>
        <time>2022-02-08T11:41:04Z</time>
      </trkpt>
      <trkpt lat="48.75942" lon="2.24386">
        <ele>179.8</ele>
        <time>2022-02-08T11:41:11Z</time>
      </trkpt>
      <trkpt lat="48.75935" lon="2.24388">
        <ele>179.9</ele>
        <time>2022-02-08T11:41:17Z</time>
      </trkpt>
      <trkpt lat="48.75935" lon="2.24378">
        <ele>179.7</ele>
        <time>2022-02-08T11:41:26Z</time>
      </trkpt>
      <trkpt lat="48.75932" lon="2.24386">
        <ele>180</ele>
        <time>2022-02-08T11:56:30Z</time>
      </trkpt>
      <trkpt lat="48.75937" lon="2.24394">
        <ele>180</ele>
        <time>2022-02-08T11:56:37Z</time>
      </trkpt>
      <trkpt lat="48.75941" lon="2.24403">
        <ele>180.1</ele>
        <time>2022-02-08T11:56:43Z</time>
      </trkpt>
      <trkpt lat="48.75944" lon="2.24413">
        <ele>180.3</ele>
        <time>2022-02-08T11:56:49Z</time>
      </trkpt>
      <trkpt lat="48.75949" lon="2.24421">
        <ele>180.1</ele>
        <time>2022-02-08T11:56:55Z</time>
      </trkpt>
      <trkpt lat="48.75955" lon="2.24425">
        <ele>179.8</ele>
        <time>2022-02-08T11:57:01Z</time>
      </trkpt>
      <trkpt lat="48.75962" lon="2.24422">
        <ele>179.7</ele>
        <time>2022-02-08T11:57:11Z</time>
      </trkpt>
      <trkpt lat="48.75968" lon="2.24419">
        <ele>179.7</ele>
        <time>2022-02-08T11:57:16Z</time>
      </trkpt>
      <trkpt lat="48.75975" lon="2.24417">
        <ele>179.6</ele>
        <time>2022-02-08T11:57:22Z</time>
      </trkpt>
      <trkpt lat="48.75982" lon="2.24423">
        <ele>179.2</ele>
        <time>2022-02-08T11:57:31Z</time>
      </trkpt>
      <trkpt lat="48.75988" lon="2.24427">
        <ele>178.9</ele>
        <time>2022-02-08T11:57:36Z</time>
      </trkpt>
      <trkpt lat="48.75995" lon="2.24429">
        <ele>178.7</ele>
        <time>2022-02-08T11:57:41Z</time>
      </trkpt>
      <trkpt lat="48.76002" lon="2.24429">
        <ele>178.6</ele>
        <time>2022-02-08T11:57:46Z</time>
      </trkpt>
      <trkpt lat="48.7601" lon="2.2443">
        <ele>178.6</ele>
        <time>2022-02-08T11:57:51Z</time>
      </trkpt>
      <trkpt lat="48.76019" lon="2.24433">
        <ele>178.5</ele>
        <time>2022-02-08T11:57:57Z</time>
      </trkpt>
      <trkpt lat="48.76027" lon="2.2444">
        <ele>178.4</ele>
        <time>2022-02-08T11:58:03Z</time>
      </trkpt>
      <trkpt lat="48.76035" lon="2.24445">
        <ele>178.4</ele>
        <time>2022-02-08T11:58:09Z</time>
      </trkpt>
      <trkpt lat="48.76043" lon="2.24449">
        <ele>178.4</ele>
        <time>2022-02-08T11:58:15Z</time>
      </trkpt>
      <trkpt lat="48.76052" lon="2.24454">
        <ele>178.5</ele>
        <time>2022-02-08T11:58:21Z</time>
      </trkpt>
      <trkpt lat="48.76059" lon="2.24454">
        <ele>178.6</ele>
        <time>2022-02-08T12:00:11Z</time>
      </trkpt>
      <trkpt lat="48.76065" lon="2.24456">
        <ele>178.7</ele>
        <time>2022-02-08T12:00:18Z</time>
      </trkpt>
      <trkpt lat="48.76072" lon="2.24461">
        <ele>178.8</ele>
        <time>2022-02-08T12:00:23Z</time>
      </trkpt>
      <trkpt lat="48.76079" lon="2.24464">
        <ele>178.9</ele>
        <time>2022-02-08T12:00:28Z</time>
      </trkpt>
      <trkpt lat="48.76086" lon="2.24466">
        <ele>179</ele>
        <time>2022-02-08T12:00:33Z</time>
      </trkpt>
      <trkpt lat="48.76093" lon="2.24467">
        <ele>178.9</ele>
        <time>2022-02-08T12:00:38Z</time>
      </trkpt>
      <trkpt lat="48.76101" lon="2.24471">
        <ele>178.7</ele>
        <time>2022-02-08T12:00:44Z</time>
      </trkpt>
      <trkpt lat="48.76109" lon="2.24475">
        <ele>178.6</ele>
        <time>2022-02-08T12:00:50Z</time>
      </trkpt>
      <trkpt lat="48.76117" lon="2.24478">
        <ele>178.4</ele>
        <time>2022-02-08T12:00:56Z</time>
      </trkpt>
      <trkpt lat="48.76123" lon="2.24481">
        <ele>178.3</ele>
        <time>2022-02-08T12:01:02Z</time>
      </trkpt>
      <trkpt lat="48.76131" lon="2.24485">
        <ele>178.1</ele>
        <time>2022-02-08T12:01:08Z</time>
      </trkpt>
      <trkpt lat="48.76141" lon="2.24491">
        <ele>177.8</ele>
        <time>2022-02-08T12:01:14Z</time>
      </trkpt>
      <trkpt lat="48.76152" lon="2.24493">
        <ele>177.5</ele>
        <time>2022-02-08T12:01:20Z</time>
      </trkpt>
      <trkpt lat="48.76161" lon="2.24497">
        <ele>177.2</ele>
        <time>2022-02-08T12:01:26Z</time>
      </trkpt>
      <trkpt lat="48.7617" lon="2.24498">
        <ele>177.1</ele>
        <time>2022-02-08T12:01:32Z</time>
      </trkpt>
      <trkpt lat="48.76178" lon="2.24501">
        <ele>177.1</ele>
        <time>2022-02-08T12:01:38Z</time>
      </trkpt>
      <trkpt lat="48.76186" lon="2.24504">
        <ele>177.1</ele>
        <time>2022-02-08T12:01:44Z</time>
      </trkpt>
      <trkpt lat="48.76194" lon="2.24507">
        <ele>177</ele>
        <time>2022-02-08T12:01:50Z</time>
      </trkpt>
      <trkpt lat="48.76202" lon="2.24511">
        <ele>177</ele>
        <time>2022-02-08T12:01:56Z</time>
      </trkpt>
      <trkpt lat="48.76209" lon="2.24514">
        <ele>176.9</ele>
        <time>2022-02-08T12:02:03Z</time>
      </trkpt>
      <trkpt lat="48.76215" lon="2.24521">
        <ele>176.7</ele>
        <time>2022-02-08T12:02:11Z</time>
      </trkpt>
      <trkpt lat="48.76221" lon="2.24526">
        <ele>176.6</ele>
        <time>2022-02-08T12:02:16Z</time>
      </trkpt>
      <trkpt lat="48.76227" lon="2.24533">
        <ele>176.4</ele>
        <time>2022-02-08T12:02:24Z</time>
      </trkpt>
      <trkpt lat="48.76235" lon="2.2453">
        <ele>176.7</ele>
        <time>2022-02-08T12:02:32Z</time>
      </trkpt>
      <trkpt lat="48.76244" lon="2.24526">
        <ele>177</ele>
        <time>2022-02-08T12:02:37Z</time>
      </trkpt>
      <trkpt lat="48.76253" lon="2.24518">
        <ele>177.2</ele>
        <time>2022-02-08T12:02:43Z</time>
      </trkpt>
      <trkpt lat="48.76259" lon="2.24509">
        <ele>177.4</ele>
        <time>2022-02-08T12:02:49Z</time>
      </trkpt>
      <trkpt lat="48.76262" lon="2.245">
        <ele>177.6</ele>
        <time>2022-02-08T12:02:57Z</time>
      </trkpt>
      <trkpt lat="48.76265" lon="2.24489">
        <ele>177.5</ele>
        <time>2022-02-08T12:03:05Z</time>
      </trkpt>
      <trkpt lat="48.76269" lon="2.2448">
        <ele>177.4</ele>
        <time>2022-02-08T12:03:10Z</time>
      </trkpt>
      <trkpt lat="48.76273" lon="2.24471">
        <ele>177.3</ele>
        <time>2022-02-08T12:03:14Z</time>
      </trkpt>
      <trkpt lat="48.76278" lon="2.24461">
        <ele>177.1</ele>
        <time>2022-02-08T12:03:19Z</time>
      </trkpt>
      <trkpt lat="48.76284" lon="2.24457">
        <ele>176.9</ele>
        <time>2022-02-08T12:03:34Z</time>
      </trkpt>
      <trkpt lat="48.76292" lon="2.24456">
        <ele>176.5</ele>
        <time>2022-02-08T12:03:40Z</time>
      </trkpt>
      <trkpt lat="48.76299" lon="2.24455">
        <ele>176.1</ele>
        <time>2022-02-08T12:03:44Z</time>
      </trkpt>
      <trkpt lat="48.76305" lon="2.2445">
        <ele>175.8</ele>
        <time>2022-02-08T12:03:50Z</time>
      </trkpt>
      <trkpt lat="48.76312" lon="2.24447">
        <ele>175.5</ele>
        <time>2022-02-08T12:03:56Z</time>
      </trkpt>
      <trkpt lat="48.76318" lon="2.24443">
        <ele>175.1</ele>
        <time>2022-02-08T12:04:01Z</time>
      </trkpt>
      <trkpt lat="48.76324" lon="2.24439">
        <ele>174.8</ele>
        <time>2022-02-08T12:04:08Z</time>
      </trkpt>
      <trkpt lat="48.76331" lon="2.24436">
        <ele>174.4</ele>
        <time>2022-02-08T12:04:17Z</time>
      </trkpt>
      <trkpt lat="48.7634" lon="2.24428">
        <ele>174.3</ele>
        <time>2022-02-08T12:04:31Z</time>
      </trkpt>
      <trkpt lat="48.76346" lon="2.24423">
        <ele>174.4</ele>
        <time>2022-02-08T12:04:45Z</time>
      </trkpt>
      <trkpt lat="48.76352" lon="2.24419">
        <ele>174.5</ele>
        <time>2022-02-08T12:04:55Z</time>
      </trkpt>
      <trkpt lat="48.76358" lon="2.24413">
        <ele>174.6</ele>
        <time>2022-02-08T12:05:04Z</time>
      </trkpt>
      <trkpt lat="48.76362" lon="2.24405">
        <ele>174.8</ele>
        <time>2022-02-08T12:05:11Z</time>
      </trkpt>
      <trkpt lat="48.76367" lon="2.24398">
        <ele>174.9</ele>
        <time>2022-02-08T12:05:36Z</time>
      </trkpt>
      <trkpt lat="48.76372" lon="2.24391">
        <ele>175.1</ele>
        <time>2022-02-08T12:05:45Z</time>
      </trkpt>
      <trkpt lat="48.76377" lon="2.24383">
        <ele>175.2</ele>
        <time>2022-02-08T12:05:51Z</time>
      </trkpt>
      <trkpt lat="48.7638" lon="2.24374">
        <ele>175.3</ele>
        <time>2022-02-08T12:06:12Z</time>
      </trkpt>
      <trkpt lat="48.76385" lon="2.24381">
        <ele>175.4</ele>
        <time>2022-02-08T12:06:23Z</time>
      </trkpt>
      <trkpt lat="48.76387" lon="2.24392">
        <ele>175.4</ele>
        <time>2022-02-08T12:06:28Z</time>
      </trkpt>
      <trkpt lat="48.76392" lon="2.244">
        <ele>175.5</ele>
        <time>2022-02-08T12:06:34Z</time>
      </trkpt>
      <trkpt lat="48.76399" lon="2.24397">
        <ele>175.6</ele>
        <time>2022-02-08T12:06:42Z</time>
      </trkpt>
      <trkpt lat="48.76405" lon="2.24392">
        <ele>175.8</ele>
        <time>2022-02-08T12:07:13Z</time>
      </trkpt>
      <trkpt lat="48.7641" lon="2.24385">
        <ele>175.9</ele>
        <time>2022-02-08T12:07:22Z</time>
      </trkpt>
      <trkpt lat="48.76417" lon="2.24384">
        <ele>176</ele>
        <time>2022-02-08T12:07:32Z</time>
      </trkpt>
      <trkpt lat="48.76421" lon="2.24393">
        <ele>176.1</ele>
        <time>2022-02-08T12:07:44Z</time>
      </trkpt>
      <trkpt lat="48.76423" lon="2.24403">
        <ele>176.1</ele>
        <time>2022-02-08T12:07:51Z</time>
      </trkpt>
      <trkpt lat="48.76426" lon="2.24413">
        <ele>176.1</ele>
        <time>2022-02-08T12:08:15Z</time>
      </trkpt>
      <trkpt lat="48.76425" lon="2.24424">
        <ele>176.1</ele>
        <time>2022-02-08T12:08:23Z</time>
      </trkpt>
      <trkpt lat="48.76428" lon="2.24436">
        <ele>176.1</ele>
        <time>2022-02-08T12:08:41Z</time>
      </trkpt>
      <trkpt lat="48.76423" lon="2.24429">
        <ele>176.1</ele>
        <time>2022-02-08T12:09:39Z</time>
      </trkpt>
      <trkpt lat="48.76425" lon="2.24419">
        <ele>176.1</ele>
        <time>2022-02-08T12:09:48Z</time>
      </trkpt>
      <trkpt lat="48.76424" lon="2.24409">
        <ele>176.1</ele>
        <time>2022-02-08T12:09:56Z</time>
      </trkpt>
      <trkpt lat="48.76426" lon="2.24399">
        <ele>176.1</ele>
        <time>2022-02-08T12:10:04Z</time>
      </trkpt>
      <trkpt lat="48.76429" lon="2.2439">
        <ele>176.1</ele>
        <time>2022-02-08T12:10:12Z</time>
      </trkpt>
      <trkpt lat="48.7643" lon="2.24379">
        <ele>176.2</ele>
        <time>2022-02-08T12:10:21Z</time>
      </trkpt>
      <trkpt lat="48.76429" lon="2.24368">
        <ele>176.1</ele>
        <time>2022-02-08T12:10:32Z</time>
      </trkpt>
      <trkpt lat="48.76428" lon="2.24358">
        <ele>176.1</ele>
        <time>2022-02-08T12:10:44Z</time>
      </trkpt>
      <trkpt lat="48.7643" lon="2.24348">
        <ele>176.2</ele>
        <time>2022-02-08T12:10:53Z</time>
      </trkpt>
      <trkpt lat="48.7643" lon="2.24338">
        <ele>176.2</ele>
        <time>2022-02-08T12:11:02Z</time>
      </trkpt>
      <trkpt lat="48.76426" lon="2.2433">
        <ele>176.2</ele>
        <time>2022-02-08T12:11:09Z</time>
      </trkpt>
      <trkpt lat="48.76421" lon="2.24322">
        <ele>176.3</ele>
        <time>2022-02-08T12:11:16Z</time>
      </trkpt>
      <trkpt lat="48.76422" lon="2.24312">
        <ele>176.6</ele>
        <time>2022-02-08T12:11:23Z</time>
      </trkpt>
      <trkpt lat="48.76421" lon="2.24302">
        <ele>176.8</ele>
        <time>2022-02-08T12:11:38Z</time>
      </trkpt>
      <trkpt lat="48.76426" lon="2.24296">
        <ele>177</ele>
        <time>2022-02-08T12:11:46Z</time>
      </trkpt>
      <trkpt lat="48.76434" lon="2.24293">
        <ele>177.1</ele>
        <time>2022-02-08T12:11:55Z</time>
      </trkpt>
      <trkpt lat="48.76441" lon="2.24292">
        <ele>177.1</ele>
        <time>2022-02-08T12:12:03Z</time>
      </trkpt>
      <trkpt lat="48.76449" lon="2.24297">
        <ele>177.1</ele>
        <time>2022-02-08T12:12:42Z</time>
      </trkpt>
      <trkpt lat="48.76452" lon="2.24288">
        <ele>177.3</ele>
        <time>2022-02-08T12:12:50Z</time>
      </trkpt>
      <trkpt lat="48.76456" lon="2.2428">
        <ele>177.4</ele>
        <time>2022-02-08T12:12:59Z</time>
      </trkpt>
      <trkpt lat="48.76461" lon="2.24274">
        <ele>177.6</ele>
        <time>2022-02-08T12:13:05Z</time>
      </trkpt>
      <trkpt lat="48.76466" lon="2.24266">
        <ele>177.7</ele>
        <time>2022-02-08T12:13:12Z</time>
      </trkpt>
      <trkpt lat="48.76473" lon="2.24261">
        <ele>177.8</ele>
        <time>2022-02-08T12:13:17Z</time>
      </trkpt>
      <trkpt lat="48.76479" lon="2.24255">
        <ele>177.9</ele>
        <time>2022-02-08T12:13:23Z</time>
      </trkpt>
      <trkpt lat="48.76486" lon="2.2425">
        <ele>178</ele>
        <time>2022-02-08T12:13:29Z</time>
      </trkpt>
      <trkpt lat="48.76493" lon="2.24247">
        <ele>178</ele>
        <time>2022-02-08T12:13:36Z</time>
      </trkpt>
      <trkpt lat="48.76499" lon="2.24244">
        <ele>178</ele>
        <time>2022-02-08T12:13:41Z</time>
      </trkpt>
      <trkpt lat="48.76506" lon="2.24245">
        <ele>177.9</ele>
        <time>2022-02-08T12:13:47Z</time>
      </trkpt>
      <trkpt lat="48.76513" lon="2.24244">
        <ele>177.7</ele>
        <time>2022-02-08T12:13:53Z</time>
      </trkpt>
      <trkpt lat="48.7652" lon="2.24245">
        <ele>177.5</ele>
        <time>2022-02-08T12:13:59Z</time>
      </trkpt>
      <trkpt lat="48.76527" lon="2.24245">
        <ele>177.4</ele>
        <time>2022-02-08T12:14:07Z</time>
      </trkpt>
      <trkpt lat="48.76533" lon="2.2425">
        <ele>177.2</ele>
        <time>2022-02-08T12:14:21Z</time>
      </trkpt>
      <trkpt lat="48.76537" lon="2.24242">
        <ele>177.2</ele>
        <time>2022-02-08T12:14:36Z</time>
      </trkpt>
      <trkpt lat="48.76539" lon="2.24232">
        <ele>177.2</ele>
        <time>2022-02-08T12:14:41Z</time>
      </trkpt>
      <trkpt lat="48.76536" lon="2.24222">
        <ele>177.3</ele>
        <time>2022-02-08T12:14:51Z</time>
      </trkpt>
      <trkpt lat="48.76536" lon="2.24211">
        <ele>177.3</ele>
        <time>2022-02-08T12:15:01Z</time>
      </trkpt>
      <trkpt lat="48.76539" lon="2.24202">
        <ele>177.3</ele>
        <time>2022-02-08T12:15:14Z</time>
      </trkpt>
      <trkpt lat="48.76545" lon="2.24204">
        <ele>177.2</ele>
        <time>2022-02-08T12:15:21Z</time>
      </trkpt>
      <trkpt lat="48.76553" lon="2.24205">
        <ele>177.1</ele>
        <time>2022-02-08T12:15:27Z</time>
      </trkpt>
      <trkpt lat="48.7656" lon="2.24206">
        <ele>176.9</ele>
        <time>2022-02-08T12:15:32Z</time>
      </trkpt>
      <trkpt lat="48.76567" lon="2.24205">
        <ele>176.8</ele>
        <time>2022-02-08T12:15:38Z</time>
      </trkpt>
      <trkpt lat="48.76574" lon="2.24207">
        <ele>176.7</ele>
        <time>2022-02-08T12:15:43Z</time>
      </trkpt>
      <trkpt lat="48.7658" lon="2.24211">
        <ele>176.5</ele>
        <time>2022-02-08T12:15:49Z</time>
      </trkpt>
      <trkpt lat="48.76587" lon="2.24216">
        <ele>176.4</ele>
        <time>2022-02-08T12:15:55Z</time>
      </trkpt>
      <trkpt lat="48.76595" lon="2.24221">
        <ele>176.3</ele>
        <time>2022-02-08T12:16:01Z</time>
      </trkpt>
      <trkpt lat="48.76604" lon="2.24229">
        <ele>176</ele>
        <time>2022-02-08T12:16:06Z</time>
      </trkpt>
      <trkpt lat="48.76613" lon="2.24234">
        <ele>175.8</ele>
        <time>2022-02-08T12:16:12Z</time>
      </trkpt>
      <trkpt lat="48.76621" lon="2.24237">
        <ele>175.5</ele>
        <time>2022-02-08T12:16:17Z</time>
      </trkpt>
      <trkpt lat="48.76626" lon="2.24242">
        <ele>175.3</ele>
        <time>2022-02-08T12:16:23Z</time>
      </trkpt>
      <trkpt lat="48.76633" lon="2.24249">
        <ele>174.8</ele>
        <time>2022-02-08T12:16:29Z</time>
      </trkpt>
      <trkpt lat="48.7664" lon="2.24251">
        <ele>174.6</ele>
        <time>2022-02-08T12:16:36Z</time>
      </trkpt>
      <trkpt lat="48.76647" lon="2.24249">
        <ele>174.5</ele>
        <time>2022-02-08T12:16:39Z</time>
      </trkpt>
      <trkpt lat="48.76653" lon="2.24243">
        <ele>174.7</ele>
        <time>2022-02-08T12:16:46Z</time>
      </trkpt>
      <trkpt lat="48.76657" lon="2.24251">
        <ele>174.2</ele>
        <time>2022-02-08T12:17:17Z</time>
      </trkpt>
      <trkpt lat="48.76659" lon="2.24261">
        <ele>173.9</ele>
        <time>2022-02-08T12:17:22Z</time>
      </trkpt>
      <trkpt lat="48.76663" lon="2.24254">
        <ele>174</ele>
        <time>2022-02-08T12:17:37Z</time>
      </trkpt>
      <trkpt lat="48.76667" lon="2.24243">
        <ele>174.4</ele>
        <time>2022-02-08T12:18:12Z</time>
      </trkpt>
      <trkpt lat="48.76666" lon="2.24258">
        <ele>173.8</ele>
        <time>2022-02-08T12:18:34Z</time>
      </trkpt>
      <trkpt lat="48.76668" lon="2.24268">
        <ele>173.6</ele>
        <time>2022-02-08T12:18:48Z</time>
      </trkpt>
      <trkpt lat="48.76671" lon="2.24277">
        <ele>173.4</ele>
        <time>2022-02-08T12:19:00Z</time>
      </trkpt>
      <trkpt lat="48.76674" lon="2.24286">
        <ele>173.2</ele>
        <time>2022-02-08T12:19:10Z</time>
      </trkpt>
      <trkpt lat="48.76681" lon="2.24294">
        <ele>173.1</ele>
        <time>2022-02-08T12:19:15Z</time>
      </trkpt>
      <trkpt lat="48.76687" lon="2.24298">
        <ele>173.1</ele>
        <time>2022-02-08T12:19:20Z</time>
      </trkpt>
      <trkpt lat="48.76693" lon="2.243">
        <ele>173.1</ele>
        <time>2022-02-08T12:19:28Z</time>
      </trkpt>
      <trkpt lat="48.767" lon="2.24304">
        <ele>173.1</ele>
        <time>2022-02-08T12:19:34Z</time>
      </trkpt>
      <trkpt lat="48.76707" lon="2.24306">
        <ele>173.1</ele>
        <time>2022-02-08T12:19:41Z</time>
      </trkpt>
      <trkpt lat="48.76715" lon="2.24306">
        <ele>173.2</ele>
        <time>2022-02-08T12:19:47Z</time>
      </trkpt>
      <trkpt lat="48.76723" lon="2.24309">
        <ele>173.3</ele>
        <time>2022-02-08T12:19:53Z</time>
      </trkpt>
      <trkpt lat="48.7673" lon="2.2431">
        <ele>173.3</ele>
        <time>2022-02-08T12:19:58Z</time>
      </trkpt>
      <trkpt lat="48.76736" lon="2.24312">
        <ele>173.3</ele>
        <time>2022-02-08T12:20:02Z</time>
      </trkpt>
      <trkpt lat="48.76745" lon="2.24314">
        <ele>173.4</ele>
        <time>2022-02-08T12:20:08Z</time>
      </trkpt>
      <trkpt lat="48.76757" lon="2.24316">
        <ele>173.6</ele>
        <time>2022-02-08T12:20:14Z</time>
      </trkpt>
      <trkpt lat="48.76766" lon="2.24316">
        <ele>173.9</ele>
        <time>2022-02-08T12:20:20Z</time>
      </trkpt>
      <trkpt lat="48.76773" lon="2.24316">
        <ele>174.1</ele>
        <time>2022-02-08T12:20:26Z</time>
      </trkpt>
      <trkpt lat="48.7678" lon="2.24317">
        <ele>174.3</ele>
        <time>2022-02-08T12:20:32Z</time>
      </trkpt>
      <trkpt lat="48.76789" lon="2.24316">
        <ele>174.6</ele>
        <time>2022-02-08T12:20:38Z</time>
      </trkpt>
      <trkpt lat="48.76797" lon="2.24318">
        <ele>174.9</ele>
        <time>2022-02-08T12:20:44Z</time>
      </trkpt>
      <trkpt lat="48.76806" lon="2.24317">
        <ele>175.1</ele>
        <time>2022-02-08T12:20:50Z</time>
      </trkpt>
      <trkpt lat="48.76813" lon="2.24313">
        <ele>175.4</ele>
        <time>2022-02-08T12:20:57Z</time>
      </trkpt>
      <trkpt lat="48.76819" lon="2.24306">
        <ele>175.6</ele>
        <time>2022-02-08T12:21:02Z</time>
      </trkpt>
      <trkpt lat="48.76824" lon="2.24298">
        <ele>175.8</ele>
        <time>2022-02-08T12:21:08Z</time>
      </trkpt>
      <trkpt lat="48.7683" lon="2.24291">
        <ele>175.9</ele>
        <time>2022-02-08T12:21:13Z</time>
      </trkpt>
      <trkpt lat="48.76836" lon="2.24281">
        <ele>176.1</ele>
        <time>2022-02-08T12:21:19Z</time>
      </trkpt>
      <trkpt lat="48.76844" lon="2.24268">
        <ele>176.5</ele>
        <time>2022-02-08T12:21:25Z</time>
      </trkpt>
      <trkpt lat="48.76851" lon="2.24257">
        <ele>176.8</ele>
        <time>2022-02-08T12:21:31Z</time>
      </trkpt>
      <trkpt lat="48.76855" lon="2.2425">
        <ele>177</ele>
        <time>2022-02-08T12:21:37Z</time>
      </trkpt>
      <trkpt lat="48.76861" lon="2.2424">
        <ele>177.4</ele>
        <time>2022-02-08T12:21:43Z</time>
      </trkpt>
      <trkpt lat="48.76868" lon="2.24228">
        <ele>177.9</ele>
        <time>2022-02-08T12:21:49Z</time>
      </trkpt>
      <trkpt lat="48.76872" lon="2.24218">
        <ele>178.2</ele>
        <time>2022-02-08T12:21:55Z</time>
      </trkpt>
      <trkpt lat="48.76876" lon="2.24209">
        <ele>178.5</ele>
        <time>2022-02-08T12:22:01Z</time>
      </trkpt>
      <trkpt lat="48.76885" lon="2.242">
        <ele>179.1</ele>
        <time>2022-02-08T12:22:07Z</time>
      </trkpt>
      <trkpt lat="48.76893" lon="2.24191">
        <ele>179.6</ele>
        <time>2022-02-08T12:22:13Z</time>
      </trkpt>
      <trkpt lat="48.76897" lon="2.24183">
        <ele>179.9</ele>
        <time>2022-02-08T12:22:19Z</time>
      </trkpt>
      <trkpt lat="48.76898" lon="2.24172">
        <ele>180</ele>
        <time>2022-02-08T12:22:29Z</time>
      </trkpt>
      <trkpt lat="48.76904" lon="2.24165">
        <ele>180.3</ele>
        <time>2022-02-08T12:22:52Z</time>
      </trkpt>
      <trkpt lat="48.76909" lon="2.2416">
        <ele>180.2</ele>
        <time>2022-02-08T12:22:58Z</time>
      </trkpt>
      <trkpt lat="48.76916" lon="2.24151">
        <ele>179.8</ele>
        <time>2022-02-08T12:23:05Z</time>
      </trkpt>
      <trkpt lat="48.76921" lon="2.24145">
        <ele>179.2</ele>
        <time>2022-02-08T12:23:11Z</time>
      </trkpt>
      <trkpt lat="48.76927" lon="2.24135">
        <ele>178.3</ele>
        <time>2022-02-08T12:23:17Z</time>
      </trkpt>
      <trkpt lat="48.76931" lon="2.24117">
        <ele>177</ele>
        <time>2022-02-08T12:23:23Z</time>
      </trkpt>
      <trkpt lat="48.76936" lon="2.24101">
        <ele>175.8</ele>
        <time>2022-02-08T12:23:29Z</time>
      </trkpt>
      <trkpt lat="48.76938" lon="2.24091">
        <ele>175.2</ele>
        <time>2022-02-08T12:23:35Z</time>
      </trkpt>
      <trkpt lat="48.76943" lon="2.24084">
        <ele>174.7</ele>
        <time>2022-02-08T12:23:41Z</time>
      </trkpt>
      <trkpt lat="48.7695" lon="2.24072">
        <ele>174.3</ele>
        <time>2022-02-08T12:23:47Z</time>
      </trkpt>
      <trkpt lat="48.76955" lon="2.24061">
        <ele>174.1</ele>
        <time>2022-02-08T12:23:53Z</time>
      </trkpt>
      <trkpt lat="48.76957" lon="2.24052">
        <ele>173.9</ele>
        <time>2022-02-08T12:23:59Z</time>
      </trkpt>
      <trkpt lat="48.76962" lon="2.24045">
        <ele>173.9</ele>
        <time>2022-02-08T12:24:07Z</time>
      </trkpt>
      <trkpt lat="48.76968" lon="2.2404">
        <ele>174</ele>
        <time>2022-02-08T12:24:13Z</time>
      </trkpt>
      <trkpt lat="48.76973" lon="2.24033">
        <ele>174.2</ele>
        <time>2022-02-08T12:24:20Z</time>
      </trkpt>
      <trkpt lat="48.7698" lon="2.24027">
        <ele>174.5</ele>
        <time>2022-02-08T12:24:27Z</time>
      </trkpt>
      <trkpt lat="48.76985" lon="2.24013">
        <ele>174.8</ele>
        <time>2022-02-08T12:24:32Z</time>
      </trkpt>
      <trkpt lat="48.76988" lon="2.23997">
        <ele>175.2</ele>
        <time>2022-02-08T12:24:38Z</time>
      </trkpt>
      <trkpt lat="48.76992" lon="2.2398">
        <ele>175.9</ele>
        <time>2022-02-08T12:24:44Z</time>
      </trkpt>
      <trkpt lat="48.76997" lon="2.23969">
        <ele>176.5</ele>
        <time>2022-02-08T12:24:50Z</time>
      </trkpt>
      <trkpt lat="48.77002" lon="2.23957">
        <ele>177</ele>
        <time>2022-02-08T12:24:56Z</time>
      </trkpt>
      <trkpt lat="48.77006" lon="2.23948">
        <ele>177.1</ele>
        <time>2022-02-08T12:25:02Z</time>
      </trkpt>
      <trkpt lat="48.77006" lon="2.23937">
        <ele>177.4</ele>
        <time>2022-02-08T12:25:20Z</time>
      </trkpt>
      <trkpt lat="48.77013" lon="2.23925">
        <ele>177.5</ele>
        <time>2022-02-08T12:25:57Z</time>
      </trkpt>
      <trkpt lat="48.7702" lon="2.23923">
        <ele>177.4</ele>
        <time>2022-02-08T12:26:06Z</time>
      </trkpt>
      <trkpt lat="48.77026" lon="2.23925">
        <ele>177.2</ele>
        <time>2022-02-08T12:26:13Z</time>
      </trkpt>
      <trkpt lat="48.77026" lon="2.23914">
        <ele>177.3</ele>
        <time>2022-02-08T12:26:49Z</time>
      </trkpt>
      <trkpt lat="48.77028" lon="2.23904">
        <ele>177.1</ele>
        <time>2022-02-08T12:26:55Z</time>
      </trkpt>
      <trkpt lat="48.77031" lon="2.23893">
        <ele>176.8</ele>
        <time>2022-02-08T12:27:00Z</time>
      </trkpt>
      <trkpt lat="48.77036" lon="2.23883">
        <ele>176.5</ele>
        <time>2022-02-08T12:27:06Z</time>
      </trkpt>
      <trkpt lat="48.7704" lon="2.23873">
        <ele>176.2</ele>
        <time>2022-02-08T12:27:12Z</time>
      </trkpt>
      <trkpt lat="48.77044" lon="2.23863">
        <ele>176</ele>
        <time>2022-02-08T12:27:18Z</time>
      </trkpt>
      <trkpt lat="48.77049" lon="2.23853">
        <ele>175.7</ele>
        <time>2022-02-08T12:27:24Z</time>
      </trkpt>
      <trkpt lat="48.77052" lon="2.23844">
        <ele>175.6</ele>
        <time>2022-02-08T12:27:30Z</time>
      </trkpt>
      <trkpt lat="48.77055" lon="2.23832">
        <ele>175.3</ele>
        <time>2022-02-08T12:27:36Z</time>
      </trkpt>
      <trkpt lat="48.77062" lon="2.23823">
        <ele>174.9</ele>
        <time>2022-02-08T12:27:42Z</time>
      </trkpt>
      <trkpt lat="48.77068" lon="2.23813">
        <ele>174.6</ele>
        <time>2022-02-08T12:27:48Z</time>
      </trkpt>
      <trkpt lat="48.77072" lon="2.23803">
        <ele>174.3</ele>
        <time>2022-02-08T12:27:54Z</time>
      </trkpt>
      <trkpt lat="48.77076" lon="2.23794">
        <ele>174.1</ele>
        <time>2022-02-08T12:28:00Z</time>
      </trkpt>
      <trkpt lat="48.77081" lon="2.23784">
        <ele>173.8</ele>
        <time>2022-02-08T12:28:06Z</time>
      </trkpt>
      <trkpt lat="48.77087" lon="2.23776">
        <ele>173.5</ele>
        <time>2022-02-08T12:28:42Z</time>
      </trkpt>
      <trkpt lat="48.77091" lon="2.23769">
        <ele>173.2</ele>
        <time>2022-02-08T12:29:17Z</time>
      </trkpt>
      <trkpt lat="48.77095" lon="2.2376">
        <ele>172.9</ele>
        <time>2022-02-08T12:29:23Z</time>
      </trkpt>
      <trkpt lat="48.77099" lon="2.23752">
        <ele>172.7</ele>
        <time>2022-02-08T12:29:30Z</time>
      </trkpt>
      <trkpt lat="48.77104" lon="2.23743">
        <ele>172.5</ele>
        <time>2022-02-08T12:29:37Z</time>
      </trkpt>
      <trkpt lat="48.77108" lon="2.2375">
        <ele>172.4</ele>
        <time>2022-02-08T12:29:49Z</time>
      </trkpt>
      <trkpt lat="48.77107" lon="2.23761">
        <ele>172.6</ele>
        <time>2022-02-08T12:29:53Z</time>
      </trkpt>
      <trkpt lat="48.77104" lon="2.2377">
        <ele>172.8</ele>
        <time>2022-02-08T12:29:58Z</time>
      </trkpt>
      <trkpt lat="48.77099" lon="2.23779">
        <ele>173.1</ele>
        <time>2022-02-08T12:30:03Z</time>
      </trkpt>
      <trkpt lat="48.77097" lon="2.23788">
        <ele>173.4</ele>
        <time>2022-02-08T12:30:10Z</time>
      </trkpt>
      <trkpt lat="48.77092" lon="2.23795">
        <ele>173.7</ele>
        <time>2022-02-08T12:31:15Z</time>
      </trkpt>
      <trkpt lat="48.77089" lon="2.23804">
        <ele>174</ele>
        <time>2022-02-08T12:31:24Z</time>
      </trkpt>
      <trkpt lat="48.77085" lon="2.23814">
        <ele>174.4</ele>
        <time>2022-02-08T12:31:29Z</time>
      </trkpt>
      <trkpt lat="48.77088" lon="2.23823">
        <ele>174.5</ele>
        <time>2022-02-08T12:31:35Z</time>
      </trkpt>
      <trkpt lat="48.77095" lon="2.23827">
        <ele>174.2</ele>
        <time>2022-02-08T12:31:56Z</time>
      </trkpt>
      <trkpt lat="48.77099" lon="2.23836">
        <ele>174.1</ele>
        <time>2022-02-08T12:32:03Z</time>
      </trkpt>
      <trkpt lat="48.77103" lon="2.23844">
        <ele>173.9</ele>
        <time>2022-02-08T12:32:10Z</time>
      </trkpt>
      <trkpt lat="48.77109" lon="2.23851">
        <ele>173.6</ele>
        <time>2022-02-08T12:32:33Z</time>
      </trkpt>
      <trkpt lat="48.77102" lon="2.23845">
        <ele>174</ele>
        <time>2022-02-08T12:34:03Z</time>
      </trkpt>
      <trkpt lat="48.77097" lon="2.23836">
        <ele>174.2</ele>
        <time>2022-02-08T12:34:09Z</time>
      </trkpt>
      <trkpt lat="48.77092" lon="2.23829">
        <ele>174.4</ele>
        <time>2022-02-08T12:34:15Z</time>
      </trkpt>
      <trkpt lat="48.77085" lon="2.23824">
        <ele>174.7</ele>
        <time>2022-02-08T12:34:21Z</time>
      </trkpt>
      <trkpt lat="48.77082" lon="2.23815">
        <ele>174.6</ele>
        <time>2022-02-08T12:34:27Z</time>
      </trkpt>
      <trkpt lat="48.77083" lon="2.23803">
        <ele>174.3</ele>
        <time>2022-02-08T12:34:33Z</time>
      </trkpt>
      <trkpt lat="48.77088" lon="2.23791">
        <ele>173.8</ele>
        <time>2022-02-08T12:34:39Z</time>
      </trkpt>
      <trkpt lat="48.77093" lon="2.23782">
        <ele>173.4</ele>
        <time>2022-02-08T12:34:45Z</time>
      </trkpt>
      <trkpt lat="48.77098" lon="2.2377">
        <ele>173</ele>
        <time>2022-02-08T12:34:51Z</time>
      </trkpt>
      <trkpt lat="48.77103" lon="2.23761">
        <ele>172.7</ele>
        <time>2022-02-08T12:34:57Z</time>
      </trkpt>
      <trkpt lat="48.77107" lon="2.2375">
        <ele>172.4</ele>
        <time>2022-02-08T12:35:03Z</time>
      </trkpt>
      <trkpt lat="48.77106" lon="2.23739">
        <ele>172.5</ele>
        <time>2022-02-08T12:35:16Z</time>
      </trkpt>
      <trkpt lat="48.77108" lon="2.23728">
        <ele>172.6</ele>
        <time>2022-02-08T12:35:23Z</time>
      </trkpt>
      <trkpt lat="48.77112" lon="2.23719">
        <ele>172.6</ele>
        <time>2022-02-08T12:35:28Z</time>
      </trkpt>
      <trkpt lat="48.77118" lon="2.23713">
        <ele>172.5</ele>
        <time>2022-02-08T12:35:36Z</time>
      </trkpt>
      <trkpt lat="48.77124" lon="2.23716">
        <ele>172.4</ele>
        <time>2022-02-08T12:35:43Z</time>
      </trkpt>
      <trkpt lat="48.77131" lon="2.23716">
        <ele>172.3</ele>
        <time>2022-02-08T12:35:48Z</time>
      </trkpt>
      <trkpt lat="48.77136" lon="2.23709">
        <ele>172.4</ele>
        <time>2022-02-08T12:35:54Z</time>
      </trkpt>
      <trkpt lat="48.77142" lon="2.23705">
        <ele>172.4</ele>
        <time>2022-02-08T12:36:05Z</time>
      </trkpt>
      <trkpt lat="48.77148" lon="2.23704">
        <ele>172.3</ele>
        <time>2022-02-08T12:36:10Z</time>
      </trkpt>
      <trkpt lat="48.77156" lon="2.23705">
        <ele>172.2</ele>
        <time>2022-02-08T12:36:15Z</time>
      </trkpt>
      <trkpt lat="48.77167" lon="2.23711">
        <ele>172</ele>
        <time>2022-02-08T12:36:21Z</time>
      </trkpt>
      <trkpt lat="48.77175" lon="2.23716">
        <ele>172.2</ele>
        <time>2022-02-08T12:36:27Z</time>
      </trkpt>
      <trkpt lat="48.77183" lon="2.2372">
        <ele>172.4</ele>
        <time>2022-02-08T12:36:33Z</time>
      </trkpt>
      <trkpt lat="48.7719" lon="2.23725">
        <ele>172.6</ele>
        <time>2022-02-08T12:36:40Z</time>
      </trkpt>
      <trkpt lat="48.77198" lon="2.23727">
        <ele>172.9</ele>
        <time>2022-02-08T12:36:45Z</time>
      </trkpt>
      <trkpt lat="48.77208" lon="2.23736">
        <ele>173</ele>
        <time>2022-02-08T12:36:51Z</time>
      </trkpt>
      <trkpt lat="48.77212" lon="2.23744">
        <ele>172.9</ele>
        <time>2022-02-08T12:36:57Z</time>
      </trkpt>
      <trkpt lat="48.77215" lon="2.23753">
        <ele>172.6</ele>
        <time>2022-02-08T12:37:06Z</time>
      </trkpt>
      <trkpt lat="48.77221" lon="2.2375">
        <ele>173</ele>
        <time>2022-02-08T12:37:15Z</time>
      </trkpt>
      <trkpt lat="48.77228" lon="2.23752">
        <ele>173.1</ele>
        <time>2022-02-08T12:37:24Z</time>
      </trkpt>
      <trkpt lat="48.77234" lon="2.23756">
        <ele>173.1</ele>
        <time>2022-02-08T12:37:30Z</time>
      </trkpt>
      <trkpt lat="48.7724" lon="2.23751">
        <ele>173.6</ele>
        <time>2022-02-08T12:37:37Z</time>
      </trkpt>
      <trkpt lat="48.77246" lon="2.23755">
        <ele>173.6</ele>
        <time>2022-02-08T12:37:45Z</time>
      </trkpt>
      <trkpt lat="48.77253" lon="2.23749">
        <ele>174.2</ele>
        <time>2022-02-08T12:37:51Z</time>
      </trkpt>
      <trkpt lat="48.77257" lon="2.23742">
        <ele>174.7</ele>
        <time>2022-02-08T12:37:58Z</time>
      </trkpt>
      <trkpt lat="48.77259" lon="2.2373">
        <ele>175.3</ele>
        <time>2022-02-08T12:38:58Z</time>
      </trkpt>
      <trkpt lat="48.77266" lon="2.23731">
        <ele>175.5</ele>
        <time>2022-02-08T12:39:32Z</time>
      </trkpt>
      <trkpt lat="48.77273" lon="2.23732">
        <ele>175.8</ele>
        <time>2022-02-08T12:39:47Z</time>
      </trkpt>
      <trkpt lat="48.7728" lon="2.23729">
        <ele>176.2</ele>
        <time>2022-02-08T12:40:25Z</time>
      </trkpt>
      <trkpt lat="48.77284" lon="2.23721">
        <ele>176.6</ele>
        <time>2022-02-08T12:40:33Z</time>
      </trkpt>
      <trkpt lat="48.77286" lon="2.23711">
        <ele>177</ele>
        <time>2022-02-08T12:40:40Z</time>
      </trkpt>
      <trkpt lat="48.77287" lon="2.237">
        <ele>177.4</ele>
        <time>2022-02-08T12:40:47Z</time>
      </trkpt>
      <trkpt lat="48.77292" lon="2.23692">
        <ele>177.7</ele>
        <time>2022-02-08T12:40:53Z</time>
      </trkpt>
      <trkpt lat="48.77296" lon="2.23683">
        <ele>178.1</ele>
        <time>2022-02-08T12:40:59Z</time>
      </trkpt>
      <trkpt lat="48.77302" lon="2.23679">
        <ele>178.3</ele>
        <time>2022-02-08T12:41:05Z</time>
      </trkpt>
      <trkpt lat="48.77309" lon="2.23676">
        <ele>178.5</ele>
        <time>2022-02-08T12:41:10Z</time>
      </trkpt>
      <trkpt lat="48.77315" lon="2.23672">
        <ele>178.7</ele>
        <time>2022-02-08T12:41:15Z</time>
      </trkpt>
      <trkpt lat="48.77317" lon="2.23662">
        <ele>178.7</ele>
        <time>2022-02-08T12:41:27Z</time>
      </trkpt>
      <trkpt lat="48.77324" lon="2.23658">
        <ele>178.7</ele>
        <time>2022-02-08T12:41:33Z</time>
      </trkpt>
      <trkpt lat="48.77332" lon="2.23653">
        <ele>178.7</ele>
        <time>2022-02-08T12:41:39Z</time>
      </trkpt>
      <trkpt lat="48.77338" lon="2.23647">
        <ele>178.3</ele>
        <time>2022-02-08T12:41:45Z</time>
      </trkpt>
      <trkpt lat="48.77345" lon="2.23643">
        <ele>177.9</ele>
        <time>2022-02-08T12:41:52Z</time>
      </trkpt>
      <trkpt lat="48.7735" lon="2.23635">
        <ele>177.5</ele>
        <time>2022-02-08T12:42:06Z</time>
      </trkpt>
      <trkpt lat="48.77356" lon="2.23631">
        <ele>177.2</ele>
        <time>2022-02-08T12:42:10Z</time>
      </trkpt>
      <trkpt lat="48.77363" lon="2.23625">
        <ele>176.8</ele>
        <time>2022-02-08T12:42:15Z</time>
      </trkpt>
      <trkpt lat="48.77368" lon="2.2362">
        <ele>176.4</ele>
        <time>2022-02-08T12:42:21Z</time>
      </trkpt>
      <trkpt lat="48.77375" lon="2.23612">
        <ele>176</ele>
        <time>2022-02-08T12:42:27Z</time>
      </trkpt>
      <trkpt lat="48.77377" lon="2.23603">
        <ele>175.8</ele>
        <time>2022-02-08T12:42:33Z</time>
      </trkpt>
      <trkpt lat="48.77381" lon="2.23594">
        <ele>175.5</ele>
        <time>2022-02-08T12:42:51Z</time>
      </trkpt>
      <trkpt lat="48.77385" lon="2.23584">
        <ele>175.2</ele>
        <time>2022-02-08T12:42:58Z</time>
      </trkpt>
      <trkpt lat="48.77386" lon="2.23574">
        <ele>174.9</ele>
        <time>2022-02-08T12:43:09Z</time>
      </trkpt>
      <trkpt lat="48.77384" lon="2.23564">
        <ele>174.8</ele>
        <time>2022-02-08T12:43:16Z</time>
      </trkpt>
      <trkpt lat="48.77381" lon="2.23555">
        <ele>174.7</ele>
        <time>2022-02-08T12:43:21Z</time>
      </trkpt>
      <trkpt lat="48.77377" lon="2.23541">
        <ele>174.5</ele>
        <time>2022-02-08T12:43:27Z</time>
      </trkpt>
      <trkpt lat="48.7737" lon="2.23543">
        <ele>174.6</ele>
        <time>2022-02-08T12:43:34Z</time>
      </trkpt>
      <trkpt lat="48.77377" lon="2.23541">
        <ele>174.5</ele>
        <time>2022-02-08T12:44:23Z</time>
      </trkpt>
      <trkpt lat="48.77384" lon="2.2354">
        <ele>174.4</ele>
        <time>2022-02-08T12:44:39Z</time>
      </trkpt>
      <trkpt lat="48.7739" lon="2.23535">
        <ele>174.2</ele>
        <time>2022-02-08T12:44:49Z</time>
      </trkpt>
      <trkpt lat="48.77396" lon="2.2353">
        <ele>174.1</ele>
        <time>2022-02-08T12:44:56Z</time>
      </trkpt>
      <trkpt lat="48.77401" lon="2.23523">
        <ele>174</ele>
        <time>2022-02-08T12:45:03Z</time>
      </trkpt>
      <trkpt lat="48.77408" lon="2.23519">
        <ele>174</ele>
        <time>2022-02-08T12:45:11Z</time>
      </trkpt>
      <trkpt lat="48.77415" lon="2.23516">
        <ele>174</ele>
        <time>2022-02-08T12:45:16Z</time>
      </trkpt>
      <trkpt lat="48.77424" lon="2.23511">
        <ele>174</ele>
        <time>2022-02-08T12:45:21Z</time>
      </trkpt>
      <trkpt lat="48.77431" lon="2.2351">
        <ele>174</ele>
        <time>2022-02-08T12:45:27Z</time>
      </trkpt>
      <trkpt lat="48.77438" lon="2.2351">
        <ele>174</ele>
        <time>2022-02-08T12:45:33Z</time>
      </trkpt>
      <trkpt lat="48.77445" lon="2.23508">
        <ele>174</ele>
        <time>2022-02-08T12:45:41Z</time>
      </trkpt>
      <trkpt lat="48.77451" lon="2.23505">
        <ele>174</ele>
        <time>2022-02-08T12:45:50Z</time>
      </trkpt>
      <trkpt lat="48.77456" lon="2.23496">
        <ele>173.9</ele>
        <time>2022-02-08T12:46:16Z</time>
      </trkpt>
      <trkpt lat="48.7746" lon="2.23488">
        <ele>173.8</ele>
        <time>2022-02-08T12:46:39Z</time>
      </trkpt>
      <trkpt lat="48.77466" lon="2.23483">
        <ele>173.6</ele>
        <time>2022-02-08T12:46:45Z</time>
      </trkpt>
      <trkpt lat="48.77472" lon="2.23479">
        <ele>173.5</ele>
        <time>2022-02-08T12:46:51Z</time>
      </trkpt>
      <trkpt lat="48.77479" lon="2.23477">
        <ele>173.4</ele>
        <time>2022-02-08T12:47:15Z</time>
      </trkpt>
      <trkpt lat="48.77485" lon="2.23473">
        <ele>173.2</ele>
        <time>2022-02-08T12:47:21Z</time>
      </trkpt>
      <trkpt lat="48.77494" lon="2.23467">
        <ele>172.9</ele>
        <time>2022-02-08T12:47:27Z</time>
      </trkpt>
      <trkpt lat="48.77501" lon="2.2346">
        <ele>172.6</ele>
        <time>2022-02-08T12:47:33Z</time>
      </trkpt>
      <trkpt lat="48.77508" lon="2.23456">
        <ele>172.7</ele>
        <time>2022-02-08T12:47:39Z</time>
      </trkpt>
      <trkpt lat="48.77515" lon="2.23453">
        <ele>172.8</ele>
        <time>2022-02-08T12:47:46Z</time>
      </trkpt>
      <trkpt lat="48.77516" lon="2.23443">
        <ele>172.5</ele>
        <time>2022-02-08T12:47:56Z</time>
      </trkpt>
      <trkpt lat="48.77511" lon="2.23435">
        <ele>172.1</ele>
        <time>2022-02-08T12:48:01Z</time>
      </trkpt>
      <trkpt lat="48.77506" lon="2.23427">
        <ele>171.6</ele>
        <time>2022-02-08T12:48:06Z</time>
      </trkpt>
      <trkpt lat="48.77504" lon="2.23417">
        <ele>171.2</ele>
        <time>2022-02-08T12:48:13Z</time>
      </trkpt>
      <trkpt lat="48.77498" lon="2.23411">
        <ele>171.1</ele>
        <time>2022-02-08T12:48:22Z</time>
      </trkpt>
      <trkpt lat="48.77488" lon="2.23415">
        <ele>171.4</ele>
        <time>2022-02-08T12:48:36Z</time>
      </trkpt>
      <trkpt lat="48.77482" lon="2.2341">
        <ele>171.6</ele>
        <time>2022-02-08T12:48:42Z</time>
      </trkpt>
      <trkpt lat="48.77475" lon="2.23409">
        <ele>171.9</ele>
        <time>2022-02-08T12:48:48Z</time>
      </trkpt>
      <trkpt lat="48.7747" lon="2.23414">
        <ele>172.1</ele>
        <time>2022-02-08T12:48:54Z</time>
      </trkpt>
      <trkpt lat="48.77464" lon="2.23421">
        <ele>172.4</ele>
        <time>2022-02-08T12:49:00Z</time>
      </trkpt>
      <trkpt lat="48.77458" lon="2.23425">
        <ele>172.7</ele>
        <time>2022-02-08T12:49:05Z</time>
      </trkpt>
      <trkpt lat="48.77451" lon="2.23428">
        <ele>172.9</ele>
        <time>2022-02-08T12:49:10Z</time>
      </trkpt>
      <trkpt lat="48.77444" lon="2.23424">
        <ele>173.1</ele>
        <time>2022-02-08T12:49:15Z</time>
      </trkpt>
      <trkpt lat="48.77437" lon="2.23419">
        <ele>173.3</ele>
        <time>2022-02-08T12:49:21Z</time>
      </trkpt>
      <trkpt lat="48.7743" lon="2.23413">
        <ele>173.5</ele>
        <time>2022-02-08T12:49:27Z</time>
      </trkpt>
      <trkpt lat="48.77429" lon="2.23402">
        <ele>173.4</ele>
        <time>2022-02-08T12:49:34Z</time>
      </trkpt>
      <trkpt lat="48.77425" lon="2.23394">
        <ele>173.5</ele>
        <time>2022-02-08T12:49:42Z</time>
      </trkpt>
      <trkpt lat="48.77423" lon="2.23384">
        <ele>173.4</ele>
        <time>2022-02-08T12:49:49Z</time>
      </trkpt>
      <trkpt lat="48.77419" lon="2.23376">
        <ele>173.4</ele>
        <time>2022-02-08T12:49:56Z</time>
      </trkpt>
      <trkpt lat="48.77412" lon="2.2338">
        <ele>173.6</ele>
        <time>2022-02-08T12:50:06Z</time>
      </trkpt>
      <trkpt lat="48.77411" lon="2.2339">
        <ele>173.7</ele>
        <time>2022-02-08T12:50:16Z</time>
      </trkpt>
      <trkpt lat="48.77408" lon="2.23399">
        <ele>173.8</ele>
        <time>2022-02-08T12:50:25Z</time>
      </trkpt>
      <trkpt lat="48.77402" lon="2.23408">
        <ele>173.9</ele>
        <time>2022-02-08T12:50:30Z</time>
      </trkpt>
      <trkpt lat="48.77398" lon="2.23417">
        <ele>174</ele>
        <time>2022-02-08T12:50:33Z</time>
      </trkpt>
      <trkpt lat="48.77393" lon="2.23433">
        <ele>173.9</ele>
        <time>2022-02-08T12:50:39Z</time>
      </trkpt>
      <trkpt lat="48.77387" lon="2.23444">
        <ele>173.9</ele>
        <time>2022-02-08T12:50:45Z</time>
      </trkpt>
      <trkpt lat="48.77382" lon="2.23453">
        <ele>173.8</ele>
        <time>2022-02-08T12:50:51Z</time>
      </trkpt>
      <trkpt lat="48.77378" lon="2.23461">
        <ele>173.8</ele>
        <time>2022-02-08T12:50:57Z</time>
      </trkpt>
      <trkpt lat="48.77377" lon="2.23472">
        <ele>173.7</ele>
        <time>2022-02-08T12:51:05Z</time>
      </trkpt>
      <trkpt lat="48.77375" lon="2.23482">
        <ele>173.6</ele>
        <time>2022-02-08T12:51:13Z</time>
      </trkpt>
      <trkpt lat="48.77375" lon="2.23496">
        <ele>173.5</ele>
        <time>2022-02-08T12:51:29Z</time>
      </trkpt>
      <trkpt lat="48.77375" lon="2.23508">
        <ele>173.7</ele>
        <time>2022-02-08T12:51:37Z</time>
      </trkpt>
      <trkpt lat="48.77375" lon="2.23518">
        <ele>173.9</ele>
        <time>2022-02-08T12:51:43Z</time>
      </trkpt>
      <trkpt lat="48.77376" lon="2.23528">
        <ele>174.2</ele>
        <time>2022-02-08T12:51:54Z</time>
      </trkpt>
      <trkpt lat="48.77376" lon="2.23539">
        <ele>174.4</ele>
        <time>2022-02-08T12:52:05Z</time>
      </trkpt>
      <trkpt lat="48.77369" lon="2.23545">
        <ele>174.7</ele>
        <time>2022-02-08T12:52:22Z</time>
      </trkpt>
      <trkpt lat="48.77363" lon="2.23547">
        <ele>174.8</ele>
        <time>2022-02-08T12:52:27Z</time>
      </trkpt>
      <trkpt lat="48.77354" lon="2.23554">
        <ele>175.2</ele>
        <time>2022-02-08T12:52:33Z</time>
      </trkpt>
      <trkpt lat="48.77345" lon="2.23562">
        <ele>175.7</ele>
        <time>2022-02-08T12:52:39Z</time>
      </trkpt>
      <trkpt lat="48.77338" lon="2.23563">
        <ele>175.9</ele>
        <time>2022-02-08T12:52:45Z</time>
      </trkpt>
      <trkpt lat="48.77331" lon="2.23569">
        <ele>176.3</ele>
        <time>2022-02-08T12:52:51Z</time>
      </trkpt>
      <trkpt lat="48.77324" lon="2.23574">
        <ele>176.5</ele>
        <time>2022-02-08T12:52:58Z</time>
      </trkpt>
      <trkpt lat="48.77318" lon="2.23578">
        <ele>176.7</ele>
        <time>2022-02-08T12:53:03Z</time>
      </trkpt>
      <trkpt lat="48.7731" lon="2.23581">
        <ele>176.9</ele>
        <time>2022-02-08T12:53:09Z</time>
      </trkpt>
      <trkpt lat="48.77302" lon="2.23584">
        <ele>177</ele>
        <time>2022-02-08T12:53:15Z</time>
      </trkpt>
      <trkpt lat="48.77295" lon="2.23589">
        <ele>177.1</ele>
        <time>2022-02-08T12:53:21Z</time>
      </trkpt>
      <trkpt lat="48.77288" lon="2.23596">
        <ele>177.2</ele>
        <time>2022-02-08T12:53:27Z</time>
      </trkpt>
      <trkpt lat="48.77278" lon="2.23602">
        <ele>177.3</ele>
        <time>2022-02-08T12:53:33Z</time>
      </trkpt>
      <trkpt lat="48.77271" lon="2.23605">
        <ele>177.3</ele>
        <time>2022-02-08T12:53:39Z</time>
      </trkpt>
      <trkpt lat="48.77264" lon="2.23612">
        <ele>177.4</ele>
        <time>2022-02-08T12:53:45Z</time>
      </trkpt>
      <trkpt lat="48.77257" lon="2.23616">
        <ele>177.4</ele>
        <time>2022-02-08T12:53:51Z</time>
      </trkpt>
      <trkpt lat="48.77249" lon="2.23619">
        <ele>177.4</ele>
        <time>2022-02-08T12:53:57Z</time>
      </trkpt>
      <trkpt lat="48.77242" lon="2.23624">
        <ele>177.1</ele>
        <time>2022-02-08T12:54:03Z</time>
      </trkpt>
      <trkpt lat="48.77235" lon="2.2363">
        <ele>176.7</ele>
        <time>2022-02-08T12:54:09Z</time>
      </trkpt>
      <trkpt lat="48.77227" lon="2.23635">
        <ele>176.3</ele>
        <time>2022-02-08T12:54:15Z</time>
      </trkpt>
      <trkpt lat="48.7722" lon="2.23635">
        <ele>176</ele>
        <time>2022-02-08T12:54:26Z</time>
      </trkpt>
      <trkpt lat="48.77216" lon="2.23625">
        <ele>175.7</ele>
        <time>2022-02-08T12:54:37Z</time>
      </trkpt>
      <trkpt lat="48.77214" lon="2.23615">
        <ele>175.5</ele>
        <time>2022-02-08T12:54:43Z</time>
      </trkpt>
      <trkpt lat="48.77209" lon="2.23604">
        <ele>175.2</ele>
        <time>2022-02-08T12:55:03Z</time>
      </trkpt>
      <trkpt lat="48.77201" lon="2.23607">
        <ele>174.8</ele>
        <time>2022-02-08T12:55:10Z</time>
      </trkpt>
      <trkpt lat="48.77205" lon="2.23616">
        <ele>175</ele>
        <time>2022-02-08T12:58:52Z</time>
      </trkpt>
      <trkpt lat="48.77209" lon="2.23624">
        <ele>175.3</ele>
        <time>2022-02-08T12:59:01Z</time>
      </trkpt>
      <trkpt lat="48.77212" lon="2.23633">
        <ele>175.5</ele>
        <time>2022-02-08T12:59:08Z</time>
      </trkpt>
      <trkpt lat="48.77208" lon="2.2364">
        <ele>175.3</ele>
        <time>2022-02-08T12:59:28Z</time>
      </trkpt>
      <trkpt lat="48.77198" lon="2.23648">
        <ele>174.8</ele>
        <time>2022-02-08T12:59:58Z</time>
      </trkpt>
      <trkpt lat="48.77195" lon="2.23657">
        <ele>174.7</ele>
        <time>2022-02-08T13:00:07Z</time>
      </trkpt>
      <trkpt lat="48.77184" lon="2.23653">
        <ele>174</ele>
        <time>2022-02-08T13:00:51Z</time>
      </trkpt>
      <trkpt lat="48.7718" lon="2.23645">
        <ele>173.8</ele>
        <time>2022-02-08T13:00:58Z</time>
      </trkpt>
      <trkpt lat="48.77178" lon="2.23635">
        <ele>173.6</ele>
        <time>2022-02-08T13:01:07Z</time>
      </trkpt>
      <trkpt lat="48.77172" lon="2.23619">
        <ele>173.3</ele>
        <time>2022-02-08T13:02:08Z</time>
      </trkpt>
      <trkpt lat="48.77166" lon="2.23605">
        <ele>173</ele>
        <time>2022-02-08T13:02:43Z</time>
      </trkpt>
      <trkpt lat="48.77169" lon="2.23615">
        <ele>173.1</ele>
        <time>2022-02-08T13:03:44Z</time>
      </trkpt>
      <trkpt lat="48.77169" lon="2.23626">
        <ele>173.1</ele>
        <time>2022-02-08T13:03:50Z</time>
      </trkpt>
      <trkpt lat="48.7717" lon="2.23639">
        <ele>173.2</ele>
        <time>2022-02-08T13:03:58Z</time>
      </trkpt>
      <trkpt lat="48.77172" lon="2.23649">
        <ele>173.3</ele>
        <time>2022-02-08T13:04:05Z</time>
      </trkpt>
      <trkpt lat="48.77169" lon="2.23658">
        <ele>173.1</ele>
        <time>2022-02-08T13:04:22Z</time>
      </trkpt>
      <trkpt lat="48.77177" lon="2.23659">
        <ele>173.6</ele>
        <time>2022-02-08T13:04:35Z</time>
      </trkpt>
      <trkpt lat="48.77184" lon="2.23655">
        <ele>174</ele>
        <time>2022-02-08T13:04:39Z</time>
      </trkpt>
      <trkpt lat="48.7719" lon="2.23651">
        <ele>174.3</ele>
        <time>2022-02-08T13:04:46Z</time>
      </trkpt>
      <trkpt lat="48.77195" lon="2.23643">
        <ele>174.6</ele>
        <time>2022-02-08T13:04:53Z</time>
      </trkpt>
      <trkpt lat="48.77194" lon="2.23632">
        <ele>174.5</ele>
        <time>2022-02-08T13:05:03Z</time>
      </trkpt>
      <trkpt lat="48.77198" lon="2.23624">
        <ele>174.7</ele>
        <time>2022-02-08T13:05:11Z</time>
      </trkpt>
      <trkpt lat="48.77202" lon="2.23617">
        <ele>174.9</ele>
        <time>2022-02-08T13:05:17Z</time>
      </trkpt>
      <trkpt lat="48.77203" lon="2.23606">
        <ele>174.9</ele>
        <time>2022-02-08T13:05:25Z</time>
      </trkpt>
      <trkpt lat="48.77199" lon="2.23599">
        <ele>174.6</ele>
        <time>2022-02-08T13:05:32Z</time>
      </trkpt>
      <trkpt lat="48.77192" lon="2.23598">
        <ele>174.3</ele>
        <time>2022-02-08T13:05:38Z</time>
      </trkpt>
      <trkpt lat="48.77184" lon="2.23598">
        <ele>173.9</ele>
        <time>2022-02-08T13:05:44Z</time>
      </trkpt>
      <trkpt lat="48.77179" lon="2.2359">
        <ele>173.6</ele>
        <time>2022-02-08T13:05:54Z</time>
      </trkpt>
      <trkpt lat="48.77176" lon="2.23581">
        <ele>173.4</ele>
        <time>2022-02-08T13:06:04Z</time>
      </trkpt>
      <trkpt lat="48.77168" lon="2.23573">
        <ele>172.8</ele>
        <time>2022-02-08T13:06:14Z</time>
      </trkpt>
      <trkpt lat="48.77164" lon="2.23563">
        <ele>172.5</ele>
        <time>2022-02-08T13:06:53Z</time>
      </trkpt>
      <trkpt lat="48.77158" lon="2.23559">
        <ele>172.4</ele>
        <time>2022-02-08T13:07:21Z</time>
      </trkpt>
      <trkpt lat="48.77161" lon="2.23569">
        <ele>172.7</ele>
        <time>2022-02-08T13:08:34Z</time>
      </trkpt>
      <trkpt lat="48.77166" lon="2.23575">
        <ele>172.8</ele>
        <time>2022-02-08T13:08:41Z</time>
      </trkpt>
      <trkpt lat="48.77172" lon="2.23581">
        <ele>173.2</ele>
        <time>2022-02-08T13:08:49Z</time>
      </trkpt>
      <trkpt lat="48.77177" lon="2.23588">
        <ele>173.5</ele>
        <time>2022-02-08T13:09:00Z</time>
      </trkpt>
      <trkpt lat="48.77181" lon="2.23596">
        <ele>173.7</ele>
        <time>2022-02-08T13:09:34Z</time>
      </trkpt>
      <trkpt lat="48.77182" lon="2.23606">
        <ele>173.8</ele>
        <time>2022-02-08T13:09:43Z</time>
      </trkpt>
      <trkpt lat="48.77188" lon="2.23609">
        <ele>174.1</ele>
        <time>2022-02-08T13:09:52Z</time>
      </trkpt>
      <trkpt lat="48.77195" lon="2.23605">
        <ele>174.4</ele>
        <time>2022-02-08T13:10:00Z</time>
      </trkpt>
      <trkpt lat="48.77202" lon="2.23607">
        <ele>174.8</ele>
        <time>2022-02-08T13:10:07Z</time>
      </trkpt>
      <trkpt lat="48.77207" lon="2.23614">
        <ele>175.1</ele>
        <time>2022-02-08T13:10:33Z</time>
      </trkpt>
      <trkpt lat="48.77211" lon="2.23622">
        <ele>175.4</ele>
        <time>2022-02-08T13:10:41Z</time>
      </trkpt>
      <trkpt lat="48.7721" lon="2.23633">
        <ele>175.4</ele>
        <time>2022-02-08T13:10:48Z</time>
      </trkpt>
      <trkpt lat="48.77207" lon="2.23642">
        <ele>175.3</ele>
        <time>2022-02-08T13:10:54Z</time>
      </trkpt>
      <trkpt lat="48.77201" lon="2.23647">
        <ele>175</ele>
        <time>2022-02-08T13:11:01Z</time>
      </trkpt>
      <trkpt lat="48.77194" lon="2.23651">
        <ele>174.6</ele>
        <time>2022-02-08T13:11:08Z</time>
      </trkpt>
      <trkpt lat="48.77187" lon="2.23653">
        <ele>174.2</ele>
        <time>2022-02-08T13:11:14Z</time>
      </trkpt>
      <trkpt lat="48.7718" lon="2.23658">
        <ele>173.8</ele>
        <time>2022-02-08T13:11:20Z</time>
      </trkpt>
      <trkpt lat="48.77174" lon="2.23661">
        <ele>173.4</ele>
        <time>2022-02-08T13:11:27Z</time>
      </trkpt>
      <trkpt lat="48.77167" lon="2.23666">
        <ele>173</ele>
        <time>2022-02-08T13:11:34Z</time>
      </trkpt>
      <trkpt lat="48.77161" lon="2.23669">
        <ele>172.9</ele>
        <time>2022-02-08T13:11:39Z</time>
      </trkpt>
      <trkpt lat="48.77153" lon="2.23675">
        <ele>172.8</ele>
        <time>2022-02-08T13:11:45Z</time>
      </trkpt>
      <trkpt lat="48.77147" lon="2.23678">
        <ele>172.8</ele>
        <time>2022-02-08T13:11:52Z</time>
      </trkpt>
      <trkpt lat="48.7714" lon="2.23683">
        <ele>172.7</ele>
        <time>2022-02-08T13:12:00Z</time>
      </trkpt>
      <trkpt lat="48.77133" lon="2.23687">
        <ele>172.7</ele>
        <time>2022-02-08T13:12:07Z</time>
      </trkpt>
      <trkpt lat="48.77127" lon="2.23687">
        <ele>172.7</ele>
        <time>2022-02-08T13:12:23Z</time>
      </trkpt>
      <trkpt lat="48.77121" lon="2.23683">
        <ele>172.8</ele>
        <time>2022-02-08T13:12:33Z</time>
      </trkpt>
      <trkpt lat="48.77115" lon="2.23678">
        <ele>172.9</ele>
        <time>2022-02-08T13:12:40Z</time>
      </trkpt>
      <trkpt lat="48.77108" lon="2.23674">
        <ele>172.9</ele>
        <time>2022-02-08T13:12:45Z</time>
      </trkpt>
      <trkpt lat="48.77099" lon="2.23667">
        <ele>173</ele>
        <time>2022-02-08T13:12:51Z</time>
      </trkpt>
      <trkpt lat="48.77091" lon="2.23661">
        <ele>173.1</ele>
        <time>2022-02-08T13:12:57Z</time>
      </trkpt>
      <trkpt lat="48.77084" lon="2.23656">
        <ele>173.1</ele>
        <time>2022-02-08T13:13:03Z</time>
      </trkpt>
      <trkpt lat="48.77076" lon="2.2365">
        <ele>172.9</ele>
        <time>2022-02-08T13:13:09Z</time>
      </trkpt>
      <trkpt lat="48.77068" lon="2.23643">
        <ele>172.5</ele>
        <time>2022-02-08T13:13:15Z</time>
      </trkpt>
      <trkpt lat="48.77061" lon="2.2364">
        <ele>172.2</ele>
        <time>2022-02-08T13:13:21Z</time>
      </trkpt>
      <trkpt lat="48.77053" lon="2.23639">
        <ele>171.8</ele>
        <time>2022-02-08T13:13:27Z</time>
      </trkpt>
      <trkpt lat="48.77045" lon="2.23634">
        <ele>171.3</ele>
        <time>2022-02-08T13:13:33Z</time>
      </trkpt>
      <trkpt lat="48.77037" lon="2.23629">
        <ele>170.8</ele>
        <time>2022-02-08T13:13:39Z</time>
      </trkpt>
      <trkpt lat="48.77029" lon="2.23624">
        <ele>170.2</ele>
        <time>2022-02-08T13:13:45Z</time>
      </trkpt>
      <trkpt lat="48.77023" lon="2.23621">
        <ele>169.8</ele>
        <time>2022-02-08T13:13:51Z</time>
      </trkpt>
      <trkpt lat="48.77016" lon="2.23614">
        <ele>169.2</ele>
        <time>2022-02-08T13:13:57Z</time>
      </trkpt>
      <trkpt lat="48.77005" lon="2.23611">
        <ele>168.3</ele>
        <time>2022-02-08T13:14:03Z</time>
      </trkpt>
      <trkpt lat="48.76996" lon="2.23604">
        <ele>167.6</ele>
        <time>2022-02-08T13:14:09Z</time>
      </trkpt>
      <trkpt lat="48.76992" lon="2.23596">
        <ele>167.1</ele>
        <time>2022-02-08T13:14:15Z</time>
      </trkpt>
      <trkpt lat="48.76985" lon="2.23599">
        <ele>166.9</ele>
        <time>2022-02-08T13:14:36Z</time>
      </trkpt>
      <trkpt lat="48.76979" lon="2.23604">
        <ele>166.9</ele>
        <time>2022-02-08T13:14:42Z</time>
      </trkpt>
      <trkpt lat="48.76974" lon="2.2361">
        <ele>167</ele>
        <time>2022-02-08T13:14:49Z</time>
      </trkpt>
      <trkpt lat="48.76969" lon="2.23617">
        <ele>167.3</ele>
        <time>2022-02-08T13:14:54Z</time>
      </trkpt>
      <trkpt lat="48.76962" lon="2.23618">
        <ele>167.1</ele>
        <time>2022-02-08T13:15:01Z</time>
      </trkpt>
      <trkpt lat="48.76956" lon="2.23622">
        <ele>167.2</ele>
        <time>2022-02-08T13:15:07Z</time>
      </trkpt>
      <trkpt lat="48.76949" lon="2.23621">
        <ele>167</ele>
        <time>2022-02-08T13:15:10Z</time>
      </trkpt>
      <trkpt lat="48.76937" lon="2.23624">
        <ele>166.9</ele>
        <time>2022-02-08T13:15:15Z</time>
      </trkpt>
      <trkpt lat="48.76923" lon="2.23626">
        <ele>166.8</ele>
        <time>2022-02-08T13:15:21Z</time>
      </trkpt>
      <trkpt lat="48.76914" lon="2.23632">
        <ele>167.1</ele>
        <time>2022-02-08T13:15:27Z</time>
      </trkpt>
      <trkpt lat="48.76911" lon="2.23641">
        <ele>167.8</ele>
        <time>2022-02-08T13:15:33Z</time>
      </trkpt>
      <trkpt lat="48.76904" lon="2.23636">
        <ele>166.7</ele>
        <time>2022-02-08T13:15:42Z</time>
      </trkpt>
      <trkpt lat="48.76899" lon="2.2363">
        <ele>165.7</ele>
        <time>2022-02-08T13:15:47Z</time>
      </trkpt>
      <trkpt lat="48.76894" lon="2.23622">
        <ele>164.4</ele>
        <time>2022-02-08T13:15:53Z</time>
      </trkpt>
      <trkpt lat="48.76889" lon="2.23616">
        <ele>163.3</ele>
        <time>2022-02-08T13:16:01Z</time>
      </trkpt>
      <trkpt lat="48.76883" lon="2.23611">
        <ele>162.3</ele>
        <time>2022-02-08T13:16:09Z</time>
      </trkpt>
      <trkpt lat="48.76877" lon="2.23606">
        <ele>161.2</ele>
        <time>2022-02-08T13:16:15Z</time>
      </trkpt>
      <trkpt lat="48.7687" lon="2.23603">
        <ele>160.3</ele>
        <time>2022-02-08T13:16:23Z</time>
      </trkpt>
      <trkpt lat="48.76864" lon="2.23599">
        <ele>159.4</ele>
        <time>2022-02-08T13:16:43Z</time>
      </trkpt>
      <trkpt lat="48.76856" lon="2.23597">
        <ele>158.5</ele>
        <time>2022-02-08T13:16:53Z</time>
      </trkpt>
      <trkpt lat="48.7685" lon="2.23593">
        <ele>157.5</ele>
        <time>2022-02-08T13:16:58Z</time>
      </trkpt>
      <trkpt lat="48.76844" lon="2.23587">
        <ele>156.3</ele>
        <time>2022-02-08T13:17:03Z</time>
      </trkpt>
      <trkpt lat="48.76839" lon="2.23579">
        <ele>154.8</ele>
        <time>2022-02-08T13:17:12Z</time>
      </trkpt>
      <trkpt lat="48.76833" lon="2.23575">
        <ele>153.8</ele>
        <time>2022-02-08T13:17:19Z</time>
      </trkpt>
      <trkpt lat="48.76828" lon="2.23568">
        <ele>152.9</ele>
        <time>2022-02-08T13:17:26Z</time>
      </trkpt>
      <trkpt lat="48.76824" lon="2.23559">
        <ele>151.8</ele>
        <time>2022-02-08T13:17:32Z</time>
      </trkpt>
      <trkpt lat="48.76818" lon="2.23552">
        <ele>150.9</ele>
        <time>2022-02-08T13:17:38Z</time>
      </trkpt>
      <trkpt lat="48.76812" lon="2.23545">
        <ele>150.1</ele>
        <time>2022-02-08T13:17:44Z</time>
      </trkpt>
      <trkpt lat="48.76807" lon="2.23539">
        <ele>149.4</ele>
        <time>2022-02-08T13:17:49Z</time>
      </trkpt>
      <trkpt lat="48.76801" lon="2.23531">
        <ele>148.5</ele>
        <time>2022-02-08T13:17:55Z</time>
      </trkpt>
      <trkpt lat="48.76795" lon="2.23527">
        <ele>148.1</ele>
        <time>2022-02-08T13:18:03Z</time>
      </trkpt>
      <trkpt lat="48.7679" lon="2.2352">
        <ele>147.3</ele>
        <time>2022-02-08T13:18:09Z</time>
      </trkpt>
      <trkpt lat="48.76785" lon="2.23514">
        <ele>146.7</ele>
        <time>2022-02-08T13:18:15Z</time>
      </trkpt>
      <trkpt lat="48.76779" lon="2.2351">
        <ele>146.3</ele>
        <time>2022-02-08T13:18:21Z</time>
      </trkpt>
      <trkpt lat="48.76773" lon="2.23503">
        <ele>145.6</ele>
        <time>2022-02-08T13:18:28Z</time>
      </trkpt>
      <trkpt lat="48.76765" lon="2.235">
        <ele>145.5</ele>
        <time>2022-02-08T13:18:37Z</time>
      </trkpt>
      <trkpt lat="48.76759" lon="2.235">
        <ele>145.7</ele>
        <time>2022-02-08T13:18:43Z</time>
      </trkpt>
      <trkpt lat="48.76753" lon="2.23494">
        <ele>145.4</ele>
        <time>2022-02-08T13:18:58Z</time>
      </trkpt>
      <trkpt lat="48.76746" lon="2.23491">
        <ele>145.7</ele>
        <time>2022-02-08T13:19:06Z</time>
      </trkpt>
      <trkpt lat="48.76739" lon="2.23492">
        <ele>146.6</ele>
        <time>2022-02-08T13:19:13Z</time>
      </trkpt>
      <trkpt lat="48.76732" lon="2.23495">
        <ele>147.7</ele>
        <time>2022-02-08T13:19:18Z</time>
      </trkpt>
      <trkpt lat="48.76725" lon="2.23497">
        <ele>148.7</ele>
        <time>2022-02-08T13:19:24Z</time>
      </trkpt>
      <trkpt lat="48.76718" lon="2.23501">
        <ele>149.9</ele>
        <time>2022-02-08T13:19:30Z</time>
      </trkpt>
      <trkpt lat="48.76712" lon="2.23507">
        <ele>151.2</ele>
        <time>2022-02-08T13:19:35Z</time>
      </trkpt>
      <trkpt lat="48.76706" lon="2.23511">
        <ele>152.2</ele>
        <time>2022-02-08T13:19:40Z</time>
      </trkpt>
      <trkpt lat="48.76699" lon="2.23511">
        <ele>153</ele>
        <time>2022-02-08T13:19:52Z</time>
      </trkpt>
      <trkpt lat="48.76692" lon="2.23506">
        <ele>153.4</ele>
        <time>2022-02-08T13:19:57Z</time>
      </trkpt>
      <trkpt lat="48.76685" lon="2.235">
        <ele>153.8</ele>
        <time>2022-02-08T13:20:03Z</time>
      </trkpt>
      <trkpt lat="48.7668" lon="2.23492">
        <ele>153.4</ele>
        <time>2022-02-08T13:20:11Z</time>
      </trkpt>
      <trkpt lat="48.76682" lon="2.23482">
        <ele>151.9</ele>
        <time>2022-02-08T13:20:15Z</time>
      </trkpt>
      <trkpt lat="48.76685" lon="2.23472">
        <ele>150.4</ele>
        <time>2022-02-08T13:20:21Z</time>
      </trkpt>
      <trkpt lat="48.7669" lon="2.23461">
        <ele>148.6</ele>
        <time>2022-02-08T13:20:27Z</time>
      </trkpt>
      <trkpt lat="48.76694" lon="2.23451">
        <ele>147</ele>
        <time>2022-02-08T13:20:34Z</time>
      </trkpt>
      <trkpt lat="48.76696" lon="2.23439">
        <ele>145.5</ele>
        <time>2022-02-08T13:20:40Z</time>
      </trkpt>
      <trkpt lat="48.76696" lon="2.23429">
        <ele>144.3</ele>
        <time>2022-02-08T13:20:45Z</time>
      </trkpt>
      <trkpt lat="48.76697" lon="2.23416">
        <ele>142.7</ele>
        <time>2022-02-08T13:20:51Z</time>
      </trkpt>
      <trkpt lat="48.76696" lon="2.23404">
        <ele>140.4</ele>
        <time>2022-02-08T13:20:57Z</time>
      </trkpt>
      <trkpt lat="48.76692" lon="2.23389">
        <ele>137.6</ele>
        <time>2022-02-08T13:21:03Z</time>
      </trkpt>
      <trkpt lat="48.76687" lon="2.23379">
        <ele>135.8</ele>
        <time>2022-02-08T13:21:09Z</time>
      </trkpt>
      <trkpt lat="48.76681" lon="2.23374">
        <ele>135.1</ele>
        <time>2022-02-08T13:21:16Z</time>
      </trkpt>
      <trkpt lat="48.76674" lon="2.23368">
        <ele>134.2</ele>
        <time>2022-02-08T13:21:22Z</time>
      </trkpt>
      <trkpt lat="48.76667" lon="2.23365">
        <ele>133.8</ele>
        <time>2022-02-08T13:21:28Z</time>
      </trkpt>
      <trkpt lat="48.76662" lon="2.23359">
        <ele>133</ele>
        <time>2022-02-08T13:21:34Z</time>
      </trkpt>
      <trkpt lat="48.76654" lon="2.23356">
        <ele>133.1</ele>
        <time>2022-02-08T13:21:40Z</time>
      </trkpt>
      <trkpt lat="48.76648" lon="2.23351">
        <ele>132.7</ele>
        <time>2022-02-08T13:21:46Z</time>
      </trkpt>
      <trkpt lat="48.76642" lon="2.23346">
        <ele>132.3</ele>
        <time>2022-02-08T13:21:51Z</time>
      </trkpt>
      <trkpt lat="48.76633" lon="2.23342">
        <ele>132.4</ele>
        <time>2022-02-08T13:21:57Z</time>
      </trkpt>
      <trkpt lat="48.76626" lon="2.23337">
        <ele>132.1</ele>
        <time>2022-02-08T13:22:03Z</time>
      </trkpt>
      <trkpt lat="48.7662" lon="2.23331">
        <ele>131.7</ele>
        <time>2022-02-08T13:22:09Z</time>
      </trkpt>
      <trkpt lat="48.76613" lon="2.23326">
        <ele>131.7</ele>
        <time>2022-02-08T13:22:15Z</time>
      </trkpt>
      <trkpt lat="48.76607" lon="2.23321">
        <ele>131.6</ele>
        <time>2022-02-08T13:22:22Z</time>
      </trkpt>
      <trkpt lat="48.76601" lon="2.23315">
        <ele>131.5</ele>
        <time>2022-02-08T13:22:31Z</time>
      </trkpt>
      <trkpt lat="48.76594" lon="2.23313">
        <ele>132</ele>
        <time>2022-02-08T13:22:37Z</time>
      </trkpt>
      <trkpt lat="48.76587" lon="2.23313">
        <ele>132.9</ele>
        <time>2022-02-08T13:22:43Z</time>
      </trkpt>
      <trkpt lat="48.76591" lon="2.23303">
        <ele>131</ele>
        <time>2022-02-08T13:23:12Z</time>
      </trkpt>
      <trkpt lat="48.76593" lon="2.23293">
        <ele>129.4</ele>
        <time>2022-02-08T13:23:16Z</time>
      </trkpt>
      <trkpt lat="48.76594" lon="2.23283">
        <ele>127.9</ele>
        <time>2022-02-08T13:23:21Z</time>
      </trkpt>
      <trkpt lat="48.76587" lon="2.23282">
        <ele>128.7</ele>
        <time>2022-02-08T13:23:39Z</time>
      </trkpt>
      <trkpt lat="48.7658" lon="2.2328">
        <ele>129.4</ele>
        <time>2022-02-08T13:23:52Z</time>
      </trkpt>
      <trkpt lat="48.76574" lon="2.23278">
        <ele>129.9</ele>
        <time>2022-02-08T13:23:57Z</time>
      </trkpt>
      <trkpt lat="48.76569" lon="2.23271">
        <ele>129.8</ele>
        <time>2022-02-08T13:24:07Z</time>
      </trkpt>
      <trkpt lat="48.76563" lon="2.23267">
        <ele>130.2</ele>
        <time>2022-02-08T13:24:31Z</time>
      </trkpt>
      <trkpt lat="48.76556" lon="2.23264">
        <ele>130.9</ele>
        <time>2022-02-08T13:24:38Z</time>
      </trkpt>
      <trkpt lat="48.76549" lon="2.23259">
        <ele>131.6</ele>
        <time>2022-02-08T13:24:44Z</time>
      </trkpt>
      <trkpt lat="48.76543" lon="2.23253">
        <ele>132</ele>
        <time>2022-02-08T13:24:49Z</time>
      </trkpt>
      <trkpt lat="48.76536" lon="2.23248">
        <ele>132.8</ele>
        <time>2022-02-08T13:24:56Z</time>
      </trkpt>
      <trkpt lat="48.76532" lon="2.23241">
        <ele>133.1</ele>
        <time>2022-02-08T13:25:02Z</time>
      </trkpt>
      <trkpt lat="48.76527" lon="2.23232">
        <ele>133.3</ele>
        <time>2022-02-08T13:25:08Z</time>
      </trkpt>
      <trkpt lat="48.76523" lon="2.23225">
        <ele>133.4</ele>
        <time>2022-02-08T13:25:13Z</time>
      </trkpt>
      <trkpt lat="48.76518" lon="2.23217">
        <ele>133.5</ele>
        <time>2022-02-08T13:25:18Z</time>
      </trkpt>
      <trkpt lat="48.76511" lon="2.23211">
        <ele>133.9</ele>
        <time>2022-02-08T13:25:23Z</time>
      </trkpt>
      <trkpt lat="48.76505" lon="2.23205">
        <ele>134.1</ele>
        <time>2022-02-08T13:25:28Z</time>
      </trkpt>
      <trkpt lat="48.76501" lon="2.23197">
        <ele>133.8</ele>
        <time>2022-02-08T13:25:34Z</time>
      </trkpt>
      <trkpt lat="48.76497" lon="2.23186">
        <ele>132.9</ele>
        <time>2022-02-08T13:25:39Z</time>
      </trkpt>
      <trkpt lat="48.76493" lon="2.23177">
        <ele>132.2</ele>
        <time>2022-02-08T13:25:45Z</time>
      </trkpt>
      <trkpt lat="48.76491" lon="2.23167">
        <ele>131.4</ele>
        <time>2022-02-08T13:25:53Z</time>
      </trkpt>
      <trkpt lat="48.76489" lon="2.23157">
        <ele>130.3</ele>
        <time>2022-02-08T13:25:59Z</time>
      </trkpt>
      <trkpt lat="48.76484" lon="2.23149">
        <ele>129.5</ele>
        <time>2022-02-08T13:26:04Z</time>
      </trkpt>
      <trkpt lat="48.7648" lon="2.23142">
        <ele>128.8</ele>
        <time>2022-02-08T13:26:10Z</time>
      </trkpt>
      <trkpt lat="48.76476" lon="2.23134">
        <ele>128.1</ele>
        <time>2022-02-08T13:26:16Z</time>
      </trkpt>
      <trkpt lat="48.7647" lon="2.23128">
        <ele>127.6</ele>
        <time>2022-02-08T13:26:21Z</time>
      </trkpt>
      <trkpt lat="48.76467" lon="2.23119">
        <ele>126.7</ele>
        <time>2022-02-08T13:26:30Z</time>
      </trkpt>
      <trkpt lat="48.7646" lon="2.23116">
        <ele>126.7</ele>
        <time>2022-02-08T13:26:41Z</time>
      </trkpt>
      <trkpt lat="48.76457" lon="2.23107">
        <ele>125.8</ele>
        <time>2022-02-08T13:26:46Z</time>
      </trkpt>
      <trkpt lat="48.76453" lon="2.23098">
        <ele>124.9</ele>
        <time>2022-02-08T13:26:54Z</time>
      </trkpt>
      <trkpt lat="48.76449" lon="2.2309">
        <ele>124.2</ele>
        <time>2022-02-08T13:27:00Z</time>
      </trkpt>
      <trkpt lat="48.76442" lon="2.23085">
        <ele>124</ele>
        <time>2022-02-08T13:27:07Z</time>
      </trkpt>
      <trkpt lat="48.76439" lon="2.23075">
        <ele>122.9</ele>
        <time>2022-02-08T13:27:13Z</time>
      </trkpt>
      <trkpt lat="48.76442" lon="2.23066">
        <ele>121.6</ele>
        <time>2022-02-08T13:27:35Z</time>
      </trkpt>
      <trkpt lat="48.7644" lon="2.23055">
        <ele>120.4</ele>
        <time>2022-02-08T13:27:44Z</time>
      </trkpt>
      <trkpt lat="48.76435" lon="2.23049">
        <ele>119.9</ele>
        <time>2022-02-08T13:27:49Z</time>
      </trkpt>
      <trkpt lat="48.76429" lon="2.23043">
        <ele>119.5</ele>
        <time>2022-02-08T13:27:54Z</time>
      </trkpt>
      <trkpt lat="48.76422" lon="2.2304">
        <ele>119.5</ele>
        <time>2022-02-08T13:28:00Z</time>
      </trkpt>
      <trkpt lat="48.76416" lon="2.23037">
        <ele>119.5</ele>
        <time>2022-02-08T13:28:06Z</time>
      </trkpt>
      <trkpt lat="48.7641" lon="2.23032">
        <ele>119.1</ele>
        <time>2022-02-08T13:28:14Z</time>
      </trkpt>
      <trkpt lat="48.76403" lon="2.23029">
        <ele>119</ele>
        <time>2022-02-08T13:28:29Z</time>
      </trkpt>
      <trkpt lat="48.76398" lon="2.23022">
        <ele>118.4</ele>
        <time>2022-02-08T13:28:33Z</time>
      </trkpt>
      <trkpt lat="48.76392" lon="2.23014">
        <ele>117.8</ele>
        <time>2022-02-08T13:28:39Z</time>
      </trkpt>
      <trkpt lat="48.76384" lon="2.23011">
        <ele>117.8</ele>
        <time>2022-02-08T13:28:45Z</time>
      </trkpt>
      <trkpt lat="48.76378" lon="2.23007">
        <ele>117.6</ele>
        <time>2022-02-08T13:28:52Z</time>
      </trkpt>
      <trkpt lat="48.76371" lon="2.23001">
        <ele>117.3</ele>
        <time>2022-02-08T13:29:18Z</time>
      </trkpt>
      <trkpt lat="48.76365" lon="2.22998">
        <ele>117.4</ele>
        <time>2022-02-08T13:29:26Z</time>
      </trkpt>
      <trkpt lat="48.76359" lon="2.22992">
        <ele>117.4</ele>
        <time>2022-02-08T13:29:34Z</time>
      </trkpt>
      <trkpt lat="48.76352" lon="2.22989">
        <ele>117.7</ele>
        <time>2022-02-08T13:29:43Z</time>
      </trkpt>
      <trkpt lat="48.76345" lon="2.22988">
        <ele>118.1</ele>
        <time>2022-02-08T13:29:51Z</time>
      </trkpt>
      <trkpt lat="48.76339" lon="2.22983">
        <ele>118.3</ele>
        <time>2022-02-08T13:29:57Z</time>
      </trkpt>
      <trkpt lat="48.76332" lon="2.2298">
        <ele>118.8</ele>
        <time>2022-02-08T13:30:04Z</time>
      </trkpt>
      <trkpt lat="48.76326" lon="2.22976">
        <ele>119.8</ele>
        <time>2022-02-08T13:30:11Z</time>
      </trkpt>
      <trkpt lat="48.7632" lon="2.22972">
        <ele>120.8</ele>
        <time>2022-02-08T13:30:20Z</time>
      </trkpt>
      <trkpt lat="48.76314" lon="2.22979">
        <ele>122.2</ele>
        <time>2022-02-08T13:30:29Z</time>
      </trkpt>
      <trkpt lat="48.76308" lon="2.2298">
        <ele>123.4</ele>
        <time>2022-02-08T13:30:42Z</time>
      </trkpt>
      <trkpt lat="48.76315" lon="2.2298">
        <ele>122.1</ele>
        <time>2022-02-08T13:30:56Z</time>
      </trkpt>
      <trkpt lat="48.76322" lon="2.22976">
        <ele>120.6</ele>
        <time>2022-02-08T13:31:02Z</time>
      </trkpt>
      <trkpt lat="48.76329" lon="2.22981">
        <ele>119.4</ele>
        <time>2022-02-08T13:31:08Z</time>
      </trkpt>
      <trkpt lat="48.76336" lon="2.22984">
        <ele>118.5</ele>
        <time>2022-02-08T13:31:13Z</time>
      </trkpt>
      <trkpt lat="48.76344" lon="2.22987">
        <ele>118.1</ele>
        <time>2022-02-08T13:31:19Z</time>
      </trkpt>
      <trkpt lat="48.76351" lon="2.2299">
        <ele>117.8</ele>
        <time>2022-02-08T13:31:24Z</time>
      </trkpt>
      <trkpt lat="48.76357" lon="2.22995">
        <ele>117.7</ele>
        <time>2022-02-08T13:31:30Z</time>
      </trkpt>
      <trkpt lat="48.76364" lon="2.22999">
        <ele>117.5</ele>
        <time>2022-02-08T13:31:36Z</time>
      </trkpt>
      <trkpt lat="48.76371" lon="2.23004">
        <ele>117.6</ele>
        <time>2022-02-08T13:31:42Z</time>
      </trkpt>
      <trkpt lat="48.76378" lon="2.23007">
        <ele>117.6</ele>
        <time>2022-02-08T13:31:48Z</time>
      </trkpt>
      <trkpt lat="48.76384" lon="2.23011">
        <ele>117.8</ele>
        <time>2022-02-08T13:32:05Z</time>
      </trkpt>
      <trkpt lat="48.7639" lon="2.23014">
        <ele>117.9</ele>
        <time>2022-02-08T13:32:12Z</time>
      </trkpt>
      <trkpt lat="48.76394" lon="2.23005">
        <ele>116.7</ele>
        <time>2022-02-08T13:32:20Z</time>
      </trkpt>
      <trkpt lat="48.7639" lon="2.23015">
        <ele>118</ele>
        <time>2022-02-08T13:32:52Z</time>
      </trkpt>
      <trkpt lat="48.76393" lon="2.23024">
        <ele>118.9</ele>
        <time>2022-02-08T13:33:02Z</time>
      </trkpt>
      <trkpt lat="48.76397" lon="2.23033">
        <ele>119.7</ele>
        <time>2022-02-08T13:34:44Z</time>
      </trkpt>
      <trkpt lat="48.76403" lon="2.23037">
        <ele>120</ele>
        <time>2022-02-08T13:34:51Z</time>
      </trkpt>
      <trkpt lat="48.7641" lon="2.23035">
        <ele>119.5</ele>
        <time>2022-02-08T13:35:04Z</time>
      </trkpt>
      <trkpt lat="48.76417" lon="2.23032">
        <ele>118.8</ele>
        <time>2022-02-08T13:35:10Z</time>
      </trkpt>
      <trkpt lat="48.76423" lon="2.23033">
        <ele>118.6</ele>
        <time>2022-02-08T13:35:15Z</time>
      </trkpt>
      <trkpt lat="48.76431" lon="2.23036">
        <ele>118.5</ele>
        <time>2022-02-08T13:35:21Z</time>
      </trkpt>
      <trkpt lat="48.7644" lon="2.23039">
        <ele>118.4</ele>
        <time>2022-02-08T13:35:27Z</time>
      </trkpt>
      <trkpt lat="48.76449" lon="2.23038">
        <ele>117.8</ele>
        <time>2022-02-08T13:35:33Z</time>
      </trkpt>
      <trkpt lat="48.76456" lon="2.23034">
        <ele>116.9</ele>
        <time>2022-02-08T13:35:39Z</time>
      </trkpt>
      <trkpt lat="48.76463" lon="2.23029">
        <ele>115.9</ele>
        <time>2022-02-08T13:35:46Z</time>
      </trkpt>
      <trkpt lat="48.76468" lon="2.23023">
        <ele>114.9</ele>
        <time>2022-02-08T13:35:52Z</time>
      </trkpt>
      <trkpt lat="48.76473" lon="2.23016">
        <ele>113.7</ele>
        <time>2022-02-08T13:35:57Z</time>
      </trkpt>
      <trkpt lat="48.76477" lon="2.23006">
        <ele>112.2</ele>
        <time>2022-02-08T13:36:03Z</time>
      </trkpt>
      <trkpt lat="48.76483" lon="2.22997">
        <ele>110.9</ele>
        <time>2022-02-08T13:36:09Z</time>
      </trkpt>
      <trkpt lat="48.76489" lon="2.22997">
        <ele>110.6</ele>
        <time>2022-02-08T13:36:15Z</time>
      </trkpt>
      <trkpt lat="48.76499" lon="2.23001">
        <ele>110.2</ele>
        <time>2022-02-08T13:36:21Z</time>
      </trkpt>
      <trkpt lat="48.76508" lon="2.23009">
        <ele>111.2</ele>
        <time>2022-02-08T13:36:27Z</time>
      </trkpt>
      <trkpt lat="48.76513" lon="2.23017">
        <ele>112.2</ele>
        <time>2022-02-08T13:36:33Z</time>
      </trkpt>
      <trkpt lat="48.76519" lon="2.23023">
        <ele>112.9</ele>
        <time>2022-02-08T13:36:39Z</time>
      </trkpt>
      <trkpt lat="48.76526" lon="2.23031">
        <ele>113.7</ele>
        <time>2022-02-08T13:36:45Z</time>
      </trkpt>
      <trkpt lat="48.76534" lon="2.23037">
        <ele>114.2</ele>
        <time>2022-02-08T13:36:51Z</time>
      </trkpt>
      <trkpt lat="48.76539" lon="2.23044">
        <ele>114.8</ele>
        <time>2022-02-08T13:37:01Z</time>
      </trkpt>
      <trkpt lat="48.76545" lon="2.2305">
        <ele>115.2</ele>
        <time>2022-02-08T13:37:06Z</time>
      </trkpt>
      <trkpt lat="48.76551" lon="2.23058">
        <ele>115.7</ele>
        <time>2022-02-08T13:37:11Z</time>
      </trkpt>
      <trkpt lat="48.76556" lon="2.23065">
        <ele>116.1</ele>
        <time>2022-02-08T13:37:16Z</time>
      </trkpt>
      <trkpt lat="48.76561" lon="2.23071">
        <ele>116.4</ele>
        <time>2022-02-08T13:37:23Z</time>
      </trkpt>
      <trkpt lat="48.76567" lon="2.23076">
        <ele>116.4</ele>
        <time>2022-02-08T13:37:28Z</time>
      </trkpt>
      <trkpt lat="48.76572" lon="2.23084">
        <ele>116.8</ele>
        <time>2022-02-08T13:37:33Z</time>
      </trkpt>
      <trkpt lat="48.76578" lon="2.23094">
        <ele>117.5</ele>
        <time>2022-02-08T13:37:39Z</time>
      </trkpt>
      <trkpt lat="48.7658" lon="2.23104">
        <ele>118.4</ele>
        <time>2022-02-08T13:37:49Z</time>
      </trkpt>
      <trkpt lat="48.76586" lon="2.23109">
        <ele>118.6</ele>
        <time>2022-02-08T13:37:56Z</time>
      </trkpt>
      <trkpt lat="48.76592" lon="2.23114">
        <ele>118.7</ele>
        <time>2022-02-08T13:38:03Z</time>
      </trkpt>
      <trkpt lat="48.76598" lon="2.23119">
        <ele>118.6</ele>
        <time>2022-02-08T13:38:10Z</time>
      </trkpt>
      <trkpt lat="48.76606" lon="2.23122">
        <ele>118.2</ele>
        <time>2022-02-08T13:38:16Z</time>
      </trkpt>
      <trkpt lat="48.76612" lon="2.23125">
        <ele>117.9</ele>
        <time>2022-02-08T13:38:23Z</time>
      </trkpt>
      <trkpt lat="48.76618" lon="2.23131">
        <ele>117.8</ele>
        <time>2022-02-08T13:38:28Z</time>
      </trkpt>
      <trkpt lat="48.76625" lon="2.23136">
        <ele>117.3</ele>
        <time>2022-02-08T13:38:34Z</time>
      </trkpt>
      <trkpt lat="48.7663" lon="2.23129">
        <ele>116.5</ele>
        <time>2022-02-08T13:38:40Z</time>
      </trkpt>
      <trkpt lat="48.76634" lon="2.23121">
        <ele>115.8</ele>
        <time>2022-02-08T13:38:46Z</time>
      </trkpt>
      <trkpt lat="48.76635" lon="2.23111">
        <ele>115.3</ele>
        <time>2022-02-08T13:38:52Z</time>
      </trkpt>
      <trkpt lat="48.76639" lon="2.23101">
        <ele>114.6</ele>
        <time>2022-02-08T13:38:59Z</time>
      </trkpt>
      <trkpt lat="48.76642" lon="2.23092">
        <ele>114.2</ele>
        <time>2022-02-08T13:39:04Z</time>
      </trkpt>
      <trkpt lat="48.76643" lon="2.23081">
        <ele>113.9</ele>
        <time>2022-02-08T13:39:10Z</time>
      </trkpt>
      <trkpt lat="48.76643" lon="2.23071">
        <ele>113.9</ele>
        <time>2022-02-08T13:39:15Z</time>
      </trkpt>
      <trkpt lat="48.76646" lon="2.23059">
        <ele>113.8</ele>
        <time>2022-02-08T13:39:21Z</time>
      </trkpt>
      <trkpt lat="48.76648" lon="2.23049">
        <ele>113.8</ele>
        <time>2022-02-08T13:39:27Z</time>
      </trkpt>
      <trkpt lat="48.76652" lon="2.2304">
        <ele>113.9</ele>
        <time>2022-02-08T13:39:33Z</time>
      </trkpt>
      <trkpt lat="48.76655" lon="2.23026">
        <ele>114.1</ele>
        <time>2022-02-08T13:39:39Z</time>
      </trkpt>
      <trkpt lat="48.76651" lon="2.23013">
        <ele>114.1</ele>
        <time>2022-02-08T13:39:45Z</time>
      </trkpt>
      <trkpt lat="48.76643" lon="2.23008">
        <ele>113.9</ele>
        <time>2022-02-08T13:39:51Z</time>
      </trkpt>
      <trkpt lat="48.76648" lon="2.22996">
        <ele>114.2</ele>
        <time>2022-02-08T13:39:57Z</time>
      </trkpt>
      <trkpt lat="48.76659" lon="2.22983">
        <ele>115</ele>
        <time>2022-02-08T13:40:03Z</time>
      </trkpt>
      <trkpt lat="48.76662" lon="2.22974">
        <ele>115.4</ele>
        <time>2022-02-08T13:40:10Z</time>
      </trkpt>
      <trkpt lat="48.76656" lon="2.22965">
        <ele>115.3</ele>
        <time>2022-02-08T13:40:15Z</time>
      </trkpt>
      <trkpt lat="48.76649" lon="2.22953">
        <ele>115.2</ele>
        <time>2022-02-08T13:40:21Z</time>
      </trkpt>
      <trkpt lat="48.76643" lon="2.22948">
        <ele>114.9</ele>
        <time>2022-02-08T13:40:27Z</time>
      </trkpt>
      <trkpt lat="48.76636" lon="2.22942">
        <ele>114.7</ele>
        <time>2022-02-08T13:40:33Z</time>
      </trkpt>
      <trkpt lat="48.7663" lon="2.22934">
        <ele>114.5</ele>
        <time>2022-02-08T13:40:39Z</time>
      </trkpt>
      <trkpt lat="48.76622" lon="2.22924">
        <ele>114.2</ele>
        <time>2022-02-08T13:40:45Z</time>
      </trkpt>
      <trkpt lat="48.76614" lon="2.22916">
        <ele>113.9</ele>
        <time>2022-02-08T13:40:51Z</time>
      </trkpt>
      <trkpt lat="48.76609" lon="2.22908">
        <ele>113.9</ele>
        <time>2022-02-08T13:40:57Z</time>
      </trkpt>
      <trkpt lat="48.76604" lon="2.229">
        <ele>114</ele>
        <time>2022-02-08T13:41:03Z</time>
      </trkpt>
      <trkpt lat="48.76597" lon="2.22895">
        <ele>113.8</ele>
        <time>2022-02-08T13:41:09Z</time>
      </trkpt>
      <trkpt lat="48.7659" lon="2.22887">
        <ele>113.8</ele>
        <time>2022-02-08T13:41:15Z</time>
      </trkpt>
      <trkpt lat="48.76583" lon="2.22879">
        <ele>113.8</ele>
        <time>2022-02-08T13:41:21Z</time>
      </trkpt>
      <trkpt lat="48.76575" lon="2.22872">
        <ele>113.5</ele>
        <time>2022-02-08T13:41:27Z</time>
      </trkpt>
      <trkpt lat="48.76568" lon="2.22865">
        <ele>113.3</ele>
        <time>2022-02-08T13:41:33Z</time>
      </trkpt>
      <trkpt lat="48.76561" lon="2.22859">
        <ele>113</ele>
        <time>2022-02-08T13:41:39Z</time>
      </trkpt>
      <trkpt lat="48.76556" lon="2.22853">
        <ele>112.7</ele>
        <time>2022-02-08T13:41:45Z</time>
      </trkpt>
      <trkpt lat="48.7655" lon="2.22847">
        <ele>112.4</ele>
        <time>2022-02-08T13:41:51Z</time>
      </trkpt>
      <trkpt lat="48.76545" lon="2.22839">
        <ele>112.2</ele>
        <time>2022-02-08T13:41:57Z</time>
      </trkpt>
      <trkpt lat="48.76538" lon="2.22834">
        <ele>111.6</ele>
        <time>2022-02-08T13:42:03Z</time>
      </trkpt>
      <trkpt lat="48.7653" lon="2.22827">
        <ele>111</ele>
        <time>2022-02-08T13:42:09Z</time>
      </trkpt>
      <trkpt lat="48.76525" lon="2.22818">
        <ele>110.7</ele>
        <time>2022-02-08T13:42:15Z</time>
      </trkpt>
      <trkpt lat="48.76518" lon="2.22824">
        <ele>109.9</ele>
        <time>2022-02-08T13:42:23Z</time>
      </trkpt>
      <trkpt lat="48.76512" lon="2.22817">
        <ele>109.5</ele>
        <time>2022-02-08T13:42:27Z</time>
      </trkpt>
      <trkpt lat="48.76505" lon="2.22805">
        <ele>109.1</ele>
        <time>2022-02-08T13:42:33Z</time>
      </trkpt>
      <trkpt lat="48.76497" lon="2.22798">
        <ele>108.7</ele>
        <time>2022-02-08T13:42:39Z</time>
      </trkpt>
      <trkpt lat="48.76488" lon="2.22789">
        <ele>108.3</ele>
        <time>2022-02-08T13:42:45Z</time>
      </trkpt>
      <trkpt lat="48.7648" lon="2.22781">
        <ele>108.1</ele>
        <time>2022-02-08T13:42:51Z</time>
      </trkpt>
      <trkpt lat="48.76474" lon="2.22774">
        <ele>107.9</ele>
        <time>2022-02-08T13:43:04Z</time>
      </trkpt>
      <trkpt lat="48.76474" lon="2.22764">
        <ele>108.1</ele>
        <time>2022-02-08T13:43:41Z</time>
      </trkpt>
      <trkpt lat="48.76466" lon="2.22759">
        <ele>107.7</ele>
        <time>2022-02-08T13:43:49Z</time>
      </trkpt>
      <trkpt lat="48.7646" lon="2.22754">
        <ele>107.5</ele>
        <time>2022-02-08T13:43:53Z</time>
      </trkpt>
      <trkpt lat="48.76454" lon="2.22746">
        <ele>107.3</ele>
        <time>2022-02-08T13:43:58Z</time>
      </trkpt>
      <trkpt lat="48.76447" lon="2.2274">
        <ele>106.9</ele>
        <time>2022-02-08T13:44:03Z</time>
      </trkpt>
      <trkpt lat="48.76442" lon="2.22733">
        <ele>106.7</ele>
        <time>2022-02-08T13:44:09Z</time>
      </trkpt>
      <trkpt lat="48.76435" lon="2.2273">
        <ele>106.3</ele>
        <time>2022-02-08T13:44:16Z</time>
      </trkpt>
      <trkpt lat="48.76429" lon="2.22724">
        <ele>106.1</ele>
        <time>2022-02-08T13:44:22Z</time>
      </trkpt>
      <trkpt lat="48.76423" lon="2.22715">
        <ele>105.8</ele>
        <time>2022-02-08T13:44:28Z</time>
      </trkpt>
      <trkpt lat="48.76418" lon="2.22705">
        <ele>105.6</ele>
        <time>2022-02-08T13:44:33Z</time>
      </trkpt>
      <trkpt lat="48.76409" lon="2.22696">
        <ele>105.5</ele>
        <time>2022-02-08T13:44:39Z</time>
      </trkpt>
      <trkpt lat="48.76401" lon="2.22688">
        <ele>105.4</ele>
        <time>2022-02-08T13:44:45Z</time>
      </trkpt>
      <trkpt lat="48.76394" lon="2.2268">
        <ele>105.3</ele>
        <time>2022-02-08T13:44:51Z</time>
      </trkpt>
      <trkpt lat="48.76389" lon="2.22674">
        <ele>105.3</ele>
        <time>2022-02-08T13:44:57Z</time>
      </trkpt>
      <trkpt lat="48.76383" lon="2.22666">
        <ele>105.2</ele>
        <time>2022-02-08T13:45:03Z</time>
      </trkpt>
      <trkpt lat="48.76376" lon="2.22658">
        <ele>105.1</ele>
        <time>2022-02-08T13:45:09Z</time>
      </trkpt>
      <trkpt lat="48.76369" lon="2.22649">
        <ele>105</ele>
        <time>2022-02-08T13:45:15Z</time>
      </trkpt>
      <trkpt lat="48.76363" lon="2.22641">
        <ele>104.9</ele>
        <time>2022-02-08T13:45:21Z</time>
      </trkpt>
      <trkpt lat="48.76357" lon="2.22633">
        <ele>104.8</ele>
        <time>2022-02-08T13:45:27Z</time>
      </trkpt>
      <trkpt lat="48.76349" lon="2.22623">
        <ele>104.6</ele>
        <time>2022-02-08T13:45:33Z</time>
      </trkpt>
      <trkpt lat="48.76344" lon="2.22616">
        <ele>104.4</ele>
        <time>2022-02-08T13:45:39Z</time>
      </trkpt>
      <trkpt lat="48.7634" lon="2.22609">
        <ele>104.3</ele>
        <time>2022-02-08T13:45:45Z</time>
      </trkpt>
      <trkpt lat="48.76333" lon="2.22598">
        <ele>104</ele>
        <time>2022-02-08T13:45:51Z</time>
      </trkpt>
      <trkpt lat="48.76327" lon="2.2259">
        <ele>103.8</ele>
        <time>2022-02-08T13:45:57Z</time>
      </trkpt>
      <trkpt lat="48.76322" lon="2.22583">
        <ele>103.6</ele>
        <time>2022-02-08T13:46:03Z</time>
      </trkpt>
      <trkpt lat="48.76317" lon="2.22575">
        <ele>103.4</ele>
        <time>2022-02-08T13:46:12Z</time>
      </trkpt>
      <trkpt lat="48.76314" lon="2.22566">
        <ele>103.3</ele>
        <time>2022-02-08T13:46:17Z</time>
      </trkpt>
      <trkpt lat="48.7631" lon="2.22557">
        <ele>103.1</ele>
        <time>2022-02-08T13:46:22Z</time>
      </trkpt>
      <trkpt lat="48.76306" lon="2.22549">
        <ele>102.9</ele>
        <time>2022-02-08T13:46:28Z</time>
      </trkpt>
      <trkpt lat="48.76301" lon="2.22541">
        <ele>102.6</ele>
        <time>2022-02-08T13:46:33Z</time>
      </trkpt>
      <trkpt lat="48.76298" lon="2.22528">
        <ele>102.4</ele>
        <time>2022-02-08T13:46:39Z</time>
      </trkpt>
      <trkpt lat="48.76294" lon="2.2252">
        <ele>102.2</ele>
        <time>2022-02-08T13:46:45Z</time>
      </trkpt>
      <trkpt lat="48.76287" lon="2.22519">
        <ele>101.9</ele>
        <time>2022-02-08T13:47:07Z</time>
      </trkpt>
      <trkpt lat="48.76283" lon="2.22512">
        <ele>101.7</ele>
        <time>2022-02-08T13:47:11Z</time>
      </trkpt>
      <trkpt lat="48.76274" lon="2.225">
        <ele>101.2</ele>
        <time>2022-02-08T13:47:15Z</time>
      </trkpt>
      <trkpt lat="48.76268" lon="2.2249">
        <ele>101.1</ele>
        <time>2022-02-08T13:47:21Z</time>
      </trkpt>
      <trkpt lat="48.76261" lon="2.22479">
        <ele>100.9</ele>
        <time>2022-02-08T13:47:27Z</time>
      </trkpt>
      <trkpt lat="48.76253" lon="2.22473">
        <ele>100.3</ele>
        <time>2022-02-08T13:47:33Z</time>
      </trkpt>
      <trkpt lat="48.76246" lon="2.22467">
        <ele>99.8</ele>
        <time>2022-02-08T13:47:39Z</time>
      </trkpt>
      <trkpt lat="48.76238" lon="2.2246">
        <ele>99.4</ele>
        <time>2022-02-08T13:47:45Z</time>
      </trkpt>
      <trkpt lat="48.76234" lon="2.2245">
        <ele>99.1</ele>
        <time>2022-02-08T13:47:52Z</time>
      </trkpt>
      <trkpt lat="48.76232" lon="2.2244">
        <ele>99</ele>
        <time>2022-02-08T13:47:59Z</time>
      </trkpt>
      <trkpt lat="48.76227" lon="2.2243">
        <ele>98.7</ele>
        <time>2022-02-08T13:48:03Z</time>
      </trkpt>
      <trkpt lat="48.76218" lon="2.22421">
        <ele>98.1</ele>
        <time>2022-02-08T13:48:09Z</time>
      </trkpt>
      <trkpt lat="48.76211" lon="2.22413">
        <ele>97.8</ele>
        <time>2022-02-08T13:48:15Z</time>
      </trkpt>
      <trkpt lat="48.76206" lon="2.22404">
        <ele>97.7</ele>
        <time>2022-02-08T13:48:21Z</time>
      </trkpt>
      <trkpt lat="48.76201" lon="2.22395">
        <ele>97.5</ele>
        <time>2022-02-08T13:48:27Z</time>
      </trkpt>
      <trkpt lat="48.762" lon="2.22385">
        <ele>97.7</ele>
        <time>2022-02-08T13:48:36Z</time>
      </trkpt>
      <trkpt lat="48.76195" lon="2.22377">
        <ele>97.5</ele>
        <time>2022-02-08T13:48:42Z</time>
      </trkpt>
      <trkpt lat="48.76191" lon="2.22368">
        <ele>97.4</ele>
        <time>2022-02-08T13:48:47Z</time>
      </trkpt>
      <trkpt lat="48.76188" lon="2.22359">
        <ele>97.3</ele>
        <time>2022-02-08T13:48:52Z</time>
      </trkpt>
      <trkpt lat="48.76183" lon="2.22352">
        <ele>97.1</ele>
        <time>2022-02-08T13:48:59Z</time>
      </trkpt>
      <trkpt lat="48.76181" lon="2.22342">
        <ele>97.1</ele>
        <time>2022-02-08T13:49:06Z</time>
      </trkpt>
      <trkpt lat="48.76185" lon="2.22333">
        <ele>97.6</ele>
        <time>2022-02-08T13:49:12Z</time>
      </trkpt>
      <trkpt lat="48.76189" lon="2.22324">
        <ele>98.4</ele>
        <time>2022-02-08T13:49:20Z</time>
      </trkpt>
      <trkpt lat="48.76192" lon="2.22315">
        <ele>99.1</ele>
        <time>2022-02-08T13:49:24Z</time>
      </trkpt>
      <trkpt lat="48.76192" lon="2.22304">
        <ele>99.7</ele>
        <time>2022-02-08T13:49:28Z</time>
      </trkpt>
      <trkpt lat="48.76192" lon="2.22292">
        <ele>100.3</ele>
        <time>2022-02-08T13:49:33Z</time>
      </trkpt>
      <trkpt lat="48.76195" lon="2.22282">
        <ele>101</ele>
        <time>2022-02-08T13:49:39Z</time>
      </trkpt>
      <trkpt lat="48.76199" lon="2.22275">
        <ele>101.7</ele>
        <time>2022-02-08T13:49:46Z</time>
      </trkpt>
      <trkpt lat="48.76202" lon="2.22266">
        <ele>102.3</ele>
        <time>2022-02-08T13:49:51Z</time>
      </trkpt>
      <trkpt lat="48.76206" lon="2.22255">
        <ele>103.1</ele>
        <time>2022-02-08T13:49:57Z</time>
      </trkpt>
      <trkpt lat="48.7621" lon="2.22245">
        <ele>104.3</ele>
        <time>2022-02-08T13:50:03Z</time>
      </trkpt>
      <trkpt lat="48.76211" lon="2.22232">
        <ele>106.3</ele>
        <time>2022-02-08T13:50:09Z</time>
      </trkpt>
      <trkpt lat="48.76214" lon="2.22221">
        <ele>108.2</ele>
        <time>2022-02-08T13:50:15Z</time>
      </trkpt>
      <trkpt lat="48.76217" lon="2.22211">
        <ele>110</ele>
        <time>2022-02-08T13:50:21Z</time>
      </trkpt>
      <trkpt lat="48.7622" lon="2.22202">
        <ele>111.8</ele>
        <time>2022-02-08T13:50:27Z</time>
      </trkpt>
      <trkpt lat="48.76223" lon="2.22193">
        <ele>113.6</ele>
        <time>2022-02-08T13:50:36Z</time>
      </trkpt>
      <trkpt lat="48.76225" lon="2.22182">
        <ele>115.6</ele>
        <time>2022-02-08T13:50:44Z</time>
      </trkpt>
      <trkpt lat="48.76228" lon="2.22172">
        <ele>117.7</ele>
        <time>2022-02-08T13:50:51Z</time>
      </trkpt>
      <trkpt lat="48.76233" lon="2.22165">
        <ele>119.5</ele>
        <time>2022-02-08T13:50:57Z</time>
      </trkpt>
      <trkpt lat="48.76237" lon="2.22154">
        <ele>121.4</ele>
        <time>2022-02-08T13:51:03Z</time>
      </trkpt>
      <trkpt lat="48.76241" lon="2.22145">
        <ele>123.1</ele>
        <time>2022-02-08T13:51:09Z</time>
      </trkpt>
      <trkpt lat="48.76247" lon="2.22137">
        <ele>125</ele>
        <time>2022-02-08T13:51:47Z</time>
      </trkpt>
      <trkpt lat="48.76252" lon="2.2213">
        <ele>126.5</ele>
        <time>2022-02-08T13:51:55Z</time>
      </trkpt>
      <trkpt lat="48.76257" lon="2.22123">
        <ele>127.6</ele>
        <time>2022-02-08T13:52:02Z</time>
      </trkpt>
      <trkpt lat="48.76261" lon="2.22114">
        <ele>128.9</ele>
        <time>2022-02-08T13:52:18Z</time>
      </trkpt>
      <trkpt lat="48.76266" lon="2.22105">
        <ele>130.3</ele>
        <time>2022-02-08T13:52:24Z</time>
      </trkpt>
      <trkpt lat="48.76266" lon="2.22095">
        <ele>131.5</ele>
        <time>2022-02-08T13:52:29Z</time>
      </trkpt>
      <trkpt lat="48.76266" lon="2.22085">
        <ele>132.8</ele>
        <time>2022-02-08T13:52:39Z</time>
      </trkpt>
      <trkpt lat="48.76268" lon="2.22075">
        <ele>133.6</ele>
        <time>2022-02-08T13:52:53Z</time>
      </trkpt>
      <trkpt lat="48.76271" lon="2.22065">
        <ele>134.4</ele>
        <time>2022-02-08T13:53:00Z</time>
      </trkpt>
      <trkpt lat="48.76273" lon="2.22056">
        <ele>135.1</ele>
        <time>2022-02-08T13:53:06Z</time>
      </trkpt>
      <trkpt lat="48.76276" lon="2.22045">
        <ele>136.1</ele>
        <time>2022-02-08T13:53:11Z</time>
      </trkpt>
      <trkpt lat="48.76279" lon="2.22036">
        <ele>137</ele>
        <time>2022-02-08T13:53:17Z</time>
      </trkpt>
      <trkpt lat="48.76284" lon="2.22029">
        <ele>138</ele>
        <time>2022-02-08T13:53:24Z</time>
      </trkpt>
      <trkpt lat="48.76289" lon="2.22022">
        <ele>139</ele>
        <time>2022-02-08T13:53:30Z</time>
      </trkpt>
      <trkpt lat="48.76291" lon="2.22011">
        <ele>140.1</ele>
        <time>2022-02-08T13:53:38Z</time>
      </trkpt>
      <trkpt lat="48.76293" lon="2.22001">
        <ele>141.1</ele>
        <time>2022-02-08T13:53:46Z</time>
      </trkpt>
      <trkpt lat="48.76296" lon="2.21991">
        <ele>141.9</ele>
        <time>2022-02-08T13:53:54Z</time>
      </trkpt>
      <trkpt lat="48.76298" lon="2.21982">
        <ele>142.6</ele>
        <time>2022-02-08T13:54:02Z</time>
      </trkpt>
      <trkpt lat="48.76303" lon="2.21974">
        <ele>143.7</ele>
        <time>2022-02-08T13:54:09Z</time>
      </trkpt>
      <trkpt lat="48.76305" lon="2.21963">
        <ele>144.5</ele>
        <time>2022-02-08T13:54:16Z</time>
      </trkpt>
      <trkpt lat="48.7631" lon="2.21955">
        <ele>145.7</ele>
        <time>2022-02-08T13:54:21Z</time>
      </trkpt>
      <trkpt lat="48.76311" lon="2.21945">
        <ele>146.4</ele>
        <time>2022-02-08T13:54:28Z</time>
      </trkpt>
      <trkpt lat="48.76315" lon="2.21936">
        <ele>147.6</ele>
        <time>2022-02-08T13:54:36Z</time>
      </trkpt>
      <trkpt lat="48.76319" lon="2.21926">
        <ele>148.8</ele>
        <time>2022-02-08T13:54:42Z</time>
      </trkpt>
      <trkpt lat="48.7632" lon="2.21916">
        <ele>149.7</ele>
        <time>2022-02-08T13:54:51Z</time>
      </trkpt>
      <trkpt lat="48.76324" lon="2.21907">
        <ele>151.2</ele>
        <time>2022-02-08T13:54:58Z</time>
      </trkpt>
      <trkpt lat="48.76329" lon="2.219">
        <ele>152.7</ele>
        <time>2022-02-08T13:55:05Z</time>
      </trkpt>
      <trkpt lat="48.76333" lon="2.21891">
        <ele>154.1</ele>
        <time>2022-02-08T13:55:13Z</time>
      </trkpt>
      <trkpt lat="48.76334" lon="2.21881">
        <ele>155</ele>
        <time>2022-02-08T13:55:21Z</time>
      </trkpt>
      <trkpt lat="48.76338" lon="2.21872">
        <ele>155.9</ele>
        <time>2022-02-08T13:55:27Z</time>
      </trkpt>
      <trkpt lat="48.7634" lon="2.21862">
        <ele>156.8</ele>
        <time>2022-02-08T13:55:36Z</time>
      </trkpt>
      <trkpt lat="48.76344" lon="2.21854">
        <ele>157.6</ele>
        <time>2022-02-08T13:55:44Z</time>
      </trkpt>
      <trkpt lat="48.76347" lon="2.21843">
        <ele>158.4</ele>
        <time>2022-02-08T13:55:51Z</time>
      </trkpt>
      <trkpt lat="48.76351" lon="2.21835">
        <ele>159.1</ele>
        <time>2022-02-08T13:55:59Z</time>
      </trkpt>
      <trkpt lat="48.76354" lon="2.21826">
        <ele>159.9</ele>
        <time>2022-02-08T13:56:06Z</time>
      </trkpt>
      <trkpt lat="48.76353" lon="2.21816">
        <ele>160.9</ele>
        <time>2022-02-08T13:56:17Z</time>
      </trkpt>
      <trkpt lat="48.76351" lon="2.21805">
        <ele>161.9</ele>
        <time>2022-02-08T13:56:28Z</time>
      </trkpt>
      <trkpt lat="48.76349" lon="2.21795">
        <ele>162.8</ele>
        <time>2022-02-08T13:56:36Z</time>
      </trkpt>
      <trkpt lat="48.76343" lon="2.21791">
        <ele>163.1</ele>
        <time>2022-02-08T13:56:44Z</time>
      </trkpt>
      <trkpt lat="48.76337" lon="2.21785">
        <ele>163.7</ele>
        <time>2022-02-08T13:56:51Z</time>
      </trkpt>
      <trkpt lat="48.76334" lon="2.21776">
        <ele>164.5</ele>
        <time>2022-02-08T13:56:59Z</time>
      </trkpt>
      <trkpt lat="48.76327" lon="2.21772">
        <ele>164.3</ele>
        <time>2022-02-08T13:57:08Z</time>
      </trkpt>
      <trkpt lat="48.76321" lon="2.21766">
        <ele>164.4</ele>
        <time>2022-02-08T13:57:13Z</time>
      </trkpt>
      <trkpt lat="48.76314" lon="2.21761">
        <ele>164.4</ele>
        <time>2022-02-08T13:57:19Z</time>
      </trkpt>
      <trkpt lat="48.76308" lon="2.21756">
        <ele>164.5</ele>
        <time>2022-02-08T13:57:24Z</time>
      </trkpt>
      <trkpt lat="48.76301" lon="2.2175">
        <ele>164.7</ele>
        <time>2022-02-08T13:57:29Z</time>
      </trkpt>
      <trkpt lat="48.76294" lon="2.21745">
        <ele>164.7</ele>
        <time>2022-02-08T13:57:36Z</time>
      </trkpt>
      <trkpt lat="48.76287" lon="2.21744">
        <ele>164.3</ele>
        <time>2022-02-08T13:57:43Z</time>
      </trkpt>
      <trkpt lat="48.76283" lon="2.21751">
        <ele>163.2</ele>
        <time>2022-02-08T13:57:54Z</time>
      </trkpt>
      <trkpt lat="48.76275" lon="2.21752">
        <ele>162.5</ele>
        <time>2022-02-08T13:58:01Z</time>
      </trkpt>
      <trkpt lat="48.76268" lon="2.21753">
        <ele>161.8</ele>
        <time>2022-02-08T13:58:05Z</time>
      </trkpt>
      <trkpt lat="48.7626" lon="2.21753">
        <ele>161.2</ele>
        <time>2022-02-08T13:58:12Z</time>
      </trkpt>
      <trkpt lat="48.76253" lon="2.21751">
        <ele>161.1</ele>
        <time>2022-02-08T13:58:17Z</time>
      </trkpt>
      <trkpt lat="48.76245" lon="2.21747">
        <ele>160.5</ele>
        <time>2022-02-08T13:58:24Z</time>
      </trkpt>
      <trkpt lat="48.76238" lon="2.21747">
        <ele>159.3</ele>
        <time>2022-02-08T13:58:31Z</time>
      </trkpt>
      <trkpt lat="48.76231" lon="2.21751">
        <ele>157.7</ele>
        <time>2022-02-08T13:58:37Z</time>
      </trkpt>
      <trkpt lat="48.76225" lon="2.21752">
        <ele>156.5</ele>
        <time>2022-02-08T13:58:44Z</time>
      </trkpt>
      <trkpt lat="48.76218" lon="2.21749">
        <ele>155.7</ele>
        <time>2022-02-08T13:58:49Z</time>
      </trkpt>
      <trkpt lat="48.76211" lon="2.21751">
        <ele>154.3</ele>
        <time>2022-02-08T13:58:53Z</time>
      </trkpt>
      <trkpt lat="48.76204" lon="2.21749">
        <ele>153.3</ele>
        <time>2022-02-08T13:59:00Z</time>
      </trkpt>
      <trkpt lat="48.76198" lon="2.21744">
        <ele>152.7</ele>
        <time>2022-02-08T13:59:07Z</time>
      </trkpt>
      <trkpt lat="48.76193" lon="2.21737">
        <ele>152.3</ele>
        <time>2022-02-08T13:59:13Z</time>
      </trkpt>
      <trkpt lat="48.76189" lon="2.2173">
        <ele>152</ele>
        <time>2022-02-08T13:59:21Z</time>
      </trkpt>
      <trkpt lat="48.7618" lon="2.21725">
        <ele>150.7</ele>
        <time>2022-02-08T13:59:27Z</time>
      </trkpt>
      <trkpt lat="48.76175" lon="2.21716">
        <ele>150.2</ele>
        <time>2022-02-08T13:59:33Z</time>
      </trkpt>
      <trkpt lat="48.76171" lon="2.21703">
        <ele>150.1</ele>
        <time>2022-02-08T13:59:39Z</time>
      </trkpt>
      <trkpt lat="48.76166" lon="2.21692">
        <ele>149.6</ele>
        <time>2022-02-08T13:59:45Z</time>
      </trkpt>
      <trkpt lat="48.76164" lon="2.21681">
        <ele>149.7</ele>
        <time>2022-02-08T13:59:52Z</time>
      </trkpt>
      <trkpt lat="48.76162" lon="2.21672">
        <ele>149.7</ele>
        <time>2022-02-08T13:59:58Z</time>
      </trkpt>
      <trkpt lat="48.76157" lon="2.21663">
        <ele>149.1</ele>
        <time>2022-02-08T14:00:04Z</time>
      </trkpt>
      <trkpt lat="48.76158" lon="2.21652">
        <ele>150</ele>
        <time>2022-02-08T14:00:11Z</time>
      </trkpt>
      <trkpt lat="48.76161" lon="2.21642">
        <ele>151.3</ele>
        <time>2022-02-08T14:00:17Z</time>
      </trkpt>
      <trkpt lat="48.76158" lon="2.21633">
        <ele>151.3</ele>
        <time>2022-02-08T14:00:24Z</time>
      </trkpt>
      <trkpt lat="48.76155" lon="2.21624">
        <ele>151.4</ele>
        <time>2022-02-08T14:00:32Z</time>
      </trkpt>
      <trkpt lat="48.7615" lon="2.21616">
        <ele>151.1</ele>
        <time>2022-02-08T14:00:38Z</time>
      </trkpt>
      <trkpt lat="48.76147" lon="2.21607">
        <ele>151.3</ele>
        <time>2022-02-08T14:00:45Z</time>
      </trkpt>
      <trkpt lat="48.76145" lon="2.21596">
        <ele>151.8</ele>
        <time>2022-02-08T14:00:51Z</time>
      </trkpt>
      <trkpt lat="48.76146" lon="2.21585">
        <ele>152.9</ele>
        <time>2022-02-08T14:00:57Z</time>
      </trkpt>
      <trkpt lat="48.76146" lon="2.21573">
        <ele>154</ele>
        <time>2022-02-08T14:01:04Z</time>
      </trkpt>
      <trkpt lat="48.76144" lon="2.21564">
        <ele>154.6</ele>
        <time>2022-02-08T14:01:10Z</time>
      </trkpt>
      <trkpt lat="48.76143" lon="2.21552">
        <ele>155.7</ele>
        <time>2022-02-08T14:01:16Z</time>
      </trkpt>
      <trkpt lat="48.76142" lon="2.21541">
        <ele>156.6</ele>
        <time>2022-02-08T14:01:23Z</time>
      </trkpt>
      <trkpt lat="48.76139" lon="2.21528">
        <ele>157.5</ele>
        <time>2022-02-08T14:01:31Z</time>
      </trkpt>
      <trkpt lat="48.76134" lon="2.21521">
        <ele>157.7</ele>
        <time>2022-02-08T14:01:37Z</time>
      </trkpt>
      <trkpt lat="48.76126" lon="2.2151">
        <ele>158</ele>
        <time>2022-02-08T14:01:43Z</time>
      </trkpt>
      <trkpt lat="48.76117" lon="2.215">
        <ele>158.2</ele>
        <time>2022-02-08T14:01:49Z</time>
      </trkpt>
      <trkpt lat="48.76112" lon="2.21489">
        <ele>158.8</ele>
        <time>2022-02-08T14:01:55Z</time>
      </trkpt>
      <trkpt lat="48.76105" lon="2.2148">
        <ele>159</ele>
        <time>2022-02-08T14:02:01Z</time>
      </trkpt>
      <trkpt lat="48.76099" lon="2.21474">
        <ele>159.1</ele>
        <time>2022-02-08T14:02:07Z</time>
      </trkpt>
      <trkpt lat="48.76093" lon="2.21467">
        <ele>159.3</ele>
        <time>2022-02-08T14:02:13Z</time>
      </trkpt>
      <trkpt lat="48.76087" lon="2.21458">
        <ele>159.8</ele>
        <time>2022-02-08T14:02:19Z</time>
      </trkpt>
      <trkpt lat="48.76081" lon="2.21448">
        <ele>160.6</ele>
        <time>2022-02-08T14:02:25Z</time>
      </trkpt>
      <trkpt lat="48.76075" lon="2.2144">
        <ele>161.5</ele>
        <time>2022-02-08T14:02:31Z</time>
      </trkpt>
      <trkpt lat="48.7607" lon="2.21429">
        <ele>162.7</ele>
        <time>2022-02-08T14:02:37Z</time>
      </trkpt>
      <trkpt lat="48.76067" lon="2.21419">
        <ele>163.7</ele>
        <time>2022-02-08T14:02:43Z</time>
      </trkpt>
      <trkpt lat="48.76065" lon="2.2141">
        <ele>164.4</ele>
        <time>2022-02-08T14:02:48Z</time>
      </trkpt>
      <trkpt lat="48.76063" lon="2.21399">
        <ele>165.1</ele>
        <time>2022-02-08T14:02:54Z</time>
      </trkpt>
      <trkpt lat="48.76064" lon="2.21389">
        <ele>165.7</ele>
        <time>2022-02-08T14:03:01Z</time>
      </trkpt>
      <trkpt lat="48.76065" lon="2.21379">
        <ele>166.4</ele>
        <time>2022-02-08T14:03:06Z</time>
      </trkpt>
      <trkpt lat="48.76067" lon="2.21367">
        <ele>167.1</ele>
        <time>2022-02-08T14:03:12Z</time>
      </trkpt>
      <trkpt lat="48.76068" lon="2.21356">
        <ele>167.8</ele>
        <time>2022-02-08T14:03:19Z</time>
      </trkpt>
      <trkpt lat="48.76069" lon="2.21346">
        <ele>168.4</ele>
        <time>2022-02-08T14:03:24Z</time>
      </trkpt>
      <trkpt lat="48.76071" lon="2.21335">
        <ele>169</ele>
        <time>2022-02-08T14:03:30Z</time>
      </trkpt>
      <trkpt lat="48.76072" lon="2.21323">
        <ele>169.2</ele>
        <time>2022-02-08T14:03:36Z</time>
      </trkpt>
      <trkpt lat="48.76076" lon="2.21312">
        <ele>169.2</ele>
        <time>2022-02-08T14:03:42Z</time>
      </trkpt>
      <trkpt lat="48.76078" lon="2.21302">
        <ele>169.2</ele>
        <time>2022-02-08T14:03:48Z</time>
      </trkpt>
      <trkpt lat="48.76074" lon="2.21294">
        <ele>169.3</ele>
        <time>2022-02-08T14:03:55Z</time>
      </trkpt>
      <trkpt lat="48.76069" lon="2.21286">
        <ele>169.6</ele>
        <time>2022-02-08T14:04:01Z</time>
      </trkpt>
      <trkpt lat="48.76063" lon="2.21294">
        <ele>169.7</ele>
        <time>2022-02-08T14:04:25Z</time>
      </trkpt>
      <trkpt lat="48.76057" lon="2.213">
        <ele>169.8</ele>
        <time>2022-02-08T14:04:30Z</time>
      </trkpt>
      <trkpt lat="48.76051" lon="2.21304">
        <ele>169.9</ele>
        <time>2022-02-08T14:04:35Z</time>
      </trkpt>
      <trkpt lat="48.76043" lon="2.2131">
        <ele>170</ele>
        <time>2022-02-08T14:04:41Z</time>
      </trkpt>
      <trkpt lat="48.76036" lon="2.21317">
        <ele>170</ele>
        <time>2022-02-08T14:04:47Z</time>
      </trkpt>
      <trkpt lat="48.76031" lon="2.21324">
        <ele>169.9</ele>
        <time>2022-02-08T14:04:53Z</time>
      </trkpt>
      <trkpt lat="48.76024" lon="2.21332">
        <ele>169.8</ele>
        <time>2022-02-08T14:04:59Z</time>
      </trkpt>
      <trkpt lat="48.76019" lon="2.21341">
        <ele>169.2</ele>
        <time>2022-02-08T14:05:05Z</time>
      </trkpt>
      <trkpt lat="48.76014" lon="2.21348">
        <ele>168.8</ele>
        <time>2022-02-08T14:05:11Z</time>
      </trkpt>
      <trkpt lat="48.76008" lon="2.21355">
        <ele>168.4</ele>
        <time>2022-02-08T14:05:17Z</time>
      </trkpt>
      <trkpt lat="48.76001" lon="2.21362">
        <ele>167.9</ele>
        <time>2022-02-08T14:05:23Z</time>
      </trkpt>
      <trkpt lat="48.75997" lon="2.21374">
        <ele>166.5</ele>
        <time>2022-02-08T14:05:29Z</time>
      </trkpt>
      <trkpt lat="48.75992" lon="2.21384">
        <ele>164.8</ele>
        <time>2022-02-08T14:05:35Z</time>
      </trkpt>
      <trkpt lat="48.7599" lon="2.21395">
        <ele>163.6</ele>
        <time>2022-02-08T14:05:42Z</time>
      </trkpt>
      <trkpt lat="48.75985" lon="2.21405">
        <ele>161.8</ele>
        <time>2022-02-08T14:05:48Z</time>
      </trkpt>
      <trkpt lat="48.7598" lon="2.21412">
        <ele>160.3</ele>
        <time>2022-02-08T14:05:53Z</time>
      </trkpt>
      <trkpt lat="48.75974" lon="2.2142">
        <ele>158.4</ele>
        <time>2022-02-08T14:06:03Z</time>
      </trkpt>
      <trkpt lat="48.75969" lon="2.21425">
        <ele>156.9</ele>
        <time>2022-02-08T14:06:08Z</time>
      </trkpt>
      <trkpt lat="48.75962" lon="2.21428">
        <ele>155.2</ele>
        <time>2022-02-08T14:06:13Z</time>
      </trkpt>
      <trkpt lat="48.75955" lon="2.21427">
        <ele>153.9</ele>
        <time>2022-02-08T14:06:25Z</time>
      </trkpt>
      <trkpt lat="48.75953" lon="2.21439">
        <ele>152.5</ele>
        <time>2022-02-08T14:06:30Z</time>
      </trkpt>
      <trkpt lat="48.7595" lon="2.21448">
        <ele>151.1</ele>
        <time>2022-02-08T14:06:36Z</time>
      </trkpt>
      <trkpt lat="48.75947" lon="2.21458">
        <ele>149.7</ele>
        <time>2022-02-08T14:06:42Z</time>
      </trkpt>
      <trkpt lat="48.75944" lon="2.21468">
        <ele>148.3</ele>
        <time>2022-02-08T14:06:46Z</time>
      </trkpt>
      <trkpt lat="48.75938" lon="2.21477">
        <ele>146.5</ele>
        <time>2022-02-08T14:06:51Z</time>
      </trkpt>
      <trkpt lat="48.75932" lon="2.21488">
        <ele>144.5</ele>
        <time>2022-02-08T14:06:57Z</time>
      </trkpt>
      <trkpt lat="48.75925" lon="2.21498">
        <ele>142.6</ele>
        <time>2022-02-08T14:07:03Z</time>
      </trkpt>
      <trkpt lat="48.7592" lon="2.21504">
        <ele>141.2</ele>
        <time>2022-02-08T14:07:11Z</time>
      </trkpt>
      <trkpt lat="48.75913" lon="2.21508">
        <ele>139.6</ele>
        <time>2022-02-08T14:07:17Z</time>
      </trkpt>
      <trkpt lat="48.75906" lon="2.21512">
        <ele>138.1</ele>
        <time>2022-02-08T14:07:22Z</time>
      </trkpt>
      <trkpt lat="48.75899" lon="2.21514">
        <ele>136.8</ele>
        <time>2022-02-08T14:07:27Z</time>
      </trkpt>
      <trkpt lat="48.75891" lon="2.21517">
        <ele>135.2</ele>
        <time>2022-02-08T14:07:33Z</time>
      </trkpt>
      <trkpt lat="48.75882" lon="2.21517">
        <ele>133.8</ele>
        <time>2022-02-08T14:07:39Z</time>
      </trkpt>
      <trkpt lat="48.75874" lon="2.21513">
        <ele>132.8</ele>
        <time>2022-02-08T14:07:45Z</time>
      </trkpt>
      <trkpt lat="48.75866" lon="2.2151">
        <ele>131.7</ele>
        <time>2022-02-08T14:07:51Z</time>
      </trkpt>
      <trkpt lat="48.75861" lon="2.21502">
        <ele>131.5</ele>
        <time>2022-02-08T14:08:02Z</time>
      </trkpt>
      <trkpt lat="48.75859" lon="2.21493">
        <ele>131.6</ele>
        <time>2022-02-08T14:08:08Z</time>
      </trkpt>
      <trkpt lat="48.75853" lon="2.21487">
        <ele>130.9</ele>
        <time>2022-02-08T14:08:21Z</time>
      </trkpt>
      <trkpt lat="48.75846" lon="2.21479">
        <ele>130</ele>
        <time>2022-02-08T14:08:28Z</time>
      </trkpt>
      <trkpt lat="48.7584" lon="2.21477">
        <ele>129</ele>
        <time>2022-02-08T14:08:33Z</time>
      </trkpt>
      <trkpt lat="48.75831" lon="2.21475">
        <ele>127.7</ele>
        <time>2022-02-08T14:08:39Z</time>
      </trkpt>
      <trkpt lat="48.75824" lon="2.21469">
        <ele>127.2</ele>
        <time>2022-02-08T14:08:45Z</time>
      </trkpt>
      <trkpt lat="48.7582" lon="2.2146">
        <ele>127.1</ele>
        <time>2022-02-08T14:09:00Z</time>
      </trkpt>
      <trkpt lat="48.75813" lon="2.21455">
        <ele>126.5</ele>
        <time>2022-02-08T14:09:07Z</time>
      </trkpt>
      <trkpt lat="48.75806" lon="2.21456">
        <ele>125.8</ele>
        <time>2022-02-08T14:09:12Z</time>
      </trkpt>
      <trkpt lat="48.75802" lon="2.21448">
        <ele>125.5</ele>
        <time>2022-02-08T14:09:18Z</time>
      </trkpt>
      <trkpt lat="48.75795" lon="2.21445">
        <ele>124.8</ele>
        <time>2022-02-08T14:09:24Z</time>
      </trkpt>
      <trkpt lat="48.75788" lon="2.21442">
        <ele>124.1</ele>
        <time>2022-02-08T14:09:30Z</time>
      </trkpt>
      <trkpt lat="48.75782" lon="2.21437">
        <ele>123.6</ele>
        <time>2022-02-08T14:09:36Z</time>
      </trkpt>
      <trkpt lat="48.75775" lon="2.21434">
        <ele>122.8</ele>
        <time>2022-02-08T14:09:42Z</time>
      </trkpt>
      <trkpt lat="48.75768" lon="2.21432">
        <ele>122</ele>
        <time>2022-02-08T14:09:47Z</time>
      </trkpt>
      <trkpt lat="48.75762" lon="2.2143">
        <ele>121.4</ele>
        <time>2022-02-08T14:09:52Z</time>
      </trkpt>
      <trkpt lat="48.75755" lon="2.21428">
        <ele>120.6</ele>
        <time>2022-02-08T14:09:58Z</time>
      </trkpt>
      <trkpt lat="48.75749" lon="2.21426">
        <ele>119.9</ele>
        <time>2022-02-08T14:10:04Z</time>
      </trkpt>
      <trkpt lat="48.75741" lon="2.21425">
        <ele>118.7</ele>
        <time>2022-02-08T14:10:10Z</time>
      </trkpt>
      <trkpt lat="48.75734" lon="2.21424">
        <ele>117.7</ele>
        <time>2022-02-08T14:10:17Z</time>
      </trkpt>
      <trkpt lat="48.75726" lon="2.21424">
        <ele>116.6</ele>
        <time>2022-02-08T14:10:23Z</time>
      </trkpt>
      <trkpt lat="48.75719" lon="2.21423">
        <ele>115.6</ele>
        <time>2022-02-08T14:10:28Z</time>
      </trkpt>
      <trkpt lat="48.75712" lon="2.21423">
        <ele>114.6</ele>
        <time>2022-02-08T14:10:34Z</time>
      </trkpt>
      <trkpt lat="48.75706" lon="2.21424">
        <ele>113.8</ele>
        <time>2022-02-08T14:10:39Z</time>
      </trkpt>
      <trkpt lat="48.75699" lon="2.21428">
        <ele>112.8</ele>
        <time>2022-02-08T14:10:44Z</time>
      </trkpt>
      <trkpt lat="48.75691" lon="2.21432">
        <ele>111.8</ele>
        <time>2022-02-08T14:10:50Z</time>
      </trkpt>
      <trkpt lat="48.75683" lon="2.21437">
        <ele>110.7</ele>
        <time>2022-02-08T14:10:56Z</time>
      </trkpt>
      <trkpt lat="48.75677" lon="2.21442">
        <ele>110</ele>
        <time>2022-02-08T14:11:03Z</time>
      </trkpt>
      <trkpt lat="48.75671" lon="2.21448">
        <ele>109.3</ele>
        <time>2022-02-08T14:11:18Z</time>
      </trkpt>
      <trkpt lat="48.75665" lon="2.21443">
        <ele>108.4</ele>
        <time>2022-02-08T14:11:27Z</time>
      </trkpt>
      <trkpt lat="48.75659" lon="2.21434">
        <ele>107.2</ele>
        <time>2022-02-08T14:11:32Z</time>
      </trkpt>
      <trkpt lat="48.75655" lon="2.21427">
        <ele>106.4</ele>
        <time>2022-02-08T14:11:47Z</time>
      </trkpt>
      <trkpt lat="48.75647" lon="2.21427">
        <ele>105.2</ele>
        <time>2022-02-08T14:12:03Z</time>
      </trkpt>
      <trkpt lat="48.75641" lon="2.21427">
        <ele>104.3</ele>
        <time>2022-02-08T14:12:07Z</time>
      </trkpt>
      <trkpt lat="48.75633" lon="2.21423">
        <ele>102.9</ele>
        <time>2022-02-08T14:12:12Z</time>
      </trkpt>
      <trkpt lat="48.75627" lon="2.2142">
        <ele>101.9</ele>
        <time>2022-02-08T14:12:19Z</time>
      </trkpt>
      <trkpt lat="48.7562" lon="2.21415">
        <ele>100.7</ele>
        <time>2022-02-08T14:12:28Z</time>
      </trkpt>
      <trkpt lat="48.75614" lon="2.21411">
        <ele>99.7</ele>
        <time>2022-02-08T14:12:32Z</time>
      </trkpt>
      <trkpt lat="48.75607" lon="2.21408">
        <ele>98.6</ele>
        <time>2022-02-08T14:12:37Z</time>
      </trkpt>
      <trkpt lat="48.75601" lon="2.21405">
        <ele>97.7</ele>
        <time>2022-02-08T14:12:42Z</time>
      </trkpt>
      <trkpt lat="48.75594" lon="2.21404">
        <ele>96.7</ele>
        <time>2022-02-08T14:12:49Z</time>
      </trkpt>
      <trkpt lat="48.75588" lon="2.21409">
        <ele>95.8</ele>
        <time>2022-02-08T14:13:00Z</time>
      </trkpt>
      <trkpt lat="48.75581" lon="2.21411">
        <ele>94.8</ele>
        <time>2022-02-08T14:13:07Z</time>
      </trkpt>
      <trkpt lat="48.75575" lon="2.21415">
        <ele>94.1</ele>
        <time>2022-02-08T14:13:12Z</time>
      </trkpt>
      <trkpt lat="48.75568" lon="2.2142">
        <ele>93.5</ele>
        <time>2022-02-08T14:13:18Z</time>
      </trkpt>
      <trkpt lat="48.7556" lon="2.21424">
        <ele>92.7</ele>
        <time>2022-02-08T14:13:24Z</time>
      </trkpt>
      <trkpt lat="48.75552" lon="2.21425">
        <ele>91.9</ele>
        <time>2022-02-08T14:13:30Z</time>
      </trkpt>
      <trkpt lat="48.75544" lon="2.21424">
        <ele>91</ele>
        <time>2022-02-08T14:13:36Z</time>
      </trkpt>
      <trkpt lat="48.75536" lon="2.21424">
        <ele>90.1</ele>
        <time>2022-02-08T14:13:42Z</time>
      </trkpt>
      <trkpt lat="48.75528" lon="2.21427">
        <ele>89.3</ele>
        <time>2022-02-08T14:13:48Z</time>
      </trkpt>
      <trkpt lat="48.7552" lon="2.21422">
        <ele>88.3</ele>
        <time>2022-02-08T14:14:06Z</time>
      </trkpt>
      <trkpt lat="48.75514" lon="2.21415">
        <ele>87.6</ele>
        <time>2022-02-08T14:14:14Z</time>
      </trkpt>
      <trkpt lat="48.75508" lon="2.21408">
        <ele>87.2</ele>
        <time>2022-02-08T14:14:19Z</time>
      </trkpt>
      <trkpt lat="48.75505" lon="2.21396">
        <ele>87.3</ele>
        <time>2022-02-08T14:14:25Z</time>
      </trkpt>
      <trkpt lat="48.755" lon="2.21389">
        <ele>87</ele>
        <time>2022-02-08T14:14:30Z</time>
      </trkpt>
      <trkpt lat="48.75496" lon="2.21381">
        <ele>86.9</ele>
        <time>2022-02-08T14:14:36Z</time>
      </trkpt>
      <trkpt lat="48.7549" lon="2.21373">
        <ele>86.6</ele>
        <time>2022-02-08T14:14:43Z</time>
      </trkpt>
      <trkpt lat="48.75485" lon="2.21366">
        <ele>86.3</ele>
        <time>2022-02-08T14:14:48Z</time>
      </trkpt>
      <trkpt lat="48.75479" lon="2.2136">
        <ele>85.9</ele>
        <time>2022-02-08T14:14:54Z</time>
      </trkpt>
      <trkpt lat="48.75473" lon="2.21354">
        <ele>85.5</ele>
        <time>2022-02-08T14:15:02Z</time>
      </trkpt>
      <trkpt lat="48.75468" lon="2.21344">
        <ele>85.3</ele>
        <time>2022-02-08T14:15:08Z</time>
      </trkpt>
      <trkpt lat="48.75461" lon="2.21338">
        <ele>84.7</ele>
        <time>2022-02-08T14:15:13Z</time>
      </trkpt>
      <trkpt lat="48.75454" lon="2.21339">
        <ele>83.9</ele>
        <time>2022-02-08T14:15:18Z</time>
      </trkpt>
      <trkpt lat="48.75448" lon="2.21346">
        <ele>83.1</ele>
        <time>2022-02-08T14:15:25Z</time>
      </trkpt>
      <trkpt lat="48.75442" lon="2.21353">
        <ele>82.4</ele>
        <time>2022-02-08T14:15:34Z</time>
      </trkpt>
      <trkpt lat="48.75434" lon="2.21355">
        <ele>81.5</ele>
        <time>2022-02-08T14:15:40Z</time>
      </trkpt>
      <trkpt lat="48.75425" lon="2.21357">
        <ele>80.6</ele>
        <time>2022-02-08T14:15:45Z</time>
      </trkpt>
      <trkpt lat="48.75418" lon="2.21355">
        <ele>79.9</ele>
        <time>2022-02-08T14:15:51Z</time>
      </trkpt>
      <trkpt lat="48.75408" lon="2.21351">
        <ele>79.4</ele>
        <time>2022-02-08T14:15:57Z</time>
      </trkpt>
      <trkpt lat="48.75403" lon="2.21345">
        <ele>79.2</ele>
        <time>2022-02-08T14:16:03Z</time>
      </trkpt>
      <trkpt lat="48.75395" lon="2.21343">
        <ele>78.9</ele>
        <time>2022-02-08T14:16:10Z</time>
      </trkpt>
      <trkpt lat="48.75388" lon="2.2134">
        <ele>78.6</ele>
        <time>2022-02-08T14:16:15Z</time>
      </trkpt>
      <trkpt lat="48.75381" lon="2.21337">
        <ele>78.3</ele>
        <time>2022-02-08T14:16:21Z</time>
      </trkpt>
      <trkpt lat="48.75375" lon="2.21332">
        <ele>78</ele>
        <time>2022-02-08T14:16:29Z</time>
      </trkpt>
      <trkpt lat="48.75374" lon="2.21321">
        <ele>77.9</ele>
        <time>2022-02-08T14:17:19Z</time>
      </trkpt>
      <trkpt lat="48.75369" lon="2.21314">
        <ele>77.6</ele>
        <time>2022-02-08T14:17:27Z</time>
      </trkpt>
      <trkpt lat="48.75362" lon="2.21308">
        <ele>77.4</ele>
        <time>2022-02-08T14:17:33Z</time>
      </trkpt>
      <trkpt lat="48.75354" lon="2.21307">
        <ele>77.1</ele>
        <time>2022-02-08T14:17:39Z</time>
      </trkpt>
      <trkpt lat="48.75347" lon="2.21299">
        <ele>76.9</ele>
        <time>2022-02-08T14:17:45Z</time>
      </trkpt>
      <trkpt lat="48.7534" lon="2.21296">
        <ele>76.7</ele>
        <time>2022-02-08T14:17:52Z</time>
      </trkpt>
      <trkpt lat="48.75334" lon="2.21299">
        <ele>76.4</ele>
        <time>2022-02-08T14:17:57Z</time>
      </trkpt>
      <trkpt lat="48.75329" lon="2.2129">
        <ele>76.6</ele>
        <time>2022-02-08T14:18:38Z</time>
      </trkpt>
      <trkpt lat="48.75331" lon="2.2128">
        <ele>76.7</ele>
        <time>2022-02-08T14:18:45Z</time>
      </trkpt>
      <trkpt lat="48.75327" lon="2.21289">
        <ele>76.7</ele>
        <time>2022-02-08T14:19:37Z</time>
      </trkpt>
      <trkpt lat="48.75326" lon="2.21298">
        <ele>76.6</ele>
        <time>2022-02-08T14:19:45Z</time>
      </trkpt>
      <trkpt lat="48.7532" lon="2.213">
        <ele>76.7</ele>
        <time>2022-02-08T14:19:51Z</time>
      </trkpt>
      <trkpt lat="48.75312" lon="2.21297">
        <ele>76.9</ele>
        <time>2022-02-08T14:19:57Z</time>
      </trkpt>
      <trkpt lat="48.75311" lon="2.21307">
        <ele>76.9</ele>
        <time>2022-02-08T14:20:06Z</time>
      </trkpt>
      <trkpt lat="48.75312" lon="2.21319">
        <ele>76.7</ele>
        <time>2022-02-08T14:20:12Z</time>
      </trkpt>
      <trkpt lat="48.75309" lon="2.21328">
        <ele>76.6</ele>
        <time>2022-02-08T14:20:16Z</time>
      </trkpt>
      <trkpt lat="48.75309" lon="2.21339">
        <ele>76.6</ele>
        <time>2022-02-08T14:20:21Z</time>
      </trkpt>
      <trkpt lat="48.75308" lon="2.21349">
        <ele>76.6</ele>
        <time>2022-02-08T14:20:27Z</time>
      </trkpt>
      <trkpt lat="48.75306" lon="2.2136">
        <ele>76.7</ele>
        <time>2022-02-08T14:20:33Z</time>
      </trkpt>
      <trkpt lat="48.75302" lon="2.21373">
        <ele>76.8</ele>
        <time>2022-02-08T14:20:39Z</time>
      </trkpt>
      <trkpt lat="48.75299" lon="2.21383">
        <ele>76.8</ele>
        <time>2022-02-08T14:20:45Z</time>
      </trkpt>
      <trkpt lat="48.75296" lon="2.21394">
        <ele>76.9</ele>
        <time>2022-02-08T14:20:51Z</time>
      </trkpt>
      <trkpt lat="48.75293" lon="2.21406">
        <ele>77</ele>
        <time>2022-02-08T14:20:57Z</time>
      </trkpt>
      <trkpt lat="48.7529" lon="2.21417">
        <ele>77</ele>
        <time>2022-02-08T14:21:03Z</time>
      </trkpt>
      <trkpt lat="48.75285" lon="2.21428">
        <ele>77.2</ele>
        <time>2022-02-08T14:21:09Z</time>
      </trkpt>
      <trkpt lat="48.75282" lon="2.21437">
        <ele>77.3</ele>
        <time>2022-02-08T14:21:15Z</time>
      </trkpt>
      <trkpt lat="48.75288" lon="2.21444">
        <ele>77.2</ele>
        <time>2022-02-08T14:21:29Z</time>
      </trkpt>
      <trkpt lat="48.75294" lon="2.21447">
        <ele>77.1</ele>
        <time>2022-02-08T14:21:36Z</time>
      </trkpt>
      <trkpt lat="48.75301" lon="2.2145">
        <ele>77</ele>
        <time>2022-02-08T14:21:48Z</time>
      </trkpt>
      <trkpt lat="48.75307" lon="2.21451">
        <ele>76.9</ele>
        <time>2022-02-08T14:21:57Z</time>
      </trkpt>
      <trkpt lat="48.75302" lon="2.21444">
        <ele>77</ele>
        <time>2022-02-08T14:22:12Z</time>
      </trkpt>
      <trkpt lat="48.75296" lon="2.2144">
        <ele>77.1</ele>
        <time>2022-02-08T14:22:18Z</time>
      </trkpt>
      <trkpt lat="48.75289" lon="2.21439">
        <ele>77.2</ele>
        <time>2022-02-08T14:22:24Z</time>
      </trkpt>
      <trkpt lat="48.75283" lon="2.21444">
        <ele>77.3</ele>
        <time>2022-02-08T14:22:31Z</time>
      </trkpt>
      <trkpt lat="48.75278" lon="2.21451">
        <ele>77.5</ele>
        <time>2022-02-08T14:22:36Z</time>
      </trkpt>
      <trkpt lat="48.75274" lon="2.21462">
        <ele>77.6</ele>
        <time>2022-02-08T14:22:43Z</time>
      </trkpt>
      <trkpt lat="48.75273" lon="2.21473">
        <ele>77.6</ele>
        <time>2022-02-08T14:22:50Z</time>
      </trkpt>
      <trkpt lat="48.75266" lon="2.21472">
        <ele>77.7</ele>
        <time>2022-02-08T14:22:57Z</time>
      </trkpt>
      <trkpt lat="48.75264" lon="2.21462">
        <ele>77.8</ele>
        <time>2022-02-08T14:23:04Z</time>
      </trkpt>
      <trkpt lat="48.75258" lon="2.21469">
        <ele>77.9</ele>
        <time>2022-02-08T14:23:15Z</time>
      </trkpt>
      <trkpt lat="48.75251" lon="2.21469">
        <ele>78</ele>
        <time>2022-02-08T14:23:21Z</time>
      </trkpt>
      <trkpt lat="48.75244" lon="2.21469">
        <ele>78.2</ele>
        <time>2022-02-08T14:23:29Z</time>
      </trkpt>
      <trkpt lat="48.75238" lon="2.21477">
        <ele>78.4</ele>
        <time>2022-02-08T14:23:35Z</time>
      </trkpt>
      <trkpt lat="48.75238" lon="2.21487">
        <ele>78.3</ele>
        <time>2022-02-08T14:23:41Z</time>
      </trkpt>
      <trkpt lat="48.75233" lon="2.21494">
        <ele>78.4</ele>
        <time>2022-02-08T14:23:46Z</time>
      </trkpt>
      <trkpt lat="48.75228" lon="2.21505">
        <ele>78.5</ele>
        <time>2022-02-08T14:23:51Z</time>
      </trkpt>
      <trkpt lat="48.75224" lon="2.21515">
        <ele>78.4</ele>
        <time>2022-02-08T14:23:58Z</time>
      </trkpt>
      <trkpt lat="48.75218" lon="2.21523">
        <ele>78.5</ele>
        <time>2022-02-08T14:24:05Z</time>
      </trkpt>
      <trkpt lat="48.75214" lon="2.21531">
        <ele>78.5</ele>
        <time>2022-02-08T14:24:10Z</time>
      </trkpt>
      <trkpt lat="48.75209" lon="2.2154">
        <ele>78.5</ele>
        <time>2022-02-08T14:24:16Z</time>
      </trkpt>
      <trkpt lat="48.75206" lon="2.2155">
        <ele>78.5</ele>
        <time>2022-02-08T14:24:23Z</time>
      </trkpt>
      <trkpt lat="48.75202" lon="2.21558">
        <ele>78.5</ele>
        <time>2022-02-08T14:24:29Z</time>
      </trkpt>
      <trkpt lat="48.75197" lon="2.21565">
        <ele>78.5</ele>
        <time>2022-02-08T14:24:37Z</time>
      </trkpt>
      <trkpt lat="48.75191" lon="2.2157">
        <ele>78.6</ele>
        <time>2022-02-08T14:24:44Z</time>
      </trkpt>
      <trkpt lat="48.75184" lon="2.21575">
        <ele>78.7</ele>
        <time>2022-02-08T14:24:49Z</time>
      </trkpt>
      <trkpt lat="48.75178" lon="2.2158">
        <ele>78.8</ele>
        <time>2022-02-08T14:24:54Z</time>
      </trkpt>
      <trkpt lat="48.75171" lon="2.21587">
        <ele>78.8</ele>
        <time>2022-02-08T14:24:59Z</time>
      </trkpt>
      <trkpt lat="48.75165" lon="2.21593">
        <ele>78.7</ele>
        <time>2022-02-08T14:25:05Z</time>
      </trkpt>
      <trkpt lat="48.7516" lon="2.21601">
        <ele>78.7</ele>
        <time>2022-02-08T14:25:11Z</time>
      </trkpt>
      <trkpt lat="48.75157" lon="2.2161">
        <ele>78.6</ele>
        <time>2022-02-08T14:25:25Z</time>
      </trkpt>
      <trkpt lat="48.75151" lon="2.21616">
        <ele>78.7</ele>
        <time>2022-02-08T14:25:31Z</time>
      </trkpt>
      <trkpt lat="48.75146" lon="2.21623">
        <ele>78.8</ele>
        <time>2022-02-08T14:25:42Z</time>
      </trkpt>
      <trkpt lat="48.75145" lon="2.21612">
        <ele>79.2</ele>
        <time>2022-02-08T14:28:16Z</time>
      </trkpt>
      <trkpt lat="48.75143" lon="2.21601">
        <ele>79.6</ele>
        <time>2022-02-08T14:28:21Z</time>
      </trkpt>
      <trkpt lat="48.75139" lon="2.21592">
        <ele>80.1</ele>
        <time>2022-02-08T14:28:27Z</time>
      </trkpt>
      <trkpt lat="48.75133" lon="2.21589">
        <ele>80.5</ele>
        <time>2022-02-08T14:28:33Z</time>
      </trkpt>
    </trkseg>
  </trk>
</gpx>